<?xml version="1.0" encoding="UTF-8" standalone="no" ?>
<gpx xmlns="http://www.topografix.com/GPX/1/1" xmlns:xsi="http://www.w3.org/2001/XMLSchema-instance" xsi:schemaLocation="http://www.topografix.com/GPX/1/1 http://www.topografix.com/GPX/1/1/gpx.xsd" version="1.1" creator="VisuGPX - https://www.visugpx.com">
  <metadata>
    <name>raid beaufortain</name>
    <desc><![CDATA[tour du beaufortain en 4j]]></desc>
  </metadata>
  <trk>
    <name><![CDATA[Tracé 003]]></name>
    <trkseg>
      <trkpt lat="45.63944" lon="6.55049">
        <ele>2317.88</ele>
        <time>2015-03-15T10:14:54Z</time>
      </trkpt>
      <trkpt lat="45.63941" lon="6.55046">
        <ele>2317.88</ele>
        <time>2015-03-15T10:15:24Z</time>
      </trkpt>
      <trkpt lat="45.63938" lon="6.55037">
        <ele>2322.2</ele>
        <time>2015-03-15T10:15:54Z</time>
      </trkpt>
      <trkpt lat="45.63926" lon="6.55031">
        <ele>2328.45</ele>
        <time>2015-03-15T10:16:24Z</time>
      </trkpt>
      <trkpt lat="45.63915" lon="6.55034">
        <ele>2332.3</ele>
        <time>2015-03-15T10:16:54Z</time>
      </trkpt>
      <trkpt lat="45.63902" lon="6.55042">
        <ele>2335.66</ele>
        <time>2015-03-15T10:17:24Z</time>
      </trkpt>
      <trkpt lat="45.63888" lon="6.55035">
        <ele>2340.95</ele>
        <time>2015-03-15T10:17:54Z</time>
      </trkpt>
      <trkpt lat="45.63876" lon="6.5503">
        <ele>2346.72</ele>
        <time>2015-03-15T10:18:24Z</time>
      </trkpt>
      <trkpt lat="45.63864" lon="6.55023">
        <ele>2350.08</ele>
        <time>2015-03-15T10:18:54Z</time>
      </trkpt>
      <trkpt lat="45.63864" lon="6.55024">
        <ele>2346.72</ele>
        <time>2015-03-15T10:19:24Z</time>
      </trkpt>
      <trkpt lat="45.63863" lon="6.55021">
        <ele>2348.64</ele>
        <time>2015-03-15T10:19:54Z</time>
      </trkpt>
      <trkpt lat="45.6386" lon="6.55021">
        <ele>2347.2</ele>
        <time>2015-03-15T10:20:24Z</time>
      </trkpt>
      <trkpt lat="45.6386" lon="6.55021">
        <ele>2346.23</ele>
        <time>2015-03-15T10:20:54Z</time>
      </trkpt>
      <trkpt lat="45.63861" lon="6.5502">
        <ele>2346.23</ele>
        <time>2015-03-15T10:21:24Z</time>
      </trkpt>
      <trkpt lat="45.6386" lon="6.55021">
        <ele>2346.23</ele>
        <time>2015-03-15T10:21:54Z</time>
      </trkpt>
      <trkpt lat="45.6386" lon="6.55022">
        <ele>2347.68</ele>
        <time>2015-03-15T10:22:24Z</time>
      </trkpt>
      <trkpt lat="45.6386" lon="6.55024">
        <ele>2346.23</ele>
        <time>2015-03-15T10:22:54Z</time>
      </trkpt>
      <trkpt lat="45.6386" lon="6.55024">
        <ele>2346.72</ele>
        <time>2015-03-15T10:23:24Z</time>
      </trkpt>
      <trkpt lat="45.63861" lon="6.55022">
        <ele>2346.72</ele>
        <time>2015-03-15T10:23:54Z</time>
      </trkpt>
      <trkpt lat="45.63863" lon="6.55021">
        <ele>2346.72</ele>
        <time>2015-03-15T10:24:24Z</time>
      </trkpt>
      <trkpt lat="45.63862" lon="6.55022">
        <ele>2346.23</ele>
        <time>2015-03-15T10:24:54Z</time>
      </trkpt>
      <trkpt lat="45.63862" lon="6.55023">
        <ele>2345.75</ele>
        <time>2015-03-15T10:25:24Z</time>
      </trkpt>
      <trkpt lat="45.6386" lon="6.55021">
        <ele>2345.75</ele>
        <time>2015-03-15T10:25:54Z</time>
      </trkpt>
      <trkpt lat="45.63858" lon="6.55021">
        <ele>2347.2</ele>
        <time>2015-03-15T10:26:24Z</time>
      </trkpt>
      <trkpt lat="45.63859" lon="6.55023">
        <ele>2347.68</ele>
        <time>2015-03-15T10:26:54Z</time>
      </trkpt>
      <trkpt lat="45.63858" lon="6.55023">
        <ele>2346.23</ele>
        <time>2015-03-15T10:27:24Z</time>
      </trkpt>
      <trkpt lat="45.63859" lon="6.55022">
        <ele>2346.23</ele>
        <time>2015-03-15T10:27:54Z</time>
      </trkpt>
      <trkpt lat="45.63859" lon="6.55022">
        <ele>2346.23</ele>
        <time>2015-03-15T10:28:24Z</time>
      </trkpt>
      <trkpt lat="45.6386" lon="6.55022">
        <ele>2348.64</ele>
        <time>2015-03-15T10:28:54Z</time>
      </trkpt>
      <trkpt lat="45.6386" lon="6.55025">
        <ele>2346.72</ele>
        <time>2015-03-15T10:29:24Z</time>
      </trkpt>
      <trkpt lat="45.6386" lon="6.55024">
        <ele>2346.72</ele>
        <time>2015-03-15T10:29:54Z</time>
      </trkpt>
      <trkpt lat="45.6386" lon="6.55022">
        <ele>2346.72</ele>
        <time>2015-03-15T10:30:24Z</time>
      </trkpt>
      <trkpt lat="45.6386" lon="6.55021">
        <ele>2349.12</ele>
        <time>2015-03-15T10:30:54Z</time>
      </trkpt>
      <trkpt lat="45.6386" lon="6.55022">
        <ele>2346.72</ele>
        <time>2015-03-15T10:31:24Z</time>
      </trkpt>
      <trkpt lat="45.63861" lon="6.5502">
        <ele>2347.2</ele>
        <time>2015-03-15T10:31:54Z</time>
      </trkpt>
      <trkpt lat="45.63862" lon="6.5502">
        <ele>2348.16</ele>
        <time>2015-03-15T10:32:24Z</time>
      </trkpt>
      <trkpt lat="45.63862" lon="6.55021">
        <ele>2347.68</ele>
        <time>2015-03-15T10:32:54Z</time>
      </trkpt>
      <trkpt lat="45.63859" lon="6.55029">
        <ele>2349.6</ele>
        <time>2015-03-15T10:33:24Z</time>
      </trkpt>
      <trkpt lat="45.63849" lon="6.55055">
        <ele>2353.93</ele>
        <time>2015-03-15T10:33:54Z</time>
      </trkpt>
      <trkpt lat="45.6383" lon="6.55074">
        <ele>2357.29</ele>
        <time>2015-03-15T10:34:24Z</time>
      </trkpt>
      <trkpt lat="45.63813" lon="6.55097">
        <ele>2360.65</ele>
        <time>2015-03-15T10:34:54Z</time>
      </trkpt>
      <trkpt lat="45.63792" lon="6.55102">
        <ele>2361.14</ele>
        <time>2015-03-15T10:35:24Z</time>
      </trkpt>
      <trkpt lat="45.63769" lon="6.55115">
        <ele>2362.1</ele>
        <time>2015-03-15T10:35:54Z</time>
      </trkpt>
      <trkpt lat="45.63747" lon="6.55125">
        <ele>2363.54</ele>
        <time>2015-03-15T10:36:24Z</time>
      </trkpt>
      <trkpt lat="45.63726" lon="6.55121">
        <ele>2365.46</ele>
        <time>2015-03-15T10:36:54Z</time>
      </trkpt>
      <trkpt lat="45.63705" lon="6.55113">
        <ele>2368.83</ele>
        <time>2015-03-15T10:37:24Z</time>
      </trkpt>
      <trkpt lat="45.6369" lon="6.55107">
        <ele>2373.63</ele>
        <time>2015-03-15T10:37:54Z</time>
      </trkpt>
      <trkpt lat="45.63678" lon="6.55107">
        <ele>2375.55</ele>
        <time>2015-03-15T10:38:24Z</time>
      </trkpt>
      <trkpt lat="45.63676" lon="6.55108">
        <ele>2375.55</ele>
        <time>2015-03-15T10:38:54Z</time>
      </trkpt>
      <trkpt lat="45.63674" lon="6.55112">
        <ele>2376.52</ele>
        <time>2015-03-15T10:39:24Z</time>
      </trkpt>
      <trkpt lat="45.63672" lon="6.55112">
        <ele>2376.52</ele>
        <time>2015-03-15T10:39:54Z</time>
      </trkpt>
      <trkpt lat="45.63672" lon="6.55115">
        <ele>2376.52</ele>
        <time>2015-03-15T10:40:24Z</time>
      </trkpt>
      <trkpt lat="45.63671" lon="6.55116">
        <ele>2375.55</ele>
        <time>2015-03-15T10:40:54Z</time>
      </trkpt>
      <trkpt lat="45.63672" lon="6.55114">
        <ele>2375.55</ele>
        <time>2015-03-15T10:41:24Z</time>
      </trkpt>
      <trkpt lat="45.63673" lon="6.55114">
        <ele>2375.55</ele>
        <time>2015-03-15T10:41:54Z</time>
      </trkpt>
      <trkpt lat="45.63673" lon="6.55114">
        <ele>2375.55</ele>
        <time>2015-03-15T10:42:24Z</time>
      </trkpt>
      <trkpt lat="45.63673" lon="6.55109">
        <ele>2375.55</ele>
        <time>2015-03-15T10:42:54Z</time>
      </trkpt>
      <trkpt lat="45.63674" lon="6.55109">
        <ele>2376.04</ele>
        <time>2015-03-15T10:43:24Z</time>
      </trkpt>
      <trkpt lat="45.63676" lon="6.55108">
        <ele>2377</ele>
        <time>2015-03-15T10:43:54Z</time>
      </trkpt>
      <trkpt lat="45.63678" lon="6.55106">
        <ele>2377</ele>
        <time>2015-03-15T10:44:24Z</time>
      </trkpt>
      <trkpt lat="45.63678" lon="6.55105">
        <ele>2378.92</ele>
        <time>2015-03-15T10:44:54Z</time>
      </trkpt>
      <trkpt lat="45.63678" lon="6.55108">
        <ele>2377</ele>
        <time>2015-03-15T10:45:24Z</time>
      </trkpt>
      <trkpt lat="45.63652" lon="6.55092">
        <ele>2375.07</ele>
        <time>2015-03-15T10:45:54Z</time>
      </trkpt>
      <trkpt lat="45.63633" lon="6.55072">
        <ele>2378.44</ele>
        <time>2015-03-15T10:46:24Z</time>
      </trkpt>
      <trkpt lat="45.63629" lon="6.55047">
        <ele>2384.21</ele>
        <time>2015-03-15T10:46:54Z</time>
      </trkpt>
      <trkpt lat="45.63624" lon="6.55043">
        <ele>2389.01</ele>
        <time>2015-03-15T10:47:24Z</time>
      </trkpt>
      <trkpt lat="45.63616" lon="6.55039">
        <ele>2393.82</ele>
        <time>2015-03-15T10:47:54Z</time>
      </trkpt>
      <trkpt lat="45.63608" lon="6.55042">
        <ele>2393.34</ele>
        <time>2015-03-15T10:48:24Z</time>
      </trkpt>
      <trkpt lat="45.6358" lon="6.5503">
        <ele>2391.42</ele>
        <time>2015-03-15T10:48:54Z</time>
      </trkpt>
      <trkpt lat="45.63556" lon="6.55017">
        <ele>2395.26</ele>
        <time>2015-03-15T10:49:24Z</time>
      </trkpt>
      <trkpt lat="45.63539" lon="6.55007">
        <ele>2399.11</ele>
        <time>2015-03-15T10:49:54Z</time>
      </trkpt>
      <trkpt lat="45.63523" lon="6.54996">
        <ele>2401.51</ele>
        <time>2015-03-15T10:50:24Z</time>
      </trkpt>
      <trkpt lat="45.63507" lon="6.54986">
        <ele>2403.91</ele>
        <time>2015-03-15T10:50:54Z</time>
      </trkpt>
      <trkpt lat="45.63488" lon="6.54977">
        <ele>2407.76</ele>
        <time>2015-03-15T10:51:24Z</time>
      </trkpt>
      <trkpt lat="45.63472" lon="6.54976">
        <ele>2411.12</ele>
        <time>2015-03-15T10:51:54Z</time>
      </trkpt>
      <trkpt lat="45.63466" lon="6.54968">
        <ele>2413.53</ele>
        <time>2015-03-15T10:52:24Z</time>
      </trkpt>
      <trkpt lat="45.63452" lon="6.54955">
        <ele>2414.49</ele>
        <time>2015-03-15T10:52:54Z</time>
      </trkpt>
      <trkpt lat="45.63432" lon="6.54941">
        <ele>2415.45</ele>
        <time>2015-03-15T10:53:24Z</time>
      </trkpt>
      <trkpt lat="45.63409" lon="6.54926">
        <ele>2416.89</ele>
        <time>2015-03-15T10:53:54Z</time>
      </trkpt>
      <trkpt lat="45.63389" lon="6.5491">
        <ele>2418.33</ele>
        <time>2015-03-15T10:54:24Z</time>
      </trkpt>
      <trkpt lat="45.63374" lon="6.54901">
        <ele>2423.14</ele>
        <time>2015-03-15T10:54:54Z</time>
      </trkpt>
      <trkpt lat="45.63358" lon="6.54895">
        <ele>2427.95</ele>
        <time>2015-03-15T10:55:24Z</time>
      </trkpt>
      <trkpt lat="45.63344" lon="6.54886">
        <ele>2431.31</ele>
        <time>2015-03-15T10:55:54Z</time>
      </trkpt>
      <trkpt lat="45.63329" lon="6.54869">
        <ele>2434.2</ele>
        <time>2015-03-15T10:56:24Z</time>
      </trkpt>
      <trkpt lat="45.63314" lon="6.54859">
        <ele>2437.08</ele>
        <time>2015-03-15T10:56:54Z</time>
      </trkpt>
      <trkpt lat="45.63301" lon="6.54847">
        <ele>2440.92</ele>
        <time>2015-03-15T10:57:24Z</time>
      </trkpt>
      <trkpt lat="45.63287" lon="6.54835">
        <ele>2444.77</ele>
        <time>2015-03-15T10:57:54Z</time>
      </trkpt>
      <trkpt lat="45.63275" lon="6.54824">
        <ele>2448.62</ele>
        <time>2015-03-15T10:58:24Z</time>
      </trkpt>
      <trkpt lat="45.6326" lon="6.54817">
        <ele>2452.46</ele>
        <time>2015-03-15T10:58:54Z</time>
      </trkpt>
      <trkpt lat="45.63245" lon="6.54812">
        <ele>2456.31</ele>
        <time>2015-03-15T10:59:24Z</time>
      </trkpt>
      <trkpt lat="45.6323" lon="6.54818">
        <ele>2459.19</ele>
        <time>2015-03-15T10:59:54Z</time>
      </trkpt>
      <trkpt lat="45.63223" lon="6.54822">
        <ele>2459.67</ele>
        <time>2015-03-15T11:00:24Z</time>
      </trkpt>
      <trkpt lat="45.63224" lon="6.54821">
        <ele>2460.63</ele>
        <time>2015-03-15T11:00:54Z</time>
      </trkpt>
      <trkpt lat="45.63225" lon="6.54822">
        <ele>2460.63</ele>
        <time>2015-03-15T11:01:24Z</time>
      </trkpt>
      <trkpt lat="45.63211" lon="6.54824">
        <ele>2460.63</ele>
        <time>2015-03-15T11:01:54Z</time>
      </trkpt>
      <trkpt lat="45.63194" lon="6.54834">
        <ele>2462.07</ele>
        <time>2015-03-15T11:02:24Z</time>
      </trkpt>
      <trkpt lat="45.63168" lon="6.54839">
        <ele>2462.07</ele>
        <time>2015-03-15T11:02:54Z</time>
      </trkpt>
      <trkpt lat="45.63146" lon="6.54833">
        <ele>2464.48</ele>
        <time>2015-03-15T11:03:24Z</time>
      </trkpt>
      <trkpt lat="45.63122" lon="6.54826">
        <ele>2465.92</ele>
        <time>2015-03-15T11:03:54Z</time>
      </trkpt>
      <trkpt lat="45.63099" lon="6.54826">
        <ele>2467.36</ele>
        <time>2015-03-15T11:04:24Z</time>
      </trkpt>
      <trkpt lat="45.63076" lon="6.54826">
        <ele>2470.24</ele>
        <time>2015-03-15T11:04:54Z</time>
      </trkpt>
      <trkpt lat="45.63055" lon="6.54815">
        <ele>2471.69</ele>
        <time>2015-03-15T11:05:24Z</time>
      </trkpt>
      <trkpt lat="45.63029" lon="6.54811">
        <ele>2471.69</ele>
        <time>2015-03-15T11:05:54Z</time>
      </trkpt>
      <trkpt lat="45.62995" lon="6.54819">
        <ele>2468.8</ele>
        <time>2015-03-15T11:06:24Z</time>
      </trkpt>
      <trkpt lat="45.62978" lon="6.54834">
        <ele>2469.28</ele>
        <time>2015-03-15T11:06:54Z</time>
      </trkpt>
      <trkpt lat="45.62965" lon="6.54843">
        <ele>2463.52</ele>
        <time>2015-03-15T11:07:24Z</time>
      </trkpt>
      <trkpt lat="45.62975" lon="6.54837">
        <ele>2466.4</ele>
        <time>2015-03-15T11:07:54Z</time>
      </trkpt>
      <trkpt lat="45.62976" lon="6.54827">
        <ele>2466.88</ele>
        <time>2015-03-15T11:08:24Z</time>
      </trkpt>
      <trkpt lat="45.62977" lon="6.54828">
        <ele>2466.88</ele>
        <time>2015-03-15T11:08:54Z</time>
      </trkpt>
      <trkpt lat="45.62977" lon="6.54828">
        <ele>2466.88</ele>
        <time>2015-03-15T11:09:24Z</time>
      </trkpt>
      <trkpt lat="45.62976" lon="6.54829">
        <ele>2464.48</ele>
        <time>2015-03-15T11:09:54Z</time>
      </trkpt>
      <trkpt lat="45.62977" lon="6.54828">
        <ele>2466.88</ele>
        <time>2015-03-15T11:10:24Z</time>
      </trkpt>
      <trkpt lat="45.62978" lon="6.54829">
        <ele>2466.88</ele>
        <time>2015-03-15T11:10:54Z</time>
      </trkpt>
      <trkpt lat="45.62978" lon="6.54828">
        <ele>2466.88</ele>
        <time>2015-03-15T11:11:24Z</time>
      </trkpt>
      <trkpt lat="45.62977" lon="6.54826">
        <ele>2468.32</ele>
        <time>2015-03-15T11:11:54Z</time>
      </trkpt>
      <trkpt lat="45.62978" lon="6.54828">
        <ele>2468.32</ele>
        <time>2015-03-15T11:12:24Z</time>
      </trkpt>
      <trkpt lat="45.62978" lon="6.54827">
        <ele>2468.32</ele>
        <time>2015-03-15T11:12:54Z</time>
      </trkpt>
      <trkpt lat="45.62978" lon="6.54827">
        <ele>2462.07</ele>
        <time>2015-03-15T11:13:24Z</time>
      </trkpt>
      <trkpt lat="45.62977" lon="6.54828">
        <ele>2468.32</ele>
        <time>2015-03-15T11:13:54Z</time>
      </trkpt>
      <trkpt lat="45.62978" lon="6.54827">
        <ele>2468.32</ele>
        <time>2015-03-15T11:14:24Z</time>
      </trkpt>
      <trkpt lat="45.62966" lon="6.54787">
        <ele>2461.59</ele>
        <time>2015-03-15T11:14:54Z</time>
      </trkpt>
      <trkpt lat="45.62897" lon="6.54797">
        <ele>2449.1</ele>
        <time>2015-03-15T11:15:24Z</time>
      </trkpt>
      <trkpt lat="45.62856" lon="6.54834">
        <ele>2433.23</ele>
        <time>2015-03-15T11:15:54Z</time>
      </trkpt>
      <trkpt lat="45.62857" lon="6.54836">
        <ele>2432.75</ele>
        <time>2015-03-15T11:16:24Z</time>
      </trkpt>
      <trkpt lat="45.62882" lon="6.54921">
        <ele>2402.95</ele>
        <time>2015-03-15T11:16:54Z</time>
      </trkpt>
      <trkpt lat="45.6286" lon="6.5496">
        <ele>2387.57</ele>
        <time>2015-03-15T11:17:24Z</time>
      </trkpt>
      <trkpt lat="45.6291" lon="6.55024">
        <ele>2368.83</ele>
        <time>2015-03-15T11:17:54Z</time>
      </trkpt>
      <trkpt lat="45.62883" lon="6.55089">
        <ele>2343.35</ele>
        <time>2015-03-15T11:18:24Z</time>
      </trkpt>
      <trkpt lat="45.62883" lon="6.55092">
        <ele>2344.79</ele>
        <time>2015-03-15T11:18:54Z</time>
      </trkpt>
      <trkpt lat="45.62829" lon="6.55163">
        <ele>2322.2</ele>
        <time>2015-03-15T11:19:24Z</time>
      </trkpt>
      <trkpt lat="45.62756" lon="6.55147">
        <ele>2302.01</ele>
        <time>2015-03-15T11:19:54Z</time>
      </trkpt>
      <trkpt lat="45.62746" lon="6.55139">
        <ele>2299.61</ele>
        <time>2015-03-15T11:20:24Z</time>
      </trkpt>
      <trkpt lat="45.62754" lon="6.55162">
        <ele>2294.32</ele>
        <time>2015-03-15T11:20:54Z</time>
      </trkpt>
      <trkpt lat="45.62676" lon="6.55168">
        <ele>2263.56</ele>
        <time>2015-03-15T11:21:24Z</time>
      </trkpt>
      <trkpt lat="45.62663" lon="6.55217">
        <ele>2237.61</ele>
        <time>2015-03-15T11:21:54Z</time>
      </trkpt>
      <trkpt lat="45.62618" lon="6.55258">
        <ele>2215.01</ele>
        <time>2015-03-15T11:22:24Z</time>
      </trkpt>
      <trkpt lat="45.62607" lon="6.55258">
        <ele>2208.77</ele>
        <time>2015-03-15T11:22:54Z</time>
      </trkpt>
      <trkpt lat="45.62606" lon="6.55258">
        <ele>2208.77</ele>
        <time>2015-03-15T11:23:24Z</time>
      </trkpt>
      <trkpt lat="45.62562" lon="6.55247">
        <ele>2192.42</ele>
        <time>2015-03-15T11:23:54Z</time>
      </trkpt>
      <trkpt lat="45.62546" lon="6.55254">
        <ele>2178</ele>
        <time>2015-03-15T11:24:24Z</time>
      </trkpt>
      <trkpt lat="45.62525" lon="6.553">
        <ele>2169.35</ele>
        <time>2015-03-15T11:24:54Z</time>
      </trkpt>
      <trkpt lat="45.62481" lon="6.55396">
        <ele>2138.59</ele>
        <time>2015-03-15T11:25:24Z</time>
      </trkpt>
      <trkpt lat="45.62429" lon="6.55476">
        <ele>2125.13</ele>
        <time>2015-03-15T11:25:54Z</time>
      </trkpt>
      <trkpt lat="45.62428" lon="6.55476">
        <ele>2122.73</ele>
        <time>2015-03-15T11:26:24Z</time>
      </trkpt>
      <trkpt lat="45.62428" lon="6.55475">
        <ele>2122.25</ele>
        <time>2015-03-15T11:26:54Z</time>
      </trkpt>
      <trkpt lat="45.62429" lon="6.55476">
        <ele>2121.77</ele>
        <time>2015-03-15T11:27:24Z</time>
      </trkpt>
      <trkpt lat="45.62427" lon="6.55476">
        <ele>2120.81</ele>
        <time>2015-03-15T11:27:54Z</time>
      </trkpt>
      <trkpt lat="45.62428" lon="6.55473">
        <ele>2120.81</ele>
        <time>2015-03-15T11:28:24Z</time>
      </trkpt>
      <trkpt lat="45.62427" lon="6.55473">
        <ele>2120.32</ele>
        <time>2015-03-15T11:28:54Z</time>
      </trkpt>
      <trkpt lat="45.62426" lon="6.55472">
        <ele>2120.32</ele>
        <time>2015-03-15T11:29:24Z</time>
      </trkpt>
      <trkpt lat="45.62427" lon="6.55473">
        <ele>2122.73</ele>
        <time>2015-03-15T11:29:54Z</time>
      </trkpt>
      <trkpt lat="45.62426" lon="6.55474">
        <ele>2123.21</ele>
        <time>2015-03-15T11:30:24Z</time>
      </trkpt>
      <trkpt lat="45.62427" lon="6.55473">
        <ele>2122.73</ele>
        <time>2015-03-15T11:30:54Z</time>
      </trkpt>
      <trkpt lat="45.62426" lon="6.55475">
        <ele>2124.17</ele>
        <time>2015-03-15T11:31:24Z</time>
      </trkpt>
      <trkpt lat="45.62431" lon="6.55466">
        <ele>2121.29</ele>
        <time>2015-03-15T11:31:54Z</time>
      </trkpt>
      <trkpt lat="45.6243" lon="6.55467">
        <ele>2122.73</ele>
        <time>2015-03-15T11:32:24Z</time>
      </trkpt>
      <trkpt lat="45.62431" lon="6.55466">
        <ele>2121.29</ele>
        <time>2015-03-15T11:32:54Z</time>
      </trkpt>
      <trkpt lat="45.62431" lon="6.55465">
        <ele>2120.81</ele>
        <time>2015-03-15T11:33:24Z</time>
      </trkpt>
      <trkpt lat="45.62432" lon="6.55464">
        <ele>2121.77</ele>
        <time>2015-03-15T11:33:54Z</time>
      </trkpt>
      <trkpt lat="45.62432" lon="6.55465">
        <ele>2121.77</ele>
        <time>2015-03-15T11:34:24Z</time>
      </trkpt>
      <trkpt lat="45.62431" lon="6.55465">
        <ele>2120.81</ele>
        <time>2015-03-15T11:34:54Z</time>
      </trkpt>
      <trkpt lat="45.62431" lon="6.55465">
        <ele>2120.81</ele>
        <time>2015-03-15T11:35:24Z</time>
      </trkpt>
      <trkpt lat="45.62432" lon="6.55465">
        <ele>2120.81</ele>
        <time>2015-03-15T11:35:54Z</time>
      </trkpt>
      <trkpt lat="45.62433" lon="6.55465">
        <ele>2121.77</ele>
        <time>2015-03-15T11:36:24Z</time>
      </trkpt>
      <trkpt lat="45.62429" lon="6.55478">
        <ele>2123.69</ele>
        <time>2015-03-15T11:36:54Z</time>
      </trkpt>
      <trkpt lat="45.6243" lon="6.555">
        <ele>2128.5</ele>
        <time>2015-03-15T11:37:24Z</time>
      </trkpt>
      <trkpt lat="45.6243" lon="6.55532">
        <ele>2130.9</ele>
        <time>2015-03-15T11:37:54Z</time>
      </trkpt>
      <trkpt lat="45.62429" lon="6.55565">
        <ele>2130.9</ele>
        <time>2015-03-15T11:38:24Z</time>
      </trkpt>
      <trkpt lat="45.62425" lon="6.55605">
        <ele>2127.53</ele>
        <time>2015-03-15T11:38:54Z</time>
      </trkpt>
      <trkpt lat="45.62422" lon="6.55652">
        <ele>2126.57</ele>
        <time>2015-03-15T11:39:24Z</time>
      </trkpt>
      <trkpt lat="45.62423" lon="6.55688">
        <ele>2127.53</ele>
        <time>2015-03-15T11:39:54Z</time>
      </trkpt>
      <trkpt lat="45.62423" lon="6.55722">
        <ele>2126.09</ele>
        <time>2015-03-15T11:40:24Z</time>
      </trkpt>
      <trkpt lat="45.62422" lon="6.55755">
        <ele>2124.65</ele>
        <time>2015-03-15T11:40:54Z</time>
      </trkpt>
      <trkpt lat="45.62417" lon="6.55781">
        <ele>2128.02</ele>
        <time>2015-03-15T11:41:24Z</time>
      </trkpt>
      <trkpt lat="45.62412" lon="6.5581">
        <ele>2128.5</ele>
        <time>2015-03-15T11:41:54Z</time>
      </trkpt>
      <trkpt lat="45.6241" lon="6.55832">
        <ele>2133.3</ele>
        <time>2015-03-15T11:42:24Z</time>
      </trkpt>
      <trkpt lat="45.62407" lon="6.55853">
        <ele>2139.07</ele>
        <time>2015-03-15T11:42:54Z</time>
      </trkpt>
      <trkpt lat="45.62401" lon="6.55876">
        <ele>2142.92</ele>
        <time>2015-03-15T11:43:24Z</time>
      </trkpt>
      <trkpt lat="45.62398" lon="6.55892">
        <ele>2148.2</ele>
        <time>2015-03-15T11:43:54Z</time>
      </trkpt>
      <trkpt lat="45.62394" lon="6.5591">
        <ele>2153.97</ele>
        <time>2015-03-15T11:44:24Z</time>
      </trkpt>
      <trkpt lat="45.62395" lon="6.55931">
        <ele>2158.3</ele>
        <time>2015-03-15T11:44:54Z</time>
      </trkpt>
      <trkpt lat="45.62394" lon="6.55948">
        <ele>2161.66</ele>
        <time>2015-03-15T11:45:24Z</time>
      </trkpt>
      <trkpt lat="45.62396" lon="6.55971">
        <ele>2164.06</ele>
        <time>2015-03-15T11:45:54Z</time>
      </trkpt>
      <trkpt lat="45.62385" lon="6.55967">
        <ele>2163.1</ele>
        <time>2015-03-15T11:46:24Z</time>
      </trkpt>
      <trkpt lat="45.62389" lon="6.55965">
        <ele>2162.62</ele>
        <time>2015-03-15T11:46:54Z</time>
      </trkpt>
      <trkpt lat="45.62388" lon="6.55962">
        <ele>2163.58</ele>
        <time>2015-03-15T11:47:24Z</time>
      </trkpt>
      <trkpt lat="45.62393" lon="6.55962">
        <ele>2164.06</ele>
        <time>2015-03-15T11:47:54Z</time>
      </trkpt>
      <trkpt lat="45.6239" lon="6.5597">
        <ele>2166.47</ele>
        <time>2015-03-15T11:48:24Z</time>
      </trkpt>
      <trkpt lat="45.62388" lon="6.55965">
        <ele>2166.47</ele>
        <time>2015-03-15T11:48:54Z</time>
      </trkpt>
      <trkpt lat="45.62386" lon="6.55963">
        <ele>2165.03</ele>
        <time>2015-03-15T11:49:24Z</time>
      </trkpt>
      <trkpt lat="45.62384" lon="6.55964">
        <ele>2165.03</ele>
        <time>2015-03-15T11:49:54Z</time>
      </trkpt>
      <trkpt lat="45.62365" lon="6.55949">
        <ele>2164.55</ele>
        <time>2015-03-15T11:50:24Z</time>
      </trkpt>
      <trkpt lat="45.62327" lon="6.55963">
        <ele>2159.26</ele>
        <time>2015-03-15T11:50:54Z</time>
      </trkpt>
      <trkpt lat="45.62308" lon="6.56008">
        <ele>2155.41</ele>
        <time>2015-03-15T11:51:24Z</time>
      </trkpt>
      <trkpt lat="45.6231" lon="6.56048">
        <ele>2157.34</ele>
        <time>2015-03-15T11:51:54Z</time>
      </trkpt>
      <trkpt lat="45.62311" lon="6.56077">
        <ele>2158.3</ele>
        <time>2015-03-15T11:52:24Z</time>
      </trkpt>
      <trkpt lat="45.6231" lon="6.56117">
        <ele>2154.93</ele>
        <time>2015-03-15T11:52:54Z</time>
      </trkpt>
      <trkpt lat="45.62314" lon="6.56154">
        <ele>2154.45</ele>
        <time>2015-03-15T11:53:24Z</time>
      </trkpt>
      <trkpt lat="45.6232" lon="6.56188">
        <ele>2153.49</ele>
        <time>2015-03-15T11:53:54Z</time>
      </trkpt>
      <trkpt lat="45.62326" lon="6.56222">
        <ele>2154.93</ele>
        <time>2015-03-15T11:54:24Z</time>
      </trkpt>
      <trkpt lat="45.62329" lon="6.56263">
        <ele>2154.93</ele>
        <time>2015-03-15T11:54:54Z</time>
      </trkpt>
      <trkpt lat="45.6233" lon="6.56295">
        <ele>2153.97</ele>
        <time>2015-03-15T11:55:24Z</time>
      </trkpt>
      <trkpt lat="45.62329" lon="6.56308">
        <ele>2154.93</ele>
        <time>2015-03-15T11:55:54Z</time>
      </trkpt>
      <trkpt lat="45.62328" lon="6.56352">
        <ele>2153.49</ele>
        <time>2015-03-15T11:56:24Z</time>
      </trkpt>
      <trkpt lat="45.62333" lon="6.56394">
        <ele>2154.93</ele>
        <time>2015-03-15T11:56:54Z</time>
      </trkpt>
      <trkpt lat="45.62336" lon="6.56439">
        <ele>2153.01</ele>
        <time>2015-03-15T11:57:24Z</time>
      </trkpt>
      <trkpt lat="45.62353" lon="6.56469">
        <ele>2153.01</ele>
        <time>2015-03-15T11:57:54Z</time>
      </trkpt>
      <trkpt lat="45.62365" lon="6.56497">
        <ele>2152.53</ele>
        <time>2015-03-15T11:58:24Z</time>
      </trkpt>
      <trkpt lat="45.62369" lon="6.56509">
        <ele>2154.45</ele>
        <time>2015-03-15T11:58:54Z</time>
      </trkpt>
      <trkpt lat="45.62379" lon="6.56526">
        <ele>2152.05</ele>
        <time>2015-03-15T11:59:24Z</time>
      </trkpt>
      <trkpt lat="45.62382" lon="6.56519">
        <ele>2154.45</ele>
        <time>2015-03-15T11:59:54Z</time>
      </trkpt>
      <trkpt lat="45.62382" lon="6.56516">
        <ele>2154.93</ele>
        <time>2015-03-15T12:00:24Z</time>
      </trkpt>
      <trkpt lat="45.62391" lon="6.56521">
        <ele>2154.93</ele>
        <time>2015-03-15T12:00:54Z</time>
      </trkpt>
      <trkpt lat="45.62395" lon="6.56523">
        <ele>2155.89</ele>
        <time>2015-03-15T12:01:24Z</time>
      </trkpt>
      <trkpt lat="45.62397" lon="6.56524">
        <ele>2154.93</ele>
        <time>2015-03-15T12:01:54Z</time>
      </trkpt>
      <trkpt lat="45.62398" lon="6.56525">
        <ele>2154.93</ele>
        <time>2015-03-15T12:02:24Z</time>
      </trkpt>
      <trkpt lat="45.62402" lon="6.56533">
        <ele>2157.82</ele>
        <time>2015-03-15T12:02:54Z</time>
      </trkpt>
      <trkpt lat="45.62412" lon="6.56549">
        <ele>2163.1</ele>
        <time>2015-03-15T12:03:24Z</time>
      </trkpt>
      <trkpt lat="45.62416" lon="6.56568">
        <ele>2166.95</ele>
        <time>2015-03-15T12:03:54Z</time>
      </trkpt>
      <trkpt lat="45.62416" lon="6.56589">
        <ele>2172.72</ele>
        <time>2015-03-15T12:04:24Z</time>
      </trkpt>
      <trkpt lat="45.62415" lon="6.5659">
        <ele>2171.76</ele>
        <time>2015-03-15T12:04:54Z</time>
      </trkpt>
      <trkpt lat="45.62419" lon="6.56579">
        <ele>2168.39</ele>
        <time>2015-03-15T12:05:24Z</time>
      </trkpt>
      <trkpt lat="45.62417" lon="6.56577">
        <ele>2168.39</ele>
        <time>2015-03-15T12:05:54Z</time>
      </trkpt>
      <trkpt lat="45.62419" lon="6.56577">
        <ele>2167.91</ele>
        <time>2015-03-15T12:06:24Z</time>
      </trkpt>
      <trkpt lat="45.62419" lon="6.56577">
        <ele>2167.91</ele>
        <time>2015-03-15T12:06:54Z</time>
      </trkpt>
      <trkpt lat="45.62418" lon="6.56577">
        <ele>2172.72</ele>
        <time>2015-03-15T12:07:24Z</time>
      </trkpt>
      <trkpt lat="45.6242" lon="6.56577">
        <ele>2166.95</ele>
        <time>2015-03-15T12:07:54Z</time>
      </trkpt>
      <trkpt lat="45.6242" lon="6.56577">
        <ele>2170.79</ele>
        <time>2015-03-15T12:08:24Z</time>
      </trkpt>
      <trkpt lat="45.6242" lon="6.56578">
        <ele>2165.99</ele>
        <time>2015-03-15T12:08:54Z</time>
      </trkpt>
      <trkpt lat="45.6242" lon="6.56578">
        <ele>2165.99</ele>
        <time>2015-03-15T12:09:24Z</time>
      </trkpt>
      <trkpt lat="45.6242" lon="6.56577">
        <ele>2166.95</ele>
        <time>2015-03-15T12:09:54Z</time>
      </trkpt>
      <trkpt lat="45.62422" lon="6.5658">
        <ele>2166.47</ele>
        <time>2015-03-15T12:10:24Z</time>
      </trkpt>
      <trkpt lat="45.62421" lon="6.56579">
        <ele>2165.51</ele>
        <time>2015-03-15T12:10:54Z</time>
      </trkpt>
      <trkpt lat="45.62421" lon="6.56579">
        <ele>2166.95</ele>
        <time>2015-03-15T12:11:24Z</time>
      </trkpt>
      <trkpt lat="45.62422" lon="6.56581">
        <ele>2165.03</ele>
        <time>2015-03-15T12:11:54Z</time>
      </trkpt>
      <trkpt lat="45.62422" lon="6.5658">
        <ele>2165.51</ele>
        <time>2015-03-15T12:12:24Z</time>
      </trkpt>
      <trkpt lat="45.62422" lon="6.5658">
        <ele>2165.51</ele>
        <time>2015-03-15T12:12:54Z</time>
      </trkpt>
      <trkpt lat="45.62422" lon="6.56581">
        <ele>2166.47</ele>
        <time>2015-03-15T12:13:24Z</time>
      </trkpt>
      <trkpt lat="45.62422" lon="6.56581">
        <ele>2168.39</ele>
        <time>2015-03-15T12:13:54Z</time>
      </trkpt>
      <trkpt lat="45.6242" lon="6.56578">
        <ele>2167.91</ele>
        <time>2015-03-15T12:14:24Z</time>
      </trkpt>
      <trkpt lat="45.62421" lon="6.5658">
        <ele>2169.35</ele>
        <time>2015-03-15T12:14:54Z</time>
      </trkpt>
      <trkpt lat="45.6242" lon="6.56577">
        <ele>2167.91</ele>
        <time>2015-03-15T12:15:24Z</time>
      </trkpt>
      <trkpt lat="45.6242" lon="6.56577">
        <ele>2167.43</ele>
        <time>2015-03-15T12:15:54Z</time>
      </trkpt>
      <trkpt lat="45.6242" lon="6.56579">
        <ele>2168.39</ele>
        <time>2015-03-15T12:16:24Z</time>
      </trkpt>
      <trkpt lat="45.62418" lon="6.5658">
        <ele>2167.43</ele>
        <time>2015-03-15T12:16:54Z</time>
      </trkpt>
      <trkpt lat="45.62418" lon="6.5658">
        <ele>2167.43</ele>
        <time>2015-03-15T12:17:24Z</time>
      </trkpt>
      <trkpt lat="45.62418" lon="6.5658">
        <ele>2169.35</ele>
        <time>2015-03-15T12:17:54Z</time>
      </trkpt>
      <trkpt lat="45.62418" lon="6.56579">
        <ele>2168.39</ele>
        <time>2015-03-15T12:18:24Z</time>
      </trkpt>
      <trkpt lat="45.62418" lon="6.56579">
        <ele>2167.91</ele>
        <time>2015-03-15T12:18:54Z</time>
      </trkpt>
      <trkpt lat="45.62417" lon="6.5658">
        <ele>2167.91</ele>
        <time>2015-03-15T12:19:24Z</time>
      </trkpt>
      <trkpt lat="45.62418" lon="6.5658">
        <ele>2169.35</ele>
        <time>2015-03-15T12:19:54Z</time>
      </trkpt>
      <trkpt lat="45.62417" lon="6.56579">
        <ele>2166.95</ele>
        <time>2015-03-15T12:20:24Z</time>
      </trkpt>
      <trkpt lat="45.62418" lon="6.56579">
        <ele>2167.43</ele>
        <time>2015-03-15T12:20:54Z</time>
      </trkpt>
      <trkpt lat="45.62417" lon="6.5658">
        <ele>2166.47</ele>
        <time>2015-03-15T12:21:24Z</time>
      </trkpt>
      <trkpt lat="45.62417" lon="6.56579">
        <ele>2167.43</ele>
        <time>2015-03-15T12:21:54Z</time>
      </trkpt>
      <trkpt lat="45.62417" lon="6.56579">
        <ele>2168.87</ele>
        <time>2015-03-15T12:22:24Z</time>
      </trkpt>
      <trkpt lat="45.62418" lon="6.56578">
        <ele>2168.87</ele>
        <time>2015-03-15T12:22:54Z</time>
      </trkpt>
      <trkpt lat="45.62419" lon="6.56578">
        <ele>2169.35</ele>
        <time>2015-03-15T12:23:24Z</time>
      </trkpt>
      <trkpt lat="45.6242" lon="6.56579">
        <ele>2167.43</ele>
        <time>2015-03-15T12:23:54Z</time>
      </trkpt>
      <trkpt lat="45.62419" lon="6.56578">
        <ele>2166.47</ele>
        <time>2015-03-15T12:24:24Z</time>
      </trkpt>
      <trkpt lat="45.62419" lon="6.56578">
        <ele>2167.91</ele>
        <time>2015-03-15T12:24:54Z</time>
      </trkpt>
      <trkpt lat="45.62418" lon="6.56579">
        <ele>2167.91</ele>
        <time>2015-03-15T12:25:24Z</time>
      </trkpt>
      <trkpt lat="45.62418" lon="6.5658">
        <ele>2167.43</ele>
        <time>2015-03-15T12:25:54Z</time>
      </trkpt>
      <trkpt lat="45.62418" lon="6.56579">
        <ele>2168.39</ele>
        <time>2015-03-15T12:26:24Z</time>
      </trkpt>
      <trkpt lat="45.62418" lon="6.5658">
        <ele>2168.39</ele>
        <time>2015-03-15T12:26:54Z</time>
      </trkpt>
      <trkpt lat="45.62419" lon="6.5658">
        <ele>2168.87</ele>
        <time>2015-03-15T12:27:24Z</time>
      </trkpt>
      <trkpt lat="45.62422" lon="6.56579">
        <ele>2170.31</ele>
        <time>2015-03-15T12:27:54Z</time>
      </trkpt>
      <trkpt lat="45.62421" lon="6.56579">
        <ele>2169.83</ele>
        <time>2015-03-15T12:28:24Z</time>
      </trkpt>
      <trkpt lat="45.6242" lon="6.56579">
        <ele>2169.35</ele>
        <time>2015-03-15T12:28:54Z</time>
      </trkpt>
      <trkpt lat="45.6242" lon="6.56579">
        <ele>2168.87</ele>
        <time>2015-03-15T12:29:24Z</time>
      </trkpt>
      <trkpt lat="45.62419" lon="6.56579">
        <ele>2167.91</ele>
        <time>2015-03-15T12:29:54Z</time>
      </trkpt>
      <trkpt lat="45.62419" lon="6.5658">
        <ele>2169.35</ele>
        <time>2015-03-15T12:30:24Z</time>
      </trkpt>
      <trkpt lat="45.6242" lon="6.5658">
        <ele>2169.83</ele>
        <time>2015-03-15T12:30:54Z</time>
      </trkpt>
      <trkpt lat="45.6242" lon="6.56579">
        <ele>2168.39</ele>
        <time>2015-03-15T12:31:24Z</time>
      </trkpt>
      <trkpt lat="45.6242" lon="6.56579">
        <ele>2172.72</ele>
        <time>2015-03-15T12:31:54Z</time>
      </trkpt>
      <trkpt lat="45.6242" lon="6.56579">
        <ele>2170.31</ele>
        <time>2015-03-15T12:32:24Z</time>
      </trkpt>
      <trkpt lat="45.62419" lon="6.56579">
        <ele>2170.31</ele>
        <time>2015-03-15T12:32:54Z</time>
      </trkpt>
      <trkpt lat="45.62421" lon="6.56579">
        <ele>2171.27</ele>
        <time>2015-03-15T12:33:24Z</time>
      </trkpt>
      <trkpt lat="45.6242" lon="6.56578">
        <ele>2167.91</ele>
        <time>2015-03-15T12:33:54Z</time>
      </trkpt>
      <trkpt lat="45.62419" lon="6.5658">
        <ele>2171.27</ele>
        <time>2015-03-15T12:34:24Z</time>
      </trkpt>
      <trkpt lat="45.62416" lon="6.56582">
        <ele>2177.52</ele>
        <time>2015-03-15T12:34:54Z</time>
      </trkpt>
      <trkpt lat="45.62417" lon="6.56586">
        <ele>2180.41</ele>
        <time>2015-03-15T12:35:24Z</time>
      </trkpt>
      <trkpt lat="45.62416" lon="6.56585">
        <ele>2177.52</ele>
        <time>2015-03-15T12:35:54Z</time>
      </trkpt>
      <trkpt lat="45.6239" lon="6.56588">
        <ele>2172.24</ele>
        <time>2015-03-15T12:36:24Z</time>
      </trkpt>
      <trkpt lat="45.62361" lon="6.56585">
        <ele>2168.87</ele>
        <time>2015-03-15T12:36:54Z</time>
      </trkpt>
      <trkpt lat="45.62334" lon="6.56608">
        <ele>2167.91</ele>
        <time>2015-03-15T12:37:24Z</time>
      </trkpt>
      <trkpt lat="45.62308" lon="6.56623">
        <ele>2166.47</ele>
        <time>2015-03-15T12:37:54Z</time>
      </trkpt>
      <trkpt lat="45.62286" lon="6.56645">
        <ele>2167.91</ele>
        <time>2015-03-15T12:38:24Z</time>
      </trkpt>
      <trkpt lat="45.62258" lon="6.56658">
        <ele>2167.91</ele>
        <time>2015-03-15T12:38:54Z</time>
      </trkpt>
      <trkpt lat="45.62232" lon="6.56661">
        <ele>2165.51</ele>
        <time>2015-03-15T12:39:24Z</time>
      </trkpt>
      <trkpt lat="45.62212" lon="6.56691">
        <ele>2162.62</ele>
        <time>2015-03-15T12:39:54Z</time>
      </trkpt>
      <trkpt lat="45.62208" lon="6.56721">
        <ele>2167.91</ele>
        <time>2015-03-15T12:40:24Z</time>
      </trkpt>
      <trkpt lat="45.62191" lon="6.56731">
        <ele>2167.43</ele>
        <time>2015-03-15T12:40:54Z</time>
      </trkpt>
      <trkpt lat="45.62172" lon="6.56749">
        <ele>2165.99</ele>
        <time>2015-03-15T12:41:24Z</time>
      </trkpt>
      <trkpt lat="45.62165" lon="6.56782">
        <ele>2172.72</ele>
        <time>2015-03-15T12:41:54Z</time>
      </trkpt>
      <trkpt lat="45.62153" lon="6.56815">
        <ele>2173.2</ele>
        <time>2015-03-15T12:42:24Z</time>
      </trkpt>
      <trkpt lat="45.62139" lon="6.56832">
        <ele>2177.52</ele>
        <time>2015-03-15T12:42:54Z</time>
      </trkpt>
      <trkpt lat="45.62122" lon="6.56838">
        <ele>2180.41</ele>
        <time>2015-03-15T12:43:24Z</time>
      </trkpt>
      <trkpt lat="45.6211" lon="6.56848">
        <ele>2183.29</ele>
        <time>2015-03-15T12:43:54Z</time>
      </trkpt>
      <trkpt lat="45.6209" lon="6.56848">
        <ele>2185.69</ele>
        <time>2015-03-15T12:44:24Z</time>
      </trkpt>
      <trkpt lat="45.62082" lon="6.56822">
        <ele>2188.1</ele>
        <time>2015-03-15T12:44:54Z</time>
      </trkpt>
      <trkpt lat="45.62075" lon="6.56815">
        <ele>2185.69</ele>
        <time>2015-03-15T12:45:24Z</time>
      </trkpt>
      <trkpt lat="45.62075" lon="6.56817">
        <ele>2185.69</ele>
        <time>2015-03-15T12:45:54Z</time>
      </trkpt>
      <trkpt lat="45.62076" lon="6.56818">
        <ele>2185.69</ele>
        <time>2015-03-15T12:46:24Z</time>
      </trkpt>
      <trkpt lat="45.62074" lon="6.56817">
        <ele>2187.14</ele>
        <time>2015-03-15T12:46:54Z</time>
      </trkpt>
      <trkpt lat="45.62052" lon="6.56823">
        <ele>2187.62</ele>
        <time>2015-03-15T12:47:24Z</time>
      </trkpt>
      <trkpt lat="45.62032" lon="6.56835">
        <ele>2192.42</ele>
        <time>2015-03-15T12:47:54Z</time>
      </trkpt>
      <trkpt lat="45.62018" lon="6.56839">
        <ele>2191.46</ele>
        <time>2015-03-15T12:48:24Z</time>
      </trkpt>
      <trkpt lat="45.62018" lon="6.56839">
        <ele>2190.98</ele>
        <time>2015-03-15T12:48:54Z</time>
      </trkpt>
      <trkpt lat="45.62013" lon="6.56833">
        <ele>2191.46</ele>
        <time>2015-03-15T12:49:24Z</time>
      </trkpt>
      <trkpt lat="45.61981" lon="6.56838">
        <ele>2189.06</ele>
        <time>2015-03-15T12:49:54Z</time>
      </trkpt>
      <trkpt lat="45.61949" lon="6.56854">
        <ele>2187.62</ele>
        <time>2015-03-15T12:50:24Z</time>
      </trkpt>
      <trkpt lat="45.61917" lon="6.56887">
        <ele>2183.77</ele>
        <time>2015-03-15T12:50:54Z</time>
      </trkpt>
      <trkpt lat="45.61872" lon="6.56935">
        <ele>2174.16</ele>
        <time>2015-03-15T12:51:24Z</time>
      </trkpt>
      <trkpt lat="45.6185" lon="6.56984">
        <ele>2169.35</ele>
        <time>2015-03-15T12:51:54Z</time>
      </trkpt>
      <trkpt lat="45.61839" lon="6.57026">
        <ele>2167.91</ele>
        <time>2015-03-15T12:52:24Z</time>
      </trkpt>
      <trkpt lat="45.61827" lon="6.5707">
        <ele>2164.06</ele>
        <time>2015-03-15T12:52:54Z</time>
      </trkpt>
      <trkpt lat="45.61827" lon="6.57105">
        <ele>2165.03</ele>
        <time>2015-03-15T12:53:24Z</time>
      </trkpt>
      <trkpt lat="45.61825" lon="6.57142">
        <ele>2165.51</ele>
        <time>2015-03-15T12:53:54Z</time>
      </trkpt>
      <trkpt lat="45.6182" lon="6.57182">
        <ele>2165.99</ele>
        <time>2015-03-15T12:54:24Z</time>
      </trkpt>
      <trkpt lat="45.61825" lon="6.57212">
        <ele>2167.43</ele>
        <time>2015-03-15T12:54:54Z</time>
      </trkpt>
      <trkpt lat="45.6183" lon="6.57242">
        <ele>2169.35</ele>
        <time>2015-03-15T12:55:24Z</time>
      </trkpt>
      <trkpt lat="45.61824" lon="6.57276">
        <ele>2170.79</ele>
        <time>2015-03-15T12:55:54Z</time>
      </trkpt>
      <trkpt lat="45.61822" lon="6.57306">
        <ele>2175.12</ele>
        <time>2015-03-15T12:56:24Z</time>
      </trkpt>
      <trkpt lat="45.61808" lon="6.57335">
        <ele>2175.6</ele>
        <time>2015-03-15T12:56:54Z</time>
      </trkpt>
      <trkpt lat="45.61797" lon="6.57343">
        <ele>2178</ele>
        <time>2015-03-15T12:57:24Z</time>
      </trkpt>
      <trkpt lat="45.6178" lon="6.57348">
        <ele>2176.56</ele>
        <time>2015-03-15T12:57:54Z</time>
      </trkpt>
      <trkpt lat="45.61757" lon="6.57352">
        <ele>2178.97</ele>
        <time>2015-03-15T12:58:24Z</time>
      </trkpt>
      <trkpt lat="45.61748" lon="6.57367">
        <ele>2181.85</ele>
        <time>2015-03-15T12:58:54Z</time>
      </trkpt>
      <trkpt lat="45.6173" lon="6.57386">
        <ele>2183.77</ele>
        <time>2015-03-15T12:59:24Z</time>
      </trkpt>
      <trkpt lat="45.6171" lon="6.57392">
        <ele>2183.77</ele>
        <time>2015-03-15T12:59:54Z</time>
      </trkpt>
      <trkpt lat="45.61696" lon="6.57383">
        <ele>2181.37</ele>
        <time>2015-03-15T13:00:24Z</time>
      </trkpt>
      <trkpt lat="45.61688" lon="6.57377">
        <ele>2179.45</ele>
        <time>2015-03-15T13:00:54Z</time>
      </trkpt>
      <trkpt lat="45.61689" lon="6.57377">
        <ele>2179.45</ele>
        <time>2015-03-15T13:01:24Z</time>
      </trkpt>
      <trkpt lat="45.61683" lon="6.57382">
        <ele>2179.45</ele>
        <time>2015-03-15T13:01:54Z</time>
      </trkpt>
      <trkpt lat="45.61692" lon="6.57414">
        <ele>2175.12</ele>
        <time>2015-03-15T13:02:24Z</time>
      </trkpt>
      <trkpt lat="45.61692" lon="6.5741">
        <ele>2174.16</ele>
        <time>2015-03-15T13:02:54Z</time>
      </trkpt>
      <trkpt lat="45.61689" lon="6.5741">
        <ele>2172.72</ele>
        <time>2015-03-15T13:03:24Z</time>
      </trkpt>
      <trkpt lat="45.61689" lon="6.57411">
        <ele>2173.68</ele>
        <time>2015-03-15T13:03:54Z</time>
      </trkpt>
      <trkpt lat="45.61692" lon="6.5741">
        <ele>2173.2</ele>
        <time>2015-03-15T13:04:24Z</time>
      </trkpt>
      <trkpt lat="45.61692" lon="6.57409">
        <ele>2173.2</ele>
        <time>2015-03-15T13:04:54Z</time>
      </trkpt>
      <trkpt lat="45.61691" lon="6.57411">
        <ele>2173.2</ele>
        <time>2015-03-15T13:05:24Z</time>
      </trkpt>
      <trkpt lat="45.6169" lon="6.57412">
        <ele>2173.2</ele>
        <time>2015-03-15T13:05:54Z</time>
      </trkpt>
      <trkpt lat="45.61688" lon="6.57413">
        <ele>2172.24</ele>
        <time>2015-03-15T13:06:24Z</time>
      </trkpt>
      <trkpt lat="45.6169" lon="6.5741">
        <ele>2172.24</ele>
        <time>2015-03-15T13:06:54Z</time>
      </trkpt>
      <trkpt lat="45.61685" lon="6.5741">
        <ele>2174.16</ele>
        <time>2015-03-15T13:07:24Z</time>
      </trkpt>
      <trkpt lat="45.61684" lon="6.57412">
        <ele>2174.16</ele>
        <time>2015-03-15T13:07:54Z</time>
      </trkpt>
      <trkpt lat="45.61687" lon="6.5741">
        <ele>2174.64</ele>
        <time>2015-03-15T13:08:24Z</time>
      </trkpt>
      <trkpt lat="45.6169" lon="6.57409">
        <ele>2174.64</ele>
        <time>2015-03-15T13:08:54Z</time>
      </trkpt>
      <trkpt lat="45.61692" lon="6.5741">
        <ele>2175.12</ele>
        <time>2015-03-15T13:09:24Z</time>
      </trkpt>
      <trkpt lat="45.61695" lon="6.57413">
        <ele>2173.2</ele>
        <time>2015-03-15T13:09:54Z</time>
      </trkpt>
      <trkpt lat="45.61695" lon="6.57413">
        <ele>2174.16</ele>
        <time>2015-03-15T13:10:24Z</time>
      </trkpt>
      <trkpt lat="45.61692" lon="6.57413">
        <ele>2173.68</ele>
        <time>2015-03-15T13:10:54Z</time>
      </trkpt>
      <trkpt lat="45.61693" lon="6.57408">
        <ele>2173.68</ele>
        <time>2015-03-15T13:11:24Z</time>
      </trkpt>
      <trkpt lat="45.61695" lon="6.57406">
        <ele>2173.2</ele>
        <time>2015-03-15T13:11:54Z</time>
      </trkpt>
      <trkpt lat="45.61691" lon="6.57406">
        <ele>2173.2</ele>
        <time>2015-03-15T13:12:24Z</time>
      </trkpt>
      <trkpt lat="45.61693" lon="6.57407">
        <ele>2173.68</ele>
        <time>2015-03-15T13:12:54Z</time>
      </trkpt>
      <trkpt lat="45.61692" lon="6.57404">
        <ele>2174.64</ele>
        <time>2015-03-15T13:13:24Z</time>
      </trkpt>
      <trkpt lat="45.61694" lon="6.57408">
        <ele>2174.64</ele>
        <time>2015-03-15T13:13:54Z</time>
      </trkpt>
      <trkpt lat="45.61696" lon="6.57406">
        <ele>2173.2</ele>
        <time>2015-03-15T13:14:24Z</time>
      </trkpt>
      <trkpt lat="45.61692" lon="6.57401">
        <ele>2173.2</ele>
        <time>2015-03-15T13:14:54Z</time>
      </trkpt>
      <trkpt lat="45.61689" lon="6.57404">
        <ele>2174.16</ele>
        <time>2015-03-15T13:15:24Z</time>
      </trkpt>
      <trkpt lat="45.61691" lon="6.57407">
        <ele>2174.16</ele>
        <time>2015-03-15T13:15:54Z</time>
      </trkpt>
      <trkpt lat="45.61691" lon="6.57409">
        <ele>2173.2</ele>
        <time>2015-03-15T13:16:24Z</time>
      </trkpt>
      <trkpt lat="45.61688" lon="6.5741">
        <ele>2174.64</ele>
        <time>2015-03-15T13:16:54Z</time>
      </trkpt>
      <trkpt lat="45.6169" lon="6.5741">
        <ele>2174.64</ele>
        <time>2015-03-15T13:17:24Z</time>
      </trkpt>
      <trkpt lat="45.61689" lon="6.5741">
        <ele>2173.2</ele>
        <time>2015-03-15T13:17:54Z</time>
      </trkpt>
      <trkpt lat="45.61687" lon="6.57409">
        <ele>2174.16</ele>
        <time>2015-03-15T13:18:24Z</time>
      </trkpt>
      <trkpt lat="45.61691" lon="6.57407">
        <ele>2172.72</ele>
        <time>2015-03-15T13:18:54Z</time>
      </trkpt>
      <trkpt lat="45.61692" lon="6.57412">
        <ele>2172.72</ele>
        <time>2015-03-15T13:19:24Z</time>
      </trkpt>
      <trkpt lat="45.61692" lon="6.57408">
        <ele>2174.16</ele>
        <time>2015-03-15T13:19:54Z</time>
      </trkpt>
      <trkpt lat="45.61693" lon="6.57405">
        <ele>2174.16</ele>
        <time>2015-03-15T13:20:24Z</time>
      </trkpt>
      <trkpt lat="45.61695" lon="6.57403">
        <ele>2174.64</ele>
        <time>2015-03-15T13:20:54Z</time>
      </trkpt>
      <trkpt lat="45.61696" lon="6.57404">
        <ele>2174.64</ele>
        <time>2015-03-15T13:21:24Z</time>
      </trkpt>
      <trkpt lat="45.6169" lon="6.57416">
        <ele>2175.12</ele>
        <time>2015-03-15T13:21:54Z</time>
      </trkpt>
      <trkpt lat="45.61691" lon="6.57412">
        <ele>2173.2</ele>
        <time>2015-03-15T13:22:24Z</time>
      </trkpt>
      <trkpt lat="45.61692" lon="6.57413">
        <ele>2177.04</ele>
        <time>2015-03-15T13:22:54Z</time>
      </trkpt>
      <trkpt lat="45.61695" lon="6.57413">
        <ele>2176.56</ele>
        <time>2015-03-15T13:23:24Z</time>
      </trkpt>
      <trkpt lat="45.61693" lon="6.57414">
        <ele>2177.52</ele>
        <time>2015-03-15T13:23:54Z</time>
      </trkpt>
      <trkpt lat="45.61693" lon="6.57415">
        <ele>2177.52</ele>
        <time>2015-03-15T13:24:24Z</time>
      </trkpt>
      <trkpt lat="45.61694" lon="6.57413">
        <ele>2176.56</ele>
        <time>2015-03-15T13:24:54Z</time>
      </trkpt>
      <trkpt lat="45.61692" lon="6.57413">
        <ele>2177.52</ele>
        <time>2015-03-15T13:25:24Z</time>
      </trkpt>
      <trkpt lat="45.61652" lon="6.57435">
        <ele>2171.27</ele>
        <time>2015-03-15T13:25:54Z</time>
      </trkpt>
      <trkpt lat="45.61625" lon="6.57464">
        <ele>2169.83</ele>
        <time>2015-03-15T13:26:24Z</time>
      </trkpt>
      <trkpt lat="45.61603" lon="6.57495">
        <ele>2169.83</ele>
        <time>2015-03-15T13:26:54Z</time>
      </trkpt>
      <trkpt lat="45.61588" lon="6.57526">
        <ele>2171.27</ele>
        <time>2015-03-15T13:27:24Z</time>
      </trkpt>
      <trkpt lat="45.61578" lon="6.57552">
        <ele>2172.72</ele>
        <time>2015-03-15T13:27:54Z</time>
      </trkpt>
      <trkpt lat="45.61571" lon="6.57576">
        <ele>2176.56</ele>
        <time>2015-03-15T13:28:24Z</time>
      </trkpt>
      <trkpt lat="45.61566" lon="6.57603">
        <ele>2178.48</ele>
        <time>2015-03-15T13:28:54Z</time>
      </trkpt>
      <trkpt lat="45.61565" lon="6.57616">
        <ele>2181.85</ele>
        <time>2015-03-15T13:29:24Z</time>
      </trkpt>
      <trkpt lat="45.61559" lon="6.57609">
        <ele>2185.69</ele>
        <time>2015-03-15T13:29:54Z</time>
      </trkpt>
      <trkpt lat="45.61554" lon="6.57621">
        <ele>2187.62</ele>
        <time>2015-03-15T13:30:24Z</time>
      </trkpt>
      <trkpt lat="45.61553" lon="6.57626">
        <ele>2184.73</ele>
        <time>2015-03-15T13:30:54Z</time>
      </trkpt>
      <trkpt lat="45.61551" lon="6.57632">
        <ele>2187.14</ele>
        <time>2015-03-15T13:31:24Z</time>
      </trkpt>
      <trkpt lat="45.6155" lon="6.57632">
        <ele>2188.58</ele>
        <time>2015-03-15T13:31:54Z</time>
      </trkpt>
      <trkpt lat="45.6155" lon="6.57633">
        <ele>2190.02</ele>
        <time>2015-03-15T13:32:24Z</time>
      </trkpt>
      <trkpt lat="45.61546" lon="6.57647">
        <ele>2189.54</ele>
        <time>2015-03-15T13:32:54Z</time>
      </trkpt>
      <trkpt lat="45.61544" lon="6.57652">
        <ele>2190.5</ele>
        <time>2015-03-15T13:33:24Z</time>
      </trkpt>
      <trkpt lat="45.61544" lon="6.57652">
        <ele>2190.5</ele>
        <time>2015-03-15T13:33:54Z</time>
      </trkpt>
      <trkpt lat="45.61544" lon="6.57651">
        <ele>2189.54</ele>
        <time>2015-03-15T13:34:24Z</time>
      </trkpt>
      <trkpt lat="45.61545" lon="6.57651">
        <ele>2189.54</ele>
        <time>2015-03-15T13:34:54Z</time>
      </trkpt>
      <trkpt lat="45.61544" lon="6.57651">
        <ele>2190.5</ele>
        <time>2015-03-15T13:35:24Z</time>
      </trkpt>
      <trkpt lat="45.61546" lon="6.57647">
        <ele>2190.5</ele>
        <time>2015-03-15T13:35:54Z</time>
      </trkpt>
      <trkpt lat="45.61546" lon="6.57648">
        <ele>2188.58</ele>
        <time>2015-03-15T13:36:24Z</time>
      </trkpt>
      <trkpt lat="45.61544" lon="6.57645">
        <ele>2188.1</ele>
        <time>2015-03-15T13:36:54Z</time>
      </trkpt>
      <trkpt lat="45.61544" lon="6.57645">
        <ele>2189.54</ele>
        <time>2015-03-15T13:37:24Z</time>
      </trkpt>
      <trkpt lat="45.61543" lon="6.57647">
        <ele>2186.66</ele>
        <time>2015-03-15T13:37:54Z</time>
      </trkpt>
      <trkpt lat="45.61544" lon="6.57647">
        <ele>2187.62</ele>
        <time>2015-03-15T13:38:24Z</time>
      </trkpt>
      <trkpt lat="45.61544" lon="6.57646">
        <ele>2187.62</ele>
        <time>2015-03-15T13:38:54Z</time>
      </trkpt>
      <trkpt lat="45.61543" lon="6.57646">
        <ele>2187.62</ele>
        <time>2015-03-15T13:39:24Z</time>
      </trkpt>
      <trkpt lat="45.61545" lon="6.57648">
        <ele>2190.02</ele>
        <time>2015-03-15T13:39:54Z</time>
      </trkpt>
      <trkpt lat="45.61545" lon="6.57653">
        <ele>2189.54</ele>
        <time>2015-03-15T13:40:24Z</time>
      </trkpt>
      <trkpt lat="45.61529" lon="6.57698">
        <ele>2183.29</ele>
        <time>2015-03-15T13:40:54Z</time>
      </trkpt>
      <trkpt lat="45.61517" lon="6.5774">
        <ele>2181.37</ele>
        <time>2015-03-15T13:41:24Z</time>
      </trkpt>
      <trkpt lat="45.61501" lon="6.57751">
        <ele>2184.73</ele>
        <time>2015-03-15T13:41:54Z</time>
      </trkpt>
      <trkpt lat="45.61497" lon="6.57783">
        <ele>2184.25</ele>
        <time>2015-03-15T13:42:24Z</time>
      </trkpt>
      <trkpt lat="45.61494" lon="6.57816">
        <ele>2180.89</ele>
        <time>2015-03-15T13:42:54Z</time>
      </trkpt>
      <trkpt lat="45.61484" lon="6.57842">
        <ele>2178.48</ele>
        <time>2015-03-15T13:43:24Z</time>
      </trkpt>
      <trkpt lat="45.61468" lon="6.57861">
        <ele>2181.37</ele>
        <time>2015-03-15T13:43:54Z</time>
      </trkpt>
      <trkpt lat="45.61459" lon="6.5788">
        <ele>2186.18</ele>
        <time>2015-03-15T13:44:24Z</time>
      </trkpt>
      <trkpt lat="45.61443" lon="6.57868">
        <ele>2191.46</ele>
        <time>2015-03-15T13:44:54Z</time>
      </trkpt>
      <trkpt lat="45.61433" lon="6.57858">
        <ele>2197.23</ele>
        <time>2015-03-15T13:45:24Z</time>
      </trkpt>
      <trkpt lat="45.61412" lon="6.57847">
        <ele>2196.27</ele>
        <time>2015-03-15T13:45:54Z</time>
      </trkpt>
      <trkpt lat="45.61397" lon="6.57851">
        <ele>2202.52</ele>
        <time>2015-03-15T13:46:24Z</time>
      </trkpt>
      <trkpt lat="45.61379" lon="6.57847">
        <ele>2206.36</ele>
        <time>2015-03-15T13:46:54Z</time>
      </trkpt>
      <trkpt lat="45.61361" lon="6.57844">
        <ele>2210.21</ele>
        <time>2015-03-15T13:47:24Z</time>
      </trkpt>
      <trkpt lat="45.6134" lon="6.57842">
        <ele>2211.65</ele>
        <time>2015-03-15T13:47:54Z</time>
      </trkpt>
      <trkpt lat="45.61323" lon="6.57851">
        <ele>2213.09</ele>
        <time>2015-03-15T13:48:24Z</time>
      </trkpt>
      <trkpt lat="45.61323" lon="6.57852">
        <ele>2211.65</ele>
        <time>2015-03-15T13:48:54Z</time>
      </trkpt>
      <trkpt lat="45.61321" lon="6.57851">
        <ele>2210.69</ele>
        <time>2015-03-15T13:49:24Z</time>
      </trkpt>
      <trkpt lat="45.61323" lon="6.5785">
        <ele>2210.69</ele>
        <time>2015-03-15T13:49:54Z</time>
      </trkpt>
      <trkpt lat="45.61319" lon="6.57858">
        <ele>2211.65</ele>
        <time>2015-03-15T13:50:24Z</time>
      </trkpt>
      <trkpt lat="45.61308" lon="6.57887">
        <ele>2214.53</ele>
        <time>2015-03-15T13:50:54Z</time>
      </trkpt>
      <trkpt lat="45.61301" lon="6.57923">
        <ele>2215.98</ele>
        <time>2015-03-15T13:51:24Z</time>
      </trkpt>
      <trkpt lat="45.61289" lon="6.57954">
        <ele>2216.46</ele>
        <time>2015-03-15T13:51:54Z</time>
      </trkpt>
      <trkpt lat="45.61274" lon="6.57974">
        <ele>2220.78</ele>
        <time>2015-03-15T13:52:24Z</time>
      </trkpt>
      <trkpt lat="45.61256" lon="6.58002">
        <ele>2224.63</ele>
        <time>2015-03-15T13:52:54Z</time>
      </trkpt>
      <trkpt lat="45.61248" lon="6.58048">
        <ele>2214.05</ele>
        <time>2015-03-15T13:53:24Z</time>
      </trkpt>
      <trkpt lat="45.61232" lon="6.5809">
        <ele>2212.61</ele>
        <time>2015-03-15T13:53:54Z</time>
      </trkpt>
      <trkpt lat="45.61219" lon="6.58117">
        <ele>2213.09</ele>
        <time>2015-03-15T13:54:24Z</time>
      </trkpt>
      <trkpt lat="45.61201" lon="6.58145">
        <ele>2211.65</ele>
        <time>2015-03-15T13:54:54Z</time>
      </trkpt>
      <trkpt lat="45.61176" lon="6.58165">
        <ele>2212.61</ele>
        <time>2015-03-15T13:55:24Z</time>
      </trkpt>
      <trkpt lat="45.61151" lon="6.58171">
        <ele>2211.17</ele>
        <time>2015-03-15T13:55:54Z</time>
      </trkpt>
      <trkpt lat="45.61131" lon="6.58179">
        <ele>2211.17</ele>
        <time>2015-03-15T13:56:24Z</time>
      </trkpt>
      <trkpt lat="45.61114" lon="6.58206">
        <ele>2213.09</ele>
        <time>2015-03-15T13:56:54Z</time>
      </trkpt>
      <trkpt lat="45.61104" lon="6.58234">
        <ele>2213.09</ele>
        <time>2015-03-15T13:57:24Z</time>
      </trkpt>
      <trkpt lat="45.61092" lon="6.58252">
        <ele>2212.61</ele>
        <time>2015-03-15T13:57:54Z</time>
      </trkpt>
      <trkpt lat="45.61082" lon="6.58261">
        <ele>2212.61</ele>
        <time>2015-03-15T13:58:24Z</time>
      </trkpt>
      <trkpt lat="45.61075" lon="6.58289">
        <ele>2211.65</ele>
        <time>2015-03-15T13:58:54Z</time>
      </trkpt>
      <trkpt lat="45.61068" lon="6.58307">
        <ele>2210.69</ele>
        <time>2015-03-15T13:59:24Z</time>
      </trkpt>
      <trkpt lat="45.61061" lon="6.58315">
        <ele>2207.81</ele>
        <time>2015-03-15T13:59:54Z</time>
      </trkpt>
      <trkpt lat="45.61059" lon="6.58317">
        <ele>2209.73</ele>
        <time>2015-03-15T14:00:24Z</time>
      </trkpt>
      <trkpt lat="45.6106" lon="6.58316">
        <ele>2208.29</ele>
        <time>2015-03-15T14:00:54Z</time>
      </trkpt>
      <trkpt lat="45.61057" lon="6.5831">
        <ele>2210.69</ele>
        <time>2015-03-15T14:01:24Z</time>
      </trkpt>
      <trkpt lat="45.61058" lon="6.58314">
        <ele>2209.25</ele>
        <time>2015-03-15T14:01:54Z</time>
      </trkpt>
      <trkpt lat="45.61043" lon="6.58343">
        <ele>2206.36</ele>
        <time>2015-03-15T14:02:24Z</time>
      </trkpt>
      <trkpt lat="45.6101" lon="6.58364">
        <ele>2198.67</ele>
        <time>2015-03-15T14:02:54Z</time>
      </trkpt>
      <trkpt lat="45.60993" lon="6.5837">
        <ele>2195.31</ele>
        <time>2015-03-15T14:03:24Z</time>
      </trkpt>
      <trkpt lat="45.60989" lon="6.58363">
        <ele>2192.9</ele>
        <time>2015-03-15T14:03:54Z</time>
      </trkpt>
      <trkpt lat="45.60985" lon="6.58358">
        <ele>2189.54</ele>
        <time>2015-03-15T14:04:24Z</time>
      </trkpt>
      <trkpt lat="45.60972" lon="6.58365">
        <ele>2185.69</ele>
        <time>2015-03-15T14:04:54Z</time>
      </trkpt>
      <trkpt lat="45.60945" lon="6.58378">
        <ele>2178.48</ele>
        <time>2015-03-15T14:05:24Z</time>
      </trkpt>
      <trkpt lat="45.6092" lon="6.58392">
        <ele>2181.37</ele>
        <time>2015-03-15T14:05:54Z</time>
      </trkpt>
      <trkpt lat="45.60912" lon="6.58396">
        <ele>2182.33</ele>
        <time>2015-03-15T14:06:24Z</time>
      </trkpt>
      <trkpt lat="45.60907" lon="6.58389">
        <ele>2184.73</ele>
        <time>2015-03-15T14:06:54Z</time>
      </trkpt>
      <trkpt lat="45.60884" lon="6.58415">
        <ele>2184.25</ele>
        <time>2015-03-15T14:07:24Z</time>
      </trkpt>
      <trkpt lat="45.60865" lon="6.58435">
        <ele>2188.1</ele>
        <time>2015-03-15T14:07:54Z</time>
      </trkpt>
      <trkpt lat="45.60855" lon="6.5845">
        <ele>2190.02</ele>
        <time>2015-03-15T14:08:24Z</time>
      </trkpt>
      <trkpt lat="45.60838" lon="6.58469">
        <ele>2191.46</ele>
        <time>2015-03-15T14:08:54Z</time>
      </trkpt>
      <trkpt lat="45.60824" lon="6.58456">
        <ele>2193.87</ele>
        <time>2015-03-15T14:09:24Z</time>
      </trkpt>
      <trkpt lat="45.60815" lon="6.58443">
        <ele>2207.32</ele>
        <time>2015-03-15T14:09:54Z</time>
      </trkpt>
      <trkpt lat="45.60811" lon="6.58467">
        <ele>2201.08</ele>
        <time>2015-03-15T14:10:24Z</time>
      </trkpt>
      <trkpt lat="45.608" lon="6.58459">
        <ele>2210.69</ele>
        <time>2015-03-15T14:10:54Z</time>
      </trkpt>
      <trkpt lat="45.60793" lon="6.58452">
        <ele>2208.29</ele>
        <time>2015-03-15T14:11:24Z</time>
      </trkpt>
      <trkpt lat="45.6078" lon="6.58453">
        <ele>2215.01</ele>
        <time>2015-03-15T14:11:54Z</time>
      </trkpt>
      <trkpt lat="45.60768" lon="6.58438">
        <ele>2218.38</ele>
        <time>2015-03-15T14:12:24Z</time>
      </trkpt>
      <trkpt lat="45.60756" lon="6.58424">
        <ele>2223.19</ele>
        <time>2015-03-15T14:12:54Z</time>
      </trkpt>
      <trkpt lat="45.60743" lon="6.58409">
        <ele>2224.15</ele>
        <time>2015-03-15T14:13:24Z</time>
      </trkpt>
      <trkpt lat="45.60727" lon="6.58401">
        <ele>2226.55</ele>
        <time>2015-03-15T14:13:54Z</time>
      </trkpt>
      <trkpt lat="45.60726" lon="6.58399">
        <ele>2226.07</ele>
        <time>2015-03-15T14:14:24Z</time>
      </trkpt>
      <trkpt lat="45.60725" lon="6.58403">
        <ele>2227.03</ele>
        <time>2015-03-15T14:14:54Z</time>
      </trkpt>
      <trkpt lat="45.60728" lon="6.5842">
        <ele>2232.32</ele>
        <time>2015-03-15T14:15:24Z</time>
      </trkpt>
      <trkpt lat="45.60713" lon="6.58419">
        <ele>2237.61</ele>
        <time>2015-03-15T14:15:54Z</time>
      </trkpt>
      <trkpt lat="45.60702" lon="6.58424">
        <ele>2238.09</ele>
        <time>2015-03-15T14:16:24Z</time>
      </trkpt>
      <trkpt lat="45.6068" lon="6.58437">
        <ele>2238.57</ele>
        <time>2015-03-15T14:16:54Z</time>
      </trkpt>
      <trkpt lat="45.60661" lon="6.58451">
        <ele>2242.89</ele>
        <time>2015-03-15T14:17:24Z</time>
      </trkpt>
      <trkpt lat="45.60645" lon="6.5846">
        <ele>2249.62</ele>
        <time>2015-03-15T14:17:54Z</time>
      </trkpt>
      <trkpt lat="45.60631" lon="6.58474">
        <ele>2249.62</ele>
        <time>2015-03-15T14:18:24Z</time>
      </trkpt>
      <trkpt lat="45.60612" lon="6.58484">
        <ele>2252.99</ele>
        <time>2015-03-15T14:18:54Z</time>
      </trkpt>
      <trkpt lat="45.60597" lon="6.58493">
        <ele>2256.35</ele>
        <time>2015-03-15T14:19:24Z</time>
      </trkpt>
      <trkpt lat="45.60591" lon="6.58496">
        <ele>2256.83</ele>
        <time>2015-03-15T14:19:54Z</time>
      </trkpt>
      <trkpt lat="45.60594" lon="6.58512">
        <ele>2247.7</ele>
        <time>2015-03-15T14:20:24Z</time>
      </trkpt>
      <trkpt lat="45.60594" lon="6.58517">
        <ele>2245.78</ele>
        <time>2015-03-15T14:20:54Z</time>
      </trkpt>
      <trkpt lat="45.60595" lon="6.58516">
        <ele>2247.22</ele>
        <time>2015-03-15T14:21:24Z</time>
      </trkpt>
      <trkpt lat="45.60596" lon="6.58518">
        <ele>2248.66</ele>
        <time>2015-03-15T14:21:54Z</time>
      </trkpt>
      <trkpt lat="45.60595" lon="6.58518">
        <ele>2247.7</ele>
        <time>2015-03-15T14:22:24Z</time>
      </trkpt>
      <trkpt lat="45.60596" lon="6.5852">
        <ele>2244.82</ele>
        <time>2015-03-15T14:22:54Z</time>
      </trkpt>
      <trkpt lat="45.60595" lon="6.58518">
        <ele>2247.7</ele>
        <time>2015-03-15T14:23:24Z</time>
      </trkpt>
      <trkpt lat="45.60593" lon="6.58516">
        <ele>2247.22</ele>
        <time>2015-03-15T14:23:54Z</time>
      </trkpt>
      <trkpt lat="45.60596" lon="6.58513">
        <ele>2245.78</ele>
        <time>2015-03-15T14:24:24Z</time>
      </trkpt>
      <trkpt lat="45.60594" lon="6.58515">
        <ele>2245.78</ele>
        <time>2015-03-15T14:24:54Z</time>
      </trkpt>
      <trkpt lat="45.60594" lon="6.58514">
        <ele>2245.78</ele>
        <time>2015-03-15T14:25:24Z</time>
      </trkpt>
      <trkpt lat="45.60594" lon="6.58513">
        <ele>2247.7</ele>
        <time>2015-03-15T14:25:54Z</time>
      </trkpt>
      <trkpt lat="45.60594" lon="6.58515">
        <ele>2242.89</ele>
        <time>2015-03-15T14:26:24Z</time>
      </trkpt>
      <trkpt lat="45.60595" lon="6.58516">
        <ele>2244.82</ele>
        <time>2015-03-15T14:26:54Z</time>
      </trkpt>
      <trkpt lat="45.60594" lon="6.58518">
        <ele>2248.18</ele>
        <time>2015-03-15T14:27:24Z</time>
      </trkpt>
      <trkpt lat="45.60595" lon="6.58517">
        <ele>2247.22</ele>
        <time>2015-03-15T14:27:54Z</time>
      </trkpt>
      <trkpt lat="45.60595" lon="6.58515">
        <ele>2249.14</ele>
        <time>2015-03-15T14:28:24Z</time>
      </trkpt>
      <trkpt lat="45.60579" lon="6.58524">
        <ele>2248.18</ele>
        <time>2015-03-15T14:28:54Z</time>
      </trkpt>
      <trkpt lat="45.60554" lon="6.58528">
        <ele>2250.58</ele>
        <time>2015-03-15T14:29:24Z</time>
      </trkpt>
      <trkpt lat="45.6053" lon="6.58529">
        <ele>2253.47</ele>
        <time>2015-03-15T14:29:54Z</time>
      </trkpt>
      <trkpt lat="45.60515" lon="6.58534">
        <ele>2249.62</ele>
        <time>2015-03-15T14:30:24Z</time>
      </trkpt>
      <trkpt lat="45.60504" lon="6.58557">
        <ele>2247.7</ele>
        <time>2015-03-15T14:30:54Z</time>
      </trkpt>
      <trkpt lat="45.60473" lon="6.58561">
        <ele>2246.74</ele>
        <time>2015-03-15T14:31:24Z</time>
      </trkpt>
      <trkpt lat="45.60449" lon="6.58558">
        <ele>2246.74</ele>
        <time>2015-03-15T14:31:54Z</time>
      </trkpt>
      <trkpt lat="45.60424" lon="6.58553">
        <ele>2247.7</ele>
        <time>2015-03-15T14:32:24Z</time>
      </trkpt>
      <trkpt lat="45.60405" lon="6.58545">
        <ele>2253.47</ele>
        <time>2015-03-15T14:32:54Z</time>
      </trkpt>
      <trkpt lat="45.60385" lon="6.58541">
        <ele>2250.58</ele>
        <time>2015-03-15T14:33:24Z</time>
      </trkpt>
      <trkpt lat="45.60366" lon="6.58541">
        <ele>2247.7</ele>
        <time>2015-03-15T14:33:54Z</time>
      </trkpt>
      <trkpt lat="45.60349" lon="6.58543">
        <ele>2250.58</ele>
        <time>2015-03-15T14:34:24Z</time>
      </trkpt>
      <trkpt lat="45.60334" lon="6.58557">
        <ele>2255.39</ele>
        <time>2015-03-15T14:34:54Z</time>
      </trkpt>
      <trkpt lat="45.60317" lon="6.58551">
        <ele>2256.83</ele>
        <time>2015-03-15T14:35:24Z</time>
      </trkpt>
      <trkpt lat="45.60297" lon="6.58547">
        <ele>2258.27</ele>
        <time>2015-03-15T14:35:54Z</time>
      </trkpt>
      <trkpt lat="45.60277" lon="6.5854">
        <ele>2262.6</ele>
        <time>2015-03-15T14:36:24Z</time>
      </trkpt>
      <trkpt lat="45.60255" lon="6.58533">
        <ele>2261.16</ele>
        <time>2015-03-15T14:36:54Z</time>
      </trkpt>
      <trkpt lat="45.60241" lon="6.58513">
        <ele>2265</ele>
        <time>2015-03-15T14:37:24Z</time>
      </trkpt>
      <trkpt lat="45.60226" lon="6.58499">
        <ele>2267.41</ele>
        <time>2015-03-15T14:37:54Z</time>
      </trkpt>
      <trkpt lat="45.60208" lon="6.5849">
        <ele>2268.85</ele>
        <time>2015-03-15T14:38:24Z</time>
      </trkpt>
      <trkpt lat="45.60205" lon="6.58489">
        <ele>2270.29</ele>
        <time>2015-03-15T14:38:54Z</time>
      </trkpt>
      <trkpt lat="45.60203" lon="6.58488">
        <ele>2272.21</ele>
        <time>2015-03-15T14:39:24Z</time>
      </trkpt>
      <trkpt lat="45.60205" lon="6.5849">
        <ele>2272.21</ele>
        <time>2015-03-15T14:39:54Z</time>
      </trkpt>
      <trkpt lat="45.60193" lon="6.58484">
        <ele>2272.21</ele>
        <time>2015-03-15T14:40:24Z</time>
      </trkpt>
      <trkpt lat="45.6018" lon="6.58483">
        <ele>2275.58</ele>
        <time>2015-03-15T14:40:54Z</time>
      </trkpt>
      <trkpt lat="45.60164" lon="6.58483">
        <ele>2278.46</ele>
        <time>2015-03-15T14:41:24Z</time>
      </trkpt>
      <trkpt lat="45.60152" lon="6.58491">
        <ele>2282.79</ele>
        <time>2015-03-15T14:41:54Z</time>
      </trkpt>
      <trkpt lat="45.60148" lon="6.58504">
        <ele>2287.11</ele>
        <time>2015-03-15T14:42:24Z</time>
      </trkpt>
      <trkpt lat="45.60145" lon="6.58529">
        <ele>2290.96</ele>
        <time>2015-03-15T14:42:54Z</time>
      </trkpt>
      <trkpt lat="45.60145" lon="6.5855">
        <ele>2294.32</ele>
        <time>2015-03-15T14:43:24Z</time>
      </trkpt>
      <trkpt lat="45.60131" lon="6.58564">
        <ele>2299.61</ele>
        <time>2015-03-15T14:43:54Z</time>
      </trkpt>
      <trkpt lat="45.6012" lon="6.5858">
        <ele>2301.53</ele>
        <time>2015-03-15T14:44:24Z</time>
      </trkpt>
      <trkpt lat="45.60112" lon="6.58597">
        <ele>2307.78</ele>
        <time>2015-03-15T14:44:54Z</time>
      </trkpt>
      <trkpt lat="45.60101" lon="6.58613">
        <ele>2309.7</ele>
        <time>2015-03-15T14:45:24Z</time>
      </trkpt>
      <trkpt lat="45.60084" lon="6.58605">
        <ele>2312.11</ele>
        <time>2015-03-15T14:45:54Z</time>
      </trkpt>
      <trkpt lat="45.6007" lon="6.58597">
        <ele>2314.51</ele>
        <time>2015-03-15T14:46:24Z</time>
      </trkpt>
      <trkpt lat="45.60055" lon="6.58596">
        <ele>2317.88</ele>
        <time>2015-03-15T14:46:54Z</time>
      </trkpt>
      <trkpt lat="45.60041" lon="6.58585">
        <ele>2321.24</ele>
        <time>2015-03-15T14:47:24Z</time>
      </trkpt>
      <trkpt lat="45.60047" lon="6.58576">
        <ele>2327.97</ele>
        <time>2015-03-15T14:47:54Z</time>
      </trkpt>
      <trkpt lat="45.60049" lon="6.58577">
        <ele>2324.61</ele>
        <time>2015-03-15T14:48:24Z</time>
      </trkpt>
      <trkpt lat="45.60042" lon="6.58573">
        <ele>2326.53</ele>
        <time>2015-03-15T14:48:54Z</time>
      </trkpt>
      <trkpt lat="45.60023" lon="6.58567">
        <ele>2329.89</ele>
        <time>2015-03-15T14:49:24Z</time>
      </trkpt>
      <trkpt lat="45.60013" lon="6.58563">
        <ele>2330.37</ele>
        <time>2015-03-15T14:49:54Z</time>
      </trkpt>
      <trkpt lat="45.59993" lon="6.58549">
        <ele>2339.51</ele>
        <time>2015-03-15T14:50:24Z</time>
      </trkpt>
      <trkpt lat="45.59979" lon="6.58539">
        <ele>2339.02</ele>
        <time>2015-03-15T14:50:54Z</time>
      </trkpt>
      <trkpt lat="45.59966" lon="6.58528">
        <ele>2339.02</ele>
        <time>2015-03-15T14:51:24Z</time>
      </trkpt>
      <trkpt lat="45.59954" lon="6.58522">
        <ele>2341.91</ele>
        <time>2015-03-15T14:51:54Z</time>
      </trkpt>
      <trkpt lat="45.5993" lon="6.58511">
        <ele>2346.72</ele>
        <time>2015-03-15T14:52:24Z</time>
      </trkpt>
      <trkpt lat="45.59916" lon="6.58507">
        <ele>2343.83</ele>
        <time>2015-03-15T14:52:54Z</time>
      </trkpt>
      <trkpt lat="45.59901" lon="6.58501">
        <ele>2347.68</ele>
        <time>2015-03-15T14:53:24Z</time>
      </trkpt>
      <trkpt lat="45.59887" lon="6.58491">
        <ele>2350.08</ele>
        <time>2015-03-15T14:53:54Z</time>
      </trkpt>
      <trkpt lat="45.59869" lon="6.58477">
        <ele>2353.44</ele>
        <time>2015-03-15T14:54:24Z</time>
      </trkpt>
      <trkpt lat="45.59853" lon="6.58467">
        <ele>2356.81</ele>
        <time>2015-03-15T14:54:54Z</time>
      </trkpt>
      <trkpt lat="45.59844" lon="6.58467">
        <ele>2354.89</ele>
        <time>2015-03-15T14:55:24Z</time>
      </trkpt>
      <trkpt lat="45.59844" lon="6.58464">
        <ele>2352.96</ele>
        <time>2015-03-15T14:55:54Z</time>
      </trkpt>
      <trkpt lat="45.59844" lon="6.58464">
        <ele>2354.41</ele>
        <time>2015-03-15T14:56:24Z</time>
      </trkpt>
      <trkpt lat="45.59831" lon="6.58474">
        <ele>2361.14</ele>
        <time>2015-03-15T14:56:54Z</time>
      </trkpt>
      <trkpt lat="45.59821" lon="6.58489">
        <ele>2358.73</ele>
        <time>2015-03-15T14:57:24Z</time>
      </trkpt>
      <trkpt lat="45.59816" lon="6.58522">
        <ele>2347.68</ele>
        <time>2015-03-15T14:57:54Z</time>
      </trkpt>
      <trkpt lat="45.59794" lon="6.58532">
        <ele>2347.2</ele>
        <time>2015-03-15T14:58:24Z</time>
      </trkpt>
      <trkpt lat="45.59781" lon="6.58532">
        <ele>2343.35</ele>
        <time>2015-03-15T14:58:54Z</time>
      </trkpt>
      <trkpt lat="45.5978" lon="6.58533">
        <ele>2340.95</ele>
        <time>2015-03-15T14:59:24Z</time>
      </trkpt>
      <trkpt lat="45.59779" lon="6.58532">
        <ele>2341.43</ele>
        <time>2015-03-15T14:59:54Z</time>
      </trkpt>
      <trkpt lat="45.59777" lon="6.58532">
        <ele>2340.95</ele>
        <time>2015-03-15T15:00:24Z</time>
      </trkpt>
      <trkpt lat="45.59777" lon="6.58533">
        <ele>2339.99</ele>
        <time>2015-03-15T15:00:54Z</time>
      </trkpt>
      <trkpt lat="45.59776" lon="6.58533">
        <ele>2339.02</ele>
        <time>2015-03-15T15:01:24Z</time>
      </trkpt>
      <trkpt lat="45.59777" lon="6.58534">
        <ele>2337.58</ele>
        <time>2015-03-15T15:01:54Z</time>
      </trkpt>
      <trkpt lat="45.59778" lon="6.58532">
        <ele>2339.99</ele>
        <time>2015-03-15T15:02:24Z</time>
      </trkpt>
      <trkpt lat="45.59777" lon="6.58531">
        <ele>2327.49</ele>
        <time>2015-03-15T15:02:54Z</time>
      </trkpt>
      <trkpt lat="45.5978" lon="6.58535">
        <ele>2339.99</ele>
        <time>2015-03-15T15:03:24Z</time>
      </trkpt>
      <trkpt lat="45.5978" lon="6.58532">
        <ele>2344.31</ele>
        <time>2015-03-15T15:03:54Z</time>
      </trkpt>
      <trkpt lat="45.5978" lon="6.58532">
        <ele>2340.95</ele>
        <time>2015-03-15T15:04:24Z</time>
      </trkpt>
      <trkpt lat="45.59779" lon="6.5853">
        <ele>2344.31</ele>
        <time>2015-03-15T15:04:54Z</time>
      </trkpt>
      <trkpt lat="45.59758" lon="6.58628">
        <ele>2322.68</ele>
        <time>2015-03-15T15:05:24Z</time>
      </trkpt>
      <trkpt lat="45.59588" lon="6.58649">
        <ele>2271.25</ele>
        <time>2015-03-15T15:05:54Z</time>
      </trkpt>
      <trkpt lat="45.59533" lon="6.58625">
        <ele>2267.41</ele>
        <time>2015-03-15T15:06:24Z</time>
      </trkpt>
      <trkpt lat="45.59532" lon="6.58626">
        <ele>2268.37</ele>
        <time>2015-03-15T15:06:54Z</time>
      </trkpt>
      <trkpt lat="45.5947" lon="6.58661">
        <ele>2246.26</ele>
        <time>2015-03-15T15:07:24Z</time>
      </trkpt>
      <trkpt lat="45.59392" lon="6.58658">
        <ele>2222.71</ele>
        <time>2015-03-15T15:07:54Z</time>
      </trkpt>
      <trkpt lat="45.59298" lon="6.58759">
        <ele>2202.52</ele>
        <time>2015-03-15T15:08:24Z</time>
      </trkpt>
      <trkpt lat="45.59204" lon="6.5881">
        <ele>2195.79</ele>
        <time>2015-03-15T15:08:54Z</time>
      </trkpt>
      <trkpt lat="45.59084" lon="6.5885">
        <ele>2180.89</ele>
        <time>2015-03-15T15:09:24Z</time>
      </trkpt>
      <trkpt lat="45.58983" lon="6.58819">
        <ele>2177.04</ele>
        <time>2015-03-15T15:09:54Z</time>
      </trkpt>
      <trkpt lat="45.58936" lon="6.58826">
        <ele>2175.6</ele>
        <time>2015-03-15T15:10:24Z</time>
      </trkpt>
      <trkpt lat="45.589" lon="6.5882">
        <ele>2175.12</ele>
        <time>2015-03-15T15:10:54Z</time>
      </trkpt>
      <trkpt lat="45.58902" lon="6.58819">
        <ele>2182.33</ele>
        <time>2015-03-15T15:11:24Z</time>
      </trkpt>
      <trkpt lat="45.58899" lon="6.58818">
        <ele>2176.08</ele>
        <time>2015-03-15T15:11:54Z</time>
      </trkpt>
      <trkpt lat="45.58901" lon="6.5882">
        <ele>2175.6</ele>
        <time>2015-03-15T15:12:24Z</time>
      </trkpt>
      <trkpt lat="45.58878" lon="6.58795">
        <ele>2165.51</ele>
        <time>2015-03-15T15:12:54Z</time>
      </trkpt>
      <trkpt lat="45.589" lon="6.58635">
        <ele>2143.88</ele>
        <time>2015-03-15T15:13:24Z</time>
      </trkpt>
      <trkpt lat="45.5876" lon="6.58696">
        <ele>2126.57</ele>
        <time>2015-03-15T15:13:54Z</time>
      </trkpt>
      <trkpt lat="45.58729" lon="6.58656">
        <ele>2102.06</ele>
        <time>2015-03-15T15:14:24Z</time>
      </trkpt>
      <trkpt lat="45.58686" lon="6.58661">
        <ele>2078.03</ele>
        <time>2015-03-15T15:14:54Z</time>
      </trkpt>
      <trkpt lat="45.58634" lon="6.58609">
        <ele>2065.05</ele>
        <time>2015-03-15T15:15:24Z</time>
      </trkpt>
      <trkpt lat="45.58646" lon="6.58589">
        <ele>2064.09</ele>
        <time>2015-03-15T15:15:54Z</time>
      </trkpt>
      <trkpt lat="45.58577" lon="6.58584">
        <ele>2053.99</ele>
        <time>2015-03-15T15:16:24Z</time>
      </trkpt>
      <trkpt lat="45.58491" lon="6.58646">
        <ele>2037.65</ele>
        <time>2015-03-15T15:16:54Z</time>
      </trkpt>
      <trkpt lat="45.58387" lon="6.58758">
        <ele>2018.43</ele>
        <time>2015-03-15T15:17:24Z</time>
      </trkpt>
      <trkpt lat="45.58336" lon="6.58788">
        <ele>2013.62</ele>
        <time>2015-03-15T15:17:54Z</time>
      </trkpt>
      <trkpt lat="45.58336" lon="6.58788">
        <ele>2016.5</ele>
        <time>2015-03-15T15:18:24Z</time>
      </trkpt>
      <trkpt lat="45.58339" lon="6.5879">
        <ele>2016.02</ele>
        <time>2015-03-15T15:18:54Z</time>
      </trkpt>
      <trkpt lat="45.58365" lon="6.58884">
        <ele>1996.32</ele>
        <time>2015-03-15T15:19:24Z</time>
      </trkpt>
      <trkpt lat="45.58272" lon="6.58927">
        <ele>1986.7</ele>
        <time>2015-03-15T15:19:54Z</time>
      </trkpt>
      <trkpt lat="45.58266" lon="6.58934">
        <ele>1981.9</ele>
        <time>2015-03-15T15:20:24Z</time>
      </trkpt>
      <trkpt lat="45.58288" lon="6.58937">
        <ele>1981.41</ele>
        <time>2015-03-15T15:20:54Z</time>
      </trkpt>
      <trkpt lat="45.58288" lon="6.58935">
        <ele>1982.38</ele>
        <time>2015-03-15T15:21:24Z</time>
      </trkpt>
      <trkpt lat="45.58312" lon="6.59046">
        <ele>1971.32</ele>
        <time>2015-03-15T15:21:54Z</time>
      </trkpt>
      <trkpt lat="45.58281" lon="6.5925">
        <ele>1946.33</ele>
        <time>2015-03-15T15:22:24Z</time>
      </trkpt>
      <trkpt lat="45.58215" lon="6.59433">
        <ele>1924.7</ele>
        <time>2015-03-15T15:22:54Z</time>
      </trkpt>
      <trkpt lat="45.58201" lon="6.59475">
        <ele>1913.16</ele>
        <time>2015-03-15T15:23:24Z</time>
      </trkpt>
      <trkpt lat="45.58203" lon="6.59477">
        <ele>1913.16</ele>
        <time>2015-03-15T15:23:54Z</time>
      </trkpt>
      <trkpt lat="45.58177" lon="6.59532">
        <ele>1904.03</ele>
        <time>2015-03-15T15:24:24Z</time>
      </trkpt>
      <trkpt lat="45.58124" lon="6.59568">
        <ele>1880.96</ele>
        <time>2015-03-15T15:24:54Z</time>
      </trkpt>
      <trkpt lat="45.58052" lon="6.59617">
        <ele>1863.65</ele>
        <time>2015-03-15T15:25:24Z</time>
      </trkpt>
      <trkpt lat="45.58045" lon="6.59649">
        <ele>1858.37</ele>
        <time>2015-03-15T15:25:54Z</time>
      </trkpt>
      <trkpt lat="45.58003" lon="6.59755">
        <ele>1843.47</ele>
        <time>2015-03-15T15:26:24Z</time>
      </trkpt>
      <trkpt lat="45.57899" lon="6.5984">
        <ele>1824.24</ele>
        <time>2015-03-15T15:26:54Z</time>
      </trkpt>
      <trkpt lat="45.57794" lon="6.59927">
        <ele>1815.59</ele>
        <time>2015-03-15T15:27:24Z</time>
      </trkpt>
      <trkpt lat="45.5775" lon="6.59963">
        <ele>1814.15</ele>
        <time>2015-03-15T15:27:54Z</time>
      </trkpt>
      <trkpt lat="45.57651" lon="6.6006">
        <ele>1794.92</ele>
        <time>2015-03-15T15:28:24Z</time>
      </trkpt>
      <trkpt lat="45.57582" lon="6.60143">
        <ele>1786.27</ele>
        <time>2015-03-15T15:28:54Z</time>
      </trkpt>
      <trkpt lat="45.57567" lon="6.60164">
        <ele>1787.23</ele>
        <time>2015-03-15T15:29:24Z</time>
      </trkpt>
      <trkpt lat="45.57532" lon="6.60211">
        <ele>1784.82</ele>
        <time>2015-03-15T15:29:54Z</time>
      </trkpt>
      <trkpt lat="45.57499" lon="6.60286">
        <ele>1780.98</ele>
        <time>2015-03-15T15:30:24Z</time>
      </trkpt>
      <trkpt lat="45.57444" lon="6.60351">
        <ele>1779.06</ele>
        <time>2015-03-15T15:30:54Z</time>
      </trkpt>
      <trkpt lat="45.57395" lon="6.60442">
        <ele>1773.29</ele>
        <time>2015-03-15T15:31:24Z</time>
      </trkpt>
      <trkpt lat="45.57326" lon="6.60547">
        <ele>1762.71</ele>
        <time>2015-03-15T15:31:54Z</time>
      </trkpt>
      <trkpt lat="45.57334" lon="6.60587">
        <ele>1759.35</ele>
        <time>2015-03-15T15:32:24Z</time>
      </trkpt>
      <trkpt lat="45.57335" lon="6.60588">
        <ele>1758.87</ele>
        <time>2015-03-15T15:32:54Z</time>
      </trkpt>
      <trkpt lat="45.57335" lon="6.60588">
        <ele>1761.27</ele>
        <time>2015-03-15T15:33:24Z</time>
      </trkpt>
      <trkpt lat="45.57338" lon="6.60593">
        <ele>1759.83</ele>
        <time>2015-03-15T15:33:54Z</time>
      </trkpt>
      <trkpt lat="45.5736" lon="6.6067">
        <ele>1756.47</ele>
        <time>2015-03-15T15:34:24Z</time>
      </trkpt>
      <trkpt lat="45.57361" lon="6.60678">
        <ele>1753.58</ele>
        <time>2015-03-15T15:34:54Z</time>
      </trkpt>
      <trkpt lat="45.57361" lon="6.60724">
        <ele>1751.66</ele>
        <time>2015-03-15T15:35:24Z</time>
      </trkpt>
      <trkpt lat="45.57362" lon="6.60733">
        <ele>1752.14</ele>
        <time>2015-03-15T15:35:54Z</time>
      </trkpt>
      <trkpt lat="45.57365" lon="6.60735">
        <ele>1752.62</ele>
        <time>2015-03-15T15:36:24Z</time>
      </trkpt>
      <trkpt lat="45.57366" lon="6.60748">
        <ele>1751.66</ele>
        <time>2015-03-15T15:36:54Z</time>
      </trkpt>
      <trkpt lat="45.57362" lon="6.60761">
        <ele>1751.18</ele>
        <time>2015-03-15T15:37:24Z</time>
      </trkpt>
      <trkpt lat="45.57368" lon="6.60765">
        <ele>1753.1</ele>
        <time>2015-03-15T15:37:54Z</time>
      </trkpt>
      <trkpt lat="45.57362" lon="6.60754">
        <ele>1754.06</ele>
        <time>2015-03-15T15:38:24Z</time>
      </trkpt>
      <trkpt lat="45.57362" lon="6.60755">
        <ele>1754.54</ele>
        <time>2015-03-15T15:38:54Z</time>
      </trkpt>
      <trkpt lat="45.57361" lon="6.60753">
        <ele>1755.99</ele>
        <time>2015-03-15T15:39:24Z</time>
      </trkpt>
      <trkpt lat="45.57362" lon="6.60751">
        <ele>1757.43</ele>
        <time>2015-03-15T15:39:54Z</time>
      </trkpt>
      <trkpt lat="45.5737" lon="6.60756">
        <ele>1758.87</ele>
        <time>2015-03-15T15:40:24Z</time>
      </trkpt>
      <trkpt lat="45.57372" lon="6.60754">
        <ele>1759.35</ele>
        <time>2015-03-15T15:40:54Z</time>
      </trkpt>
      <trkpt lat="45.57373" lon="6.60756">
        <ele>1760.31</ele>
        <time>2015-03-15T15:41:24Z</time>
      </trkpt>
      <trkpt lat="45.57373" lon="6.60762">
        <ele>1758.39</ele>
        <time>2015-03-15T15:41:54Z</time>
      </trkpt>
      <trkpt lat="45.57375" lon="6.60767">
        <ele>1759.83</ele>
        <time>2015-03-15T15:42:24Z</time>
      </trkpt>
      <trkpt lat="45.5738" lon="6.60773">
        <ele>1760.79</ele>
        <time>2015-03-15T15:42:54Z</time>
      </trkpt>
      <trkpt lat="45.57384" lon="6.60783">
        <ele>1761.75</ele>
        <time>2015-03-15T15:43:24Z</time>
      </trkpt>
      <trkpt lat="45.57391" lon="6.60791">
        <ele>1764.64</ele>
        <time>2015-03-15T15:43:54Z</time>
      </trkpt>
      <trkpt lat="45.57394" lon="6.60799">
        <ele>1763.2</ele>
        <time>2015-03-15T15:44:24Z</time>
      </trkpt>
      <trkpt lat="45.57395" lon="6.60807">
        <ele>1765.12</ele>
        <time>2015-03-15T15:44:54Z</time>
      </trkpt>
      <trkpt lat="45.57397" lon="6.60811">
        <ele>1765.12</ele>
        <time>2015-03-15T15:45:24Z</time>
      </trkpt>
      <trkpt lat="45.57396" lon="6.60823">
        <ele>1760.31</ele>
        <time>2015-03-15T15:45:54Z</time>
      </trkpt>
      <trkpt lat="45.57389" lon="6.60832">
        <ele>1754.54</ele>
        <time>2015-03-15T15:46:24Z</time>
      </trkpt>
      <trkpt lat="45.57394" lon="6.60849">
        <ele>1750.22</ele>
        <time>2015-03-15T15:46:54Z</time>
      </trkpt>
      <trkpt lat="45.57392" lon="6.60854">
        <ele>1747.81</ele>
        <time>2015-03-15T15:47:24Z</time>
      </trkpt>
      <trkpt lat="45.57389" lon="6.60855">
        <ele>1745.89</ele>
        <time>2015-03-15T15:47:54Z</time>
      </trkpt>
      <trkpt lat="45.57387" lon="6.60859">
        <ele>1744.45</ele>
        <time>2015-03-15T15:48:24Z</time>
      </trkpt>
      <trkpt lat="45.57386" lon="6.60862">
        <ele>1742.05</ele>
        <time>2015-03-15T15:48:54Z</time>
      </trkpt>
      <trkpt lat="45.57381" lon="6.60865">
        <ele>1739.64</ele>
        <time>2015-03-15T15:49:24Z</time>
      </trkpt>
      <trkpt lat="45.57382" lon="6.60873">
        <ele>1738.68</ele>
        <time>2015-03-15T15:49:54Z</time>
      </trkpt>
      <trkpt lat="45.57378" lon="6.60877">
        <ele>1736.28</ele>
        <time>2015-03-15T15:50:24Z</time>
      </trkpt>
      <trkpt lat="45.57378" lon="6.60884">
        <ele>1733.39</ele>
        <time>2015-03-15T15:50:54Z</time>
      </trkpt>
      <trkpt lat="45.57377" lon="6.60885">
        <ele>1731.95</ele>
        <time>2015-03-15T15:51:24Z</time>
      </trkpt>
      <trkpt lat="45.5737" lon="6.60887">
        <ele>1730.03</ele>
        <time>2015-03-15T15:51:54Z</time>
      </trkpt>
      <trkpt lat="45.57371" lon="6.60884">
        <ele>1729.55</ele>
        <time>2015-03-15T15:52:24Z</time>
      </trkpt>
      <trkpt lat="45.57372" lon="6.60891">
        <ele>1729.55</ele>
        <time>2015-03-15T15:52:54Z</time>
      </trkpt>
      <trkpt lat="45.57374" lon="6.60897">
        <ele>1728.59</ele>
        <time>2015-03-15T15:53:24Z</time>
      </trkpt>
      <trkpt lat="45.57371" lon="6.60899">
        <ele>1728.59</ele>
        <time>2015-03-15T15:53:54Z</time>
      </trkpt>
      <trkpt lat="45.57371" lon="6.60893">
        <ele>1729.07</ele>
        <time>2015-03-15T15:54:24Z</time>
      </trkpt>
      <trkpt lat="45.57373" lon="6.60892">
        <ele>1730.03</ele>
        <time>2015-03-15T15:54:54Z</time>
      </trkpt>
      <trkpt lat="45.57372" lon="6.60889">
        <ele>1729.07</ele>
        <time>2015-03-15T15:55:24Z</time>
      </trkpt>
      <trkpt lat="45.57374" lon="6.6089">
        <ele>1730.03</ele>
        <time>2015-03-15T15:55:54Z</time>
      </trkpt>
      <trkpt lat="45.57372" lon="6.60893">
        <ele>1730.99</ele>
        <time>2015-03-15T15:56:24Z</time>
      </trkpt>
      <trkpt lat="45.57373" lon="6.60893">
        <ele>1730.51</ele>
        <time>2015-03-15T15:56:54Z</time>
      </trkpt>
      <trkpt lat="45.57373" lon="6.60889">
        <ele>1729.55</ele>
        <time>2015-03-15T15:57:24Z</time>
      </trkpt>
      <trkpt lat="45.57374" lon="6.60887">
        <ele>1729.55</ele>
        <time>2015-03-15T15:57:54Z</time>
      </trkpt>
      <trkpt lat="45.57375" lon="6.60887">
        <ele>1730.99</ele>
        <time>2015-03-15T15:58:24Z</time>
      </trkpt>
      <trkpt lat="45.57372" lon="6.6089">
        <ele>1730.99</ele>
        <time>2015-03-15T15:58:54Z</time>
      </trkpt>
      <trkpt lat="45.57371" lon="6.60893">
        <ele>1730.99</ele>
        <time>2015-03-15T15:59:24Z</time>
      </trkpt>
      <trkpt lat="45.57373" lon="6.60891">
        <ele>1730.03</ele>
        <time>2015-03-15T15:59:54Z</time>
      </trkpt>
      <trkpt lat="45.57372" lon="6.60888">
        <ele>1730.03</ele>
        <time>2015-03-15T16:00:24Z</time>
      </trkpt>
      <trkpt lat="45.57371" lon="6.60892">
        <ele>1728.11</ele>
        <time>2015-03-15T16:00:54Z</time>
      </trkpt>
      <trkpt lat="45.57371" lon="6.6089">
        <ele>1730.99</ele>
        <time>2015-03-15T16:01:24Z</time>
      </trkpt>
      <trkpt lat="45.57373" lon="6.60888">
        <ele>1731.47</ele>
        <time>2015-03-15T16:01:54Z</time>
      </trkpt>
      <trkpt lat="45.57375" lon="6.60886">
        <ele>1731.47</ele>
        <time>2015-03-15T16:02:24Z</time>
      </trkpt>
      <trkpt lat="45.57374" lon="6.60885">
        <ele>1731.47</ele>
        <time>2015-03-15T16:02:54Z</time>
      </trkpt>
      <trkpt lat="45.57374" lon="6.60888">
        <ele>1730.51</ele>
        <time>2015-03-15T16:03:24Z</time>
      </trkpt>
      <trkpt lat="45.57376" lon="6.60884">
        <ele>1730.51</ele>
        <time>2015-03-15T16:03:54Z</time>
      </trkpt>
      <trkpt lat="45.57374" lon="6.60883">
        <ele>1730.51</ele>
        <time>2015-03-15T16:04:24Z</time>
      </trkpt>
      <trkpt lat="45.57378" lon="6.6088">
        <ele>1730.03</ele>
        <time>2015-03-15T16:04:54Z</time>
      </trkpt>
      <trkpt lat="45.57374" lon="6.60874">
        <ele>1731.47</ele>
        <time>2015-03-15T16:05:24Z</time>
      </trkpt>
      <trkpt lat="45.57376" lon="6.60874">
        <ele>1730.99</ele>
        <time>2015-03-15T16:05:54Z</time>
      </trkpt>
      <trkpt lat="45.57371" lon="6.60882">
        <ele>1730.99</ele>
        <time>2015-03-15T16:06:24Z</time>
      </trkpt>
      <trkpt lat="45.57372" lon="6.60886">
        <ele>1730.99</ele>
        <time>2015-03-15T16:06:54Z</time>
      </trkpt>
      <trkpt lat="45.57372" lon="6.60892">
        <ele>1729.55</ele>
        <time>2015-03-15T16:07:24Z</time>
      </trkpt>
      <trkpt lat="45.57371" lon="6.6089">
        <ele>1730.03</ele>
        <time>2015-03-15T16:07:54Z</time>
      </trkpt>
      <trkpt lat="45.5737" lon="6.60887">
        <ele>1728.59</ele>
        <time>2015-03-15T16:08:24Z</time>
      </trkpt>
      <trkpt lat="45.57371" lon="6.60889">
        <ele>1730.03</ele>
        <time>2015-03-15T16:08:54Z</time>
      </trkpt>
      <trkpt lat="45.5737" lon="6.60891">
        <ele>1730.03</ele>
        <time>2015-03-15T16:09:24Z</time>
      </trkpt>
      <trkpt lat="45.57372" lon="6.60889">
        <ele>1729.07</ele>
        <time>2015-03-15T16:09:54Z</time>
      </trkpt>
      <trkpt lat="45.5737" lon="6.60884">
        <ele>1731.47</ele>
        <time>2015-03-15T16:10:24Z</time>
      </trkpt>
      <trkpt lat="45.57371" lon="6.60889">
        <ele>1731.95</ele>
        <time>2015-03-15T16:10:54Z</time>
      </trkpt>
      <trkpt lat="45.57371" lon="6.60891">
        <ele>1731.47</ele>
        <time>2015-03-15T16:11:24Z</time>
      </trkpt>
      <trkpt lat="45.5738" lon="6.60915">
        <ele>1734.84</ele>
        <time>2015-03-15T16:11:54Z</time>
      </trkpt>
      <trkpt lat="45.57388" lon="6.60937">
        <ele>1738.2</ele>
        <time>2015-03-15T16:12:24Z</time>
      </trkpt>
      <trkpt lat="45.57394" lon="6.60967">
        <ele>1740.6</ele>
        <time>2015-03-15T16:12:54Z</time>
      </trkpt>
      <trkpt lat="45.57398" lon="6.60993">
        <ele>1741.57</ele>
        <time>2015-03-15T16:13:24Z</time>
      </trkpt>
      <trkpt lat="45.57401" lon="6.61013">
        <ele>1743.97</ele>
        <time>2015-03-15T16:13:54Z</time>
      </trkpt>
      <trkpt lat="45.57399" lon="6.6103">
        <ele>1746.37</ele>
        <time>2015-03-15T16:14:24Z</time>
      </trkpt>
      <trkpt lat="45.57396" lon="6.61059">
        <ele>1749.26</ele>
        <time>2015-03-15T16:14:54Z</time>
      </trkpt>
      <trkpt lat="45.57393" lon="6.61086">
        <ele>1752.62</ele>
        <time>2015-03-15T16:15:24Z</time>
      </trkpt>
      <trkpt lat="45.57385" lon="6.61116">
        <ele>1753.58</ele>
        <time>2015-03-15T16:15:54Z</time>
      </trkpt>
      <trkpt lat="45.57386" lon="6.61145">
        <ele>1755.99</ele>
        <time>2015-03-15T16:16:24Z</time>
      </trkpt>
      <trkpt lat="45.57387" lon="6.61171">
        <ele>1758.87</ele>
        <time>2015-03-15T16:16:54Z</time>
      </trkpt>
      <trkpt lat="45.57379" lon="6.61194">
        <ele>1761.75</ele>
        <time>2015-03-15T16:17:24Z</time>
      </trkpt>
      <trkpt lat="45.57377" lon="6.61196">
        <ele>1761.75</ele>
        <time>2015-03-15T16:17:54Z</time>
      </trkpt>
      <trkpt lat="45.57368" lon="6.61217">
        <ele>1764.64</ele>
        <time>2015-03-15T16:18:24Z</time>
      </trkpt>
      <trkpt lat="45.57358" lon="6.61245">
        <ele>1767.04</ele>
        <time>2015-03-15T16:18:54Z</time>
      </trkpt>
      <trkpt lat="45.57346" lon="6.61263">
        <ele>1770.41</ele>
        <time>2015-03-15T16:19:24Z</time>
      </trkpt>
      <trkpt lat="45.57353" lon="6.61272">
        <ele>1772.33</ele>
        <time>2015-03-15T16:19:54Z</time>
      </trkpt>
      <trkpt lat="45.57362" lon="6.61267">
        <ele>1775.69</ele>
        <time>2015-03-15T16:20:24Z</time>
      </trkpt>
      <trkpt lat="45.57379" lon="6.61256">
        <ele>1779.06</ele>
        <time>2015-03-15T16:20:54Z</time>
      </trkpt>
      <trkpt lat="45.57394" lon="6.61243">
        <ele>1783.86</ele>
        <time>2015-03-15T16:21:24Z</time>
      </trkpt>
      <trkpt lat="45.57408" lon="6.61241">
        <ele>1785.31</ele>
        <time>2015-03-15T16:21:54Z</time>
      </trkpt>
      <trkpt lat="45.57402" lon="6.61263">
        <ele>1789.15</ele>
        <time>2015-03-15T16:22:24Z</time>
      </trkpt>
      <trkpt lat="45.57394" lon="6.61283">
        <ele>1793.96</ele>
        <time>2015-03-15T16:22:54Z</time>
      </trkpt>
      <trkpt lat="45.57386" lon="6.61306">
        <ele>1795.88</ele>
        <time>2015-03-15T16:23:24Z</time>
      </trkpt>
      <trkpt lat="45.57387" lon="6.61319">
        <ele>1798.28</ele>
        <time>2015-03-15T16:23:54Z</time>
      </trkpt>
      <trkpt lat="45.57402" lon="6.61304">
        <ele>1799.73</ele>
        <time>2015-03-15T16:24:24Z</time>
      </trkpt>
      <trkpt lat="45.57418" lon="6.6129">
        <ele>1802.61</ele>
        <time>2015-03-15T16:24:54Z</time>
      </trkpt>
      <trkpt lat="45.57431" lon="6.61276">
        <ele>1805.97</ele>
        <time>2015-03-15T16:25:24Z</time>
      </trkpt>
      <trkpt lat="45.57444" lon="6.61267">
        <ele>1809.82</ele>
        <time>2015-03-15T16:25:54Z</time>
      </trkpt>
      <trkpt lat="45.57439" lon="6.61289">
        <ele>1814.15</ele>
        <time>2015-03-15T16:26:24Z</time>
      </trkpt>
      <trkpt lat="45.57433" lon="6.61311">
        <ele>1816.55</ele>
        <time>2015-03-15T16:26:54Z</time>
      </trkpt>
      <trkpt lat="45.57424" lon="6.61332">
        <ele>1818.47</ele>
        <time>2015-03-15T16:27:24Z</time>
      </trkpt>
      <trkpt lat="45.57416" lon="6.61357">
        <ele>1818.47</ele>
        <time>2015-03-15T16:27:54Z</time>
      </trkpt>
      <trkpt lat="45.57408" lon="6.61382">
        <ele>1821.84</ele>
        <time>2015-03-15T16:28:24Z</time>
      </trkpt>
      <trkpt lat="45.57406" lon="6.6141">
        <ele>1824.72</ele>
        <time>2015-03-15T16:28:54Z</time>
      </trkpt>
      <trkpt lat="45.57402" lon="6.61432">
        <ele>1828.56</ele>
        <time>2015-03-15T16:29:24Z</time>
      </trkpt>
      <trkpt lat="45.57405" lon="6.61452">
        <ele>1835.29</ele>
        <time>2015-03-15T16:29:54Z</time>
      </trkpt>
      <trkpt lat="45.57402" lon="6.61467">
        <ele>1843.95</ele>
        <time>2015-03-15T16:30:24Z</time>
      </trkpt>
      <trkpt lat="45.57401" lon="6.6147">
        <ele>1842.5</ele>
        <time>2015-03-15T16:30:54Z</time>
      </trkpt>
      <trkpt lat="45.57405" lon="6.61481">
        <ele>1840.1</ele>
        <time>2015-03-15T16:31:24Z</time>
      </trkpt>
      <trkpt lat="45.57419" lon="6.61477">
        <ele>1844.91</ele>
        <time>2015-03-15T16:31:54Z</time>
      </trkpt>
      <trkpt lat="45.57435" lon="6.61473">
        <ele>1849.23</ele>
        <time>2015-03-15T16:32:24Z</time>
      </trkpt>
      <trkpt lat="45.5745" lon="6.61466">
        <ele>1852.6</ele>
        <time>2015-03-15T16:32:54Z</time>
      </trkpt>
      <trkpt lat="45.57464" lon="6.61457">
        <ele>1856.92</ele>
        <time>2015-03-15T16:33:24Z</time>
      </trkpt>
      <trkpt lat="45.57478" lon="6.61448">
        <ele>1860.77</ele>
        <time>2015-03-15T16:33:54Z</time>
      </trkpt>
      <trkpt lat="45.57489" lon="6.61446">
        <ele>1863.65</ele>
        <time>2015-03-15T16:34:24Z</time>
      </trkpt>
      <trkpt lat="45.57489" lon="6.61466">
        <ele>1867.02</ele>
        <time>2015-03-15T16:34:54Z</time>
      </trkpt>
      <trkpt lat="45.57502" lon="6.61462">
        <ele>1870.86</ele>
        <time>2015-03-15T16:35:24Z</time>
      </trkpt>
      <trkpt lat="45.57513" lon="6.61447">
        <ele>1870.86</ele>
        <time>2015-03-15T16:35:54Z</time>
      </trkpt>
      <trkpt lat="45.57518" lon="6.61429">
        <ele>1878.07</ele>
        <time>2015-03-15T16:36:24Z</time>
      </trkpt>
      <trkpt lat="45.57528" lon="6.61415">
        <ele>1879.03</ele>
        <time>2015-03-15T16:36:54Z</time>
      </trkpt>
      <trkpt lat="45.5754" lon="6.61404">
        <ele>1885.76</ele>
        <time>2015-03-15T16:37:24Z</time>
      </trkpt>
      <trkpt lat="45.57554" lon="6.61403">
        <ele>1888.65</ele>
        <time>2015-03-15T16:37:54Z</time>
      </trkpt>
      <trkpt lat="45.57567" lon="6.61407">
        <ele>1889.61</ele>
        <time>2015-03-15T16:38:24Z</time>
      </trkpt>
      <trkpt lat="45.57581" lon="6.6141">
        <ele>1892.49</ele>
        <time>2015-03-15T16:38:54Z</time>
      </trkpt>
      <trkpt lat="45.57578" lon="6.61424">
        <ele>1895.86</ele>
        <time>2015-03-15T16:39:25Z</time>
      </trkpt>
      <trkpt lat="45.57573" lon="6.61442">
        <ele>1899.22</ele>
        <time>2015-03-15T16:39:55Z</time>
      </trkpt>
      <trkpt lat="45.57574" lon="6.61444">
        <ele>1900.66</ele>
        <time>2015-03-15T16:40:25Z</time>
      </trkpt>
      <trkpt lat="45.5759" lon="6.61439">
        <ele>1904.51</ele>
        <time>2015-03-15T16:40:55Z</time>
      </trkpt>
      <trkpt lat="45.57602" lon="6.61427">
        <ele>1907.87</ele>
        <time>2015-03-15T16:41:25Z</time>
      </trkpt>
      <trkpt lat="45.57614" lon="6.61422">
        <ele>1912.2</ele>
        <time>2015-03-15T16:41:55Z</time>
      </trkpt>
      <trkpt lat="45.57619" lon="6.61422">
        <ele>1914.12</ele>
        <time>2015-03-15T16:42:25Z</time>
      </trkpt>
      <trkpt lat="45.57618" lon="6.6142">
        <ele>1912.68</ele>
        <time>2015-03-15T16:42:55Z</time>
      </trkpt>
      <trkpt lat="45.57618" lon="6.61419">
        <ele>1912.68</ele>
        <time>2015-03-15T16:43:25Z</time>
      </trkpt>
      <trkpt lat="45.57617" lon="6.61423">
        <ele>1914.12</ele>
        <time>2015-03-15T16:43:55Z</time>
      </trkpt>
      <trkpt lat="45.57614" lon="6.61442">
        <ele>1916.53</ele>
        <time>2015-03-15T16:44:25Z</time>
      </trkpt>
      <trkpt lat="45.57617" lon="6.61461">
        <ele>1919.89</ele>
        <time>2015-03-15T16:44:55Z</time>
      </trkpt>
      <trkpt lat="45.57611" lon="6.61479">
        <ele>1924.7</ele>
        <time>2015-03-15T16:45:25Z</time>
      </trkpt>
      <trkpt lat="45.57604" lon="6.61495">
        <ele>1929.5</ele>
        <time>2015-03-15T16:45:55Z</time>
      </trkpt>
      <trkpt lat="45.57606" lon="6.61516">
        <ele>1929.98</ele>
        <time>2015-03-15T16:46:25Z</time>
      </trkpt>
      <trkpt lat="45.57602" lon="6.61535">
        <ele>1934.79</ele>
        <time>2015-03-15T16:46:55Z</time>
      </trkpt>
      <trkpt lat="45.57601" lon="6.61554">
        <ele>1937.19</ele>
        <time>2015-03-15T16:47:25Z</time>
      </trkpt>
      <trkpt lat="45.57603" lon="6.61572">
        <ele>1941.04</ele>
        <time>2015-03-15T16:47:55Z</time>
      </trkpt>
      <trkpt lat="45.57603" lon="6.61589">
        <ele>1947.77</ele>
        <time>2015-03-15T16:48:25Z</time>
      </trkpt>
      <trkpt lat="45.57604" lon="6.61604">
        <ele>1947.29</ele>
        <time>2015-03-15T16:48:55Z</time>
      </trkpt>
      <trkpt lat="45.57606" lon="6.61623">
        <ele>1950.17</ele>
        <time>2015-03-15T16:49:25Z</time>
      </trkpt>
      <trkpt lat="45.57608" lon="6.6164">
        <ele>1953.06</ele>
        <time>2015-03-15T16:49:55Z</time>
      </trkpt>
      <trkpt lat="45.57606" lon="6.61659">
        <ele>1956.9</ele>
        <time>2015-03-15T16:50:25Z</time>
      </trkpt>
      <trkpt lat="45.57607" lon="6.61675">
        <ele>1961.23</ele>
        <time>2015-03-15T16:50:55Z</time>
      </trkpt>
      <trkpt lat="45.57604" lon="6.61691">
        <ele>1965.55</ele>
        <time>2015-03-15T16:51:25Z</time>
      </trkpt>
      <trkpt lat="45.57607" lon="6.61705">
        <ele>1968.92</ele>
        <time>2015-03-15T16:51:55Z</time>
      </trkpt>
      <trkpt lat="45.5762" lon="6.61696">
        <ele>1970.84</ele>
        <time>2015-03-15T16:52:25Z</time>
      </trkpt>
      <trkpt lat="45.57634" lon="6.61686">
        <ele>1972.76</ele>
        <time>2015-03-15T16:52:55Z</time>
      </trkpt>
      <trkpt lat="45.57649" lon="6.61685">
        <ele>1977.09</ele>
        <time>2015-03-15T16:53:25Z</time>
      </trkpt>
      <trkpt lat="45.57657" lon="6.617">
        <ele>1979.49</ele>
        <time>2015-03-15T16:53:55Z</time>
      </trkpt>
      <trkpt lat="45.57659" lon="6.61723">
        <ele>1983.34</ele>
        <time>2015-03-15T16:54:25Z</time>
      </trkpt>
      <trkpt lat="45.5766" lon="6.61743">
        <ele>1989.1</ele>
        <time>2015-03-15T16:54:55Z</time>
      </trkpt>
      <trkpt lat="45.57663" lon="6.6176">
        <ele>1991.03</ele>
        <time>2015-03-15T16:55:25Z</time>
      </trkpt>
      <trkpt lat="45.57668" lon="6.61781">
        <ele>1992.95</ele>
        <time>2015-03-15T16:55:55Z</time>
      </trkpt>
      <trkpt lat="45.57678" lon="6.6179">
        <ele>1996.8</ele>
        <time>2015-03-15T16:56:25Z</time>
      </trkpt>
      <trkpt lat="45.5768" lon="6.61807">
        <ele>2000.64</ele>
        <time>2015-03-15T16:56:55Z</time>
      </trkpt>
      <trkpt lat="45.57686" lon="6.61816">
        <ele>2004.49</ele>
        <time>2015-03-15T16:57:25Z</time>
      </trkpt>
      <trkpt lat="45.57687" lon="6.61821">
        <ele>2003.52</ele>
        <time>2015-03-15T16:57:55Z</time>
      </trkpt>
      <trkpt lat="45.57688" lon="6.61823">
        <ele>2002.56</ele>
        <time>2015-03-15T16:58:25Z</time>
      </trkpt>
      <trkpt lat="45.57687" lon="6.61822">
        <ele>2004.01</ele>
        <time>2015-03-15T16:58:55Z</time>
      </trkpt>
      <trkpt lat="45.5769" lon="6.61824">
        <ele>2004.01</ele>
        <time>2015-03-15T16:59:25Z</time>
      </trkpt>
      <trkpt lat="45.57697" lon="6.61832">
        <ele>2002.56</ele>
        <time>2015-03-15T16:59:55Z</time>
      </trkpt>
      <trkpt lat="45.57701" lon="6.61835">
        <ele>2003.04</ele>
        <time>2015-03-15T17:00:25Z</time>
      </trkpt>
      <trkpt lat="45.57692" lon="6.6182">
        <ele>2003.04</ele>
        <time>2015-03-15T17:00:55Z</time>
      </trkpt>
      <trkpt lat="45.57697" lon="6.61829">
        <ele>2001.12</ele>
        <time>2015-03-15T17:01:25Z</time>
      </trkpt>
      <trkpt lat="45.57701" lon="6.61838">
        <ele>2001.12</ele>
        <time>2015-03-15T17:01:55Z</time>
      </trkpt>
      <trkpt lat="45.57704" lon="6.61842">
        <ele>2002.56</ele>
        <time>2015-03-15T17:02:25Z</time>
      </trkpt>
      <trkpt lat="45.57709" lon="6.61848">
        <ele>2001.12</ele>
        <time>2015-03-15T17:02:55Z</time>
      </trkpt>
      <trkpt lat="45.57713" lon="6.61854">
        <ele>2002.08</ele>
        <time>2015-03-15T17:03:25Z</time>
      </trkpt>
      <trkpt lat="45.57716" lon="6.6186">
        <ele>2002.08</ele>
        <time>2015-03-15T17:03:55Z</time>
      </trkpt>
      <trkpt lat="45.57682" lon="6.61836">
        <ele>2005.93</ele>
        <time>2015-03-15T17:04:25Z</time>
      </trkpt>
      <trkpt lat="45.57678" lon="6.6186">
        <ele>2009.77</ele>
        <time>2015-03-15T17:04:55Z</time>
      </trkpt>
      <trkpt lat="45.5769" lon="6.61864">
        <ele>2013.62</ele>
        <time>2015-03-15T17:05:25Z</time>
      </trkpt>
      <trkpt lat="45.57699" lon="6.61876">
        <ele>2016.5</ele>
        <time>2015-03-15T17:05:55Z</time>
      </trkpt>
      <trkpt lat="45.57687" lon="6.61895">
        <ele>2019.39</ele>
        <time>2015-03-15T17:06:25Z</time>
      </trkpt>
      <trkpt lat="45.57673" lon="6.61896">
        <ele>2024.19</ele>
        <time>2015-03-15T17:06:55Z</time>
      </trkpt>
      <trkpt lat="45.5766" lon="6.61899">
        <ele>2030.92</ele>
        <time>2015-03-15T17:07:25Z</time>
      </trkpt>
      <trkpt lat="45.57652" lon="6.61912">
        <ele>2035.25</ele>
        <time>2015-03-15T17:07:55Z</time>
      </trkpt>
      <trkpt lat="45.57664" lon="6.61922">
        <ele>2041.5</ele>
        <time>2015-03-15T17:08:25Z</time>
      </trkpt>
      <trkpt lat="45.57672" lon="6.61936">
        <ele>2043.42</ele>
        <time>2015-03-15T17:08:55Z</time>
      </trkpt>
      <trkpt lat="45.57673" lon="6.61953">
        <ele>2044.86</ele>
        <time>2015-03-15T17:09:25Z</time>
      </trkpt>
      <trkpt lat="45.57677" lon="6.6197">
        <ele>2047.26</ele>
        <time>2015-03-15T17:09:55Z</time>
      </trkpt>
      <trkpt lat="45.57682" lon="6.61989">
        <ele>2049.67</ele>
        <time>2015-03-15T17:10:25Z</time>
      </trkpt>
      <trkpt lat="45.57689" lon="6.62009">
        <ele>2049.67</ele>
        <time>2015-03-15T17:10:55Z</time>
      </trkpt>
      <trkpt lat="45.57697" lon="6.6203">
        <ele>2048.71</ele>
        <time>2015-03-15T17:11:25Z</time>
      </trkpt>
      <trkpt lat="45.57697" lon="6.6205">
        <ele>2053.51</ele>
        <time>2015-03-15T17:11:55Z</time>
      </trkpt>
      <trkpt lat="45.57686" lon="6.62064">
        <ele>2057.84</ele>
        <time>2015-03-15T17:12:25Z</time>
      </trkpt>
      <trkpt lat="45.57676" lon="6.62076">
        <ele>2069.86</ele>
        <time>2015-03-15T17:12:55Z</time>
      </trkpt>
      <trkpt lat="45.57672" lon="6.62088">
        <ele>2066.97</ele>
        <time>2015-03-15T17:13:25Z</time>
      </trkpt>
      <trkpt lat="45.5768" lon="6.6209">
        <ele>2068.89</ele>
        <time>2015-03-15T17:13:55Z</time>
      </trkpt>
      <trkpt lat="45.57696" lon="6.62095">
        <ele>2073.22</ele>
        <time>2015-03-15T17:14:25Z</time>
      </trkpt>
      <trkpt lat="45.5769" lon="6.62108">
        <ele>2080.91</ele>
        <time>2015-03-15T17:14:55Z</time>
      </trkpt>
      <trkpt lat="45.57678" lon="6.62125">
        <ele>2081.39</ele>
        <time>2015-03-15T17:15:25Z</time>
      </trkpt>
      <trkpt lat="45.57668" lon="6.62137">
        <ele>2086.68</ele>
        <time>2015-03-15T17:15:55Z</time>
      </trkpt>
      <trkpt lat="45.57669" lon="6.62143">
        <ele>2083.31</ele>
        <time>2015-03-15T17:16:25Z</time>
      </trkpt>
      <trkpt lat="45.5766" lon="6.62153">
        <ele>2092.93</ele>
        <time>2015-03-15T17:16:55Z</time>
      </trkpt>
      <trkpt lat="45.57676" lon="6.62159">
        <ele>2094.37</ele>
        <time>2015-03-15T17:17:25Z</time>
      </trkpt>
      <trkpt lat="45.57683" lon="6.62164">
        <ele>2097.25</ele>
        <time>2015-03-15T17:17:55Z</time>
      </trkpt>
      <trkpt lat="45.57695" lon="6.62176">
        <ele>2101.58</ele>
        <time>2015-03-15T17:18:25Z</time>
      </trkpt>
      <trkpt lat="45.57709" lon="6.62189">
        <ele>2103.98</ele>
        <time>2015-03-15T17:18:55Z</time>
      </trkpt>
      <trkpt lat="45.5772" lon="6.62198">
        <ele>2104.46</ele>
        <time>2015-03-15T17:19:25Z</time>
      </trkpt>
      <trkpt lat="45.57709" lon="6.6222">
        <ele>2109.75</ele>
        <time>2015-03-15T17:19:55Z</time>
      </trkpt>
      <trkpt lat="45.57705" lon="6.62242">
        <ele>2116</ele>
        <time>2015-03-15T17:20:25Z</time>
      </trkpt>
      <trkpt lat="45.57711" lon="6.62261">
        <ele>2119.84</ele>
        <time>2015-03-15T17:20:55Z</time>
      </trkpt>
      <trkpt lat="45.57726" lon="6.62281">
        <ele>2122.25</ele>
        <time>2015-03-15T17:21:25Z</time>
      </trkpt>
      <trkpt lat="45.57745" lon="6.62302">
        <ele>2119.84</ele>
        <time>2015-03-15T17:21:55Z</time>
      </trkpt>
      <trkpt lat="45.57764" lon="6.62324">
        <ele>2121.29</ele>
        <time>2015-03-15T17:22:25Z</time>
      </trkpt>
      <trkpt lat="45.57798" lon="6.62311">
        <ele>2112.15</ele>
        <time>2015-03-15T17:22:55Z</time>
      </trkpt>
      <trkpt lat="45.57821" lon="6.62348">
        <ele>2092.93</ele>
        <time>2015-03-15T17:23:25Z</time>
      </trkpt>
      <trkpt lat="45.57835" lon="6.62409">
        <ele>2080.91</ele>
        <time>2015-03-15T17:23:55Z</time>
      </trkpt>
      <trkpt lat="45.57844" lon="6.62418">
        <ele>2079.47</ele>
        <time>2015-03-15T17:24:25Z</time>
      </trkpt>
      <trkpt lat="45.57846" lon="6.62418">
        <ele>2080.43</ele>
        <time>2015-03-15T17:24:55Z</time>
      </trkpt>
      <trkpt lat="45.57859" lon="6.62416">
        <ele>2084.76</ele>
        <time>2015-03-15T17:25:25Z</time>
      </trkpt>
      <trkpt lat="45.57866" lon="6.62426">
        <ele>2080.91</ele>
        <time>2015-03-15T17:25:55Z</time>
      </trkpt>
      <trkpt lat="45.57867" lon="6.62424">
        <ele>2082.35</ele>
        <time>2015-03-15T17:26:25Z</time>
      </trkpt>
      <trkpt lat="45.57866" lon="6.62425">
        <ele>2082.35</ele>
        <time>2015-03-15T17:26:55Z</time>
      </trkpt>
      <trkpt lat="45.57859" lon="6.62426">
        <ele>2081.39</ele>
        <time>2015-03-15T17:27:25Z</time>
      </trkpt>
      <trkpt lat="45.57842" lon="6.62443">
        <ele>2081.87</ele>
        <time>2015-03-15T17:27:55Z</time>
      </trkpt>
      <trkpt lat="45.57836" lon="6.62457">
        <ele>2078.99</ele>
        <time>2015-03-15T17:28:25Z</time>
      </trkpt>
      <trkpt lat="45.57847" lon="6.62452">
        <ele>2078.99</ele>
        <time>2015-03-15T17:28:55Z</time>
      </trkpt>
      <trkpt lat="45.57857" lon="6.6245">
        <ele>2078.03</ele>
        <time>2015-03-15T17:29:25Z</time>
      </trkpt>
      <trkpt lat="45.57859" lon="6.6244">
        <ele>2082.35</ele>
        <time>2015-03-15T17:29:55Z</time>
      </trkpt>
      <trkpt lat="45.57856" lon="6.62436">
        <ele>2080.43</ele>
        <time>2015-03-15T17:30:25Z</time>
      </trkpt>
      <trkpt lat="45.57855" lon="6.62436">
        <ele>2079.95</ele>
        <time>2015-03-15T17:30:55Z</time>
      </trkpt>
      <trkpt lat="45.57855" lon="6.62432">
        <ele>2081.39</ele>
        <time>2015-03-15T17:31:25Z</time>
      </trkpt>
      <trkpt lat="45.57853" lon="6.62434">
        <ele>2079.95</ele>
        <time>2015-03-15T17:31:55Z</time>
      </trkpt>
      <trkpt lat="45.5785" lon="6.62438">
        <ele>2078.51</ele>
        <time>2015-03-15T17:32:25Z</time>
      </trkpt>
      <trkpt lat="45.57851" lon="6.62435">
        <ele>2078.99</ele>
        <time>2015-03-15T17:32:55Z</time>
      </trkpt>
      <trkpt lat="45.57831" lon="6.62444">
        <ele>2080.91</ele>
        <time>2015-03-15T17:33:25Z</time>
      </trkpt>
      <trkpt lat="45.57812" lon="6.62433">
        <ele>2074.18</ele>
        <time>2015-03-15T17:33:55Z</time>
      </trkpt>
      <trkpt lat="45.57789" lon="6.62448">
        <ele>2067.45</ele>
        <time>2015-03-15T17:34:25Z</time>
      </trkpt>
      <trkpt lat="45.57784" lon="6.62458">
        <ele>2063.13</ele>
        <time>2015-03-15T17:34:55Z</time>
      </trkpt>
      <trkpt lat="45.57757" lon="6.62458">
        <ele>2060.24</ele>
        <time>2015-03-15T17:35:25Z</time>
      </trkpt>
      <trkpt lat="45.57729" lon="6.62472">
        <ele>2054.47</ele>
        <time>2015-03-15T17:35:55Z</time>
      </trkpt>
      <trkpt lat="45.57735" lon="6.62498">
        <ele>2049.67</ele>
        <time>2015-03-15T17:36:25Z</time>
      </trkpt>
      <trkpt lat="45.57751" lon="6.62539">
        <ele>2041.02</ele>
        <time>2015-03-15T17:36:55Z</time>
      </trkpt>
      <trkpt lat="45.57777" lon="6.62582">
        <ele>2032.84</ele>
        <time>2015-03-15T17:37:25Z</time>
      </trkpt>
      <trkpt lat="45.57798" lon="6.62627">
        <ele>2023.23</ele>
        <time>2015-03-15T17:37:55Z</time>
      </trkpt>
      <trkpt lat="45.57807" lon="6.62623">
        <ele>2022.75</ele>
        <time>2015-03-15T17:38:25Z</time>
      </trkpt>
      <trkpt lat="45.57809" lon="6.62624">
        <ele>2024.67</ele>
        <time>2015-03-15T17:38:55Z</time>
      </trkpt>
      <trkpt lat="45.57807" lon="6.62625">
        <ele>2022.75</ele>
        <time>2015-03-15T17:39:25Z</time>
      </trkpt>
      <trkpt lat="45.57807" lon="6.62625">
        <ele>2023.71</ele>
        <time>2015-03-15T17:39:55Z</time>
      </trkpt>
      <trkpt lat="45.57807" lon="6.62626">
        <ele>2025.64</ele>
        <time>2015-03-15T17:40:25Z</time>
      </trkpt>
      <trkpt lat="45.57801" lon="6.62624">
        <ele>2026.6</ele>
        <time>2015-03-15T17:40:55Z</time>
      </trkpt>
      <trkpt lat="45.57799" lon="6.62624">
        <ele>2024.67</ele>
        <time>2015-03-15T17:41:25Z</time>
      </trkpt>
      <trkpt lat="45.57802" lon="6.62626">
        <ele>2024.67</ele>
        <time>2015-03-15T17:41:55Z</time>
      </trkpt>
      <trkpt lat="45.57803" lon="6.62627">
        <ele>2026.6</ele>
        <time>2015-03-15T17:42:25Z</time>
      </trkpt>
      <trkpt lat="45.57802" lon="6.62619">
        <ele>2026.12</ele>
        <time>2015-03-15T17:42:55Z</time>
      </trkpt>
      <trkpt lat="45.57798" lon="6.62621">
        <ele>2025.64</ele>
        <time>2015-03-15T17:43:25Z</time>
      </trkpt>
      <trkpt lat="45.57801" lon="6.62622">
        <ele>2026.12</ele>
        <time>2015-03-15T17:43:55Z</time>
      </trkpt>
      <trkpt lat="45.57805" lon="6.62622">
        <ele>2027.08</ele>
        <time>2015-03-15T17:44:25Z</time>
      </trkpt>
      <trkpt lat="45.57804" lon="6.6262">
        <ele>2027.56</ele>
        <time>2015-03-15T17:44:55Z</time>
      </trkpt>
      <trkpt lat="45.57808" lon="6.62622">
        <ele>2027.08</ele>
        <time>2015-03-15T17:45:25Z</time>
      </trkpt>
      <trkpt lat="45.57808" lon="6.62624">
        <ele>2027.08</ele>
        <time>2015-03-15T17:45:55Z</time>
      </trkpt>
      <trkpt lat="45.578" lon="6.62622">
        <ele>2026.6</ele>
        <time>2015-03-15T17:46:25Z</time>
      </trkpt>
      <trkpt lat="45.578" lon="6.62623">
        <ele>2027.56</ele>
        <time>2015-03-15T17:46:55Z</time>
      </trkpt>
      <trkpt lat="45.57799" lon="6.62621">
        <ele>2027.56</ele>
        <time>2015-03-15T17:47:25Z</time>
      </trkpt>
      <trkpt lat="45.57799" lon="6.62624">
        <ele>2027.08</ele>
        <time>2015-03-15T17:47:55Z</time>
      </trkpt>
      <trkpt lat="45.57801" lon="6.62622">
        <ele>2027.56</ele>
        <time>2015-03-15T17:48:25Z</time>
      </trkpt>
      <trkpt lat="45.57802" lon="6.62623">
        <ele>2027.56</ele>
        <time>2015-03-15T17:48:55Z</time>
      </trkpt>
      <trkpt lat="45.57797" lon="6.62626">
        <ele>2028.04</ele>
        <time>2015-03-15T17:49:25Z</time>
      </trkpt>
      <trkpt lat="45.57802" lon="6.62624">
        <ele>2027.56</ele>
        <time>2015-03-15T17:49:55Z</time>
      </trkpt>
      <trkpt lat="45.578" lon="6.62622">
        <ele>2028.04</ele>
        <time>2015-03-15T17:50:25Z</time>
      </trkpt>
      <trkpt lat="45.57802" lon="6.62622">
        <ele>2027.56</ele>
        <time>2015-03-15T17:50:55Z</time>
      </trkpt>
      <trkpt lat="45.57804" lon="6.62619">
        <ele>2027.08</ele>
        <time>2015-03-15T17:51:25Z</time>
      </trkpt>
      <trkpt lat="45.57807" lon="6.62617">
        <ele>2027.56</ele>
        <time>2015-03-15T17:51:55Z</time>
      </trkpt>
      <trkpt lat="45.5781" lon="6.62619">
        <ele>2028.52</ele>
        <time>2015-03-15T17:52:25Z</time>
      </trkpt>
      <trkpt lat="45.57811" lon="6.62618">
        <ele>2027.08</ele>
        <time>2015-03-15T17:52:55Z</time>
      </trkpt>
      <trkpt lat="45.57816" lon="6.62623">
        <ele>2028.52</ele>
        <time>2015-03-15T17:53:25Z</time>
      </trkpt>
      <trkpt lat="45.57814" lon="6.62619">
        <ele>2027.08</ele>
        <time>2015-03-15T17:53:55Z</time>
      </trkpt>
      <trkpt lat="45.57813" lon="6.6262">
        <ele>2026.12</ele>
        <time>2015-03-15T17:54:25Z</time>
      </trkpt>
      <trkpt lat="45.57811" lon="6.62621">
        <ele>2027.56</ele>
        <time>2015-03-15T17:54:55Z</time>
      </trkpt>
      <trkpt lat="45.57809" lon="6.62615">
        <ele>2028.04</ele>
        <time>2015-03-15T17:55:25Z</time>
      </trkpt>
      <trkpt lat="45.57808" lon="6.62615">
        <ele>2028.04</ele>
        <time>2015-03-15T17:55:55Z</time>
      </trkpt>
      <trkpt lat="45.57809" lon="6.62619">
        <ele>2027.56</ele>
        <time>2015-03-15T17:56:25Z</time>
      </trkpt>
      <trkpt lat="45.57805" lon="6.62621">
        <ele>2026.6</ele>
        <time>2015-03-15T17:56:55Z</time>
      </trkpt>
      <trkpt lat="45.57806" lon="6.62624">
        <ele>2026.6</ele>
        <time>2015-03-15T17:57:25Z</time>
      </trkpt>
      <trkpt lat="45.57809" lon="6.6262">
        <ele>2026.12</ele>
        <time>2015-03-15T17:57:55Z</time>
      </trkpt>
      <trkpt lat="45.57805" lon="6.62619">
        <ele>2026.12</ele>
        <time>2015-03-15T17:58:25Z</time>
      </trkpt>
      <trkpt lat="45.57801" lon="6.62621">
        <ele>2028.04</ele>
        <time>2015-03-15T17:58:55Z</time>
      </trkpt>
      <trkpt lat="45.57802" lon="6.62621">
        <ele>2027.08</ele>
        <time>2015-03-15T17:59:25Z</time>
      </trkpt>
      <trkpt lat="45.578" lon="6.6262">
        <ele>2026.6</ele>
        <time>2015-03-15T17:59:55Z</time>
      </trkpt>
      <trkpt lat="45.578" lon="6.62621">
        <ele>2027.08</ele>
        <time>2015-03-15T18:00:25Z</time>
      </trkpt>
      <trkpt lat="45.57797" lon="6.62625">
        <ele>2026.12</ele>
        <time>2015-03-15T18:00:55Z</time>
      </trkpt>
      <trkpt lat="45.57794" lon="6.62628">
        <ele>2025.15</ele>
        <time>2015-03-15T18:01:25Z</time>
      </trkpt>
      <trkpt lat="45.578" lon="6.6262">
        <ele>2025.64</ele>
        <time>2015-03-15T18:01:55Z</time>
      </trkpt>
      <trkpt lat="45.578" lon="6.62619">
        <ele>2025.15</ele>
        <time>2015-03-15T18:02:25Z</time>
      </trkpt>
      <trkpt lat="45.578" lon="6.6262">
        <ele>2026.12</ele>
        <time>2015-03-15T18:02:55Z</time>
      </trkpt>
      <trkpt lat="45.57804" lon="6.62619">
        <ele>2026.12</ele>
        <time>2015-03-15T18:03:25Z</time>
      </trkpt>
      <trkpt lat="45.57803" lon="6.6262">
        <ele>2027.08</ele>
        <time>2015-03-15T18:03:55Z</time>
      </trkpt>
      <trkpt lat="45.57804" lon="6.62619">
        <ele>2027.08</ele>
        <time>2015-03-15T18:04:25Z</time>
      </trkpt>
      <trkpt lat="45.57803" lon="6.62622">
        <ele>2027.08</ele>
        <time>2015-03-15T18:04:55Z</time>
      </trkpt>
      <trkpt lat="45.57801" lon="6.62623">
        <ele>2027.08</ele>
        <time>2015-03-15T18:05:25Z</time>
      </trkpt>
      <trkpt lat="45.578" lon="6.62625">
        <ele>2026.12</ele>
        <time>2015-03-15T18:05:55Z</time>
      </trkpt>
      <trkpt lat="45.57804" lon="6.62624">
        <ele>2027.08</ele>
        <time>2015-03-15T18:06:25Z</time>
      </trkpt>
      <trkpt lat="45.57804" lon="6.62617">
        <ele>2026.6</ele>
        <time>2015-03-15T18:06:55Z</time>
      </trkpt>
      <trkpt lat="45.57807" lon="6.62617">
        <ele>2026.12</ele>
        <time>2015-03-15T18:07:25Z</time>
      </trkpt>
      <trkpt lat="45.57804" lon="6.62622">
        <ele>2026.6</ele>
        <time>2015-03-15T18:07:55Z</time>
      </trkpt>
      <trkpt lat="45.57801" lon="6.6262">
        <ele>2027.56</ele>
        <time>2015-03-15T18:08:25Z</time>
      </trkpt>
      <trkpt lat="45.57803" lon="6.6262">
        <ele>2028.52</ele>
        <time>2015-03-15T18:08:55Z</time>
      </trkpt>
      <trkpt lat="45.57802" lon="6.62624">
        <ele>2026.6</ele>
        <time>2015-03-15T18:09:25Z</time>
      </trkpt>
      <trkpt lat="45.57805" lon="6.62612">
        <ele>2026.12</ele>
        <time>2015-03-15T18:09:55Z</time>
      </trkpt>
      <trkpt lat="45.57803" lon="6.62615">
        <ele>2026.6</ele>
        <time>2015-03-15T18:10:25Z</time>
      </trkpt>
      <trkpt lat="45.57802" lon="6.62619">
        <ele>2025.64</ele>
        <time>2015-03-15T18:10:55Z</time>
      </trkpt>
      <trkpt lat="45.57801" lon="6.62618">
        <ele>2025.64</ele>
        <time>2015-03-15T18:11:25Z</time>
      </trkpt>
      <trkpt lat="45.57805" lon="6.62618">
        <ele>2026.6</ele>
        <time>2015-03-15T18:11:55Z</time>
      </trkpt>
      <trkpt lat="45.57799" lon="6.62619">
        <ele>2027.08</ele>
        <time>2015-03-15T18:12:25Z</time>
      </trkpt>
      <trkpt lat="45.57801" lon="6.62619">
        <ele>2027.56</ele>
        <time>2015-03-15T18:12:55Z</time>
      </trkpt>
      <trkpt lat="45.57799" lon="6.62617">
        <ele>2028.52</ele>
        <time>2015-03-15T18:13:25Z</time>
      </trkpt>
      <trkpt lat="45.57802" lon="6.62612">
        <ele>2026.6</ele>
        <time>2015-03-15T18:13:55Z</time>
      </trkpt>
      <trkpt lat="45.57804" lon="6.62616">
        <ele>2026.12</ele>
        <time>2015-03-15T18:14:25Z</time>
      </trkpt>
      <trkpt lat="45.57801" lon="6.62617">
        <ele>2027.08</ele>
        <time>2015-03-15T18:14:55Z</time>
      </trkpt>
      <trkpt lat="45.57803" lon="6.62614">
        <ele>2026.6</ele>
        <time>2015-03-15T18:15:25Z</time>
      </trkpt>
      <trkpt lat="45.57801" lon="6.62614">
        <ele>2027.56</ele>
        <time>2015-03-15T18:15:55Z</time>
      </trkpt>
      <trkpt lat="45.57803" lon="6.62617">
        <ele>2025.15</ele>
        <time>2015-03-15T18:16:25Z</time>
      </trkpt>
      <trkpt lat="45.57802" lon="6.62619">
        <ele>2027.08</ele>
        <time>2015-03-15T18:16:55Z</time>
      </trkpt>
      <trkpt lat="45.57802" lon="6.62615">
        <ele>2028.04</ele>
        <time>2015-03-15T18:17:25Z</time>
      </trkpt>
      <trkpt lat="45.57802" lon="6.62614">
        <ele>2027.56</ele>
        <time>2015-03-15T18:17:55Z</time>
      </trkpt>
      <trkpt lat="45.57805" lon="6.62615">
        <ele>2027.56</ele>
        <time>2015-03-15T18:18:25Z</time>
      </trkpt>
      <trkpt lat="45.57806" lon="6.62615">
        <ele>2025.64</ele>
        <time>2015-03-15T18:18:55Z</time>
      </trkpt>
      <trkpt lat="45.57805" lon="6.62617">
        <ele>2025.64</ele>
        <time>2015-03-15T18:19:25Z</time>
      </trkpt>
      <trkpt lat="45.57803" lon="6.62617">
        <ele>2024.19</ele>
        <time>2015-03-15T18:19:55Z</time>
      </trkpt>
      <trkpt lat="45.57805" lon="6.62618">
        <ele>2025.64</ele>
        <time>2015-03-15T18:20:25Z</time>
      </trkpt>
      <trkpt lat="45.57802" lon="6.62623">
        <ele>2024.67</ele>
        <time>2015-03-15T18:20:51Z</time>
      </trkpt>
      <trkpt lat="45.57798" lon="6.62612">
        <ele>2026.6</ele>
        <time>2015-03-15T18:21:25Z</time>
      </trkpt>
      <trkpt lat="45.57799" lon="6.62616">
        <ele>2024.67</ele>
        <time>2015-03-15T18:21:55Z</time>
      </trkpt>
      <trkpt lat="45.57784" lon="6.62625">
        <ele>2024.67</ele>
        <time>2015-03-15T18:22:25Z</time>
      </trkpt>
      <trkpt lat="45.57802" lon="6.62616">
        <ele>2024.67</ele>
        <time>2015-03-15T18:22:55Z</time>
      </trkpt>
      <trkpt lat="45.57792" lon="6.62629">
        <ele>2025.64</ele>
        <time>2015-03-15T18:23:25Z</time>
      </trkpt>
      <trkpt lat="45.57791" lon="6.62622">
        <ele>2026.6</ele>
        <time>2015-03-15T18:23:55Z</time>
      </trkpt>
      <trkpt lat="45.5779" lon="6.62619">
        <ele>2025.15</ele>
        <time>2015-03-15T18:24:25Z</time>
      </trkpt>
      <trkpt lat="45.57808" lon="6.6261">
        <ele>2025.15</ele>
        <time>2015-03-15T18:24:55Z</time>
      </trkpt>
      <trkpt lat="45.57823" lon="6.62605">
        <ele>2025.15</ele>
        <time>2015-03-15T18:25:25Z</time>
      </trkpt>
      <trkpt lat="45.57811" lon="6.62604">
        <ele>2026.6</ele>
        <time>2015-03-15T18:25:55Z</time>
      </trkpt>
      <trkpt lat="45.57813" lon="6.62607">
        <ele>2026.6</ele>
        <time>2015-03-15T18:26:25Z</time>
      </trkpt>
      <trkpt lat="45.57808" lon="6.626">
        <ele>2023.71</ele>
        <time>2015-03-15T18:26:55Z</time>
      </trkpt>
      <trkpt lat="45.5781" lon="6.62601">
        <ele>2023.71</ele>
        <time>2015-03-15T18:27:24Z</time>
      </trkpt>
      <trkpt lat="45.57807" lon="6.62605">
        <ele>2024.19</ele>
        <time>2015-03-15T18:27:55Z</time>
      </trkpt>
      <trkpt lat="45.57804" lon="6.62609">
        <ele>2023.23</ele>
        <time>2015-03-15T18:28:25Z</time>
      </trkpt>
      <trkpt lat="45.57799" lon="6.62614">
        <ele>2024.19</ele>
        <time>2015-03-15T18:28:55Z</time>
      </trkpt>
      <trkpt lat="45.57801" lon="6.62612">
        <ele>2023.23</ele>
        <time>2015-03-15T18:29:25Z</time>
      </trkpt>
      <trkpt lat="45.57803" lon="6.62614">
        <ele>2024.67</ele>
        <time>2015-03-15T18:29:55Z</time>
      </trkpt>
      <trkpt lat="45.57802" lon="6.62617">
        <ele>2024.19</ele>
        <time>2015-03-15T18:30:25Z</time>
      </trkpt>
      <trkpt lat="45.57807" lon="6.62622">
        <ele>2023.71</ele>
        <time>2015-03-15T18:30:55Z</time>
      </trkpt>
      <trkpt lat="45.57805" lon="6.62617">
        <ele>2023.71</ele>
        <time>2015-03-15T18:31:25Z</time>
      </trkpt>
      <trkpt lat="45.57803" lon="6.6261">
        <ele>2025.15</ele>
        <time>2015-03-15T18:31:54Z</time>
      </trkpt>
      <trkpt lat="45.57791" lon="6.62614">
        <ele>2025.64</ele>
        <time>2015-03-15T18:32:24Z</time>
      </trkpt>
      <trkpt lat="45.57815" lon="6.62648">
        <ele>1990.07</ele>
        <time>2015-03-16T07:52:18Z</time>
      </trkpt>
      <trkpt lat="45.57805" lon="6.62621">
        <ele>2006.41</ele>
        <time>2015-03-16T07:52:49Z</time>
      </trkpt>
      <trkpt lat="45.57804" lon="6.6262">
        <ele>2023.23</ele>
        <time>2015-03-16T07:53:19Z</time>
      </trkpt>
      <trkpt lat="45.57805" lon="6.6262">
        <ele>2026.6</ele>
        <time>2015-03-16T07:53:49Z</time>
      </trkpt>
      <trkpt lat="45.57807" lon="6.62621">
        <ele>2033.81</ele>
        <time>2015-03-16T07:54:19Z</time>
      </trkpt>
      <trkpt lat="45.57809" lon="6.62625">
        <ele>2033.81</ele>
        <time>2015-03-16T07:54:49Z</time>
      </trkpt>
      <trkpt lat="45.57807" lon="6.62621">
        <ele>2032.36</ele>
        <time>2015-03-16T07:55:19Z</time>
      </trkpt>
      <trkpt lat="45.5781" lon="6.62624">
        <ele>2032.84</ele>
        <time>2015-03-16T07:55:49Z</time>
      </trkpt>
      <trkpt lat="45.5781" lon="6.62625">
        <ele>2032.84</ele>
        <time>2015-03-16T07:56:19Z</time>
      </trkpt>
      <trkpt lat="45.57812" lon="6.6263">
        <ele>2033.33</ele>
        <time>2015-03-16T07:56:49Z</time>
      </trkpt>
      <trkpt lat="45.57808" lon="6.62625">
        <ele>2032.36</ele>
        <time>2015-03-16T07:57:19Z</time>
      </trkpt>
      <trkpt lat="45.57809" lon="6.62624">
        <ele>2033.33</ele>
        <time>2015-03-16T07:57:49Z</time>
      </trkpt>
      <trkpt lat="45.57808" lon="6.62625">
        <ele>2033.81</ele>
        <time>2015-03-16T07:58:19Z</time>
      </trkpt>
      <trkpt lat="45.57807" lon="6.62621">
        <ele>2032.84</ele>
        <time>2015-03-16T07:58:49Z</time>
      </trkpt>
      <trkpt lat="45.57805" lon="6.62621">
        <ele>2033.33</ele>
        <time>2015-03-16T07:59:19Z</time>
      </trkpt>
      <trkpt lat="45.57806" lon="6.62621">
        <ele>2033.33</ele>
        <time>2015-03-16T07:59:49Z</time>
      </trkpt>
      <trkpt lat="45.57807" lon="6.62625">
        <ele>2033.33</ele>
        <time>2015-03-16T08:00:19Z</time>
      </trkpt>
      <trkpt lat="45.57813" lon="6.62614">
        <ele>2036.21</ele>
        <time>2015-03-16T08:00:49Z</time>
      </trkpt>
      <trkpt lat="45.57822" lon="6.62599">
        <ele>2043.9</ele>
        <time>2015-03-16T08:01:19Z</time>
      </trkpt>
      <trkpt lat="45.57838" lon="6.62596">
        <ele>2045.82</ele>
        <time>2015-03-16T08:01:49Z</time>
      </trkpt>
      <trkpt lat="45.57855" lon="6.62594">
        <ele>2049.67</ele>
        <time>2015-03-16T08:02:19Z</time>
      </trkpt>
      <trkpt lat="45.57873" lon="6.62593">
        <ele>2052.07</ele>
        <time>2015-03-16T08:02:49Z</time>
      </trkpt>
      <trkpt lat="45.57889" lon="6.6259">
        <ele>2058.32</ele>
        <time>2015-03-16T08:03:19Z</time>
      </trkpt>
      <trkpt lat="45.57906" lon="6.62579">
        <ele>2060.72</ele>
        <time>2015-03-16T08:03:49Z</time>
      </trkpt>
      <trkpt lat="45.57921" lon="6.62562">
        <ele>2062.65</ele>
        <time>2015-03-16T08:04:19Z</time>
      </trkpt>
      <trkpt lat="45.57935" lon="6.62545">
        <ele>2065.05</ele>
        <time>2015-03-16T08:04:49Z</time>
      </trkpt>
      <trkpt lat="45.5795" lon="6.6253">
        <ele>2066.49</ele>
        <time>2015-03-16T08:05:19Z</time>
      </trkpt>
      <trkpt lat="45.57968" lon="6.62513">
        <ele>2069.86</ele>
        <time>2015-03-16T08:05:49Z</time>
      </trkpt>
      <trkpt lat="45.57971" lon="6.62517">
        <ele>2068.41</ele>
        <time>2015-03-16T08:06:19Z</time>
      </trkpt>
      <trkpt lat="45.5797" lon="6.62514">
        <ele>2068.41</ele>
        <time>2015-03-16T08:06:49Z</time>
      </trkpt>
      <trkpt lat="45.5797" lon="6.62515">
        <ele>2068.41</ele>
        <time>2015-03-16T08:07:19Z</time>
      </trkpt>
      <trkpt lat="45.5797" lon="6.62513">
        <ele>2068.89</ele>
        <time>2015-03-16T08:07:49Z</time>
      </trkpt>
      <trkpt lat="45.57971" lon="6.62518">
        <ele>2067.93</ele>
        <time>2015-03-16T08:08:19Z</time>
      </trkpt>
      <trkpt lat="45.57969" lon="6.62515">
        <ele>2068.89</ele>
        <time>2015-03-16T08:08:49Z</time>
      </trkpt>
      <trkpt lat="45.57978" lon="6.62493">
        <ele>2072.74</ele>
        <time>2015-03-16T08:09:19Z</time>
      </trkpt>
      <trkpt lat="45.5799" lon="6.62473">
        <ele>2078.51</ele>
        <time>2015-03-16T08:09:49Z</time>
      </trkpt>
      <trkpt lat="45.58008" lon="6.62476">
        <ele>2082.35</ele>
        <time>2015-03-16T08:10:19Z</time>
      </trkpt>
      <trkpt lat="45.58016" lon="6.62458">
        <ele>2087.64</ele>
        <time>2015-03-16T08:10:49Z</time>
      </trkpt>
      <trkpt lat="45.58023" lon="6.62439">
        <ele>2090.52</ele>
        <time>2015-03-16T08:11:19Z</time>
      </trkpt>
      <trkpt lat="45.58032" lon="6.62419">
        <ele>2093.89</ele>
        <time>2015-03-16T08:11:49Z</time>
      </trkpt>
      <trkpt lat="45.58043" lon="6.62418">
        <ele>2098.21</ele>
        <time>2015-03-16T08:12:19Z</time>
      </trkpt>
      <trkpt lat="45.58056" lon="6.62432">
        <ele>2103.02</ele>
        <time>2015-03-16T08:12:49Z</time>
      </trkpt>
      <trkpt lat="45.58065" lon="6.62447">
        <ele>2106.87</ele>
        <time>2015-03-16T08:13:19Z</time>
      </trkpt>
      <trkpt lat="45.58073" lon="6.62428">
        <ele>2110.23</ele>
        <time>2015-03-16T08:13:49Z</time>
      </trkpt>
      <trkpt lat="45.5808" lon="6.62423">
        <ele>2115.52</ele>
        <time>2015-03-16T08:14:19Z</time>
      </trkpt>
      <trkpt lat="45.5809" lon="6.62435">
        <ele>2120.32</ele>
        <time>2015-03-16T08:14:49Z</time>
      </trkpt>
      <trkpt lat="45.58096" lon="6.62453">
        <ele>2124.65</ele>
        <time>2015-03-16T08:15:19Z</time>
      </trkpt>
      <trkpt lat="45.58104" lon="6.62465">
        <ele>2129.46</ele>
        <time>2015-03-16T08:15:49Z</time>
      </trkpt>
      <trkpt lat="45.58118" lon="6.62471">
        <ele>2132.82</ele>
        <time>2015-03-16T08:16:19Z</time>
      </trkpt>
      <trkpt lat="45.58128" lon="6.62486">
        <ele>2136.19</ele>
        <time>2015-03-16T08:16:49Z</time>
      </trkpt>
      <trkpt lat="45.58136" lon="6.62493">
        <ele>2139.07</ele>
        <time>2015-03-16T08:17:19Z</time>
      </trkpt>
      <trkpt lat="45.58143" lon="6.62473">
        <ele>2142.44</ele>
        <time>2015-03-16T08:17:49Z</time>
      </trkpt>
      <trkpt lat="45.58147" lon="6.62463">
        <ele>2142.92</ele>
        <time>2015-03-16T08:18:19Z</time>
      </trkpt>
      <trkpt lat="45.58149" lon="6.62437">
        <ele>2147.24</ele>
        <time>2015-03-16T08:18:49Z</time>
      </trkpt>
      <trkpt lat="45.58149" lon="6.62433">
        <ele>2149.65</ele>
        <time>2015-03-16T08:19:19Z</time>
      </trkpt>
      <trkpt lat="45.58147" lon="6.62428">
        <ele>2146.76</ele>
        <time>2015-03-16T08:19:49Z</time>
      </trkpt>
      <trkpt lat="45.58147" lon="6.62414">
        <ele>2151.09</ele>
        <time>2015-03-16T08:20:19Z</time>
      </trkpt>
      <trkpt lat="45.58145" lon="6.6239">
        <ele>2154.93</ele>
        <time>2015-03-16T08:20:49Z</time>
      </trkpt>
      <trkpt lat="45.58139" lon="6.62367">
        <ele>2158.78</ele>
        <time>2015-03-16T08:21:19Z</time>
      </trkpt>
      <trkpt lat="45.58135" lon="6.62343">
        <ele>2163.58</ele>
        <time>2015-03-16T08:21:49Z</time>
      </trkpt>
      <trkpt lat="45.58138" lon="6.62331">
        <ele>2165.51</ele>
        <time>2015-03-16T08:22:19Z</time>
      </trkpt>
      <trkpt lat="45.58137" lon="6.62329">
        <ele>2166.95</ele>
        <time>2015-03-16T08:22:49Z</time>
      </trkpt>
      <trkpt lat="45.58137" lon="6.62328">
        <ele>2165.51</ele>
        <time>2015-03-16T08:23:19Z</time>
      </trkpt>
      <trkpt lat="45.58138" lon="6.62328">
        <ele>2165.03</ele>
        <time>2015-03-16T08:23:49Z</time>
      </trkpt>
      <trkpt lat="45.58139" lon="6.6233">
        <ele>2164.55</ele>
        <time>2015-03-16T08:24:19Z</time>
      </trkpt>
      <trkpt lat="45.58138" lon="6.62329">
        <ele>2164.55</ele>
        <time>2015-03-16T08:24:49Z</time>
      </trkpt>
      <trkpt lat="45.58137" lon="6.62329">
        <ele>2165.51</ele>
        <time>2015-03-16T08:25:19Z</time>
      </trkpt>
      <trkpt lat="45.58138" lon="6.62326">
        <ele>2163.58</ele>
        <time>2015-03-16T08:25:49Z</time>
      </trkpt>
      <trkpt lat="45.58155" lon="6.62308">
        <ele>2164.06</ele>
        <time>2015-03-16T08:26:19Z</time>
      </trkpt>
      <trkpt lat="45.58175" lon="6.62295">
        <ele>2168.87</ele>
        <time>2015-03-16T08:26:49Z</time>
      </trkpt>
      <trkpt lat="45.58195" lon="6.62279">
        <ele>2172.24</ele>
        <time>2015-03-16T08:27:19Z</time>
      </trkpt>
      <trkpt lat="45.5821" lon="6.62271">
        <ele>2177.04</ele>
        <time>2015-03-16T08:27:49Z</time>
      </trkpt>
      <trkpt lat="45.58223" lon="6.6228">
        <ele>2182.81</ele>
        <time>2015-03-16T08:28:19Z</time>
      </trkpt>
      <trkpt lat="45.58232" lon="6.62279">
        <ele>2187.14</ele>
        <time>2015-03-16T08:28:49Z</time>
      </trkpt>
      <trkpt lat="45.58241" lon="6.62263">
        <ele>2190.98</ele>
        <time>2015-03-16T08:29:19Z</time>
      </trkpt>
      <trkpt lat="45.58247" lon="6.62244">
        <ele>2195.31</ele>
        <time>2015-03-16T08:29:49Z</time>
      </trkpt>
      <trkpt lat="45.58251" lon="6.62226">
        <ele>2199.15</ele>
        <time>2015-03-16T08:30:19Z</time>
      </trkpt>
      <trkpt lat="45.58248" lon="6.62208">
        <ele>2203</ele>
        <time>2015-03-16T08:30:49Z</time>
      </trkpt>
      <trkpt lat="45.58254" lon="6.6221">
        <ele>2208.29</ele>
        <time>2015-03-16T08:31:19Z</time>
      </trkpt>
      <trkpt lat="45.58267" lon="6.62218">
        <ele>2211.17</ele>
        <time>2015-03-16T08:31:49Z</time>
      </trkpt>
      <trkpt lat="45.58279" lon="6.6223">
        <ele>2216.94</ele>
        <time>2015-03-16T08:32:19Z</time>
      </trkpt>
      <trkpt lat="45.58288" lon="6.62244">
        <ele>2223.67</ele>
        <time>2015-03-16T08:32:49Z</time>
      </trkpt>
      <trkpt lat="45.58294" lon="6.62258">
        <ele>2225.11</ele>
        <time>2015-03-16T08:33:19Z</time>
      </trkpt>
      <trkpt lat="45.58302" lon="6.62245">
        <ele>2228.47</ele>
        <time>2015-03-16T08:33:49Z</time>
      </trkpt>
      <trkpt lat="45.58311" lon="6.62234">
        <ele>2229.43</ele>
        <time>2015-03-16T08:34:19Z</time>
      </trkpt>
      <trkpt lat="45.58319" lon="6.62219">
        <ele>2236.16</ele>
        <time>2015-03-16T08:34:49Z</time>
      </trkpt>
      <trkpt lat="45.58321" lon="6.62216">
        <ele>2239.53</ele>
        <time>2015-03-16T08:35:19Z</time>
      </trkpt>
      <trkpt lat="45.5833" lon="6.62225">
        <ele>2241.45</ele>
        <time>2015-03-16T08:35:49Z</time>
      </trkpt>
      <trkpt lat="45.58334" lon="6.62244">
        <ele>2243.85</ele>
        <time>2015-03-16T08:36:19Z</time>
      </trkpt>
      <trkpt lat="45.58342" lon="6.62237">
        <ele>2248.18</ele>
        <time>2015-03-16T08:36:49Z</time>
      </trkpt>
      <trkpt lat="45.58353" lon="6.62225">
        <ele>2254.43</ele>
        <time>2015-03-16T08:37:19Z</time>
      </trkpt>
      <trkpt lat="45.58364" lon="6.62213">
        <ele>2261.64</ele>
        <time>2015-03-16T08:37:49Z</time>
      </trkpt>
      <trkpt lat="45.58374" lon="6.62199">
        <ele>2267.41</ele>
        <time>2015-03-16T08:38:19Z</time>
      </trkpt>
      <trkpt lat="45.58385" lon="6.62196">
        <ele>2270.77</ele>
        <time>2015-03-16T08:38:49Z</time>
      </trkpt>
      <trkpt lat="45.58396" lon="6.62184">
        <ele>2278.46</ele>
        <time>2015-03-16T08:39:19Z</time>
      </trkpt>
      <trkpt lat="45.58407" lon="6.62174">
        <ele>2281.35</ele>
        <time>2015-03-16T08:39:49Z</time>
      </trkpt>
      <trkpt lat="45.58418" lon="6.62163">
        <ele>2278.94</ele>
        <time>2015-03-16T08:40:19Z</time>
      </trkpt>
      <trkpt lat="45.58428" lon="6.6215">
        <ele>2278.46</ele>
        <time>2015-03-16T08:40:49Z</time>
      </trkpt>
      <trkpt lat="45.58428" lon="6.62146">
        <ele>2275.58</ele>
        <time>2015-03-16T08:41:19Z</time>
      </trkpt>
      <trkpt lat="45.58428" lon="6.62152">
        <ele>2275.1</ele>
        <time>2015-03-16T08:41:49Z</time>
      </trkpt>
      <trkpt lat="45.58427" lon="6.62154">
        <ele>2274.62</ele>
        <time>2015-03-16T08:42:19Z</time>
      </trkpt>
      <trkpt lat="45.58428" lon="6.62149">
        <ele>2275.1</ele>
        <time>2015-03-16T08:42:49Z</time>
      </trkpt>
      <trkpt lat="45.58429" lon="6.6215">
        <ele>2274.62</ele>
        <time>2015-03-16T08:43:19Z</time>
      </trkpt>
      <trkpt lat="45.5843" lon="6.62149">
        <ele>2276.54</ele>
        <time>2015-03-16T08:43:49Z</time>
      </trkpt>
      <trkpt lat="45.58429" lon="6.6215">
        <ele>2275.58</ele>
        <time>2015-03-16T08:44:19Z</time>
      </trkpt>
      <trkpt lat="45.5844" lon="6.62137">
        <ele>2278.46</ele>
        <time>2015-03-16T08:44:49Z</time>
      </trkpt>
      <trkpt lat="45.58448" lon="6.62117">
        <ele>2285.67</ele>
        <time>2015-03-16T08:45:19Z</time>
      </trkpt>
      <trkpt lat="45.58455" lon="6.62096">
        <ele>2288.56</ele>
        <time>2015-03-16T08:45:49Z</time>
      </trkpt>
      <trkpt lat="45.58469" lon="6.62068">
        <ele>2287.11</ele>
        <time>2015-03-16T08:46:19Z</time>
      </trkpt>
      <trkpt lat="45.58476" lon="6.6204">
        <ele>2289.04</ele>
        <time>2015-03-16T08:46:49Z</time>
      </trkpt>
      <trkpt lat="45.58476" lon="6.62017">
        <ele>2291.92</ele>
        <time>2015-03-16T08:47:19Z</time>
      </trkpt>
      <trkpt lat="45.58478" lon="6.61994">
        <ele>2298.17</ele>
        <time>2015-03-16T08:47:49Z</time>
      </trkpt>
      <trkpt lat="45.58481" lon="6.6197">
        <ele>2298.17</ele>
        <time>2015-03-16T08:48:19Z</time>
      </trkpt>
      <trkpt lat="45.58482" lon="6.61948">
        <ele>2300.57</ele>
        <time>2015-03-16T08:48:49Z</time>
      </trkpt>
      <trkpt lat="45.58479" lon="6.61929">
        <ele>2303.46</ele>
        <time>2015-03-16T08:49:19Z</time>
      </trkpt>
      <trkpt lat="45.5849" lon="6.61922">
        <ele>2307.78</ele>
        <time>2015-03-16T08:49:49Z</time>
      </trkpt>
      <trkpt lat="45.58506" lon="6.61922">
        <ele>2310.67</ele>
        <time>2015-03-16T08:50:19Z</time>
      </trkpt>
      <trkpt lat="45.58519" lon="6.61924">
        <ele>2315.95</ele>
        <time>2015-03-16T08:50:49Z</time>
      </trkpt>
      <trkpt lat="45.58524" lon="6.6192">
        <ele>2320.76</ele>
        <time>2015-03-16T08:51:19Z</time>
      </trkpt>
      <trkpt lat="45.58522" lon="6.61901">
        <ele>2323.16</ele>
        <time>2015-03-16T08:51:49Z</time>
      </trkpt>
      <trkpt lat="45.58521" lon="6.61882">
        <ele>2326.53</ele>
        <time>2015-03-16T08:52:19Z</time>
      </trkpt>
      <trkpt lat="45.58522" lon="6.61863">
        <ele>2328.93</ele>
        <time>2015-03-16T08:52:49Z</time>
      </trkpt>
      <trkpt lat="45.58522" lon="6.61843">
        <ele>2333.26</ele>
        <time>2015-03-16T08:53:19Z</time>
      </trkpt>
      <trkpt lat="45.58526" lon="6.61838">
        <ele>2335.18</ele>
        <time>2015-03-16T08:53:49Z</time>
      </trkpt>
      <trkpt lat="45.58539" lon="6.61835">
        <ele>2337.58</ele>
        <time>2015-03-16T08:54:19Z</time>
      </trkpt>
      <trkpt lat="45.58554" lon="6.61836">
        <ele>2339.99</ele>
        <time>2015-03-16T08:54:49Z</time>
      </trkpt>
      <trkpt lat="45.58568" lon="6.61842">
        <ele>2347.2</ele>
        <time>2015-03-16T08:55:19Z</time>
      </trkpt>
      <trkpt lat="45.58579" lon="6.61848">
        <ele>2349.6</ele>
        <time>2015-03-16T08:55:49Z</time>
      </trkpt>
      <trkpt lat="45.58591" lon="6.61854">
        <ele>2353.44</ele>
        <time>2015-03-16T08:56:19Z</time>
      </trkpt>
      <trkpt lat="45.58592" lon="6.61846">
        <ele>2356.33</ele>
        <time>2015-03-16T08:56:49Z</time>
      </trkpt>
      <trkpt lat="45.58592" lon="6.6183">
        <ele>2360.17</ele>
        <time>2015-03-16T08:57:19Z</time>
      </trkpt>
      <trkpt lat="45.58592" lon="6.61819">
        <ele>2363.54</ele>
        <time>2015-03-16T08:57:49Z</time>
      </trkpt>
      <trkpt lat="45.58601" lon="6.61822">
        <ele>2365.46</ele>
        <time>2015-03-16T08:58:19Z</time>
      </trkpt>
      <trkpt lat="45.58613" lon="6.6183">
        <ele>2369.79</ele>
        <time>2015-03-16T08:58:49Z</time>
      </trkpt>
      <trkpt lat="45.58627" lon="6.61834">
        <ele>2372.67</ele>
        <time>2015-03-16T08:59:19Z</time>
      </trkpt>
      <trkpt lat="45.5864" lon="6.61834">
        <ele>2375.07</ele>
        <time>2015-03-16T08:59:49Z</time>
      </trkpt>
      <trkpt lat="45.58654" lon="6.61829">
        <ele>2377.96</ele>
        <time>2015-03-16T09:00:19Z</time>
      </trkpt>
      <trkpt lat="45.58668" lon="6.61831">
        <ele>2381.8</ele>
        <time>2015-03-16T09:00:49Z</time>
      </trkpt>
      <trkpt lat="45.58678" lon="6.61843">
        <ele>2384.21</ele>
        <time>2015-03-16T09:01:19Z</time>
      </trkpt>
      <trkpt lat="45.58687" lon="6.61856">
        <ele>2388.53</ele>
        <time>2015-03-16T09:01:49Z</time>
      </trkpt>
      <trkpt lat="45.58696" lon="6.61869">
        <ele>2391.42</ele>
        <time>2015-03-16T09:02:19Z</time>
      </trkpt>
      <trkpt lat="45.58705" lon="6.61883">
        <ele>2395.26</ele>
        <time>2015-03-16T09:02:49Z</time>
      </trkpt>
      <trkpt lat="45.58712" lon="6.619">
        <ele>2398.63</ele>
        <time>2015-03-16T09:03:19Z</time>
      </trkpt>
      <trkpt lat="45.58718" lon="6.61917">
        <ele>2402.95</ele>
        <time>2015-03-16T09:03:49Z</time>
      </trkpt>
      <trkpt lat="45.58727" lon="6.61931">
        <ele>2407.28</ele>
        <time>2015-03-16T09:04:19Z</time>
      </trkpt>
      <trkpt lat="45.58732" lon="6.61915">
        <ele>2410.16</ele>
        <time>2015-03-16T09:04:49Z</time>
      </trkpt>
      <trkpt lat="45.58738" lon="6.61898">
        <ele>2413.05</ele>
        <time>2015-03-16T09:05:19Z</time>
      </trkpt>
      <trkpt lat="45.58741" lon="6.61879">
        <ele>2415.45</ele>
        <time>2015-03-16T09:05:49Z</time>
      </trkpt>
      <trkpt lat="45.58747" lon="6.61861">
        <ele>2419.78</ele>
        <time>2015-03-16T09:06:19Z</time>
      </trkpt>
      <trkpt lat="45.58749" lon="6.61843">
        <ele>2424.1</ele>
        <time>2015-03-16T09:06:49Z</time>
      </trkpt>
      <trkpt lat="45.58751" lon="6.61826">
        <ele>2430.83</ele>
        <time>2015-03-16T09:07:19Z</time>
      </trkpt>
      <trkpt lat="45.58757" lon="6.6181">
        <ele>2433.71</ele>
        <time>2015-03-16T09:07:49Z</time>
      </trkpt>
      <trkpt lat="45.58768" lon="6.618">
        <ele>2435.64</ele>
        <time>2015-03-16T09:08:19Z</time>
      </trkpt>
      <trkpt lat="45.58778" lon="6.61786">
        <ele>2437.08</ele>
        <time>2015-03-16T09:08:49Z</time>
      </trkpt>
      <trkpt lat="45.58785" lon="6.61772">
        <ele>2444.29</ele>
        <time>2015-03-16T09:09:19Z</time>
      </trkpt>
      <trkpt lat="45.58794" lon="6.61761">
        <ele>2447.65</ele>
        <time>2015-03-16T09:09:49Z</time>
      </trkpt>
      <trkpt lat="45.5881" lon="6.6176">
        <ele>2446.21</ele>
        <time>2015-03-16T09:10:19Z</time>
      </trkpt>
      <trkpt lat="45.58816" lon="6.61757">
        <ele>2450.06</ele>
        <time>2015-03-16T09:10:49Z</time>
      </trkpt>
      <trkpt lat="45.58818" lon="6.61759">
        <ele>2448.62</ele>
        <time>2015-03-16T09:11:19Z</time>
      </trkpt>
      <trkpt lat="45.58818" lon="6.61758">
        <ele>2448.13</ele>
        <time>2015-03-16T09:11:49Z</time>
      </trkpt>
      <trkpt lat="45.5882" lon="6.61756">
        <ele>2446.69</ele>
        <time>2015-03-16T09:12:19Z</time>
      </trkpt>
      <trkpt lat="45.58819" lon="6.61757">
        <ele>2453.42</ele>
        <time>2015-03-16T09:12:49Z</time>
      </trkpt>
      <trkpt lat="45.58816" lon="6.61758">
        <ele>2448.62</ele>
        <time>2015-03-16T09:13:19Z</time>
      </trkpt>
      <trkpt lat="45.5883" lon="6.61748">
        <ele>2454.38</ele>
        <time>2015-03-16T09:13:49Z</time>
      </trkpt>
      <trkpt lat="45.58839" lon="6.61734">
        <ele>2457.27</ele>
        <time>2015-03-16T09:14:19Z</time>
      </trkpt>
      <trkpt lat="45.5885" lon="6.61724">
        <ele>2462.07</ele>
        <time>2015-03-16T09:14:49Z</time>
      </trkpt>
      <trkpt lat="45.58863" lon="6.61724">
        <ele>2466.4</ele>
        <time>2015-03-16T09:15:19Z</time>
      </trkpt>
      <trkpt lat="45.58871" lon="6.61742">
        <ele>2470.73</ele>
        <time>2015-03-16T09:15:49Z</time>
      </trkpt>
      <trkpt lat="45.58881" lon="6.61735">
        <ele>2473.13</ele>
        <time>2015-03-16T09:16:19Z</time>
      </trkpt>
      <trkpt lat="45.58887" lon="6.61719">
        <ele>2473.13</ele>
        <time>2015-03-16T09:16:49Z</time>
      </trkpt>
      <trkpt lat="45.58891" lon="6.61701">
        <ele>2479.38</ele>
        <time>2015-03-16T09:17:19Z</time>
      </trkpt>
      <trkpt lat="45.58899" lon="6.61685">
        <ele>2482.26</ele>
        <time>2015-03-16T09:17:49Z</time>
      </trkpt>
      <trkpt lat="45.58902" lon="6.61668">
        <ele>2484.66</ele>
        <time>2015-03-16T09:18:19Z</time>
      </trkpt>
      <trkpt lat="45.58905" lon="6.61653">
        <ele>2489.47</ele>
        <time>2015-03-16T09:18:49Z</time>
      </trkpt>
      <trkpt lat="45.58917" lon="6.61667">
        <ele>2495.72</ele>
        <time>2015-03-16T09:19:19Z</time>
      </trkpt>
      <trkpt lat="45.58918" lon="6.61667">
        <ele>2491.39</ele>
        <time>2015-03-16T09:19:49Z</time>
      </trkpt>
      <trkpt lat="45.58918" lon="6.61669">
        <ele>2488.03</ele>
        <time>2015-03-16T09:20:19Z</time>
      </trkpt>
      <trkpt lat="45.58921" lon="6.61661">
        <ele>2490.43</ele>
        <time>2015-03-16T09:20:49Z</time>
      </trkpt>
      <trkpt lat="45.58927" lon="6.61644">
        <ele>2494.76</ele>
        <time>2015-03-16T09:21:19Z</time>
      </trkpt>
      <trkpt lat="45.58933" lon="6.61634">
        <ele>2503.41</ele>
        <time>2015-03-16T09:21:49Z</time>
      </trkpt>
      <trkpt lat="45.58934" lon="6.61628">
        <ele>2499.08</ele>
        <time>2015-03-16T09:22:19Z</time>
      </trkpt>
      <trkpt lat="45.58934" lon="6.61626">
        <ele>2501.49</ele>
        <time>2015-03-16T09:22:49Z</time>
      </trkpt>
      <trkpt lat="45.58933" lon="6.61617">
        <ele>2506.29</ele>
        <time>2015-03-16T09:23:19Z</time>
      </trkpt>
      <trkpt lat="45.58927" lon="6.61603">
        <ele>2508.7</ele>
        <time>2015-03-16T09:23:49Z</time>
      </trkpt>
      <trkpt lat="45.58926" lon="6.61592">
        <ele>2513.98</ele>
        <time>2015-03-16T09:24:19Z</time>
      </trkpt>
      <trkpt lat="45.58943" lon="6.61596">
        <ele>2513.5</ele>
        <time>2015-03-16T09:24:49Z</time>
      </trkpt>
      <trkpt lat="45.58943" lon="6.61594">
        <ele>2514.47</ele>
        <time>2015-03-16T09:25:19Z</time>
      </trkpt>
      <trkpt lat="45.58951" lon="6.61596">
        <ele>2511.1</ele>
        <time>2015-03-16T09:25:49Z</time>
      </trkpt>
      <trkpt lat="45.58962" lon="6.6159">
        <ele>2508.7</ele>
        <time>2015-03-16T09:26:19Z</time>
      </trkpt>
      <trkpt lat="45.5898" lon="6.61582">
        <ele>2501.97</ele>
        <time>2015-03-16T09:26:49Z</time>
      </trkpt>
      <trkpt lat="45.59001" lon="6.61576">
        <ele>2497.16</ele>
        <time>2015-03-16T09:27:19Z</time>
      </trkpt>
      <trkpt lat="45.59017" lon="6.61571">
        <ele>2494.76</ele>
        <time>2015-03-16T09:27:49Z</time>
      </trkpt>
      <trkpt lat="45.59033" lon="6.61566">
        <ele>2490.43</ele>
        <time>2015-03-16T09:28:19Z</time>
      </trkpt>
      <trkpt lat="45.59057" lon="6.61553">
        <ele>2487.07</ele>
        <time>2015-03-16T09:28:49Z</time>
      </trkpt>
      <trkpt lat="45.59058" lon="6.61554">
        <ele>2486.59</ele>
        <time>2015-03-16T09:29:19Z</time>
      </trkpt>
      <trkpt lat="45.59069" lon="6.61547">
        <ele>2488.51</ele>
        <time>2015-03-16T09:29:49Z</time>
      </trkpt>
      <trkpt lat="45.59087" lon="6.61542">
        <ele>2491.39</ele>
        <time>2015-03-16T09:30:19Z</time>
      </trkpt>
      <trkpt lat="45.59103" lon="6.61537">
        <ele>2495.24</ele>
        <time>2015-03-16T09:30:49Z</time>
      </trkpt>
      <trkpt lat="45.59125" lon="6.61532">
        <ele>2496.2</ele>
        <time>2015-03-16T09:31:19Z</time>
      </trkpt>
      <trkpt lat="45.59144" lon="6.61533">
        <ele>2505.81</ele>
        <time>2015-03-16T09:31:49Z</time>
      </trkpt>
      <trkpt lat="45.59157" lon="6.61532">
        <ele>2508.22</ele>
        <time>2015-03-16T09:32:19Z</time>
      </trkpt>
      <trkpt lat="45.59168" lon="6.6153">
        <ele>2507.26</ele>
        <time>2015-03-16T09:32:49Z</time>
      </trkpt>
      <trkpt lat="45.5918" lon="6.61522">
        <ele>2510.62</ele>
        <time>2015-03-16T09:33:19Z</time>
      </trkpt>
      <trkpt lat="45.59191" lon="6.61516">
        <ele>2515.43</ele>
        <time>2015-03-16T09:33:49Z</time>
      </trkpt>
      <trkpt lat="45.59202" lon="6.61509">
        <ele>2517.83</ele>
        <time>2015-03-16T09:34:19Z</time>
      </trkpt>
      <trkpt lat="45.59212" lon="6.61508">
        <ele>2522.64</ele>
        <time>2015-03-16T09:34:49Z</time>
      </trkpt>
      <trkpt lat="45.59214" lon="6.61511">
        <ele>2522.64</ele>
        <time>2015-03-16T09:35:19Z</time>
      </trkpt>
      <trkpt lat="45.59213" lon="6.61514">
        <ele>2523.6</ele>
        <time>2015-03-16T09:35:49Z</time>
      </trkpt>
      <trkpt lat="45.59219" lon="6.61521">
        <ele>2528.89</ele>
        <time>2015-03-16T09:36:19Z</time>
      </trkpt>
      <trkpt lat="45.59235" lon="6.61514">
        <ele>2528.4</ele>
        <time>2015-03-16T09:36:49Z</time>
      </trkpt>
      <trkpt lat="45.59241" lon="6.61511">
        <ele>2531.29</ele>
        <time>2015-03-16T09:37:19Z</time>
      </trkpt>
      <trkpt lat="45.59251" lon="6.61507">
        <ele>2538.02</ele>
        <time>2015-03-16T09:37:49Z</time>
      </trkpt>
      <trkpt lat="45.59268" lon="6.6151">
        <ele>2539.46</ele>
        <time>2015-03-16T09:38:19Z</time>
      </trkpt>
      <trkpt lat="45.59284" lon="6.61515">
        <ele>2541.38</ele>
        <time>2015-03-16T09:38:49Z</time>
      </trkpt>
      <trkpt lat="45.59296" lon="6.61512">
        <ele>2543.79</ele>
        <time>2015-03-16T09:39:19Z</time>
      </trkpt>
      <trkpt lat="45.59308" lon="6.61516">
        <ele>2547.63</ele>
        <time>2015-03-16T09:39:49Z</time>
      </trkpt>
      <trkpt lat="45.59323" lon="6.61519">
        <ele>2553.88</ele>
        <time>2015-03-16T09:40:19Z</time>
      </trkpt>
      <trkpt lat="45.59341" lon="6.61518">
        <ele>2552.92</ele>
        <time>2015-03-16T09:40:49Z</time>
      </trkpt>
      <trkpt lat="45.59349" lon="6.61512">
        <ele>2553.88</ele>
        <time>2015-03-16T09:41:19Z</time>
      </trkpt>
      <trkpt lat="45.59367" lon="6.61506">
        <ele>2555.8</ele>
        <time>2015-03-16T09:41:49Z</time>
      </trkpt>
      <trkpt lat="45.59385" lon="6.61505">
        <ele>2559.17</ele>
        <time>2015-03-16T09:42:19Z</time>
      </trkpt>
      <trkpt lat="45.59402" lon="6.615">
        <ele>2561.57</ele>
        <time>2015-03-16T09:42:49Z</time>
      </trkpt>
      <trkpt lat="45.59414" lon="6.61508">
        <ele>2564.45</ele>
        <time>2015-03-16T09:43:19Z</time>
      </trkpt>
      <trkpt lat="45.59426" lon="6.61503">
        <ele>2568.3</ele>
        <time>2015-03-16T09:43:49Z</time>
      </trkpt>
      <trkpt lat="45.5944" lon="6.61505">
        <ele>2571.18</ele>
        <time>2015-03-16T09:44:19Z</time>
      </trkpt>
      <trkpt lat="45.59443" lon="6.61509">
        <ele>2570.7</ele>
        <time>2015-03-16T09:44:49Z</time>
      </trkpt>
      <trkpt lat="45.59443" lon="6.61508">
        <ele>2570.7</ele>
        <time>2015-03-16T09:45:19Z</time>
      </trkpt>
      <trkpt lat="45.59444" lon="6.61509">
        <ele>2571.18</ele>
        <time>2015-03-16T09:45:49Z</time>
      </trkpt>
      <trkpt lat="45.59446" lon="6.61508">
        <ele>2571.18</ele>
        <time>2015-03-16T09:46:19Z</time>
      </trkpt>
      <trkpt lat="45.59447" lon="6.61508">
        <ele>2570.7</ele>
        <time>2015-03-16T09:46:49Z</time>
      </trkpt>
      <trkpt lat="45.59446" lon="6.61509">
        <ele>2571.18</ele>
        <time>2015-03-16T09:47:19Z</time>
      </trkpt>
      <trkpt lat="45.59447" lon="6.61509">
        <ele>2571.18</ele>
        <time>2015-03-16T09:47:49Z</time>
      </trkpt>
      <trkpt lat="45.59447" lon="6.61508">
        <ele>2570.7</ele>
        <time>2015-03-16T09:48:19Z</time>
      </trkpt>
      <trkpt lat="45.59445" lon="6.61508">
        <ele>2570.7</ele>
        <time>2015-03-16T09:48:49Z</time>
      </trkpt>
      <trkpt lat="45.59444" lon="6.61508">
        <ele>2570.7</ele>
        <time>2015-03-16T09:49:19Z</time>
      </trkpt>
      <trkpt lat="45.59445" lon="6.61509">
        <ele>2570.7</ele>
        <time>2015-03-16T09:49:49Z</time>
      </trkpt>
      <trkpt lat="45.59446" lon="6.61508">
        <ele>2570.7</ele>
        <time>2015-03-16T09:50:19Z</time>
      </trkpt>
      <trkpt lat="45.59446" lon="6.61508">
        <ele>2570.7</ele>
        <time>2015-03-16T09:50:49Z</time>
      </trkpt>
      <trkpt lat="45.59445" lon="6.61509">
        <ele>2570.7</ele>
        <time>2015-03-16T09:51:19Z</time>
      </trkpt>
      <trkpt lat="45.59444" lon="6.61509">
        <ele>2572.14</ele>
        <time>2015-03-16T09:51:49Z</time>
      </trkpt>
      <trkpt lat="45.59445" lon="6.61509">
        <ele>2572.14</ele>
        <time>2015-03-16T09:52:19Z</time>
      </trkpt>
      <trkpt lat="45.59444" lon="6.61509">
        <ele>2572.63</ele>
        <time>2015-03-16T09:52:49Z</time>
      </trkpt>
      <trkpt lat="45.59443" lon="6.6151">
        <ele>2571.18</ele>
        <time>2015-03-16T09:53:19Z</time>
      </trkpt>
      <trkpt lat="45.59443" lon="6.6151">
        <ele>2571.18</ele>
        <time>2015-03-16T09:53:49Z</time>
      </trkpt>
      <trkpt lat="45.59443" lon="6.6151">
        <ele>2571.18</ele>
        <time>2015-03-16T09:54:19Z</time>
      </trkpt>
      <trkpt lat="45.59444" lon="6.6151">
        <ele>2571.18</ele>
        <time>2015-03-16T09:54:49Z</time>
      </trkpt>
      <trkpt lat="45.59446" lon="6.6151">
        <ele>2570.7</ele>
        <time>2015-03-16T09:55:19Z</time>
      </trkpt>
      <trkpt lat="45.59445" lon="6.61509">
        <ele>2572.14</ele>
        <time>2015-03-16T09:55:49Z</time>
      </trkpt>
      <trkpt lat="45.59445" lon="6.61508">
        <ele>2572.14</ele>
        <time>2015-03-16T09:56:19Z</time>
      </trkpt>
      <trkpt lat="45.59443" lon="6.61509">
        <ele>2571.66</ele>
        <time>2015-03-16T09:56:49Z</time>
      </trkpt>
      <trkpt lat="45.59442" lon="6.61511">
        <ele>2571.18</ele>
        <time>2015-03-16T09:57:19Z</time>
      </trkpt>
      <trkpt lat="45.59443" lon="6.6151">
        <ele>2572.63</ele>
        <time>2015-03-16T09:57:49Z</time>
      </trkpt>
      <trkpt lat="45.59464" lon="6.61514">
        <ele>2569.74</ele>
        <time>2015-03-16T09:58:19Z</time>
      </trkpt>
      <trkpt lat="45.59479" lon="6.61524">
        <ele>2563.49</ele>
        <time>2015-03-16T09:58:49Z</time>
      </trkpt>
      <trkpt lat="45.59482" lon="6.6153">
        <ele>2562.05</ele>
        <time>2015-03-16T09:59:19Z</time>
      </trkpt>
      <trkpt lat="45.59486" lon="6.61537">
        <ele>2560.61</ele>
        <time>2015-03-16T09:59:49Z</time>
      </trkpt>
      <trkpt lat="45.5949" lon="6.61539">
        <ele>2559.17</ele>
        <time>2015-03-16T10:00:19Z</time>
      </trkpt>
      <trkpt lat="45.59491" lon="6.61539">
        <ele>2558.69</ele>
        <time>2015-03-16T10:00:49Z</time>
      </trkpt>
      <trkpt lat="45.59492" lon="6.61541">
        <ele>2557.24</ele>
        <time>2015-03-16T10:01:19Z</time>
      </trkpt>
      <trkpt lat="45.595" lon="6.6155">
        <ele>2554.36</ele>
        <time>2015-03-16T10:01:49Z</time>
      </trkpt>
      <trkpt lat="45.59508" lon="6.61559">
        <ele>2554.84</ele>
        <time>2015-03-16T10:02:19Z</time>
      </trkpt>
      <trkpt lat="45.59513" lon="6.61564">
        <ele>2554.36</ele>
        <time>2015-03-16T10:02:49Z</time>
      </trkpt>
      <trkpt lat="45.59519" lon="6.61572">
        <ele>2550.51</ele>
        <time>2015-03-16T10:03:19Z</time>
      </trkpt>
      <trkpt lat="45.59524" lon="6.61579">
        <ele>2550.51</ele>
        <time>2015-03-16T10:03:49Z</time>
      </trkpt>
      <trkpt lat="45.59529" lon="6.61585">
        <ele>2551.48</ele>
        <time>2015-03-16T10:04:19Z</time>
      </trkpt>
      <trkpt lat="45.59532" lon="6.61591">
        <ele>2547.63</ele>
        <time>2015-03-16T10:04:49Z</time>
      </trkpt>
      <trkpt lat="45.5954" lon="6.61606">
        <ele>2547.63</ele>
        <time>2015-03-16T10:05:19Z</time>
      </trkpt>
      <trkpt lat="45.59547" lon="6.61615">
        <ele>2547.15</ele>
        <time>2015-03-16T10:05:49Z</time>
      </trkpt>
      <trkpt lat="45.59545" lon="6.61614">
        <ele>2545.71</ele>
        <time>2015-03-16T10:06:19Z</time>
      </trkpt>
      <trkpt lat="45.59538" lon="6.61604">
        <ele>2545.71</ele>
        <time>2015-03-16T10:06:49Z</time>
      </trkpt>
      <trkpt lat="45.59538" lon="6.61604">
        <ele>2545.71</ele>
        <time>2015-03-16T10:07:19Z</time>
      </trkpt>
      <trkpt lat="45.59539" lon="6.61604">
        <ele>2545.71</ele>
        <time>2015-03-16T10:07:49Z</time>
      </trkpt>
      <trkpt lat="45.59539" lon="6.61604">
        <ele>2547.15</ele>
        <time>2015-03-16T10:08:19Z</time>
      </trkpt>
      <trkpt lat="45.59538" lon="6.61604">
        <ele>2545.71</ele>
        <time>2015-03-16T10:08:49Z</time>
      </trkpt>
      <trkpt lat="45.59539" lon="6.61604">
        <ele>2545.23</ele>
        <time>2015-03-16T10:09:19Z</time>
      </trkpt>
      <trkpt lat="45.59539" lon="6.61603">
        <ele>2546.19</ele>
        <time>2015-03-16T10:09:49Z</time>
      </trkpt>
      <trkpt lat="45.59539" lon="6.61604">
        <ele>2547.15</ele>
        <time>2015-03-16T10:10:19Z</time>
      </trkpt>
      <trkpt lat="45.59538" lon="6.61604">
        <ele>2545.71</ele>
        <time>2015-03-16T10:10:49Z</time>
      </trkpt>
      <trkpt lat="45.59539" lon="6.61604">
        <ele>2545.23</ele>
        <time>2015-03-16T10:11:19Z</time>
      </trkpt>
      <trkpt lat="45.59539" lon="6.61604">
        <ele>2547.15</ele>
        <time>2015-03-16T10:11:49Z</time>
      </trkpt>
      <trkpt lat="45.59539" lon="6.61603">
        <ele>2546.19</ele>
        <time>2015-03-16T10:12:19Z</time>
      </trkpt>
      <trkpt lat="45.5954" lon="6.61603">
        <ele>2544.75</ele>
        <time>2015-03-16T10:12:49Z</time>
      </trkpt>
      <trkpt lat="45.59538" lon="6.61603">
        <ele>2546.19</ele>
        <time>2015-03-16T10:13:19Z</time>
      </trkpt>
      <trkpt lat="45.59538" lon="6.61603">
        <ele>2546.19</ele>
        <time>2015-03-16T10:13:49Z</time>
      </trkpt>
      <trkpt lat="45.59539" lon="6.61603">
        <ele>2546.19</ele>
        <time>2015-03-16T10:14:19Z</time>
      </trkpt>
      <trkpt lat="45.59539" lon="6.61603">
        <ele>2546.19</ele>
        <time>2015-03-16T10:14:49Z</time>
      </trkpt>
      <trkpt lat="45.59539" lon="6.61603">
        <ele>2546.19</ele>
        <time>2015-03-16T10:15:19Z</time>
      </trkpt>
      <trkpt lat="45.59538" lon="6.61604">
        <ele>2546.19</ele>
        <time>2015-03-16T10:15:49Z</time>
      </trkpt>
      <trkpt lat="45.59537" lon="6.61594">
        <ele>2543.31</ele>
        <time>2015-03-16T10:16:19Z</time>
      </trkpt>
      <trkpt lat="45.5955" lon="6.61588">
        <ele>2535.13</ele>
        <time>2015-03-16T10:16:49Z</time>
      </trkpt>
      <trkpt lat="45.5958" lon="6.61627">
        <ele>2521.68</ele>
        <time>2015-03-16T10:17:19Z</time>
      </trkpt>
      <trkpt lat="45.59582" lon="6.61631">
        <ele>2520.23</ele>
        <time>2015-03-16T10:17:49Z</time>
      </trkpt>
      <trkpt lat="45.59583" lon="6.6163">
        <ele>2520.23</ele>
        <time>2015-03-16T10:18:19Z</time>
      </trkpt>
      <trkpt lat="45.59583" lon="6.6163">
        <ele>2520.23</ele>
        <time>2015-03-16T10:18:49Z</time>
      </trkpt>
      <trkpt lat="45.59583" lon="6.61629">
        <ele>2520.23</ele>
        <time>2015-03-16T10:19:19Z</time>
      </trkpt>
      <trkpt lat="45.5959" lon="6.61636">
        <ele>2518.31</ele>
        <time>2015-03-16T10:19:49Z</time>
      </trkpt>
      <trkpt lat="45.59614" lon="6.61645">
        <ele>2512.06</ele>
        <time>2015-03-16T10:20:19Z</time>
      </trkpt>
      <trkpt lat="45.59591" lon="6.61598">
        <ele>2500.53</ele>
        <time>2015-03-16T10:20:49Z</time>
      </trkpt>
      <trkpt lat="45.59613" lon="6.61588">
        <ele>2486.11</ele>
        <time>2015-03-16T10:21:19Z</time>
      </trkpt>
      <trkpt lat="45.59621" lon="6.61566">
        <ele>2471.21</ele>
        <time>2015-03-16T10:21:49Z</time>
      </trkpt>
      <trkpt lat="45.5963" lon="6.61556">
        <ele>2460.63</ele>
        <time>2015-03-16T10:22:19Z</time>
      </trkpt>
      <trkpt lat="45.59647" lon="6.61534">
        <ele>2442.37</ele>
        <time>2015-03-16T10:22:49Z</time>
      </trkpt>
      <trkpt lat="45.59648" lon="6.61521">
        <ele>2436.6</ele>
        <time>2015-03-16T10:23:19Z</time>
      </trkpt>
      <trkpt lat="45.59649" lon="6.61518">
        <ele>2434.68</ele>
        <time>2015-03-16T10:23:49Z</time>
      </trkpt>
      <trkpt lat="45.59648" lon="6.61514">
        <ele>2433.23</ele>
        <time>2015-03-16T10:24:19Z</time>
      </trkpt>
      <trkpt lat="45.59635" lon="6.61463">
        <ele>2423.62</ele>
        <time>2015-03-16T10:24:49Z</time>
      </trkpt>
      <trkpt lat="45.59637" lon="6.61359">
        <ele>2400.55</ele>
        <time>2015-03-16T10:25:19Z</time>
      </trkpt>
      <trkpt lat="45.59667" lon="6.61334">
        <ele>2374.59</ele>
        <time>2015-03-16T10:25:49Z</time>
      </trkpt>
      <trkpt lat="45.59695" lon="6.6121">
        <ele>2339.02</ele>
        <time>2015-03-16T10:26:19Z</time>
      </trkpt>
      <trkpt lat="45.59695" lon="6.61212">
        <ele>2339.02</ele>
        <time>2015-03-16T10:26:49Z</time>
      </trkpt>
      <trkpt lat="45.59697" lon="6.61215">
        <ele>2339.51</ele>
        <time>2015-03-16T10:27:19Z</time>
      </trkpt>
      <trkpt lat="45.59725" lon="6.6129">
        <ele>2329.89</ele>
        <time>2015-03-16T10:27:49Z</time>
      </trkpt>
      <trkpt lat="45.59726" lon="6.61289">
        <ele>2329.89</ele>
        <time>2015-03-16T10:28:19Z</time>
      </trkpt>
      <trkpt lat="45.59726" lon="6.61286">
        <ele>2330.37</ele>
        <time>2015-03-16T10:28:49Z</time>
      </trkpt>
      <trkpt lat="45.59789" lon="6.61053">
        <ele>2306.82</ele>
        <time>2015-03-16T10:29:19Z</time>
      </trkpt>
      <trkpt lat="45.59876" lon="6.60947">
        <ele>2284.23</ele>
        <time>2015-03-16T10:29:49Z</time>
      </trkpt>
      <trkpt lat="45.59968" lon="6.60912">
        <ele>2273.17</ele>
        <time>2015-03-16T10:30:19Z</time>
      </trkpt>
      <trkpt lat="45.60094" lon="6.61021">
        <ele>2242.89</ele>
        <time>2015-03-16T10:30:49Z</time>
      </trkpt>
      <trkpt lat="45.60194" lon="6.61065">
        <ele>2234.24</ele>
        <time>2015-03-16T10:31:19Z</time>
      </trkpt>
      <trkpt lat="45.60281" lon="6.61116">
        <ele>2227.03</ele>
        <time>2015-03-16T10:31:49Z</time>
      </trkpt>
      <trkpt lat="45.6028" lon="6.61116">
        <ele>2229.43</ele>
        <time>2015-03-16T10:32:19Z</time>
      </trkpt>
      <trkpt lat="45.60281" lon="6.61117">
        <ele>2229.43</ele>
        <time>2015-03-16T10:32:49Z</time>
      </trkpt>
      <trkpt lat="45.60282" lon="6.61118">
        <ele>2229.43</ele>
        <time>2015-03-16T10:33:19Z</time>
      </trkpt>
      <trkpt lat="45.60285" lon="6.61124">
        <ele>2230.4</ele>
        <time>2015-03-16T10:33:49Z</time>
      </trkpt>
      <trkpt lat="45.60293" lon="6.6113">
        <ele>2231.84</ele>
        <time>2015-03-16T10:34:19Z</time>
      </trkpt>
      <trkpt lat="45.60302" lon="6.61145">
        <ele>2234.72</ele>
        <time>2015-03-16T10:34:49Z</time>
      </trkpt>
      <trkpt lat="45.60306" lon="6.6114">
        <ele>2235.68</ele>
        <time>2015-03-16T10:35:19Z</time>
      </trkpt>
      <trkpt lat="45.60333" lon="6.61152">
        <ele>2236.16</ele>
        <time>2015-03-16T10:35:49Z</time>
      </trkpt>
      <trkpt lat="45.60351" lon="6.61152">
        <ele>2239.05</ele>
        <time>2015-03-16T10:36:19Z</time>
      </trkpt>
      <trkpt lat="45.60365" lon="6.61148">
        <ele>2240.97</ele>
        <time>2015-03-16T10:36:49Z</time>
      </trkpt>
      <trkpt lat="45.60373" lon="6.6114">
        <ele>2242.41</ele>
        <time>2015-03-16T10:37:19Z</time>
      </trkpt>
      <trkpt lat="45.60397" lon="6.61137">
        <ele>2244.33</ele>
        <time>2015-03-16T10:37:49Z</time>
      </trkpt>
      <trkpt lat="45.60484" lon="6.61135">
        <ele>2237.61</ele>
        <time>2015-03-16T10:38:19Z</time>
      </trkpt>
      <trkpt lat="45.60544" lon="6.61179">
        <ele>2236.64</ele>
        <time>2015-03-16T10:38:49Z</time>
      </trkpt>
      <trkpt lat="45.60545" lon="6.61181">
        <ele>2238.09</ele>
        <time>2015-03-16T10:39:19Z</time>
      </trkpt>
      <trkpt lat="45.60556" lon="6.61197">
        <ele>2242.41</ele>
        <time>2015-03-16T10:39:49Z</time>
      </trkpt>
      <trkpt lat="45.60566" lon="6.61209">
        <ele>2246.74</ele>
        <time>2015-03-16T10:40:19Z</time>
      </trkpt>
      <trkpt lat="45.60573" lon="6.61202">
        <ele>2249.14</ele>
        <time>2015-03-16T10:40:49Z</time>
      </trkpt>
      <trkpt lat="45.6058" lon="6.61193">
        <ele>2251.54</ele>
        <time>2015-03-16T10:41:19Z</time>
      </trkpt>
      <trkpt lat="45.60593" lon="6.61196">
        <ele>2257.31</ele>
        <time>2015-03-16T10:41:49Z</time>
      </trkpt>
      <trkpt lat="45.60606" lon="6.6119">
        <ele>2258.27</ele>
        <time>2015-03-16T10:42:19Z</time>
      </trkpt>
      <trkpt lat="45.60613" lon="6.61201">
        <ele>2260.2</ele>
        <time>2015-03-16T10:42:49Z</time>
      </trkpt>
      <trkpt lat="45.60621" lon="6.61208">
        <ele>2263.56</ele>
        <time>2015-03-16T10:43:19Z</time>
      </trkpt>
      <trkpt lat="45.60621" lon="6.61212">
        <ele>2263.56</ele>
        <time>2015-03-16T10:43:49Z</time>
      </trkpt>
      <trkpt lat="45.60635" lon="6.61211">
        <ele>2265.48</ele>
        <time>2015-03-16T10:44:19Z</time>
      </trkpt>
      <trkpt lat="45.6065" lon="6.61211">
        <ele>2266.45</ele>
        <time>2015-03-16T10:44:49Z</time>
      </trkpt>
      <trkpt lat="45.60666" lon="6.61212">
        <ele>2269.81</ele>
        <time>2015-03-16T10:45:19Z</time>
      </trkpt>
      <trkpt lat="45.60683" lon="6.61217">
        <ele>2270.77</ele>
        <time>2015-03-16T10:45:49Z</time>
      </trkpt>
      <trkpt lat="45.607" lon="6.61223">
        <ele>2272.69</ele>
        <time>2015-03-16T10:46:19Z</time>
      </trkpt>
      <trkpt lat="45.60719" lon="6.61229">
        <ele>2277.02</ele>
        <time>2015-03-16T10:46:49Z</time>
      </trkpt>
      <trkpt lat="45.6074" lon="6.61224">
        <ele>2277.5</ele>
        <time>2015-03-16T10:47:19Z</time>
      </trkpt>
      <trkpt lat="45.60747" lon="6.6121">
        <ele>2277.02</ele>
        <time>2015-03-16T10:47:49Z</time>
      </trkpt>
      <trkpt lat="45.60753" lon="6.6119">
        <ele>2278.46</ele>
        <time>2015-03-16T10:48:19Z</time>
      </trkpt>
      <trkpt lat="45.60754" lon="6.6119">
        <ele>2277.98</ele>
        <time>2015-03-16T10:48:49Z</time>
      </trkpt>
      <trkpt lat="45.60753" lon="6.61189">
        <ele>2274.62</ele>
        <time>2015-03-16T10:49:19Z</time>
      </trkpt>
      <trkpt lat="45.60753" lon="6.61189">
        <ele>2274.62</ele>
        <time>2015-03-16T10:49:49Z</time>
      </trkpt>
      <trkpt lat="45.60752" lon="6.6119">
        <ele>2275.1</ele>
        <time>2015-03-16T10:50:19Z</time>
      </trkpt>
      <trkpt lat="45.60753" lon="6.61188">
        <ele>2273.17</ele>
        <time>2015-03-16T10:50:49Z</time>
      </trkpt>
      <trkpt lat="45.60753" lon="6.61189">
        <ele>2273.17</ele>
        <time>2015-03-16T10:51:19Z</time>
      </trkpt>
      <trkpt lat="45.60755" lon="6.61187">
        <ele>2273.66</ele>
        <time>2015-03-16T10:51:49Z</time>
      </trkpt>
      <trkpt lat="45.60754" lon="6.61187">
        <ele>2275.58</ele>
        <time>2015-03-16T10:52:19Z</time>
      </trkpt>
      <trkpt lat="45.60755" lon="6.61187">
        <ele>2272.69</ele>
        <time>2015-03-16T10:52:49Z</time>
      </trkpt>
      <trkpt lat="45.60753" lon="6.61188">
        <ele>2280.87</ele>
        <time>2015-03-16T10:53:19Z</time>
      </trkpt>
      <trkpt lat="45.60757" lon="6.61207">
        <ele>2272.21</ele>
        <time>2015-03-16T10:53:49Z</time>
      </trkpt>
      <trkpt lat="45.60819" lon="6.6118">
        <ele>2263.56</ele>
        <time>2015-03-16T10:54:19Z</time>
      </trkpt>
      <trkpt lat="45.60818" lon="6.61083">
        <ele>2245.3</ele>
        <time>2015-03-16T10:54:49Z</time>
      </trkpt>
      <trkpt lat="45.60956" lon="6.6099">
        <ele>2208.29</ele>
        <time>2015-03-16T10:55:19Z</time>
      </trkpt>
      <trkpt lat="45.60997" lon="6.60934">
        <ele>2201.08</ele>
        <time>2015-03-16T10:55:49Z</time>
      </trkpt>
      <trkpt lat="45.61006" lon="6.60936">
        <ele>2199.63</ele>
        <time>2015-03-16T10:56:19Z</time>
      </trkpt>
      <trkpt lat="45.61006" lon="6.60935">
        <ele>2202.04</ele>
        <time>2015-03-16T10:56:49Z</time>
      </trkpt>
      <trkpt lat="45.6101" lon="6.60943">
        <ele>2199.15</ele>
        <time>2015-03-16T10:57:19Z</time>
      </trkpt>
      <trkpt lat="45.61074" lon="6.60929">
        <ele>2179.45</ele>
        <time>2015-03-16T10:57:49Z</time>
      </trkpt>
      <trkpt lat="45.61066" lon="6.60852">
        <ele>2165.03</ele>
        <time>2015-03-16T10:58:19Z</time>
      </trkpt>
      <trkpt lat="45.61148" lon="6.60696">
        <ele>2148.2</ele>
        <time>2015-03-16T10:58:49Z</time>
      </trkpt>
      <trkpt lat="45.61158" lon="6.60646">
        <ele>2141.47</ele>
        <time>2015-03-16T10:59:19Z</time>
      </trkpt>
      <trkpt lat="45.61228" lon="6.60543">
        <ele>2137.63</ele>
        <time>2015-03-16T10:59:49Z</time>
      </trkpt>
      <trkpt lat="45.61355" lon="6.60464">
        <ele>2121.77</ele>
        <time>2015-03-16T11:00:19Z</time>
      </trkpt>
      <trkpt lat="45.61466" lon="6.6061">
        <ele>2109.75</ele>
        <time>2015-03-16T11:00:49Z</time>
      </trkpt>
      <trkpt lat="45.61609" lon="6.6079">
        <ele>2086.68</ele>
        <time>2015-03-16T11:01:19Z</time>
      </trkpt>
      <trkpt lat="45.61759" lon="6.60812">
        <ele>2072.74</ele>
        <time>2015-03-16T11:01:49Z</time>
      </trkpt>
      <trkpt lat="45.61781" lon="6.60801">
        <ele>2067.45</ele>
        <time>2015-03-16T11:02:19Z</time>
      </trkpt>
      <trkpt lat="45.61822" lon="6.60857">
        <ele>2058.32</ele>
        <time>2015-03-16T11:02:49Z</time>
      </trkpt>
      <trkpt lat="45.61821" lon="6.60856">
        <ele>2057.84</ele>
        <time>2015-03-16T11:03:19Z</time>
      </trkpt>
      <trkpt lat="45.61823" lon="6.60859">
        <ele>2059.28</ele>
        <time>2015-03-16T11:03:49Z</time>
      </trkpt>
      <trkpt lat="45.61827" lon="6.60857">
        <ele>2056.88</ele>
        <time>2015-03-16T11:04:19Z</time>
      </trkpt>
      <trkpt lat="45.61827" lon="6.60857">
        <ele>2056.4</ele>
        <time>2015-03-16T11:04:49Z</time>
      </trkpt>
      <trkpt lat="45.61827" lon="6.60857">
        <ele>2056.4</ele>
        <time>2015-03-16T11:05:19Z</time>
      </trkpt>
      <trkpt lat="45.61827" lon="6.60857">
        <ele>2056.88</ele>
        <time>2015-03-16T11:05:49Z</time>
      </trkpt>
      <trkpt lat="45.61821" lon="6.60859">
        <ele>2056.88</ele>
        <time>2015-03-16T11:06:19Z</time>
      </trkpt>
      <trkpt lat="45.61822" lon="6.60859">
        <ele>2056.88</ele>
        <time>2015-03-16T11:06:49Z</time>
      </trkpt>
      <trkpt lat="45.61824" lon="6.60858">
        <ele>2056.88</ele>
        <time>2015-03-16T11:07:19Z</time>
      </trkpt>
      <trkpt lat="45.61822" lon="6.6086">
        <ele>2056.88</ele>
        <time>2015-03-16T11:07:49Z</time>
      </trkpt>
      <trkpt lat="45.61825" lon="6.60858">
        <ele>2056.88</ele>
        <time>2015-03-16T11:08:19Z</time>
      </trkpt>
      <trkpt lat="45.61826" lon="6.60857">
        <ele>2055.44</ele>
        <time>2015-03-16T11:08:49Z</time>
      </trkpt>
      <trkpt lat="45.61829" lon="6.60853">
        <ele>2053.51</ele>
        <time>2015-03-16T11:09:19Z</time>
      </trkpt>
      <trkpt lat="45.61827" lon="6.60854">
        <ele>2053.99</ele>
        <time>2015-03-16T11:09:49Z</time>
      </trkpt>
      <trkpt lat="45.61828" lon="6.60855">
        <ele>2054.47</ele>
        <time>2015-03-16T11:10:19Z</time>
      </trkpt>
      <trkpt lat="45.61827" lon="6.60855">
        <ele>2053.99</ele>
        <time>2015-03-16T11:10:49Z</time>
      </trkpt>
      <trkpt lat="45.61826" lon="6.60854">
        <ele>2053.99</ele>
        <time>2015-03-16T11:11:19Z</time>
      </trkpt>
      <trkpt lat="45.61825" lon="6.60852">
        <ele>2056.4</ele>
        <time>2015-03-16T11:11:49Z</time>
      </trkpt>
      <trkpt lat="45.61828" lon="6.60854">
        <ele>2056.88</ele>
        <time>2015-03-16T11:12:19Z</time>
      </trkpt>
      <trkpt lat="45.61799" lon="6.60851">
        <ele>2054.47</ele>
        <time>2015-03-16T11:12:49Z</time>
      </trkpt>
      <trkpt lat="45.61818" lon="6.6085">
        <ele>2056.88</ele>
        <time>2015-03-16T12:07:17Z</time>
      </trkpt>
      <trkpt lat="45.61824" lon="6.6086">
        <ele>2056.4</ele>
        <time>2015-03-16T12:07:47Z</time>
      </trkpt>
      <trkpt lat="45.61825" lon="6.60858">
        <ele>2056.88</ele>
        <time>2015-03-16T12:08:17Z</time>
      </trkpt>
      <trkpt lat="45.61825" lon="6.60859">
        <ele>2056.88</ele>
        <time>2015-03-16T12:08:47Z</time>
      </trkpt>
      <trkpt lat="45.6183" lon="6.6086">
        <ele>2056.88</ele>
        <time>2015-03-16T12:09:17Z</time>
      </trkpt>
      <trkpt lat="45.6183" lon="6.60855">
        <ele>2058.32</ele>
        <time>2015-03-16T12:09:46Z</time>
      </trkpt>
      <trkpt lat="45.61823" lon="6.60856">
        <ele>2060.72</ele>
        <time>2015-03-16T12:10:17Z</time>
      </trkpt>
      <trkpt lat="45.61837" lon="6.60833">
        <ele>2062.17</ele>
        <time>2015-03-16T12:10:47Z</time>
      </trkpt>
      <trkpt lat="45.61872" lon="6.60825">
        <ele>2060.24</ele>
        <time>2015-03-16T12:11:17Z</time>
      </trkpt>
      <trkpt lat="45.61884" lon="6.60851">
        <ele>2062.65</ele>
        <time>2015-03-16T12:11:47Z</time>
      </trkpt>
      <trkpt lat="45.61897" lon="6.6088">
        <ele>2067.45</ele>
        <time>2015-03-16T12:12:17Z</time>
      </trkpt>
      <trkpt lat="45.61914" lon="6.6091">
        <ele>2068.89</ele>
        <time>2015-03-16T12:12:47Z</time>
      </trkpt>
      <trkpt lat="45.61931" lon="6.60943">
        <ele>2069.86</ele>
        <time>2015-03-16T12:13:17Z</time>
      </trkpt>
      <trkpt lat="45.61951" lon="6.60967">
        <ele>2072.26</ele>
        <time>2015-03-16T12:13:47Z</time>
      </trkpt>
      <trkpt lat="45.6197" lon="6.60986">
        <ele>2076.1</ele>
        <time>2015-03-16T12:14:17Z</time>
      </trkpt>
      <trkpt lat="45.61993" lon="6.61003">
        <ele>2078.51</ele>
        <time>2015-03-16T12:14:47Z</time>
      </trkpt>
      <trkpt lat="45.62015" lon="6.61023">
        <ele>2081.87</ele>
        <time>2015-03-16T12:15:17Z</time>
      </trkpt>
      <trkpt lat="45.62032" lon="6.61047">
        <ele>2084.76</ele>
        <time>2015-03-16T12:15:47Z</time>
      </trkpt>
      <trkpt lat="45.62052" lon="6.61075">
        <ele>2089.08</ele>
        <time>2015-03-16T12:16:17Z</time>
      </trkpt>
      <trkpt lat="45.62074" lon="6.61097">
        <ele>2092.45</ele>
        <time>2015-03-16T12:16:47Z</time>
      </trkpt>
      <trkpt lat="45.62096" lon="6.61114">
        <ele>2096.77</ele>
        <time>2015-03-16T12:17:17Z</time>
      </trkpt>
      <trkpt lat="45.62116" lon="6.61131">
        <ele>2101.58</ele>
        <time>2015-03-16T12:17:47Z</time>
      </trkpt>
      <trkpt lat="45.62135" lon="6.61141">
        <ele>2103.5</ele>
        <time>2015-03-16T12:18:17Z</time>
      </trkpt>
      <trkpt lat="45.62148" lon="6.61153">
        <ele>2106.39</ele>
        <time>2015-03-16T12:18:47Z</time>
      </trkpt>
      <trkpt lat="45.62163" lon="6.61179">
        <ele>2109.75</ele>
        <time>2015-03-16T12:19:17Z</time>
      </trkpt>
      <trkpt lat="45.62173" lon="6.61196">
        <ele>2113.6</ele>
        <time>2015-03-16T12:19:47Z</time>
      </trkpt>
      <trkpt lat="45.62189" lon="6.61217">
        <ele>2118.88</ele>
        <time>2015-03-16T12:20:17Z</time>
      </trkpt>
      <trkpt lat="45.62202" lon="6.61238">
        <ele>2122.25</ele>
        <time>2015-03-16T12:20:47Z</time>
      </trkpt>
      <trkpt lat="45.62218" lon="6.61258">
        <ele>2126.09</ele>
        <time>2015-03-16T12:21:17Z</time>
      </trkpt>
      <trkpt lat="45.62228" lon="6.61274">
        <ele>2128.02</ele>
        <time>2015-03-16T12:21:47Z</time>
      </trkpt>
      <trkpt lat="45.62236" lon="6.613">
        <ele>2130.42</ele>
        <time>2015-03-16T12:22:17Z</time>
      </trkpt>
      <trkpt lat="45.6225" lon="6.61314">
        <ele>2134.74</ele>
        <time>2015-03-16T12:22:47Z</time>
      </trkpt>
      <trkpt lat="45.62265" lon="6.61322">
        <ele>2139.55</ele>
        <time>2015-03-16T12:23:17Z</time>
      </trkpt>
      <trkpt lat="45.62278" lon="6.61331">
        <ele>2143.4</ele>
        <time>2015-03-16T12:23:47Z</time>
      </trkpt>
      <trkpt lat="45.62292" lon="6.61346">
        <ele>2147.24</ele>
        <time>2015-03-16T12:24:17Z</time>
      </trkpt>
      <trkpt lat="45.62304" lon="6.61359">
        <ele>2152.05</ele>
        <time>2015-03-16T12:24:47Z</time>
      </trkpt>
      <trkpt lat="45.62319" lon="6.61358">
        <ele>2154.45</ele>
        <time>2015-03-16T12:25:17Z</time>
      </trkpt>
      <trkpt lat="45.62328" lon="6.61347">
        <ele>2158.3</ele>
        <time>2015-03-16T12:25:47Z</time>
      </trkpt>
      <trkpt lat="45.62346" lon="6.61337">
        <ele>2161.18</ele>
        <time>2015-03-16T12:26:17Z</time>
      </trkpt>
      <trkpt lat="45.6236" lon="6.61339">
        <ele>2162.62</ele>
        <time>2015-03-16T12:26:47Z</time>
      </trkpt>
      <trkpt lat="45.62377" lon="6.61353">
        <ele>2162.62</ele>
        <time>2015-03-16T12:27:17Z</time>
      </trkpt>
      <trkpt lat="45.62378" lon="6.61357">
        <ele>2164.06</ele>
        <time>2015-03-16T12:27:47Z</time>
      </trkpt>
      <trkpt lat="45.62379" lon="6.61357">
        <ele>2165.03</ele>
        <time>2015-03-16T12:28:17Z</time>
      </trkpt>
      <trkpt lat="45.62376" lon="6.61355">
        <ele>2164.55</ele>
        <time>2015-03-16T12:28:47Z</time>
      </trkpt>
      <trkpt lat="45.62379" lon="6.6136">
        <ele>2164.06</ele>
        <time>2015-03-16T12:29:17Z</time>
      </trkpt>
      <trkpt lat="45.6238" lon="6.61362">
        <ele>2165.03</ele>
        <time>2015-03-16T12:29:47Z</time>
      </trkpt>
      <trkpt lat="45.62378" lon="6.61359">
        <ele>2163.58</ele>
        <time>2015-03-16T12:30:17Z</time>
      </trkpt>
      <trkpt lat="45.62375" lon="6.61354">
        <ele>2163.1</ele>
        <time>2015-03-16T12:30:47Z</time>
      </trkpt>
      <trkpt lat="45.62378" lon="6.61358">
        <ele>2162.62</ele>
        <time>2015-03-16T12:31:17Z</time>
      </trkpt>
      <trkpt lat="45.62378" lon="6.6136">
        <ele>2162.62</ele>
        <time>2015-03-16T12:31:47Z</time>
      </trkpt>
      <trkpt lat="45.62378" lon="6.61359">
        <ele>2162.62</ele>
        <time>2015-03-16T12:32:17Z</time>
      </trkpt>
      <trkpt lat="45.62379" lon="6.6136">
        <ele>2162.14</ele>
        <time>2015-03-16T12:32:47Z</time>
      </trkpt>
      <trkpt lat="45.62379" lon="6.61361">
        <ele>2162.14</ele>
        <time>2015-03-16T12:33:17Z</time>
      </trkpt>
      <trkpt lat="45.6238" lon="6.6138">
        <ele>2165.51</ele>
        <time>2015-03-16T12:33:47Z</time>
      </trkpt>
      <trkpt lat="45.62381" lon="6.61405">
        <ele>2167.43</ele>
        <time>2015-03-16T12:34:17Z</time>
      </trkpt>
      <trkpt lat="45.62383" lon="6.6143">
        <ele>2170.31</ele>
        <time>2015-03-16T12:34:47Z</time>
      </trkpt>
      <trkpt lat="45.6238" lon="6.61453">
        <ele>2175.12</ele>
        <time>2015-03-16T12:35:17Z</time>
      </trkpt>
      <trkpt lat="45.62384" lon="6.61473">
        <ele>2178</ele>
        <time>2015-03-16T12:35:47Z</time>
      </trkpt>
      <trkpt lat="45.6239" lon="6.61481">
        <ele>2179.45</ele>
        <time>2015-03-16T12:36:17Z</time>
      </trkpt>
      <trkpt lat="45.62398" lon="6.61502">
        <ele>2180.89</ele>
        <time>2015-03-16T12:36:47Z</time>
      </trkpt>
      <trkpt lat="45.62401" lon="6.61525">
        <ele>2183.77</ele>
        <time>2015-03-16T12:37:17Z</time>
      </trkpt>
      <trkpt lat="45.62399" lon="6.61535">
        <ele>2185.69</ele>
        <time>2015-03-16T12:37:47Z</time>
      </trkpt>
      <trkpt lat="45.62403" lon="6.6155">
        <ele>2188.1</ele>
        <time>2015-03-16T12:38:17Z</time>
      </trkpt>
      <trkpt lat="45.62403" lon="6.61578">
        <ele>2190.02</ele>
        <time>2015-03-16T12:38:47Z</time>
      </trkpt>
      <trkpt lat="45.62404" lon="6.61606">
        <ele>2191.94</ele>
        <time>2015-03-16T12:39:17Z</time>
      </trkpt>
      <trkpt lat="45.62403" lon="6.61638">
        <ele>2193.87</ele>
        <time>2015-03-16T12:39:47Z</time>
      </trkpt>
      <trkpt lat="45.62396" lon="6.61664">
        <ele>2196.75</ele>
        <time>2015-03-16T12:40:17Z</time>
      </trkpt>
      <trkpt lat="45.62387" lon="6.61686">
        <ele>2198.67</ele>
        <time>2015-03-16T12:40:47Z</time>
      </trkpt>
      <trkpt lat="45.62377" lon="6.61711">
        <ele>2202.04</ele>
        <time>2015-03-16T12:41:17Z</time>
      </trkpt>
      <trkpt lat="45.62365" lon="6.61735">
        <ele>2206.36</ele>
        <time>2015-03-16T12:41:47Z</time>
      </trkpt>
      <trkpt lat="45.62362" lon="6.6176">
        <ele>2206.84</ele>
        <time>2015-03-16T12:42:17Z</time>
      </trkpt>
      <trkpt lat="45.62362" lon="6.61785">
        <ele>2208.77</ele>
        <time>2015-03-16T12:42:47Z</time>
      </trkpt>
      <trkpt lat="45.62372" lon="6.61807">
        <ele>2212.61</ele>
        <time>2015-03-16T12:43:17Z</time>
      </trkpt>
      <trkpt lat="45.62385" lon="6.61821">
        <ele>2215.01</ele>
        <time>2015-03-16T12:43:47Z</time>
      </trkpt>
      <trkpt lat="45.62398" lon="6.61836">
        <ele>2217.9</ele>
        <time>2015-03-16T12:44:17Z</time>
      </trkpt>
      <trkpt lat="45.62402" lon="6.61852">
        <ele>2223.19</ele>
        <time>2015-03-16T12:44:47Z</time>
      </trkpt>
      <trkpt lat="45.62415" lon="6.61865">
        <ele>2227.03</ele>
        <time>2015-03-16T12:45:17Z</time>
      </trkpt>
      <trkpt lat="45.62432" lon="6.61878">
        <ele>2230.88</ele>
        <time>2015-03-16T12:45:47Z</time>
      </trkpt>
      <trkpt lat="45.6245" lon="6.61883">
        <ele>2233.76</ele>
        <time>2015-03-16T12:46:17Z</time>
      </trkpt>
      <trkpt lat="45.62461" lon="6.61901">
        <ele>2233.76</ele>
        <time>2015-03-16T12:46:47Z</time>
      </trkpt>
      <trkpt lat="45.62475" lon="6.61918">
        <ele>2236.64</ele>
        <time>2015-03-16T12:47:17Z</time>
      </trkpt>
      <trkpt lat="45.62487" lon="6.61936">
        <ele>2240.49</ele>
        <time>2015-03-16T12:47:47Z</time>
      </trkpt>
      <trkpt lat="45.62501" lon="6.61954">
        <ele>2243.85</ele>
        <time>2015-03-16T12:48:17Z</time>
      </trkpt>
      <trkpt lat="45.62516" lon="6.61967">
        <ele>2246.26</ele>
        <time>2015-03-16T12:48:47Z</time>
      </trkpt>
      <trkpt lat="45.6253" lon="6.61979">
        <ele>2250.1</ele>
        <time>2015-03-16T12:49:17Z</time>
      </trkpt>
      <trkpt lat="45.62542" lon="6.61995">
        <ele>2251.54</ele>
        <time>2015-03-16T12:49:47Z</time>
      </trkpt>
      <trkpt lat="45.62542" lon="6.61996">
        <ele>2252.51</ele>
        <time>2015-03-16T12:50:17Z</time>
      </trkpt>
      <trkpt lat="45.62543" lon="6.61996">
        <ele>2252.03</ele>
        <time>2015-03-16T12:50:47Z</time>
      </trkpt>
      <trkpt lat="45.62542" lon="6.62001">
        <ele>2251.06</ele>
        <time>2015-03-16T12:51:17Z</time>
      </trkpt>
      <trkpt lat="45.62543" lon="6.62002">
        <ele>2252.03</ele>
        <time>2015-03-16T12:51:47Z</time>
      </trkpt>
      <trkpt lat="45.62542" lon="6.62001">
        <ele>2252.51</ele>
        <time>2015-03-16T12:52:17Z</time>
      </trkpt>
      <trkpt lat="45.62548" lon="6.62018">
        <ele>2253.47</ele>
        <time>2015-03-16T12:52:47Z</time>
      </trkpt>
      <trkpt lat="45.62558" lon="6.62048">
        <ele>2251.54</ele>
        <time>2015-03-16T12:53:17Z</time>
      </trkpt>
      <trkpt lat="45.62573" lon="6.62075">
        <ele>2251.06</ele>
        <time>2015-03-16T12:53:47Z</time>
      </trkpt>
      <trkpt lat="45.6259" lon="6.62101">
        <ele>2248.66</ele>
        <time>2015-03-16T12:54:17Z</time>
      </trkpt>
      <trkpt lat="45.62608" lon="6.6213">
        <ele>2248.18</ele>
        <time>2015-03-16T12:54:47Z</time>
      </trkpt>
      <trkpt lat="45.62619" lon="6.62151">
        <ele>2251.06</ele>
        <time>2015-03-16T12:55:17Z</time>
      </trkpt>
      <trkpt lat="45.6263" lon="6.62168">
        <ele>2254.91</ele>
        <time>2015-03-16T12:55:47Z</time>
      </trkpt>
      <trkpt lat="45.62632" lon="6.62189">
        <ele>2258.27</ele>
        <time>2015-03-16T12:56:17Z</time>
      </trkpt>
      <trkpt lat="45.62646" lon="6.62203">
        <ele>2260.68</ele>
        <time>2015-03-16T12:56:47Z</time>
      </trkpt>
      <trkpt lat="45.6266" lon="6.62216">
        <ele>2264.04</ele>
        <time>2015-03-16T12:57:17Z</time>
      </trkpt>
      <trkpt lat="45.62673" lon="6.62228">
        <ele>2267.41</ele>
        <time>2015-03-16T12:57:47Z</time>
      </trkpt>
      <trkpt lat="45.62684" lon="6.6224">
        <ele>2271.25</ele>
        <time>2015-03-16T12:58:17Z</time>
      </trkpt>
      <trkpt lat="45.62695" lon="6.62252">
        <ele>2274.14</ele>
        <time>2015-03-16T12:58:47Z</time>
      </trkpt>
      <trkpt lat="45.62712" lon="6.62267">
        <ele>2276.06</ele>
        <time>2015-03-16T12:59:17Z</time>
      </trkpt>
      <trkpt lat="45.6273" lon="6.62278">
        <ele>2277.98</ele>
        <time>2015-03-16T12:59:47Z</time>
      </trkpt>
      <trkpt lat="45.62735" lon="6.62295">
        <ele>2281.83</ele>
        <time>2015-03-16T13:00:17Z</time>
      </trkpt>
      <trkpt lat="45.62743" lon="6.62312">
        <ele>2285.19</ele>
        <time>2015-03-16T13:00:47Z</time>
      </trkpt>
      <trkpt lat="45.62754" lon="6.62328">
        <ele>2288.08</ele>
        <time>2015-03-16T13:01:17Z</time>
      </trkpt>
      <trkpt lat="45.62766" lon="6.6233">
        <ele>2291.92</ele>
        <time>2015-03-16T13:01:47Z</time>
      </trkpt>
      <trkpt lat="45.62779" lon="6.62339">
        <ele>2294.8</ele>
        <time>2015-03-16T13:02:17Z</time>
      </trkpt>
      <trkpt lat="45.62781" lon="6.62342">
        <ele>2296.73</ele>
        <time>2015-03-16T13:02:47Z</time>
      </trkpt>
      <trkpt lat="45.62788" lon="6.62353">
        <ele>2296.73</ele>
        <time>2015-03-16T13:03:17Z</time>
      </trkpt>
      <trkpt lat="45.62795" lon="6.62372">
        <ele>2299.61</ele>
        <time>2015-03-16T13:03:47Z</time>
      </trkpt>
      <trkpt lat="45.62796" lon="6.6237">
        <ele>2298.65</ele>
        <time>2015-03-16T13:04:17Z</time>
      </trkpt>
      <trkpt lat="45.62798" lon="6.62366">
        <ele>2298.17</ele>
        <time>2015-03-16T13:04:47Z</time>
      </trkpt>
      <trkpt lat="45.62794" lon="6.62369">
        <ele>2298.17</ele>
        <time>2015-03-16T13:05:17Z</time>
      </trkpt>
      <trkpt lat="45.62796" lon="6.62365">
        <ele>2299.61</ele>
        <time>2015-03-16T13:05:47Z</time>
      </trkpt>
      <trkpt lat="45.62797" lon="6.62367">
        <ele>2301.53</ele>
        <time>2015-03-16T13:06:17Z</time>
      </trkpt>
      <trkpt lat="45.62802" lon="6.6239">
        <ele>2306.34</ele>
        <time>2015-03-16T13:06:47Z</time>
      </trkpt>
      <trkpt lat="45.62814" lon="6.62404">
        <ele>2307.78</ele>
        <time>2015-03-16T13:07:21Z</time>
      </trkpt>
      <trkpt lat="45.6283" lon="6.62404">
        <ele>2311.63</ele>
        <time>2015-03-16T13:07:51Z</time>
      </trkpt>
      <trkpt lat="45.6283" lon="6.62405">
        <ele>2312.59</ele>
        <time>2015-03-16T13:08:21Z</time>
      </trkpt>
      <trkpt lat="45.62829" lon="6.62407">
        <ele>2313.55</ele>
        <time>2015-03-16T13:08:51Z</time>
      </trkpt>
      <trkpt lat="45.62832" lon="6.62404">
        <ele>2312.11</ele>
        <time>2015-03-16T13:09:21Z</time>
      </trkpt>
      <trkpt lat="45.62832" lon="6.62406">
        <ele>2311.15</ele>
        <time>2015-03-16T13:09:51Z</time>
      </trkpt>
      <trkpt lat="45.62828" lon="6.62406">
        <ele>2311.15</ele>
        <time>2015-03-16T13:10:21Z</time>
      </trkpt>
      <trkpt lat="45.6283" lon="6.62402">
        <ele>2311.15</ele>
        <time>2015-03-16T13:10:51Z</time>
      </trkpt>
      <trkpt lat="45.62831" lon="6.62407">
        <ele>2311.15</ele>
        <time>2015-03-16T13:11:21Z</time>
      </trkpt>
      <trkpt lat="45.62831" lon="6.62405">
        <ele>2311.15</ele>
        <time>2015-03-16T13:11:51Z</time>
      </trkpt>
      <trkpt lat="45.62826" lon="6.62406">
        <ele>2311.15</ele>
        <time>2015-03-16T13:12:21Z</time>
      </trkpt>
      <trkpt lat="45.62831" lon="6.62425">
        <ele>2314.99</ele>
        <time>2015-03-16T13:12:51Z</time>
      </trkpt>
      <trkpt lat="45.62844" lon="6.62427">
        <ele>2318.84</ele>
        <time>2015-03-16T13:13:21Z</time>
      </trkpt>
      <trkpt lat="45.62855" lon="6.62427">
        <ele>2321.24</ele>
        <time>2015-03-16T13:13:51Z</time>
      </trkpt>
      <trkpt lat="45.62867" lon="6.62428">
        <ele>2324.61</ele>
        <time>2015-03-16T13:14:21Z</time>
      </trkpt>
      <trkpt lat="45.62878" lon="6.62428">
        <ele>2327.01</ele>
        <time>2015-03-16T13:14:51Z</time>
      </trkpt>
      <trkpt lat="45.62881" lon="6.62433">
        <ele>2328.93</ele>
        <time>2015-03-16T13:15:21Z</time>
      </trkpt>
      <trkpt lat="45.62878" lon="6.62446">
        <ele>2331.33</ele>
        <time>2015-03-16T13:15:51Z</time>
      </trkpt>
      <trkpt lat="45.6288" lon="6.62463">
        <ele>2335.18</ele>
        <time>2015-03-16T13:16:21Z</time>
      </trkpt>
      <trkpt lat="45.6289" lon="6.62464">
        <ele>2338.54</ele>
        <time>2015-03-16T13:16:51Z</time>
      </trkpt>
      <trkpt lat="45.62895" lon="6.62468">
        <ele>2341.43</ele>
        <time>2015-03-16T13:17:21Z</time>
      </trkpt>
      <trkpt lat="45.62892" lon="6.62484">
        <ele>2344.79</ele>
        <time>2015-03-16T13:17:51Z</time>
      </trkpt>
      <trkpt lat="45.62894" lon="6.62498">
        <ele>2348.16</ele>
        <time>2015-03-16T13:18:21Z</time>
      </trkpt>
      <trkpt lat="45.62908" lon="6.62498">
        <ele>2351.52</ele>
        <time>2015-03-16T13:18:51Z</time>
      </trkpt>
      <trkpt lat="45.62918" lon="6.62501">
        <ele>2355.37</ele>
        <time>2015-03-16T13:19:21Z</time>
      </trkpt>
      <trkpt lat="45.62914" lon="6.62518">
        <ele>2358.73</ele>
        <time>2015-03-16T13:19:51Z</time>
      </trkpt>
      <trkpt lat="45.62917" lon="6.62529">
        <ele>2362.1</ele>
        <time>2015-03-16T13:20:21Z</time>
      </trkpt>
      <trkpt lat="45.62927" lon="6.62528">
        <ele>2365.46</ele>
        <time>2015-03-16T13:20:51Z</time>
      </trkpt>
      <trkpt lat="45.6294" lon="6.62523">
        <ele>2368.83</ele>
        <time>2015-03-16T13:21:21Z</time>
      </trkpt>
      <trkpt lat="45.62955" lon="6.62519">
        <ele>2373.15</ele>
        <time>2015-03-16T13:21:51Z</time>
      </trkpt>
      <trkpt lat="45.62961" lon="6.62512">
        <ele>2377</ele>
        <time>2015-03-16T13:22:21Z</time>
      </trkpt>
      <trkpt lat="45.6297" lon="6.6251">
        <ele>2381.8</ele>
        <time>2015-03-16T13:22:51Z</time>
      </trkpt>
      <trkpt lat="45.6297" lon="6.62523">
        <ele>2386.61</ele>
        <time>2015-03-16T13:23:21Z</time>
      </trkpt>
      <trkpt lat="45.6298" lon="6.62516">
        <ele>2391.42</ele>
        <time>2015-03-16T13:23:51Z</time>
      </trkpt>
      <trkpt lat="45.62987" lon="6.62515">
        <ele>2395.74</ele>
        <time>2015-03-16T13:24:21Z</time>
      </trkpt>
      <trkpt lat="45.62985" lon="6.62521">
        <ele>2397.67</ele>
        <time>2015-03-16T13:24:51Z</time>
      </trkpt>
      <trkpt lat="45.62991" lon="6.62517">
        <ele>2400.55</ele>
        <time>2015-03-16T13:25:21Z</time>
      </trkpt>
      <trkpt lat="45.62994" lon="6.62515">
        <ele>2401.51</ele>
        <time>2015-03-16T13:25:51Z</time>
      </trkpt>
      <trkpt lat="45.62996" lon="6.62522">
        <ele>2404.39</ele>
        <time>2015-03-16T13:26:21Z</time>
      </trkpt>
      <trkpt lat="45.62997" lon="6.62527">
        <ele>2406.8</ele>
        <time>2015-03-16T13:26:51Z</time>
      </trkpt>
      <trkpt lat="45.63001" lon="6.62525">
        <ele>2404.39</ele>
        <time>2015-03-16T13:27:21Z</time>
      </trkpt>
      <trkpt lat="45.63" lon="6.62525">
        <ele>2405.36</ele>
        <time>2015-03-16T13:27:51Z</time>
      </trkpt>
      <trkpt lat="45.63" lon="6.62525">
        <ele>2405.36</ele>
        <time>2015-03-16T13:28:21Z</time>
      </trkpt>
      <trkpt lat="45.62999" lon="6.62524">
        <ele>2403.91</ele>
        <time>2015-03-16T13:28:51Z</time>
      </trkpt>
      <trkpt lat="45.63001" lon="6.62525">
        <ele>2403.43</ele>
        <time>2015-03-16T13:29:21Z</time>
      </trkpt>
      <trkpt lat="45.63003" lon="6.62524">
        <ele>2402.95</ele>
        <time>2015-03-16T13:29:51Z</time>
      </trkpt>
      <trkpt lat="45.63" lon="6.62527">
        <ele>2401.51</ele>
        <time>2015-03-16T13:30:21Z</time>
      </trkpt>
      <trkpt lat="45.63003" lon="6.62533">
        <ele>2401.51</ele>
        <time>2015-03-16T13:30:51Z</time>
      </trkpt>
      <trkpt lat="45.63004" lon="6.62533">
        <ele>2401.03</ele>
        <time>2015-03-16T13:31:21Z</time>
      </trkpt>
      <trkpt lat="45.63002" lon="6.6253">
        <ele>2401.51</ele>
        <time>2015-03-16T13:31:51Z</time>
      </trkpt>
      <trkpt lat="45.63003" lon="6.62529">
        <ele>2401.51</ele>
        <time>2015-03-16T13:32:21Z</time>
      </trkpt>
      <trkpt lat="45.63006" lon="6.62531">
        <ele>2401.51</ele>
        <time>2015-03-16T13:32:51Z</time>
      </trkpt>
      <trkpt lat="45.63008" lon="6.62532">
        <ele>2402.95</ele>
        <time>2015-03-16T13:33:21Z</time>
      </trkpt>
      <trkpt lat="45.63" lon="6.62531">
        <ele>2403.43</ele>
        <time>2015-03-16T13:33:51Z</time>
      </trkpt>
      <trkpt lat="45.62999" lon="6.62534">
        <ele>2403.43</ele>
        <time>2015-03-16T13:34:21Z</time>
      </trkpt>
      <trkpt lat="45.63004" lon="6.62535">
        <ele>2403.91</ele>
        <time>2015-03-16T13:34:51Z</time>
      </trkpt>
      <trkpt lat="45.63011" lon="6.62532">
        <ele>2403.91</ele>
        <time>2015-03-16T13:35:21Z</time>
      </trkpt>
      <trkpt lat="45.63003" lon="6.62527">
        <ele>2404.39</ele>
        <time>2015-03-16T13:35:51Z</time>
      </trkpt>
      <trkpt lat="45.63001" lon="6.62525">
        <ele>2404.39</ele>
        <time>2015-03-16T13:36:21Z</time>
      </trkpt>
      <trkpt lat="45.63" lon="6.6253">
        <ele>2404.88</ele>
        <time>2015-03-16T13:36:51Z</time>
      </trkpt>
      <trkpt lat="45.62998" lon="6.62526">
        <ele>2403.91</ele>
        <time>2015-03-16T13:37:21Z</time>
      </trkpt>
      <trkpt lat="45.63001" lon="6.62525">
        <ele>2407.28</ele>
        <time>2015-03-16T13:37:51Z</time>
      </trkpt>
      <trkpt lat="45.62998" lon="6.62524">
        <ele>2403.91</ele>
        <time>2015-03-16T13:38:21Z</time>
      </trkpt>
      <trkpt lat="45.62999" lon="6.62526">
        <ele>2403.91</ele>
        <time>2015-03-16T13:38:51Z</time>
      </trkpt>
      <trkpt lat="45.63" lon="6.62527">
        <ele>2403.91</ele>
        <time>2015-03-16T13:39:21Z</time>
      </trkpt>
      <trkpt lat="45.63" lon="6.62526">
        <ele>2403.91</ele>
        <time>2015-03-16T13:39:51Z</time>
      </trkpt>
      <trkpt lat="45.62999" lon="6.62525">
        <ele>2403.43</ele>
        <time>2015-03-16T13:40:21Z</time>
      </trkpt>
      <trkpt lat="45.63" lon="6.62525">
        <ele>2403.43</ele>
        <time>2015-03-16T13:40:51Z</time>
      </trkpt>
      <trkpt lat="45.63" lon="6.62525">
        <ele>2403.43</ele>
        <time>2015-03-16T13:41:21Z</time>
      </trkpt>
      <trkpt lat="45.63" lon="6.62527">
        <ele>2402.95</ele>
        <time>2015-03-16T13:41:51Z</time>
      </trkpt>
      <trkpt lat="45.6301" lon="6.62635">
        <ele>2383.73</ele>
        <time>2015-03-16T13:42:21Z</time>
      </trkpt>
      <trkpt lat="45.63012" lon="6.62656">
        <ele>2378.92</ele>
        <time>2015-03-16T13:42:51Z</time>
      </trkpt>
      <trkpt lat="45.63106" lon="6.62679">
        <ele>2326.05</ele>
        <time>2015-03-16T13:43:21Z</time>
      </trkpt>
      <trkpt lat="45.63193" lon="6.62738">
        <ele>2289.52</ele>
        <time>2015-03-16T13:43:51Z</time>
      </trkpt>
      <trkpt lat="45.63191" lon="6.62742">
        <ele>2290</ele>
        <time>2015-03-16T13:44:21Z</time>
      </trkpt>
      <trkpt lat="45.63208" lon="6.62759">
        <ele>2288.56</ele>
        <time>2015-03-16T13:44:51Z</time>
      </trkpt>
      <trkpt lat="45.63307" lon="6.62935">
        <ele>2267.89</ele>
        <time>2015-03-16T13:45:21Z</time>
      </trkpt>
      <trkpt lat="45.6343" lon="6.6312">
        <ele>2241.45</ele>
        <time>2015-03-16T13:45:51Z</time>
      </trkpt>
      <trkpt lat="45.63543" lon="6.63338">
        <ele>2225.11</ele>
        <time>2015-03-16T13:46:21Z</time>
      </trkpt>
      <trkpt lat="45.63565" lon="6.63381">
        <ele>2221.74</ele>
        <time>2015-03-16T13:46:51Z</time>
      </trkpt>
      <trkpt lat="45.63564" lon="6.6338">
        <ele>2221.74</ele>
        <time>2015-03-16T13:47:21Z</time>
      </trkpt>
      <trkpt lat="45.63565" lon="6.6338">
        <ele>2221.26</ele>
        <time>2015-03-16T13:47:51Z</time>
      </trkpt>
      <trkpt lat="45.63679" lon="6.63453">
        <ele>2186.18</ele>
        <time>2015-03-16T13:48:21Z</time>
      </trkpt>
      <trkpt lat="45.63812" lon="6.63629">
        <ele>2146.76</ele>
        <time>2015-03-16T13:48:51Z</time>
      </trkpt>
      <trkpt lat="45.63898" lon="6.63691">
        <ele>2137.15</ele>
        <time>2015-03-16T13:49:21Z</time>
      </trkpt>
      <trkpt lat="45.63904" lon="6.6369">
        <ele>2134.74</ele>
        <time>2015-03-16T13:49:51Z</time>
      </trkpt>
      <trkpt lat="45.63904" lon="6.63684">
        <ele>2134.74</ele>
        <time>2015-03-16T13:50:21Z</time>
      </trkpt>
      <trkpt lat="45.63968" lon="6.63711">
        <ele>2130.9</ele>
        <time>2015-03-16T13:50:51Z</time>
      </trkpt>
      <trkpt lat="45.64081" lon="6.63761">
        <ele>2120.81</ele>
        <time>2015-03-16T13:51:21Z</time>
      </trkpt>
      <trkpt lat="45.6418" lon="6.63841">
        <ele>2111.67</ele>
        <time>2015-03-16T13:51:51Z</time>
      </trkpt>
      <trkpt lat="45.64215" lon="6.63871">
        <ele>2108.79</ele>
        <time>2015-03-16T13:52:21Z</time>
      </trkpt>
      <trkpt lat="45.64261" lon="6.63923">
        <ele>2106.87</ele>
        <time>2015-03-16T13:52:51Z</time>
      </trkpt>
      <trkpt lat="45.64287" lon="6.63998">
        <ele>2104.46</ele>
        <time>2015-03-16T13:53:21Z</time>
      </trkpt>
      <trkpt lat="45.64298" lon="6.6401">
        <ele>2103.5</ele>
        <time>2015-03-16T13:53:51Z</time>
      </trkpt>
      <trkpt lat="45.64299" lon="6.6401">
        <ele>2103.02</ele>
        <time>2015-03-16T13:54:21Z</time>
      </trkpt>
      <trkpt lat="45.64298" lon="6.6401">
        <ele>2100.62</ele>
        <time>2015-03-16T13:54:51Z</time>
      </trkpt>
      <trkpt lat="45.64296" lon="6.6401">
        <ele>2100.62</ele>
        <time>2015-03-16T13:55:21Z</time>
      </trkpt>
      <trkpt lat="45.64298" lon="6.64014">
        <ele>2100.62</ele>
        <time>2015-03-16T13:55:51Z</time>
      </trkpt>
      <trkpt lat="45.64298" lon="6.64012">
        <ele>2101.1</ele>
        <time>2015-03-16T13:56:21Z</time>
      </trkpt>
      <trkpt lat="45.64296" lon="6.64014">
        <ele>2101.58</ele>
        <time>2015-03-16T13:56:51Z</time>
      </trkpt>
      <trkpt lat="45.64295" lon="6.64011">
        <ele>2101.58</ele>
        <time>2015-03-16T13:57:21Z</time>
      </trkpt>
      <trkpt lat="45.64296" lon="6.64007">
        <ele>2102.06</ele>
        <time>2015-03-16T13:57:51Z</time>
      </trkpt>
      <trkpt lat="45.64295" lon="6.64008">
        <ele>2102.06</ele>
        <time>2015-03-16T13:58:21Z</time>
      </trkpt>
      <trkpt lat="45.64294" lon="6.6401">
        <ele>2102.54</ele>
        <time>2015-03-16T13:58:51Z</time>
      </trkpt>
      <trkpt lat="45.64292" lon="6.64016">
        <ele>2102.54</ele>
        <time>2015-03-16T13:59:21Z</time>
      </trkpt>
      <trkpt lat="45.64296" lon="6.64015">
        <ele>2102.54</ele>
        <time>2015-03-16T13:59:51Z</time>
      </trkpt>
      <trkpt lat="45.64296" lon="6.64019">
        <ele>2102.06</ele>
        <time>2015-03-16T14:00:21Z</time>
      </trkpt>
      <trkpt lat="45.64292" lon="6.64018">
        <ele>2102.06</ele>
        <time>2015-03-16T14:00:51Z</time>
      </trkpt>
      <trkpt lat="45.64299" lon="6.6401">
        <ele>2101.58</ele>
        <time>2015-03-16T14:01:21Z</time>
      </trkpt>
      <trkpt lat="45.64298" lon="6.6401">
        <ele>2101.58</ele>
        <time>2015-03-16T14:01:51Z</time>
      </trkpt>
      <trkpt lat="45.64293" lon="6.64019">
        <ele>2102.06</ele>
        <time>2015-03-16T14:02:21Z</time>
      </trkpt>
      <trkpt lat="45.64296" lon="6.64017">
        <ele>2102.06</ele>
        <time>2015-03-16T14:02:51Z</time>
      </trkpt>
      <trkpt lat="45.64298" lon="6.64018">
        <ele>2102.06</ele>
        <time>2015-03-16T14:03:21Z</time>
      </trkpt>
      <trkpt lat="45.643" lon="6.64017">
        <ele>2102.06</ele>
        <time>2015-03-16T14:03:51Z</time>
      </trkpt>
      <trkpt lat="45.64299" lon="6.64018">
        <ele>2101.58</ele>
        <time>2015-03-16T14:04:21Z</time>
      </trkpt>
      <trkpt lat="45.64298" lon="6.64015">
        <ele>2101.58</ele>
        <time>2015-03-16T14:04:51Z</time>
      </trkpt>
      <trkpt lat="45.64297" lon="6.64009">
        <ele>2101.58</ele>
        <time>2015-03-16T14:05:21Z</time>
      </trkpt>
      <trkpt lat="45.64295" lon="6.64012">
        <ele>2101.1</ele>
        <time>2015-03-16T14:05:51Z</time>
      </trkpt>
      <trkpt lat="45.64293" lon="6.64012">
        <ele>2101.1</ele>
        <time>2015-03-16T14:06:21Z</time>
      </trkpt>
      <trkpt lat="45.64294" lon="6.64014">
        <ele>2101.1</ele>
        <time>2015-03-16T14:06:51Z</time>
      </trkpt>
      <trkpt lat="45.64295" lon="6.64009">
        <ele>2102.06</ele>
        <time>2015-03-16T14:07:21Z</time>
      </trkpt>
      <trkpt lat="45.64295" lon="6.64013">
        <ele>2102.06</ele>
        <time>2015-03-16T14:07:51Z</time>
      </trkpt>
      <trkpt lat="45.64293" lon="6.6401">
        <ele>2101.1</ele>
        <time>2015-03-16T14:08:21Z</time>
      </trkpt>
      <trkpt lat="45.64295" lon="6.64013">
        <ele>2101.1</ele>
        <time>2015-03-16T14:08:51Z</time>
      </trkpt>
      <trkpt lat="45.64292" lon="6.64012">
        <ele>2101.1</ele>
        <time>2015-03-16T14:09:21Z</time>
      </trkpt>
      <trkpt lat="45.64296" lon="6.64011">
        <ele>2101.1</ele>
        <time>2015-03-16T14:09:51Z</time>
      </trkpt>
      <trkpt lat="45.64292" lon="6.64015">
        <ele>2101.1</ele>
        <time>2015-03-16T14:10:21Z</time>
      </trkpt>
      <trkpt lat="45.64295" lon="6.64006">
        <ele>2100.62</ele>
        <time>2015-03-16T14:10:51Z</time>
      </trkpt>
      <trkpt lat="45.64292" lon="6.64011">
        <ele>2100.62</ele>
        <time>2015-03-16T14:11:21Z</time>
      </trkpt>
      <trkpt lat="45.64297" lon="6.64007">
        <ele>2102.06</ele>
        <time>2015-03-16T14:11:51Z</time>
      </trkpt>
      <trkpt lat="45.643" lon="6.6401">
        <ele>2102.54</ele>
        <time>2015-03-16T14:12:21Z</time>
      </trkpt>
      <trkpt lat="45.64302" lon="6.6403">
        <ele>2103.02</ele>
        <time>2015-03-16T14:12:51Z</time>
      </trkpt>
      <trkpt lat="45.64311" lon="6.6405">
        <ele>2105.91</ele>
        <time>2015-03-16T14:13:21Z</time>
      </trkpt>
      <trkpt lat="45.64324" lon="6.64069">
        <ele>2109.75</ele>
        <time>2015-03-16T14:13:51Z</time>
      </trkpt>
      <trkpt lat="45.64337" lon="6.6409">
        <ele>2112.63</ele>
        <time>2015-03-16T14:14:21Z</time>
      </trkpt>
      <trkpt lat="45.64345" lon="6.64108">
        <ele>2113.12</ele>
        <time>2015-03-16T14:14:51Z</time>
      </trkpt>
      <trkpt lat="45.64358" lon="6.64126">
        <ele>2115.52</ele>
        <time>2015-03-16T14:15:21Z</time>
      </trkpt>
      <trkpt lat="45.64369" lon="6.64146">
        <ele>2117.92</ele>
        <time>2015-03-16T14:15:51Z</time>
      </trkpt>
      <trkpt lat="45.6438" lon="6.64162">
        <ele>2120.32</ele>
        <time>2015-03-16T14:16:21Z</time>
      </trkpt>
      <trkpt lat="45.64389" lon="6.6418">
        <ele>2123.69</ele>
        <time>2015-03-16T14:16:51Z</time>
      </trkpt>
      <trkpt lat="45.644" lon="6.64196">
        <ele>2126.57</ele>
        <time>2015-03-16T14:17:21Z</time>
      </trkpt>
      <trkpt lat="45.64407" lon="6.64213">
        <ele>2129.94</ele>
        <time>2015-03-16T14:17:51Z</time>
      </trkpt>
      <trkpt lat="45.64417" lon="6.64236">
        <ele>2132.34</ele>
        <time>2015-03-16T14:18:21Z</time>
      </trkpt>
      <trkpt lat="45.64429" lon="6.64258">
        <ele>2135.23</ele>
        <time>2015-03-16T14:18:51Z</time>
      </trkpt>
      <trkpt lat="45.64442" lon="6.64279">
        <ele>2137.15</ele>
        <time>2015-03-16T14:19:21Z</time>
      </trkpt>
      <trkpt lat="45.64455" lon="6.643">
        <ele>2140.03</ele>
        <time>2015-03-16T14:19:51Z</time>
      </trkpt>
      <trkpt lat="45.64467" lon="6.64309">
        <ele>2143.4</ele>
        <time>2015-03-16T14:20:21Z</time>
      </trkpt>
      <trkpt lat="45.64472" lon="6.64336">
        <ele>2140.51</ele>
        <time>2015-03-16T14:20:51Z</time>
      </trkpt>
      <trkpt lat="45.64476" lon="6.64362">
        <ele>2142.44</ele>
        <time>2015-03-16T14:21:21Z</time>
      </trkpt>
      <trkpt lat="45.64483" lon="6.64383">
        <ele>2145.8</ele>
        <time>2015-03-16T14:21:51Z</time>
      </trkpt>
      <trkpt lat="45.64487" lon="6.64405">
        <ele>2148.68</ele>
        <time>2015-03-16T14:22:21Z</time>
      </trkpt>
      <trkpt lat="45.64491" lon="6.64427">
        <ele>2151.09</ele>
        <time>2015-03-16T14:22:51Z</time>
      </trkpt>
      <trkpt lat="45.64502" lon="6.6445">
        <ele>2153.97</ele>
        <time>2015-03-16T14:23:21Z</time>
      </trkpt>
      <trkpt lat="45.64509" lon="6.6447">
        <ele>2156.37</ele>
        <time>2015-03-16T14:23:51Z</time>
      </trkpt>
      <trkpt lat="45.64515" lon="6.64494">
        <ele>2159.26</ele>
        <time>2015-03-16T14:24:21Z</time>
      </trkpt>
      <trkpt lat="45.64515" lon="6.64517">
        <ele>2162.14</ele>
        <time>2015-03-16T14:24:51Z</time>
      </trkpt>
      <trkpt lat="45.64521" lon="6.64543">
        <ele>2164.06</ele>
        <time>2015-03-16T14:25:21Z</time>
      </trkpt>
      <trkpt lat="45.64523" lon="6.64566">
        <ele>2166.47</ele>
        <time>2015-03-16T14:25:51Z</time>
      </trkpt>
      <trkpt lat="45.64525" lon="6.6459">
        <ele>2168.39</ele>
        <time>2015-03-16T14:26:21Z</time>
      </trkpt>
      <trkpt lat="45.64532" lon="6.64613">
        <ele>2173.68</ele>
        <time>2015-03-16T14:26:51Z</time>
      </trkpt>
      <trkpt lat="45.64543" lon="6.64634">
        <ele>2173.68</ele>
        <time>2015-03-16T14:27:21Z</time>
      </trkpt>
      <trkpt lat="45.64553" lon="6.64653">
        <ele>2177.04</ele>
        <time>2015-03-16T14:27:51Z</time>
      </trkpt>
      <trkpt lat="45.64562" lon="6.64673">
        <ele>2178.97</ele>
        <time>2015-03-16T14:28:21Z</time>
      </trkpt>
      <trkpt lat="45.64568" lon="6.64697">
        <ele>2180.41</ele>
        <time>2015-03-16T14:28:51Z</time>
      </trkpt>
      <trkpt lat="45.64575" lon="6.64715">
        <ele>2182.33</ele>
        <time>2015-03-16T14:29:20Z</time>
      </trkpt>
      <trkpt lat="45.64583" lon="6.64724">
        <ele>2183.77</ele>
        <time>2015-03-16T14:29:50Z</time>
      </trkpt>
      <trkpt lat="45.64598" lon="6.64741">
        <ele>2186.18</ele>
        <time>2015-03-16T14:30:19Z</time>
      </trkpt>
      <trkpt lat="45.64611" lon="6.64757">
        <ele>2188.58</ele>
        <time>2015-03-16T14:30:50Z</time>
      </trkpt>
      <trkpt lat="45.64633" lon="6.64768">
        <ele>2192.9</ele>
        <time>2015-03-16T14:31:20Z</time>
      </trkpt>
      <trkpt lat="45.64643" lon="6.64784">
        <ele>2197.23</ele>
        <time>2015-03-16T14:31:50Z</time>
      </trkpt>
      <trkpt lat="45.64654" lon="6.648">
        <ele>2198.67</ele>
        <time>2015-03-16T14:32:20Z</time>
      </trkpt>
      <trkpt lat="45.64665" lon="6.64819">
        <ele>2201.08</ele>
        <time>2015-03-16T14:32:50Z</time>
      </trkpt>
      <trkpt lat="45.64677" lon="6.64841">
        <ele>2203.96</ele>
        <time>2015-03-16T14:33:20Z</time>
      </trkpt>
      <trkpt lat="45.64689" lon="6.64856">
        <ele>2208.29</ele>
        <time>2015-03-16T14:33:49Z</time>
      </trkpt>
      <trkpt lat="45.64704" lon="6.64872">
        <ele>2211.65</ele>
        <time>2015-03-16T14:34:19Z</time>
      </trkpt>
      <trkpt lat="45.64718" lon="6.64884">
        <ele>2215.98</ele>
        <time>2015-03-16T14:34:49Z</time>
      </trkpt>
      <trkpt lat="45.64728" lon="6.64895">
        <ele>2220.3</ele>
        <time>2015-03-16T14:35:19Z</time>
      </trkpt>
      <trkpt lat="45.64738" lon="6.6491">
        <ele>2225.11</ele>
        <time>2015-03-16T14:35:49Z</time>
      </trkpt>
      <trkpt lat="45.64739" lon="6.64921">
        <ele>2228.95</ele>
        <time>2015-03-16T14:36:19Z</time>
      </trkpt>
      <trkpt lat="45.64727" lon="6.64926">
        <ele>2232.8</ele>
        <time>2015-03-16T14:36:49Z</time>
      </trkpt>
      <trkpt lat="45.64713" lon="6.64928">
        <ele>2238.09</ele>
        <time>2015-03-16T14:37:19Z</time>
      </trkpt>
      <trkpt lat="45.64711" lon="6.6493">
        <ele>2240.01</ele>
        <time>2015-03-16T14:37:49Z</time>
      </trkpt>
      <trkpt lat="45.64715" lon="6.64943">
        <ele>2242.41</ele>
        <time>2015-03-16T14:38:19Z</time>
      </trkpt>
      <trkpt lat="45.64724" lon="6.64957">
        <ele>2247.22</ele>
        <time>2015-03-16T14:38:49Z</time>
      </trkpt>
      <trkpt lat="45.64734" lon="6.64971">
        <ele>2251.54</ele>
        <time>2015-03-16T14:39:19Z</time>
      </trkpt>
      <trkpt lat="45.64742" lon="6.64986">
        <ele>2256.35</ele>
        <time>2015-03-16T14:39:49Z</time>
      </trkpt>
      <trkpt lat="45.64746" lon="6.64986">
        <ele>2257.31</ele>
        <time>2015-03-16T14:40:19Z</time>
      </trkpt>
      <trkpt lat="45.64748" lon="6.64989">
        <ele>2255.87</ele>
        <time>2015-03-16T14:40:49Z</time>
      </trkpt>
      <trkpt lat="45.6475" lon="6.64986">
        <ele>2255.87</ele>
        <time>2015-03-16T14:41:19Z</time>
      </trkpt>
      <trkpt lat="45.64748" lon="6.64984">
        <ele>2256.35</ele>
        <time>2015-03-16T14:41:49Z</time>
      </trkpt>
      <trkpt lat="45.6475" lon="6.64985">
        <ele>2257.31</ele>
        <time>2015-03-16T14:42:19Z</time>
      </trkpt>
      <trkpt lat="45.64748" lon="6.64987">
        <ele>2257.31</ele>
        <time>2015-03-16T14:42:49Z</time>
      </trkpt>
      <trkpt lat="45.64748" lon="6.64988">
        <ele>2257.31</ele>
        <time>2015-03-16T14:43:19Z</time>
      </trkpt>
      <trkpt lat="45.64747" lon="6.64988">
        <ele>2257.31</ele>
        <time>2015-03-16T14:43:49Z</time>
      </trkpt>
      <trkpt lat="45.64747" lon="6.64988">
        <ele>2257.31</ele>
        <time>2015-03-16T14:44:19Z</time>
      </trkpt>
      <trkpt lat="45.64741" lon="6.64989">
        <ele>2259.24</ele>
        <time>2015-03-16T14:44:49Z</time>
      </trkpt>
      <trkpt lat="45.64725" lon="6.64993">
        <ele>2263.08</ele>
        <time>2015-03-16T14:45:19Z</time>
      </trkpt>
      <trkpt lat="45.64711" lon="6.65008">
        <ele>2265.96</ele>
        <time>2015-03-16T14:45:49Z</time>
      </trkpt>
      <trkpt lat="45.64702" lon="6.65028">
        <ele>2269.33</ele>
        <time>2015-03-16T14:46:19Z</time>
      </trkpt>
      <trkpt lat="45.64702" lon="6.65042">
        <ele>2271.25</ele>
        <time>2015-03-16T14:46:49Z</time>
      </trkpt>
      <trkpt lat="45.647" lon="6.65045">
        <ele>2271.25</ele>
        <time>2015-03-16T14:47:19Z</time>
      </trkpt>
      <trkpt lat="45.64699" lon="6.65042">
        <ele>2271.25</ele>
        <time>2015-03-16T14:47:49Z</time>
      </trkpt>
      <trkpt lat="45.64699" lon="6.65042">
        <ele>2271.25</ele>
        <time>2015-03-16T14:48:19Z</time>
      </trkpt>
      <trkpt lat="45.64698" lon="6.65043">
        <ele>2271.25</ele>
        <time>2015-03-16T14:48:49Z</time>
      </trkpt>
      <trkpt lat="45.64697" lon="6.65043">
        <ele>2271.73</ele>
        <time>2015-03-16T14:49:19Z</time>
      </trkpt>
      <trkpt lat="45.647" lon="6.65045">
        <ele>2271.73</ele>
        <time>2015-03-16T14:49:49Z</time>
      </trkpt>
      <trkpt lat="45.64699" lon="6.65045">
        <ele>2270.77</ele>
        <time>2015-03-16T14:50:19Z</time>
      </trkpt>
      <trkpt lat="45.647" lon="6.65044">
        <ele>2270.77</ele>
        <time>2015-03-16T14:50:49Z</time>
      </trkpt>
      <trkpt lat="45.64701" lon="6.65044">
        <ele>2270.77</ele>
        <time>2015-03-16T14:51:19Z</time>
      </trkpt>
      <trkpt lat="45.64701" lon="6.65052">
        <ele>2273.66</ele>
        <time>2015-03-16T14:51:49Z</time>
      </trkpt>
      <trkpt lat="45.64699" lon="6.65074">
        <ele>2277.02</ele>
        <time>2015-03-16T14:52:19Z</time>
      </trkpt>
      <trkpt lat="45.64695" lon="6.6509">
        <ele>2280.87</ele>
        <time>2015-03-16T14:52:49Z</time>
      </trkpt>
      <trkpt lat="45.64689" lon="6.65101">
        <ele>2284.71</ele>
        <time>2015-03-16T14:53:19Z</time>
      </trkpt>
      <trkpt lat="45.64693" lon="6.65121">
        <ele>2289.04</ele>
        <time>2015-03-16T14:53:49Z</time>
      </trkpt>
      <trkpt lat="45.64691" lon="6.65136">
        <ele>2293.36</ele>
        <time>2015-03-16T14:54:19Z</time>
      </trkpt>
      <trkpt lat="45.64676" lon="6.65145">
        <ele>2296.25</ele>
        <time>2015-03-16T14:54:49Z</time>
      </trkpt>
      <trkpt lat="45.64662" lon="6.65146">
        <ele>2299.13</ele>
        <time>2015-03-16T14:55:19Z</time>
      </trkpt>
      <trkpt lat="45.64651" lon="6.6515">
        <ele>2303.94</ele>
        <time>2015-03-16T14:55:49Z</time>
      </trkpt>
      <trkpt lat="45.64642" lon="6.65155">
        <ele>2308.74</ele>
        <time>2015-03-16T14:56:19Z</time>
      </trkpt>
      <trkpt lat="45.6464" lon="6.65173">
        <ele>2312.11</ele>
        <time>2015-03-16T14:56:49Z</time>
      </trkpt>
      <trkpt lat="45.64646" lon="6.65187">
        <ele>2316.43</ele>
        <time>2015-03-16T14:57:19Z</time>
      </trkpt>
      <trkpt lat="45.6465" lon="6.65189">
        <ele>2316.43</ele>
        <time>2015-03-16T14:57:49Z</time>
      </trkpt>
      <trkpt lat="45.64645" lon="6.65189">
        <ele>2317.4</ele>
        <time>2015-03-16T14:58:19Z</time>
      </trkpt>
      <trkpt lat="45.64631" lon="6.65191">
        <ele>2321.24</ele>
        <time>2015-03-16T14:58:49Z</time>
      </trkpt>
      <trkpt lat="45.64621" lon="6.65195">
        <ele>2324.12</ele>
        <time>2015-03-16T14:59:19Z</time>
      </trkpt>
      <trkpt lat="45.64619" lon="6.65197">
        <ele>2322.68</ele>
        <time>2015-03-16T14:59:49Z</time>
      </trkpt>
      <trkpt lat="45.64617" lon="6.65215">
        <ele>2328.45</ele>
        <time>2015-03-16T15:00:19Z</time>
      </trkpt>
      <trkpt lat="45.64614" lon="6.65235">
        <ele>2330.37</ele>
        <time>2015-03-16T15:00:49Z</time>
      </trkpt>
      <trkpt lat="45.64608" lon="6.65265">
        <ele>2333.26</ele>
        <time>2015-03-16T15:01:19Z</time>
      </trkpt>
      <trkpt lat="45.64605" lon="6.65288">
        <ele>2336.14</ele>
        <time>2015-03-16T15:01:49Z</time>
      </trkpt>
      <trkpt lat="45.64597" lon="6.65307">
        <ele>2341.43</ele>
        <time>2015-03-16T15:02:19Z</time>
      </trkpt>
      <trkpt lat="45.64586" lon="6.65314">
        <ele>2345.27</ele>
        <time>2015-03-16T15:02:49Z</time>
      </trkpt>
      <trkpt lat="45.64577" lon="6.65324">
        <ele>2350.08</ele>
        <time>2015-03-16T15:03:19Z</time>
      </trkpt>
      <trkpt lat="45.64562" lon="6.65334">
        <ele>2353.93</ele>
        <time>2015-03-16T15:03:49Z</time>
      </trkpt>
      <trkpt lat="45.6455" lon="6.65338">
        <ele>2357.77</ele>
        <time>2015-03-16T15:04:19Z</time>
      </trkpt>
      <trkpt lat="45.64539" lon="6.65351">
        <ele>2362.1</ele>
        <time>2015-03-16T15:04:49Z</time>
      </trkpt>
      <trkpt lat="45.64535" lon="6.65356">
        <ele>2363.06</ele>
        <time>2015-03-16T15:05:19Z</time>
      </trkpt>
      <trkpt lat="45.64529" lon="6.65371">
        <ele>2366.9</ele>
        <time>2015-03-16T15:05:49Z</time>
      </trkpt>
      <trkpt lat="45.64515" lon="6.65375">
        <ele>2371.71</ele>
        <time>2015-03-16T15:06:19Z</time>
      </trkpt>
      <trkpt lat="45.64512" lon="6.65389">
        <ele>2375.55</ele>
        <time>2015-03-16T15:06:49Z</time>
      </trkpt>
      <trkpt lat="45.64501" lon="6.65383">
        <ele>2381.8</ele>
        <time>2015-03-16T15:07:19Z</time>
      </trkpt>
      <trkpt lat="45.64487" lon="6.65385">
        <ele>2384.21</ele>
        <time>2015-03-16T15:07:49Z</time>
      </trkpt>
      <trkpt lat="45.64474" lon="6.65393">
        <ele>2387.57</ele>
        <time>2015-03-16T15:08:19Z</time>
      </trkpt>
      <trkpt lat="45.64463" lon="6.65394">
        <ele>2391.42</ele>
        <time>2015-03-16T15:08:49Z</time>
      </trkpt>
      <trkpt lat="45.64461" lon="6.65416">
        <ele>2393.82</ele>
        <time>2015-03-16T15:09:19Z</time>
      </trkpt>
      <trkpt lat="45.64454" lon="6.65428">
        <ele>2398.15</ele>
        <time>2015-03-16T15:09:49Z</time>
      </trkpt>
      <trkpt lat="45.64454" lon="6.65445">
        <ele>2401.99</ele>
        <time>2015-03-16T15:10:19Z</time>
      </trkpt>
      <trkpt lat="45.64461" lon="6.65459">
        <ele>2405.84</ele>
        <time>2015-03-16T15:10:49Z</time>
      </trkpt>
      <trkpt lat="45.64461" lon="6.65475">
        <ele>2409.2</ele>
        <time>2015-03-16T15:11:19Z</time>
      </trkpt>
      <trkpt lat="45.64469" lon="6.65486">
        <ele>2412.09</ele>
        <time>2015-03-16T15:11:49Z</time>
      </trkpt>
      <trkpt lat="45.64474" lon="6.65499">
        <ele>2415.45</ele>
        <time>2015-03-16T15:12:19Z</time>
      </trkpt>
      <trkpt lat="45.64479" lon="6.65514">
        <ele>2418.81</ele>
        <time>2015-03-16T15:12:49Z</time>
      </trkpt>
      <trkpt lat="45.64491" lon="6.65517">
        <ele>2422.18</ele>
        <time>2015-03-16T15:13:19Z</time>
      </trkpt>
      <trkpt lat="45.64498" lon="6.6552">
        <ele>2425.06</ele>
        <time>2015-03-16T15:13:49Z</time>
      </trkpt>
      <trkpt lat="45.64498" lon="6.65522">
        <ele>2426.02</ele>
        <time>2015-03-16T15:14:19Z</time>
      </trkpt>
      <trkpt lat="45.64494" lon="6.65529">
        <ele>2427.47</ele>
        <time>2015-03-16T15:14:49Z</time>
      </trkpt>
      <trkpt lat="45.64494" lon="6.65544">
        <ele>2430.83</ele>
        <time>2015-03-16T15:15:19Z</time>
      </trkpt>
      <trkpt lat="45.64501" lon="6.65549">
        <ele>2434.68</ele>
        <time>2015-03-16T15:15:49Z</time>
      </trkpt>
      <trkpt lat="45.645" lon="6.65562">
        <ele>2438.52</ele>
        <time>2015-03-16T15:16:19Z</time>
      </trkpt>
      <trkpt lat="45.64492" lon="6.65571">
        <ele>2441.89</ele>
        <time>2015-03-16T15:16:49Z</time>
      </trkpt>
      <trkpt lat="45.64487" lon="6.65582">
        <ele>2445.73</ele>
        <time>2015-03-16T15:17:19Z</time>
      </trkpt>
      <trkpt lat="45.64498" lon="6.65591">
        <ele>2450.06</ele>
        <time>2015-03-16T15:17:49Z</time>
      </trkpt>
      <trkpt lat="45.64508" lon="6.65597">
        <ele>2454.38</ele>
        <time>2015-03-16T15:18:19Z</time>
      </trkpt>
      <trkpt lat="45.6451" lon="6.65598">
        <ele>2455.34</ele>
        <time>2015-03-16T15:18:49Z</time>
      </trkpt>
      <trkpt lat="45.64497" lon="6.65613">
        <ele>2461.11</ele>
        <time>2015-03-16T15:19:19Z</time>
      </trkpt>
      <trkpt lat="45.64492" lon="6.65626">
        <ele>2464.96</ele>
        <time>2015-03-16T15:19:49Z</time>
      </trkpt>
      <trkpt lat="45.64495" lon="6.65641">
        <ele>2470.73</ele>
        <time>2015-03-16T15:20:19Z</time>
      </trkpt>
      <trkpt lat="45.64497" lon="6.6566">
        <ele>2469.28</ele>
        <time>2015-03-16T15:20:49Z</time>
      </trkpt>
      <trkpt lat="45.64496" lon="6.65681">
        <ele>2473.13</ele>
        <time>2015-03-16T15:21:19Z</time>
      </trkpt>
      <trkpt lat="45.64496" lon="6.65681">
        <ele>2473.61</ele>
        <time>2015-03-16T15:21:49Z</time>
      </trkpt>
      <trkpt lat="45.64496" lon="6.65684">
        <ele>2471.21</ele>
        <time>2015-03-16T15:22:19Z</time>
      </trkpt>
      <trkpt lat="45.64499" lon="6.65695">
        <ele>2473.61</ele>
        <time>2015-03-16T15:22:49Z</time>
      </trkpt>
      <trkpt lat="45.64496" lon="6.65694">
        <ele>2471.21</ele>
        <time>2015-03-16T15:23:19Z</time>
      </trkpt>
      <trkpt lat="45.64498" lon="6.65695">
        <ele>2472.65</ele>
        <time>2015-03-16T15:23:49Z</time>
      </trkpt>
      <trkpt lat="45.64498" lon="6.65693">
        <ele>2471.21</ele>
        <time>2015-03-16T15:24:19Z</time>
      </trkpt>
      <trkpt lat="45.64495" lon="6.65688">
        <ele>2470.73</ele>
        <time>2015-03-16T15:24:49Z</time>
      </trkpt>
      <trkpt lat="45.64494" lon="6.65684">
        <ele>2470.73</ele>
        <time>2015-03-16T15:25:19Z</time>
      </trkpt>
      <trkpt lat="45.64494" lon="6.65685">
        <ele>2472.65</ele>
        <time>2015-03-16T15:25:49Z</time>
      </trkpt>
      <trkpt lat="45.64495" lon="6.65684">
        <ele>2469.76</ele>
        <time>2015-03-16T15:26:19Z</time>
      </trkpt>
      <trkpt lat="45.64495" lon="6.65687">
        <ele>2472.17</ele>
        <time>2015-03-16T15:26:49Z</time>
      </trkpt>
      <trkpt lat="45.64495" lon="6.65685">
        <ele>2470.24</ele>
        <time>2015-03-16T15:27:19Z</time>
      </trkpt>
      <trkpt lat="45.64493" lon="6.65683">
        <ele>2471.21</ele>
        <time>2015-03-16T15:27:49Z</time>
      </trkpt>
      <trkpt lat="45.64495" lon="6.65684">
        <ele>2471.21</ele>
        <time>2015-03-16T15:28:19Z</time>
      </trkpt>
      <trkpt lat="45.64495" lon="6.65686">
        <ele>2470.24</ele>
        <time>2015-03-16T15:28:49Z</time>
      </trkpt>
      <trkpt lat="45.64494" lon="6.65684">
        <ele>2472.17</ele>
        <time>2015-03-16T15:29:19Z</time>
      </trkpt>
      <trkpt lat="45.64497" lon="6.65688">
        <ele>2469.76</ele>
        <time>2015-03-16T15:29:49Z</time>
      </trkpt>
      <trkpt lat="45.6451" lon="6.65717">
        <ele>2467.36</ele>
        <time>2015-03-16T15:30:19Z</time>
      </trkpt>
      <trkpt lat="45.64518" lon="6.65737">
        <ele>2462.55</ele>
        <time>2015-03-16T15:30:49Z</time>
      </trkpt>
      <trkpt lat="45.64528" lon="6.65754">
        <ele>2458.23</ele>
        <time>2015-03-16T15:31:19Z</time>
      </trkpt>
      <trkpt lat="45.64539" lon="6.65766">
        <ele>2456.79</ele>
        <time>2015-03-16T15:31:49Z</time>
      </trkpt>
      <trkpt lat="45.64554" lon="6.65786">
        <ele>2453.42</ele>
        <time>2015-03-16T15:32:19Z</time>
      </trkpt>
      <trkpt lat="45.64572" lon="6.65811">
        <ele>2451.5</ele>
        <time>2015-03-16T15:32:49Z</time>
      </trkpt>
      <trkpt lat="45.64583" lon="6.65828">
        <ele>2447.17</ele>
        <time>2015-03-16T15:33:19Z</time>
      </trkpt>
      <trkpt lat="45.64587" lon="6.65828">
        <ele>2449.1</ele>
        <time>2015-03-16T15:33:49Z</time>
      </trkpt>
      <trkpt lat="45.64584" lon="6.6583">
        <ele>2449.1</ele>
        <time>2015-03-16T15:34:19Z</time>
      </trkpt>
      <trkpt lat="45.64593" lon="6.65842">
        <ele>2449.1</ele>
        <time>2015-03-16T15:34:49Z</time>
      </trkpt>
      <trkpt lat="45.64596" lon="6.65849">
        <ele>2449.1</ele>
        <time>2015-03-16T15:35:19Z</time>
      </trkpt>
      <trkpt lat="45.64605" lon="6.65862">
        <ele>2448.13</ele>
        <time>2015-03-16T15:35:49Z</time>
      </trkpt>
      <trkpt lat="45.64624" lon="6.65887">
        <ele>2448.13</ele>
        <time>2015-03-16T15:36:19Z</time>
      </trkpt>
      <trkpt lat="45.64642" lon="6.65913">
        <ele>2450.06</ele>
        <time>2015-03-16T15:36:49Z</time>
      </trkpt>
      <trkpt lat="45.64658" lon="6.65938">
        <ele>2451.5</ele>
        <time>2015-03-16T15:37:19Z</time>
      </trkpt>
      <trkpt lat="45.64669" lon="6.65964">
        <ele>2454.86</ele>
        <time>2015-03-16T15:37:49Z</time>
      </trkpt>
      <trkpt lat="45.64683" lon="6.65985">
        <ele>2457.27</ele>
        <time>2015-03-16T15:38:19Z</time>
      </trkpt>
      <trkpt lat="45.64697" lon="6.66003">
        <ele>2460.15</ele>
        <time>2015-03-16T15:38:49Z</time>
      </trkpt>
      <trkpt lat="45.64711" lon="6.66022">
        <ele>2462.55</ele>
        <time>2015-03-16T15:39:19Z</time>
      </trkpt>
      <trkpt lat="45.64729" lon="6.66037">
        <ele>2465.92</ele>
        <time>2015-03-16T15:39:49Z</time>
      </trkpt>
      <trkpt lat="45.64733" lon="6.66039">
        <ele>2466.88</ele>
        <time>2015-03-16T15:40:19Z</time>
      </trkpt>
      <trkpt lat="45.64748" lon="6.66055">
        <ele>2470.73</ele>
        <time>2015-03-16T15:40:49Z</time>
      </trkpt>
      <trkpt lat="45.64766" lon="6.66067">
        <ele>2474.09</ele>
        <time>2015-03-16T15:41:19Z</time>
      </trkpt>
      <trkpt lat="45.64778" lon="6.66084">
        <ele>2477.94</ele>
        <time>2015-03-16T15:41:49Z</time>
      </trkpt>
      <trkpt lat="45.64793" lon="6.66104">
        <ele>2477.45</ele>
        <time>2015-03-16T15:42:19Z</time>
      </trkpt>
      <trkpt lat="45.64815" lon="6.66119">
        <ele>2477.94</ele>
        <time>2015-03-16T15:42:49Z</time>
      </trkpt>
      <trkpt lat="45.64819" lon="6.66124">
        <ele>2478.9</ele>
        <time>2015-03-16T15:43:19Z</time>
      </trkpt>
      <trkpt lat="45.64834" lon="6.66147">
        <ele>2482.74</ele>
        <time>2015-03-16T15:43:49Z</time>
      </trkpt>
      <trkpt lat="45.64844" lon="6.66168">
        <ele>2485.63</ele>
        <time>2015-03-16T15:44:19Z</time>
      </trkpt>
      <trkpt lat="45.64853" lon="6.6619">
        <ele>2488.99</ele>
        <time>2015-03-16T15:44:49Z</time>
      </trkpt>
      <trkpt lat="45.64858" lon="6.6622">
        <ele>2490.91</ele>
        <time>2015-03-16T15:45:19Z</time>
      </trkpt>
      <trkpt lat="45.64861" lon="6.66248">
        <ele>2492.36</ele>
        <time>2015-03-16T15:45:49Z</time>
      </trkpt>
      <trkpt lat="45.64856" lon="6.66269">
        <ele>2496.68</ele>
        <time>2015-03-16T15:46:19Z</time>
      </trkpt>
      <trkpt lat="45.6485" lon="6.66292">
        <ele>2499.08</ele>
        <time>2015-03-16T15:46:49Z</time>
      </trkpt>
      <trkpt lat="45.64845" lon="6.66308">
        <ele>2500.53</ele>
        <time>2015-03-16T15:47:19Z</time>
      </trkpt>
      <trkpt lat="45.64843" lon="6.66335">
        <ele>2504.37</ele>
        <time>2015-03-16T15:47:49Z</time>
      </trkpt>
      <trkpt lat="45.64844" lon="6.66357">
        <ele>2508.22</ele>
        <time>2015-03-16T15:48:19Z</time>
      </trkpt>
      <trkpt lat="45.64838" lon="6.66372">
        <ele>2511.58</ele>
        <time>2015-03-16T15:48:49Z</time>
      </trkpt>
      <trkpt lat="45.64834" lon="6.66377">
        <ele>2513.02</ele>
        <time>2015-03-16T15:49:19Z</time>
      </trkpt>
      <trkpt lat="45.64832" lon="6.66375">
        <ele>2513.5</ele>
        <time>2015-03-16T15:49:49Z</time>
      </trkpt>
      <trkpt lat="45.64825" lon="6.66379">
        <ele>2513.5</ele>
        <time>2015-03-16T15:50:19Z</time>
      </trkpt>
      <trkpt lat="45.64824" lon="6.66384">
        <ele>2511.58</ele>
        <time>2015-03-16T15:50:49Z</time>
      </trkpt>
      <trkpt lat="45.64823" lon="6.66383">
        <ele>2511.58</ele>
        <time>2015-03-16T15:51:19Z</time>
      </trkpt>
      <trkpt lat="45.64823" lon="6.66384">
        <ele>2511.58</ele>
        <time>2015-03-16T15:51:49Z</time>
      </trkpt>
      <trkpt lat="45.64824" lon="6.66385">
        <ele>2511.58</ele>
        <time>2015-03-16T15:52:19Z</time>
      </trkpt>
      <trkpt lat="45.64823" lon="6.66383">
        <ele>2511.58</ele>
        <time>2015-03-16T15:52:49Z</time>
      </trkpt>
      <trkpt lat="45.64822" lon="6.66383">
        <ele>2511.58</ele>
        <time>2015-03-16T15:53:19Z</time>
      </trkpt>
      <trkpt lat="45.64823" lon="6.66383">
        <ele>2511.58</ele>
        <time>2015-03-16T15:53:49Z</time>
      </trkpt>
      <trkpt lat="45.64822" lon="6.66382">
        <ele>2512.06</ele>
        <time>2015-03-16T15:54:19Z</time>
      </trkpt>
      <trkpt lat="45.64823" lon="6.66382">
        <ele>2512.06</ele>
        <time>2015-03-16T15:54:49Z</time>
      </trkpt>
      <trkpt lat="45.64823" lon="6.66382">
        <ele>2512.06</ele>
        <time>2015-03-16T15:55:19Z</time>
      </trkpt>
      <trkpt lat="45.64823" lon="6.66382">
        <ele>2512.06</ele>
        <time>2015-03-16T15:55:49Z</time>
      </trkpt>
      <trkpt lat="45.64824" lon="6.66383">
        <ele>2512.06</ele>
        <time>2015-03-16T15:56:19Z</time>
      </trkpt>
      <trkpt lat="45.64824" lon="6.66383">
        <ele>2512.06</ele>
        <time>2015-03-16T15:56:49Z</time>
      </trkpt>
      <trkpt lat="45.64822" lon="6.66381">
        <ele>2512.06</ele>
        <time>2015-03-16T15:57:19Z</time>
      </trkpt>
      <trkpt lat="45.64822" lon="6.66381">
        <ele>2512.06</ele>
        <time>2015-03-16T15:57:49Z</time>
      </trkpt>
      <trkpt lat="45.64823" lon="6.66382">
        <ele>2512.06</ele>
        <time>2015-03-16T15:58:19Z</time>
      </trkpt>
      <trkpt lat="45.64823" lon="6.66381">
        <ele>2512.06</ele>
        <time>2015-03-16T15:58:49Z</time>
      </trkpt>
      <trkpt lat="45.64824" lon="6.66381">
        <ele>2512.06</ele>
        <time>2015-03-16T15:59:19Z</time>
      </trkpt>
      <trkpt lat="45.64823" lon="6.6638">
        <ele>2512.54</ele>
        <time>2015-03-16T15:59:49Z</time>
      </trkpt>
      <trkpt lat="45.64823" lon="6.66381">
        <ele>2513.02</ele>
        <time>2015-03-16T16:00:05Z</time>
      </trkpt>
      <trkpt lat="45.64815" lon="6.66393">
        <ele>2464</ele>
        <time>2015-03-17T07:48:11Z</time>
      </trkpt>
      <trkpt lat="45.64831" lon="6.66402">
        <ele>2472.65</ele>
        <time>2015-03-17T07:48:41Z</time>
      </trkpt>
      <trkpt lat="45.64847" lon="6.66413">
        <ele>2501.49</ele>
        <time>2015-03-17T07:49:11Z</time>
      </trkpt>
      <trkpt lat="45.6486" lon="6.66417">
        <ele>2505.81</ele>
        <time>2015-03-17T07:49:41Z</time>
      </trkpt>
      <trkpt lat="45.64891" lon="6.66427">
        <ele>2507.26</ele>
        <time>2015-03-17T07:50:11Z</time>
      </trkpt>
      <trkpt lat="45.64885" lon="6.66452">
        <ele>2507.26</ele>
        <time>2015-03-17T07:50:41Z</time>
      </trkpt>
      <trkpt lat="45.64892" lon="6.6649">
        <ele>2510.14</ele>
        <time>2015-03-17T07:51:11Z</time>
      </trkpt>
      <trkpt lat="45.64903" lon="6.66527">
        <ele>2513.98</ele>
        <time>2015-03-17T07:51:41Z</time>
      </trkpt>
      <trkpt lat="45.64919" lon="6.66554">
        <ele>2516.87</ele>
        <time>2015-03-17T07:52:11Z</time>
      </trkpt>
      <trkpt lat="45.64931" lon="6.66579">
        <ele>2519.27</ele>
        <time>2015-03-17T07:52:41Z</time>
      </trkpt>
      <trkpt lat="45.64942" lon="6.66606">
        <ele>2521.68</ele>
        <time>2015-03-17T07:53:11Z</time>
      </trkpt>
      <trkpt lat="45.64955" lon="6.66633">
        <ele>2524.56</ele>
        <time>2015-03-17T07:53:41Z</time>
      </trkpt>
      <trkpt lat="45.64972" lon="6.66644">
        <ele>2530.33</ele>
        <time>2015-03-17T07:54:11Z</time>
      </trkpt>
      <trkpt lat="45.64989" lon="6.66648">
        <ele>2534.65</ele>
        <time>2015-03-17T07:54:41Z</time>
      </trkpt>
      <trkpt lat="45.65014" lon="6.66646">
        <ele>2536.58</ele>
        <time>2015-03-17T07:55:11Z</time>
      </trkpt>
      <trkpt lat="45.65037" lon="6.66642">
        <ele>2534.65</ele>
        <time>2015-03-17T07:55:41Z</time>
      </trkpt>
      <trkpt lat="45.65038" lon="6.66666">
        <ele>2540.42</ele>
        <time>2015-03-17T07:56:11Z</time>
      </trkpt>
      <trkpt lat="45.65039" lon="6.6669">
        <ele>2547.15</ele>
        <time>2015-03-17T07:56:41Z</time>
      </trkpt>
      <trkpt lat="45.65035" lon="6.66712">
        <ele>2549.55</ele>
        <time>2015-03-17T07:57:11Z</time>
      </trkpt>
      <trkpt lat="45.65038" lon="6.66719">
        <ele>2554.84</ele>
        <time>2015-03-17T07:57:41Z</time>
      </trkpt>
      <trkpt lat="45.65054" lon="6.66724">
        <ele>2558.69</ele>
        <time>2015-03-17T07:58:11Z</time>
      </trkpt>
      <trkpt lat="45.65065" lon="6.66725">
        <ele>2559.65</ele>
        <time>2015-03-17T07:58:41Z</time>
      </trkpt>
      <trkpt lat="45.65081" lon="6.66734">
        <ele>2564.93</ele>
        <time>2015-03-17T07:59:11Z</time>
      </trkpt>
      <trkpt lat="45.65091" lon="6.66753">
        <ele>2567.82</ele>
        <time>2015-03-17T07:59:41Z</time>
      </trkpt>
      <trkpt lat="45.65101" lon="6.66768">
        <ele>2570.22</ele>
        <time>2015-03-17T08:00:11Z</time>
      </trkpt>
      <trkpt lat="45.65113" lon="6.66782">
        <ele>2575.99</ele>
        <time>2015-03-17T08:00:41Z</time>
      </trkpt>
      <trkpt lat="45.65119" lon="6.66795">
        <ele>2577.43</ele>
        <time>2015-03-17T08:01:11Z</time>
      </trkpt>
      <trkpt lat="45.65112" lon="6.66814">
        <ele>2584.64</ele>
        <time>2015-03-17T08:01:41Z</time>
      </trkpt>
      <trkpt lat="45.65104" lon="6.66831">
        <ele>2587.04</ele>
        <time>2015-03-17T08:02:11Z</time>
      </trkpt>
      <trkpt lat="45.65097" lon="6.66847">
        <ele>2589.93</ele>
        <time>2015-03-17T08:02:41Z</time>
      </trkpt>
      <trkpt lat="45.65092" lon="6.66861">
        <ele>2591.85</ele>
        <time>2015-03-17T08:03:11Z</time>
      </trkpt>
      <trkpt lat="45.65085" lon="6.66876">
        <ele>2597.14</ele>
        <time>2015-03-17T08:03:41Z</time>
      </trkpt>
      <trkpt lat="45.65094" lon="6.66881">
        <ele>2599.06</ele>
        <time>2015-03-17T08:04:11Z</time>
      </trkpt>
      <trkpt lat="45.65109" lon="6.66884">
        <ele>2601.46</ele>
        <time>2015-03-17T08:04:41Z</time>
      </trkpt>
      <trkpt lat="45.65123" lon="6.66886">
        <ele>2608.67</ele>
        <time>2015-03-17T08:05:11Z</time>
      </trkpt>
      <trkpt lat="45.65138" lon="6.66888">
        <ele>2609.64</ele>
        <time>2015-03-17T08:05:41Z</time>
      </trkpt>
      <trkpt lat="45.65151" lon="6.66891">
        <ele>2613.48</ele>
        <time>2015-03-17T08:06:11Z</time>
      </trkpt>
      <trkpt lat="45.65167" lon="6.66894">
        <ele>2617.33</ele>
        <time>2015-03-17T08:06:41Z</time>
      </trkpt>
      <trkpt lat="45.65181" lon="6.6689">
        <ele>2621.17</ele>
        <time>2015-03-17T08:07:11Z</time>
      </trkpt>
      <trkpt lat="45.65194" lon="6.66889">
        <ele>2635.11</ele>
        <time>2015-03-17T08:07:41Z</time>
      </trkpt>
      <trkpt lat="45.65197" lon="6.66909">
        <ele>2635.59</ele>
        <time>2015-03-17T08:08:11Z</time>
      </trkpt>
      <trkpt lat="45.65205" lon="6.66929">
        <ele>2637.51</ele>
        <time>2015-03-17T08:08:41Z</time>
      </trkpt>
      <trkpt lat="45.65216" lon="6.6695">
        <ele>2630.79</ele>
        <time>2015-03-17T08:09:11Z</time>
      </trkpt>
      <trkpt lat="45.65216" lon="6.66945">
        <ele>2630.3</ele>
        <time>2015-03-17T08:09:41Z</time>
      </trkpt>
      <trkpt lat="45.65213" lon="6.66938">
        <ele>2630.3</ele>
        <time>2015-03-17T08:10:11Z</time>
      </trkpt>
      <trkpt lat="45.65206" lon="6.66925">
        <ele>2629.34</ele>
        <time>2015-03-17T08:10:41Z</time>
      </trkpt>
      <trkpt lat="45.65206" lon="6.66934">
        <ele>2630.3</ele>
        <time>2015-03-17T08:11:11Z</time>
      </trkpt>
      <trkpt lat="45.6521" lon="6.66944">
        <ele>2628.38</ele>
        <time>2015-03-17T08:11:41Z</time>
      </trkpt>
      <trkpt lat="45.65213" lon="6.6694">
        <ele>2628.86</ele>
        <time>2015-03-17T08:12:11Z</time>
      </trkpt>
      <trkpt lat="45.65216" lon="6.66945">
        <ele>2630.3</ele>
        <time>2015-03-17T08:12:41Z</time>
      </trkpt>
      <trkpt lat="45.65218" lon="6.66948">
        <ele>2627.42</ele>
        <time>2015-03-17T08:13:11Z</time>
      </trkpt>
      <trkpt lat="45.65214" lon="6.66951">
        <ele>2631.27</ele>
        <time>2015-03-17T08:13:41Z</time>
      </trkpt>
      <trkpt lat="45.65212" lon="6.66948">
        <ele>2631.27</ele>
        <time>2015-03-17T08:14:11Z</time>
      </trkpt>
      <trkpt lat="45.65212" lon="6.6695">
        <ele>2628.86</ele>
        <time>2015-03-17T08:14:41Z</time>
      </trkpt>
      <trkpt lat="45.65217" lon="6.66948">
        <ele>2628.38</ele>
        <time>2015-03-17T08:15:11Z</time>
      </trkpt>
      <trkpt lat="45.65219" lon="6.66949">
        <ele>2631.75</ele>
        <time>2015-03-17T08:15:41Z</time>
      </trkpt>
      <trkpt lat="45.65232" lon="6.66966">
        <ele>2632.23</ele>
        <time>2015-03-17T08:16:11Z</time>
      </trkpt>
      <trkpt lat="45.65284" lon="6.67125">
        <ele>2598.58</ele>
        <time>2015-03-17T08:16:41Z</time>
      </trkpt>
      <trkpt lat="45.65288" lon="6.67267">
        <ele>2583.68</ele>
        <time>2015-03-17T08:17:11Z</time>
      </trkpt>
      <trkpt lat="45.65288" lon="6.67269">
        <ele>2583.68</ele>
        <time>2015-03-17T08:17:41Z</time>
      </trkpt>
      <trkpt lat="45.65289" lon="6.67267">
        <ele>2588.97</ele>
        <time>2015-03-17T08:18:11Z</time>
      </trkpt>
      <trkpt lat="45.65277" lon="6.67344">
        <ele>2572.63</ele>
        <time>2015-03-17T08:18:41Z</time>
      </trkpt>
      <trkpt lat="45.65347" lon="6.67554">
        <ele>2553.88</ele>
        <time>2015-03-17T08:19:11Z</time>
      </trkpt>
      <trkpt lat="45.65368" lon="6.6764">
        <ele>2541.86</ele>
        <time>2015-03-17T08:19:41Z</time>
      </trkpt>
      <trkpt lat="45.65409" lon="6.67724">
        <ele>2531.29</ele>
        <time>2015-03-17T08:20:11Z</time>
      </trkpt>
      <trkpt lat="45.65447" lon="6.67717">
        <ele>2513.98</ele>
        <time>2015-03-17T08:20:41Z</time>
      </trkpt>
      <trkpt lat="45.65449" lon="6.67776">
        <ele>2507.74</ele>
        <time>2015-03-17T08:21:11Z</time>
      </trkpt>
      <trkpt lat="45.65534" lon="6.67716">
        <ele>2477.94</ele>
        <time>2015-03-17T08:21:41Z</time>
      </trkpt>
      <trkpt lat="45.65674" lon="6.67678">
        <ele>2451.02</ele>
        <time>2015-03-17T08:22:11Z</time>
      </trkpt>
      <trkpt lat="45.65675" lon="6.67681">
        <ele>2451.98</ele>
        <time>2015-03-17T08:22:41Z</time>
      </trkpt>
      <trkpt lat="45.65793" lon="6.67813">
        <ele>2433.71</ele>
        <time>2015-03-17T08:23:11Z</time>
      </trkpt>
      <trkpt lat="45.65796" lon="6.67816">
        <ele>2432.75</ele>
        <time>2015-03-17T08:23:41Z</time>
      </trkpt>
      <trkpt lat="45.658" lon="6.67812">
        <ele>2439</ele>
        <time>2015-03-17T08:24:11Z</time>
      </trkpt>
      <trkpt lat="45.65804" lon="6.67808">
        <ele>2440.44</ele>
        <time>2015-03-17T08:24:41Z</time>
      </trkpt>
      <trkpt lat="45.65811" lon="6.67802">
        <ele>2446.21</ele>
        <time>2015-03-17T08:25:11Z</time>
      </trkpt>
      <trkpt lat="45.65817" lon="6.67796">
        <ele>2448.62</ele>
        <time>2015-03-17T08:25:41Z</time>
      </trkpt>
      <trkpt lat="45.65825" lon="6.67767">
        <ele>2454.38</ele>
        <time>2015-03-17T08:26:11Z</time>
      </trkpt>
      <trkpt lat="45.65882" lon="6.67734">
        <ele>2428.91</ele>
        <time>2015-03-17T08:26:41Z</time>
      </trkpt>
      <trkpt lat="45.65942" lon="6.67857">
        <ele>2422.66</ele>
        <time>2015-03-17T08:27:11Z</time>
      </trkpt>
      <trkpt lat="45.66012" lon="6.67927">
        <ele>2421.7</ele>
        <time>2015-03-17T08:27:41Z</time>
      </trkpt>
      <trkpt lat="45.6614" lon="6.68016">
        <ele>2395.26</ele>
        <time>2015-03-17T08:28:11Z</time>
      </trkpt>
      <trkpt lat="45.6619" lon="6.68096">
        <ele>2391.42</ele>
        <time>2015-03-17T08:28:41Z</time>
      </trkpt>
      <trkpt lat="45.66187" lon="6.68098">
        <ele>2390.94</ele>
        <time>2015-03-17T08:29:11Z</time>
      </trkpt>
      <trkpt lat="45.66273" lon="6.68182">
        <ele>2382.76</ele>
        <time>2015-03-17T08:29:41Z</time>
      </trkpt>
      <trkpt lat="45.66371" lon="6.68328">
        <ele>2371.71</ele>
        <time>2015-03-17T08:30:11Z</time>
      </trkpt>
      <trkpt lat="45.66373" lon="6.6834">
        <ele>2376.04</ele>
        <time>2015-03-17T08:30:41Z</time>
      </trkpt>
      <trkpt lat="45.66393" lon="6.6835">
        <ele>2365.94</ele>
        <time>2015-03-17T08:31:11Z</time>
      </trkpt>
      <trkpt lat="45.66509" lon="6.68405">
        <ele>2331.33</ele>
        <time>2015-03-17T08:31:41Z</time>
      </trkpt>
      <trkpt lat="45.66559" lon="6.68493">
        <ele>2316.43</ele>
        <time>2015-03-17T08:32:11Z</time>
      </trkpt>
      <trkpt lat="45.66572" lon="6.68555">
        <ele>2310.67</ele>
        <time>2015-03-17T08:32:41Z</time>
      </trkpt>
      <trkpt lat="45.66618" lon="6.68731">
        <ele>2277.5</ele>
        <time>2015-03-17T08:33:11Z</time>
      </trkpt>
      <trkpt lat="45.66761" lon="6.68877">
        <ele>2250.58</ele>
        <time>2015-03-17T08:33:41Z</time>
      </trkpt>
      <trkpt lat="45.66881" lon="6.69062">
        <ele>2220.78</ele>
        <time>2015-03-17T08:34:11Z</time>
      </trkpt>
      <trkpt lat="45.66996" lon="6.69183">
        <ele>2200.11</ele>
        <time>2015-03-17T08:34:41Z</time>
      </trkpt>
      <trkpt lat="45.6716" lon="6.69313">
        <ele>2187.62</ele>
        <time>2015-03-17T08:35:11Z</time>
      </trkpt>
      <trkpt lat="45.67233" lon="6.69398">
        <ele>2174.16</ele>
        <time>2015-03-17T08:35:41Z</time>
      </trkpt>
      <trkpt lat="45.67233" lon="6.694">
        <ele>2174.16</ele>
        <time>2015-03-17T08:36:11Z</time>
      </trkpt>
      <trkpt lat="45.67232" lon="6.69398">
        <ele>2177.52</ele>
        <time>2015-03-17T08:36:41Z</time>
      </trkpt>
      <trkpt lat="45.67268" lon="6.69423">
        <ele>2172.72</ele>
        <time>2015-03-17T08:37:11Z</time>
      </trkpt>
      <trkpt lat="45.67431" lon="6.69388">
        <ele>2154.93</ele>
        <time>2015-03-17T08:37:41Z</time>
      </trkpt>
      <trkpt lat="45.67458" lon="6.69566">
        <ele>2103.98</ele>
        <time>2015-03-17T08:38:11Z</time>
      </trkpt>
      <trkpt lat="45.67444" lon="6.69572">
        <ele>2103.5</ele>
        <time>2015-03-17T08:38:41Z</time>
      </trkpt>
      <trkpt lat="45.67445" lon="6.69574">
        <ele>2102.06</ele>
        <time>2015-03-17T08:39:11Z</time>
      </trkpt>
      <trkpt lat="45.67602" lon="6.6975">
        <ele>2076.59</ele>
        <time>2015-03-17T08:39:41Z</time>
      </trkpt>
      <trkpt lat="45.67682" lon="6.69873">
        <ele>2061.68</ele>
        <time>2015-03-17T08:40:11Z</time>
      </trkpt>
      <trkpt lat="45.67712" lon="6.69967">
        <ele>2048.71</ele>
        <time>2015-03-17T08:40:41Z</time>
      </trkpt>
      <trkpt lat="45.67848" lon="6.70084">
        <ele>2034.29</ele>
        <time>2015-03-17T08:41:11Z</time>
      </trkpt>
      <trkpt lat="45.67972" lon="6.70175">
        <ele>2020.83</ele>
        <time>2015-03-17T08:41:41Z</time>
      </trkpt>
      <trkpt lat="45.67991" lon="6.70179">
        <ele>2018.91</ele>
        <time>2015-03-17T08:42:11Z</time>
      </trkpt>
      <trkpt lat="45.68005" lon="6.70182">
        <ele>2016.98</ele>
        <time>2015-03-17T08:42:41Z</time>
      </trkpt>
      <trkpt lat="45.68154" lon="6.70291">
        <ele>2004.97</ele>
        <time>2015-03-17T08:43:11Z</time>
      </trkpt>
      <trkpt lat="45.68243" lon="6.70393">
        <ele>1995.83</ele>
        <time>2015-03-17T08:43:41Z</time>
      </trkpt>
      <trkpt lat="45.68362" lon="6.70471">
        <ele>1990.55</ele>
        <time>2015-03-17T08:44:11Z</time>
      </trkpt>
      <trkpt lat="45.68368" lon="6.70477">
        <ele>1987.66</ele>
        <time>2015-03-17T08:44:41Z</time>
      </trkpt>
      <trkpt lat="45.68365" lon="6.70471">
        <ele>1989.1</ele>
        <time>2015-03-17T08:45:11Z</time>
      </trkpt>
      <trkpt lat="45.68368" lon="6.70474">
        <ele>1988.62</ele>
        <time>2015-03-17T08:45:41Z</time>
      </trkpt>
      <trkpt lat="45.68368" lon="6.70476">
        <ele>1989.1</ele>
        <time>2015-03-17T08:46:11Z</time>
      </trkpt>
      <trkpt lat="45.68368" lon="6.70473">
        <ele>1989.59</ele>
        <time>2015-03-17T08:46:41Z</time>
      </trkpt>
      <trkpt lat="45.68369" lon="6.70475">
        <ele>1989.1</ele>
        <time>2015-03-17T08:47:11Z</time>
      </trkpt>
      <trkpt lat="45.68368" lon="6.70474">
        <ele>1987.66</ele>
        <time>2015-03-17T08:47:41Z</time>
      </trkpt>
      <trkpt lat="45.68371" lon="6.70476">
        <ele>1987.66</ele>
        <time>2015-03-17T08:48:11Z</time>
      </trkpt>
      <trkpt lat="45.68369" lon="6.70476">
        <ele>1988.62</ele>
        <time>2015-03-17T08:48:41Z</time>
      </trkpt>
      <trkpt lat="45.68368" lon="6.70478">
        <ele>1987.18</ele>
        <time>2015-03-17T08:49:11Z</time>
      </trkpt>
      <trkpt lat="45.6837" lon="6.70477">
        <ele>1988.62</ele>
        <time>2015-03-17T08:49:41Z</time>
      </trkpt>
      <trkpt lat="45.68368" lon="6.70474">
        <ele>1988.62</ele>
        <time>2015-03-17T08:50:11Z</time>
      </trkpt>
      <trkpt lat="45.68369" lon="6.70477">
        <ele>1991.03</ele>
        <time>2015-03-17T08:50:41Z</time>
      </trkpt>
      <trkpt lat="45.68382" lon="6.70483">
        <ele>1989.59</ele>
        <time>2015-03-17T08:51:11Z</time>
      </trkpt>
      <trkpt lat="45.68524" lon="6.70592">
        <ele>1977.09</ele>
        <time>2015-03-17T08:51:41Z</time>
      </trkpt>
      <trkpt lat="45.68621" lon="6.70665">
        <ele>1948.25</ele>
        <time>2015-03-17T08:52:11Z</time>
      </trkpt>
      <trkpt lat="45.6878" lon="6.70754">
        <ele>1924.7</ele>
        <time>2015-03-17T08:52:41Z</time>
      </trkpt>
      <trkpt lat="45.68879" lon="6.70847">
        <ele>1911.24</ele>
        <time>2015-03-17T08:53:11Z</time>
      </trkpt>
      <trkpt lat="45.68962" lon="6.70958">
        <ele>1897.78</ele>
        <time>2015-03-17T08:53:41Z</time>
      </trkpt>
      <trkpt lat="45.69062" lon="6.7104">
        <ele>1886.24</ele>
        <time>2015-03-17T08:54:11Z</time>
      </trkpt>
      <trkpt lat="45.69073" lon="6.71049">
        <ele>1888.17</ele>
        <time>2015-03-17T08:54:41Z</time>
      </trkpt>
      <trkpt lat="45.69073" lon="6.71046">
        <ele>1887.69</ele>
        <time>2015-03-17T08:55:11Z</time>
      </trkpt>
      <trkpt lat="45.69073" lon="6.71045">
        <ele>1886.72</ele>
        <time>2015-03-17T08:55:41Z</time>
      </trkpt>
      <trkpt lat="45.69091" lon="6.71006">
        <ele>1888.65</ele>
        <time>2015-03-17T08:56:11Z</time>
      </trkpt>
      <trkpt lat="45.692" lon="6.70927">
        <ele>1866.54</ele>
        <time>2015-03-17T08:56:41Z</time>
      </trkpt>
      <trkpt lat="45.69258" lon="6.70901">
        <ele>1856.92</ele>
        <time>2015-03-17T08:57:11Z</time>
      </trkpt>
      <trkpt lat="45.69307" lon="6.71026">
        <ele>1851.64</ele>
        <time>2015-03-17T08:57:41Z</time>
      </trkpt>
      <trkpt lat="45.69345" lon="6.7116">
        <ele>1842.98</ele>
        <time>2015-03-17T08:58:11Z</time>
      </trkpt>
      <trkpt lat="45.69382" lon="6.71289">
        <ele>1835.77</ele>
        <time>2015-03-17T08:58:41Z</time>
      </trkpt>
      <trkpt lat="45.69416" lon="6.71384">
        <ele>1831.45</ele>
        <time>2015-03-17T08:59:11Z</time>
      </trkpt>
      <trkpt lat="45.69447" lon="6.71515">
        <ele>1826.16</ele>
        <time>2015-03-17T08:59:41Z</time>
      </trkpt>
      <trkpt lat="45.69435" lon="6.71617">
        <ele>1822.8</ele>
        <time>2015-03-17T09:00:11Z</time>
      </trkpt>
      <trkpt lat="45.69452" lon="6.71655">
        <ele>1820.39</ele>
        <time>2015-03-17T09:00:41Z</time>
      </trkpt>
      <trkpt lat="45.6945" lon="6.71652">
        <ele>1820.39</ele>
        <time>2015-03-17T09:01:11Z</time>
      </trkpt>
      <trkpt lat="45.6945" lon="6.71653">
        <ele>1818.95</ele>
        <time>2015-03-17T09:01:41Z</time>
      </trkpt>
      <trkpt lat="45.69451" lon="6.71654">
        <ele>1821.35</ele>
        <time>2015-03-17T09:02:11Z</time>
      </trkpt>
      <trkpt lat="45.69507" lon="6.71653">
        <ele>1812.7</ele>
        <time>2015-03-17T09:02:41Z</time>
      </trkpt>
      <trkpt lat="45.69576" lon="6.71714">
        <ele>1805.01</ele>
        <time>2015-03-17T09:03:11Z</time>
      </trkpt>
      <trkpt lat="45.69575" lon="6.71819">
        <ele>1805.97</ele>
        <time>2015-03-17T09:03:41Z</time>
      </trkpt>
      <trkpt lat="45.69634" lon="6.71883">
        <ele>1796.36</ele>
        <time>2015-03-17T09:04:11Z</time>
      </trkpt>
      <trkpt lat="45.69725" lon="6.71952">
        <ele>1787.23</ele>
        <time>2015-03-17T09:04:41Z</time>
      </trkpt>
      <trkpt lat="45.69734" lon="6.7206">
        <ele>1782.42</ele>
        <time>2015-03-17T09:05:11Z</time>
      </trkpt>
      <trkpt lat="45.69727" lon="6.72125">
        <ele>1783.38</ele>
        <time>2015-03-17T09:05:41Z</time>
      </trkpt>
      <trkpt lat="45.69731" lon="6.72157">
        <ele>1784.34</ele>
        <time>2015-03-17T09:06:11Z</time>
      </trkpt>
      <trkpt lat="45.69766" lon="6.72234">
        <ele>1774.73</ele>
        <time>2015-03-17T09:06:41Z</time>
      </trkpt>
      <trkpt lat="45.69769" lon="6.7225">
        <ele>1772.33</ele>
        <time>2015-03-17T09:07:11Z</time>
      </trkpt>
      <trkpt lat="45.69765" lon="6.72281">
        <ele>1775.21</ele>
        <time>2015-03-17T09:07:41Z</time>
      </trkpt>
      <trkpt lat="45.69741" lon="6.72356">
        <ele>1778.1</ele>
        <time>2015-03-17T09:08:11Z</time>
      </trkpt>
      <trkpt lat="45.69745" lon="6.72401">
        <ele>1785.31</ele>
        <time>2015-03-17T09:08:41Z</time>
      </trkpt>
      <trkpt lat="45.69778" lon="6.72452">
        <ele>1771.37</ele>
        <time>2015-03-17T09:09:11Z</time>
      </trkpt>
      <trkpt lat="45.69805" lon="6.72495">
        <ele>1768.48</ele>
        <time>2015-03-17T09:09:41Z</time>
      </trkpt>
      <trkpt lat="45.69812" lon="6.72512">
        <ele>1768.96</ele>
        <time>2015-03-17T09:10:11Z</time>
      </trkpt>
      <trkpt lat="45.69812" lon="6.72509">
        <ele>1768.96</ele>
        <time>2015-03-17T09:10:41Z</time>
      </trkpt>
      <trkpt lat="45.69812" lon="6.72509">
        <ele>1766.56</ele>
        <time>2015-03-17T09:11:11Z</time>
      </trkpt>
      <trkpt lat="45.69812" lon="6.7251">
        <ele>1765.12</ele>
        <time>2015-03-17T09:11:41Z</time>
      </trkpt>
      <trkpt lat="45.69811" lon="6.72511">
        <ele>1766.56</ele>
        <time>2015-03-17T09:12:11Z</time>
      </trkpt>
      <trkpt lat="45.69812" lon="6.72509">
        <ele>1764.16</ele>
        <time>2015-03-17T09:12:41Z</time>
      </trkpt>
      <trkpt lat="45.69812" lon="6.72513">
        <ele>1765.12</ele>
        <time>2015-03-17T09:13:11Z</time>
      </trkpt>
      <trkpt lat="45.69813" lon="6.72511">
        <ele>1764.64</ele>
        <time>2015-03-17T09:13:41Z</time>
      </trkpt>
      <trkpt lat="45.69812" lon="6.72512">
        <ele>1764.64</ele>
        <time>2015-03-17T09:14:11Z</time>
      </trkpt>
      <trkpt lat="45.69813" lon="6.72511">
        <ele>1763.68</ele>
        <time>2015-03-17T09:14:41Z</time>
      </trkpt>
      <trkpt lat="45.69812" lon="6.72511">
        <ele>1763.68</ele>
        <time>2015-03-17T09:15:11Z</time>
      </trkpt>
      <trkpt lat="45.69814" lon="6.7251">
        <ele>1764.16</ele>
        <time>2015-03-17T09:15:41Z</time>
      </trkpt>
      <trkpt lat="45.69812" lon="6.72512">
        <ele>1763.2</ele>
        <time>2015-03-17T09:16:11Z</time>
      </trkpt>
      <trkpt lat="45.69813" lon="6.72511">
        <ele>1763.2</ele>
        <time>2015-03-17T09:16:41Z</time>
      </trkpt>
      <trkpt lat="45.69813" lon="6.7251">
        <ele>1763.2</ele>
        <time>2015-03-17T09:17:11Z</time>
      </trkpt>
      <trkpt lat="45.69814" lon="6.72512">
        <ele>1762.71</ele>
        <time>2015-03-17T09:17:41Z</time>
      </trkpt>
      <trkpt lat="45.69811" lon="6.72513">
        <ele>1765.6</ele>
        <time>2015-03-17T09:18:11Z</time>
      </trkpt>
      <trkpt lat="45.69812" lon="6.72509">
        <ele>1768.96</ele>
        <time>2015-03-17T09:18:41Z</time>
      </trkpt>
      <trkpt lat="45.69813" lon="6.72506">
        <ele>1767.04</ele>
        <time>2015-03-17T09:19:11Z</time>
      </trkpt>
      <trkpt lat="45.69812" lon="6.72504">
        <ele>1766.08</ele>
        <time>2015-03-17T09:19:41Z</time>
      </trkpt>
      <trkpt lat="45.69834" lon="6.72513">
        <ele>1766.56</ele>
        <time>2015-03-17T09:20:11Z</time>
      </trkpt>
      <trkpt lat="45.69863" lon="6.72527">
        <ele>1761.75</ele>
        <time>2015-03-17T09:20:41Z</time>
      </trkpt>
      <trkpt lat="45.69874" lon="6.72566">
        <ele>1763.68</ele>
        <time>2015-03-17T09:21:11Z</time>
      </trkpt>
      <trkpt lat="45.69878" lon="6.72604">
        <ele>1765.12</ele>
        <time>2015-03-17T09:21:41Z</time>
      </trkpt>
      <trkpt lat="45.69885" lon="6.72629">
        <ele>1766.08</ele>
        <time>2015-03-17T09:22:11Z</time>
      </trkpt>
      <trkpt lat="45.69883" lon="6.72633">
        <ele>1769.92</ele>
        <time>2015-03-17T09:22:41Z</time>
      </trkpt>
      <trkpt lat="45.69909" lon="6.7266">
        <ele>1765.12</ele>
        <time>2015-03-17T09:23:11Z</time>
      </trkpt>
      <trkpt lat="45.69928" lon="6.72686">
        <ele>1767.52</ele>
        <time>2015-03-17T09:23:41Z</time>
      </trkpt>
      <trkpt lat="45.69948" lon="6.72705">
        <ele>1768</ele>
        <time>2015-03-17T09:24:11Z</time>
      </trkpt>
      <trkpt lat="45.69975" lon="6.72719">
        <ele>1761.75</ele>
        <time>2015-03-17T09:24:41Z</time>
      </trkpt>
      <trkpt lat="45.69993" lon="6.7273">
        <ele>1765.12</ele>
        <time>2015-03-17T09:25:11Z</time>
      </trkpt>
      <trkpt lat="45.70013" lon="6.72736">
        <ele>1768</ele>
        <time>2015-03-17T09:25:41Z</time>
      </trkpt>
      <trkpt lat="45.70019" lon="6.72755">
        <ele>1771.37</ele>
        <time>2015-03-17T09:26:11Z</time>
      </trkpt>
      <trkpt lat="45.7002" lon="6.72786">
        <ele>1773.77</ele>
        <time>2015-03-17T09:26:41Z</time>
      </trkpt>
      <trkpt lat="45.7002" lon="6.72797">
        <ele>1775.21</ele>
        <time>2015-03-17T09:27:11Z</time>
      </trkpt>
      <trkpt lat="45.70023" lon="6.72794">
        <ele>1773.29</ele>
        <time>2015-03-17T09:27:41Z</time>
      </trkpt>
      <trkpt lat="45.7002" lon="6.72795">
        <ele>1775.21</ele>
        <time>2015-03-17T09:28:11Z</time>
      </trkpt>
      <trkpt lat="45.70018" lon="6.728">
        <ele>1773.29</ele>
        <time>2015-03-17T09:28:41Z</time>
      </trkpt>
      <trkpt lat="45.70018" lon="6.728">
        <ele>1776.17</ele>
        <time>2015-03-17T09:29:11Z</time>
      </trkpt>
      <trkpt lat="45.70021" lon="6.72795">
        <ele>1777.13</ele>
        <time>2015-03-17T09:29:41Z</time>
      </trkpt>
      <trkpt lat="45.70026" lon="6.72808">
        <ele>1776.65</ele>
        <time>2015-03-17T09:30:11Z</time>
      </trkpt>
      <trkpt lat="45.70042" lon="6.72831">
        <ele>1778.58</ele>
        <time>2015-03-17T09:30:41Z</time>
      </trkpt>
      <trkpt lat="45.70056" lon="6.72855">
        <ele>1782.42</ele>
        <time>2015-03-17T09:31:11Z</time>
      </trkpt>
      <trkpt lat="45.70067" lon="6.72865">
        <ele>1782.9</ele>
        <time>2015-03-17T09:31:41Z</time>
      </trkpt>
      <trkpt lat="45.70082" lon="6.72886">
        <ele>1784.34</ele>
        <time>2015-03-17T09:32:11Z</time>
      </trkpt>
      <trkpt lat="45.70096" lon="6.7291">
        <ele>1787.71</ele>
        <time>2015-03-17T09:32:41Z</time>
      </trkpt>
      <trkpt lat="45.70112" lon="6.72931">
        <ele>1790.11</ele>
        <time>2015-03-17T09:33:11Z</time>
      </trkpt>
      <trkpt lat="45.70132" lon="6.72954">
        <ele>1791.55</ele>
        <time>2015-03-17T09:33:41Z</time>
      </trkpt>
      <trkpt lat="45.70143" lon="6.72964">
        <ele>1789.15</ele>
        <time>2015-03-17T09:34:11Z</time>
      </trkpt>
      <trkpt lat="45.70143" lon="6.72967">
        <ele>1791.07</ele>
        <time>2015-03-17T09:34:41Z</time>
      </trkpt>
      <trkpt lat="45.7014" lon="6.72967">
        <ele>1790.11</ele>
        <time>2015-03-17T09:35:11Z</time>
      </trkpt>
      <trkpt lat="45.7014" lon="6.72967">
        <ele>1791.55</ele>
        <time>2015-03-17T09:35:41Z</time>
      </trkpt>
      <trkpt lat="45.70142" lon="6.72967">
        <ele>1790.59</ele>
        <time>2015-03-17T09:36:11Z</time>
      </trkpt>
      <trkpt lat="45.70142" lon="6.72966">
        <ele>1790.11</ele>
        <time>2015-03-17T09:36:41Z</time>
      </trkpt>
      <trkpt lat="45.70146" lon="6.72963">
        <ele>1790.11</ele>
        <time>2015-03-17T09:37:11Z</time>
      </trkpt>
      <trkpt lat="45.70156" lon="6.72954">
        <ele>1793</ele>
        <time>2015-03-17T09:37:41Z</time>
      </trkpt>
      <trkpt lat="45.70176" lon="6.72975">
        <ele>1796.36</ele>
        <time>2015-03-17T09:38:11Z</time>
      </trkpt>
      <trkpt lat="45.70181" lon="6.72983">
        <ele>1797.8</ele>
        <time>2015-03-17T09:38:41Z</time>
      </trkpt>
      <trkpt lat="45.70185" lon="6.72978">
        <ele>1798.76</ele>
        <time>2015-03-17T09:39:11Z</time>
      </trkpt>
      <trkpt lat="45.70183" lon="6.72983">
        <ele>1797.8</ele>
        <time>2015-03-17T09:39:41Z</time>
      </trkpt>
      <trkpt lat="45.70184" lon="6.72982">
        <ele>1797.32</ele>
        <time>2015-03-17T09:40:11Z</time>
      </trkpt>
      <trkpt lat="45.70184" lon="6.72982">
        <ele>1799.24</ele>
        <time>2015-03-17T09:40:41Z</time>
      </trkpt>
      <trkpt lat="45.70186" lon="6.72978">
        <ele>1797.8</ele>
        <time>2015-03-17T09:41:11Z</time>
      </trkpt>
      <trkpt lat="45.70187" lon="6.72978">
        <ele>1795.4</ele>
        <time>2015-03-17T09:41:41Z</time>
      </trkpt>
      <trkpt lat="45.70186" lon="6.72982">
        <ele>1796.36</ele>
        <time>2015-03-17T09:42:11Z</time>
      </trkpt>
      <trkpt lat="45.70182" lon="6.72986">
        <ele>1797.8</ele>
        <time>2015-03-17T09:42:41Z</time>
      </trkpt>
      <trkpt lat="45.70188" lon="6.72981">
        <ele>1799.24</ele>
        <time>2015-03-17T09:43:11Z</time>
      </trkpt>
      <trkpt lat="45.70198" lon="6.72986">
        <ele>1802.13</ele>
        <time>2015-03-17T09:43:41Z</time>
      </trkpt>
      <trkpt lat="45.70213" lon="6.72989">
        <ele>1806.94</ele>
        <time>2015-03-17T09:44:11Z</time>
      </trkpt>
      <trkpt lat="45.70223" lon="6.7298">
        <ele>1811.26</ele>
        <time>2015-03-17T09:44:41Z</time>
      </trkpt>
      <trkpt lat="45.7024" lon="6.72973">
        <ele>1814.63</ele>
        <time>2015-03-17T09:45:11Z</time>
      </trkpt>
      <trkpt lat="45.70258" lon="6.72968">
        <ele>1817.03</ele>
        <time>2015-03-17T09:45:41Z</time>
      </trkpt>
      <trkpt lat="45.70278" lon="6.72962">
        <ele>1819.91</ele>
        <time>2015-03-17T09:46:11Z</time>
      </trkpt>
      <trkpt lat="45.70299" lon="6.72959">
        <ele>1822.8</ele>
        <time>2015-03-17T09:46:41Z</time>
      </trkpt>
      <trkpt lat="45.70311" lon="6.72969">
        <ele>1830.97</ele>
        <time>2015-03-17T09:47:11Z</time>
      </trkpt>
      <trkpt lat="45.7032" lon="6.72982">
        <ele>1834.33</ele>
        <time>2015-03-17T09:47:41Z</time>
      </trkpt>
      <trkpt lat="45.70328" lon="6.72963">
        <ele>1837.7</ele>
        <time>2015-03-17T09:48:11Z</time>
      </trkpt>
      <trkpt lat="45.70339" lon="6.72946">
        <ele>1842.02</ele>
        <time>2015-03-17T09:48:41Z</time>
      </trkpt>
      <trkpt lat="45.7035" lon="6.72935">
        <ele>1848.27</ele>
        <time>2015-03-17T09:49:11Z</time>
      </trkpt>
      <trkpt lat="45.70366" lon="6.72928">
        <ele>1852.12</ele>
        <time>2015-03-17T09:49:41Z</time>
      </trkpt>
      <trkpt lat="45.70379" lon="6.72931">
        <ele>1855.96</ele>
        <time>2015-03-17T09:50:11Z</time>
      </trkpt>
      <trkpt lat="45.70392" lon="6.72947">
        <ele>1858.85</ele>
        <time>2015-03-17T09:50:41Z</time>
      </trkpt>
      <trkpt lat="45.70401" lon="6.72962">
        <ele>1864.61</ele>
        <time>2015-03-17T09:51:11Z</time>
      </trkpt>
      <trkpt lat="45.70416" lon="6.7296">
        <ele>1868.94</ele>
        <time>2015-03-17T09:51:41Z</time>
      </trkpt>
      <trkpt lat="45.70429" lon="6.72958">
        <ele>1874.23</ele>
        <time>2015-03-17T09:52:11Z</time>
      </trkpt>
      <trkpt lat="45.70445" lon="6.72966">
        <ele>1878.07</ele>
        <time>2015-03-17T09:52:41Z</time>
      </trkpt>
      <trkpt lat="45.70459" lon="6.72975">
        <ele>1880.48</ele>
        <time>2015-03-17T09:53:11Z</time>
      </trkpt>
      <trkpt lat="45.70476" lon="6.72982">
        <ele>1880.48</ele>
        <time>2015-03-17T09:53:41Z</time>
      </trkpt>
      <trkpt lat="45.70491" lon="6.72976">
        <ele>1885.76</ele>
        <time>2015-03-17T09:54:11Z</time>
      </trkpt>
      <trkpt lat="45.70501" lon="6.72959">
        <ele>1889.13</ele>
        <time>2015-03-17T09:54:41Z</time>
      </trkpt>
      <trkpt lat="45.70505" lon="6.72938">
        <ele>1895.86</ele>
        <time>2015-03-17T09:55:11Z</time>
      </trkpt>
      <trkpt lat="45.70504" lon="6.72936">
        <ele>1895.86</ele>
        <time>2015-03-17T09:55:41Z</time>
      </trkpt>
      <trkpt lat="45.70505" lon="6.72937">
        <ele>1895.86</ele>
        <time>2015-03-17T09:56:11Z</time>
      </trkpt>
      <trkpt lat="45.70504" lon="6.72937">
        <ele>1896.34</ele>
        <time>2015-03-17T09:56:41Z</time>
      </trkpt>
      <trkpt lat="45.70505" lon="6.72938">
        <ele>1896.34</ele>
        <time>2015-03-17T09:57:11Z</time>
      </trkpt>
      <trkpt lat="45.70505" lon="6.72936">
        <ele>1895.38</ele>
        <time>2015-03-17T09:57:41Z</time>
      </trkpt>
      <trkpt lat="45.70505" lon="6.72936">
        <ele>1894.42</ele>
        <time>2015-03-17T09:58:11Z</time>
      </trkpt>
      <trkpt lat="45.70505" lon="6.72936">
        <ele>1893.45</ele>
        <time>2015-03-17T09:58:41Z</time>
      </trkpt>
      <trkpt lat="45.70505" lon="6.72935">
        <ele>1892.49</ele>
        <time>2015-03-17T09:59:11Z</time>
      </trkpt>
      <trkpt lat="45.70505" lon="6.72934">
        <ele>1894.9</ele>
        <time>2015-03-17T09:59:41Z</time>
      </trkpt>
      <trkpt lat="45.70506" lon="6.72935">
        <ele>1895.86</ele>
        <time>2015-03-17T10:00:11Z</time>
      </trkpt>
      <trkpt lat="45.70505" lon="6.72938">
        <ele>1894.42</ele>
        <time>2015-03-17T10:00:41Z</time>
      </trkpt>
      <trkpt lat="45.70507" lon="6.72939">
        <ele>1893.93</ele>
        <time>2015-03-17T10:01:11Z</time>
      </trkpt>
      <trkpt lat="45.70507" lon="6.7294">
        <ele>1895.38</ele>
        <time>2015-03-17T10:01:41Z</time>
      </trkpt>
      <trkpt lat="45.70508" lon="6.72935">
        <ele>1896.82</ele>
        <time>2015-03-17T10:02:11Z</time>
      </trkpt>
      <trkpt lat="45.70517" lon="6.72914">
        <ele>1902.11</ele>
        <time>2015-03-17T10:02:41Z</time>
      </trkpt>
      <trkpt lat="45.70525" lon="6.72901">
        <ele>1907.39</ele>
        <time>2015-03-17T10:03:11Z</time>
      </trkpt>
      <trkpt lat="45.70537" lon="6.72889">
        <ele>1912.68</ele>
        <time>2015-03-17T10:03:41Z</time>
      </trkpt>
      <trkpt lat="45.70552" lon="6.72875">
        <ele>1921.81</ele>
        <time>2015-03-17T10:04:11Z</time>
      </trkpt>
      <trkpt lat="45.70567" lon="6.72871">
        <ele>1927.58</ele>
        <time>2015-03-17T10:04:41Z</time>
      </trkpt>
      <trkpt lat="45.70582" lon="6.72865">
        <ele>1929.98</ele>
        <time>2015-03-17T10:05:11Z</time>
      </trkpt>
      <trkpt lat="45.70596" lon="6.72857">
        <ele>1932.87</ele>
        <time>2015-03-17T10:05:41Z</time>
      </trkpt>
      <trkpt lat="45.70609" lon="6.72851">
        <ele>1937.67</ele>
        <time>2015-03-17T10:06:11Z</time>
      </trkpt>
      <trkpt lat="45.70625" lon="6.7284">
        <ele>1941.52</ele>
        <time>2015-03-17T10:06:41Z</time>
      </trkpt>
      <trkpt lat="45.70635" lon="6.72823">
        <ele>1947.29</ele>
        <time>2015-03-17T10:07:11Z</time>
      </trkpt>
      <trkpt lat="45.70646" lon="6.72805">
        <ele>1954.02</ele>
        <time>2015-03-17T10:07:41Z</time>
      </trkpt>
      <trkpt lat="45.70659" lon="6.72791">
        <ele>1956.9</ele>
        <time>2015-03-17T10:08:11Z</time>
      </trkpt>
      <trkpt lat="45.70671" lon="6.72779">
        <ele>1962.19</ele>
        <time>2015-03-17T10:08:41Z</time>
      </trkpt>
      <trkpt lat="45.70687" lon="6.7278">
        <ele>1966.51</ele>
        <time>2015-03-17T10:09:11Z</time>
      </trkpt>
      <trkpt lat="45.70693" lon="6.72792">
        <ele>1971.8</ele>
        <time>2015-03-17T10:09:41Z</time>
      </trkpt>
      <trkpt lat="45.70701" lon="6.72798">
        <ele>1973.72</ele>
        <time>2015-03-17T10:10:11Z</time>
      </trkpt>
      <trkpt lat="45.70702" lon="6.72801">
        <ele>1972.28</ele>
        <time>2015-03-17T10:10:41Z</time>
      </trkpt>
      <trkpt lat="45.707" lon="6.72799">
        <ele>1972.28</ele>
        <time>2015-03-17T10:11:11Z</time>
      </trkpt>
      <trkpt lat="45.70698" lon="6.728">
        <ele>1972.76</ele>
        <time>2015-03-17T10:11:41Z</time>
      </trkpt>
      <trkpt lat="45.70713" lon="6.72798">
        <ele>1973.72</ele>
        <time>2015-03-17T10:12:11Z</time>
      </trkpt>
      <trkpt lat="45.70725" lon="6.72799">
        <ele>1977.09</ele>
        <time>2015-03-17T10:12:41Z</time>
      </trkpt>
      <trkpt lat="45.70731" lon="6.72788">
        <ele>1979.49</ele>
        <time>2015-03-17T10:13:11Z</time>
      </trkpt>
      <trkpt lat="45.70742" lon="6.7279">
        <ele>1981.41</ele>
        <time>2015-03-17T10:13:41Z</time>
      </trkpt>
      <trkpt lat="45.70753" lon="6.72782">
        <ele>1986.22</ele>
        <time>2015-03-17T10:14:11Z</time>
      </trkpt>
      <trkpt lat="45.70769" lon="6.72769">
        <ele>1992.95</ele>
        <time>2015-03-17T10:14:41Z</time>
      </trkpt>
      <trkpt lat="45.70787" lon="6.72758">
        <ele>1997.76</ele>
        <time>2015-03-17T10:15:11Z</time>
      </trkpt>
      <trkpt lat="45.70804" lon="6.7276">
        <ele>1998.24</ele>
        <time>2015-03-17T10:15:41Z</time>
      </trkpt>
      <trkpt lat="45.7082" lon="6.72769">
        <ele>1999.68</ele>
        <time>2015-03-17T10:16:11Z</time>
      </trkpt>
      <trkpt lat="45.70816" lon="6.72762">
        <ele>1995.83</ele>
        <time>2015-03-17T10:16:41Z</time>
      </trkpt>
      <trkpt lat="45.70838" lon="6.72761">
        <ele>2000.16</ele>
        <time>2015-03-17T10:17:11Z</time>
      </trkpt>
      <trkpt lat="45.70863" lon="6.72754">
        <ele>2004.97</ele>
        <time>2015-03-17T10:17:41Z</time>
      </trkpt>
      <trkpt lat="45.70887" lon="6.72748">
        <ele>2006.41</ele>
        <time>2015-03-17T10:18:11Z</time>
      </trkpt>
      <trkpt lat="45.7091" lon="6.72746">
        <ele>2010.25</ele>
        <time>2015-03-17T10:18:41Z</time>
      </trkpt>
      <trkpt lat="45.70933" lon="6.72732">
        <ele>2012.18</ele>
        <time>2015-03-17T10:19:11Z</time>
      </trkpt>
      <trkpt lat="45.70951" lon="6.72728">
        <ele>2016.5</ele>
        <time>2015-03-17T10:19:41Z</time>
      </trkpt>
      <trkpt lat="45.7097" lon="6.72711">
        <ele>2020.35</ele>
        <time>2015-03-17T10:20:11Z</time>
      </trkpt>
      <trkpt lat="45.70979" lon="6.7268">
        <ele>2022.75</ele>
        <time>2015-03-17T10:20:41Z</time>
      </trkpt>
      <trkpt lat="45.70987" lon="6.72654">
        <ele>2030.92</ele>
        <time>2015-03-17T10:21:11Z</time>
      </trkpt>
      <trkpt lat="45.71002" lon="6.72634">
        <ele>2031.88</ele>
        <time>2015-03-17T10:21:41Z</time>
      </trkpt>
      <trkpt lat="45.71019" lon="6.72619">
        <ele>2035.73</ele>
        <time>2015-03-17T10:22:11Z</time>
      </trkpt>
      <trkpt lat="45.71036" lon="6.72614">
        <ele>2040.54</ele>
        <time>2015-03-17T10:22:41Z</time>
      </trkpt>
      <trkpt lat="45.7105" lon="6.72633">
        <ele>2046.78</ele>
        <time>2015-03-17T10:23:11Z</time>
      </trkpt>
      <trkpt lat="45.71063" lon="6.72639">
        <ele>2051.59</ele>
        <time>2015-03-17T10:23:41Z</time>
      </trkpt>
      <trkpt lat="45.71072" lon="6.7262">
        <ele>2055.92</ele>
        <time>2015-03-17T10:24:11Z</time>
      </trkpt>
      <trkpt lat="45.7108" lon="6.72592">
        <ele>2060.24</ele>
        <time>2015-03-17T10:24:41Z</time>
      </trkpt>
      <trkpt lat="45.71089" lon="6.72575">
        <ele>2065.05</ele>
        <time>2015-03-17T10:25:11Z</time>
      </trkpt>
      <trkpt lat="45.71106" lon="6.7257">
        <ele>2069.86</ele>
        <time>2015-03-17T10:25:41Z</time>
      </trkpt>
      <trkpt lat="45.71127" lon="6.7256">
        <ele>2075.14</ele>
        <time>2015-03-17T10:26:11Z</time>
      </trkpt>
      <trkpt lat="45.7115" lon="6.72561">
        <ele>2075.62</ele>
        <time>2015-03-17T10:26:41Z</time>
      </trkpt>
      <trkpt lat="45.71171" lon="6.72561">
        <ele>2077.55</ele>
        <time>2015-03-17T10:27:11Z</time>
      </trkpt>
      <trkpt lat="45.71187" lon="6.72529">
        <ele>2080.91</ele>
        <time>2015-03-17T10:27:41Z</time>
      </trkpt>
      <trkpt lat="45.71201" lon="6.72514">
        <ele>2087.64</ele>
        <time>2015-03-17T10:28:11Z</time>
      </trkpt>
      <trkpt lat="45.71214" lon="6.7249">
        <ele>2091.97</ele>
        <time>2015-03-17T10:28:41Z</time>
      </trkpt>
      <trkpt lat="45.71219" lon="6.7247">
        <ele>2094.37</ele>
        <time>2015-03-17T10:29:11Z</time>
      </trkpt>
      <trkpt lat="45.71225" lon="6.72451">
        <ele>2098.21</ele>
        <time>2015-03-17T10:29:41Z</time>
      </trkpt>
      <trkpt lat="45.71239" lon="6.7245">
        <ele>2104.94</ele>
        <time>2015-03-17T10:30:11Z</time>
      </trkpt>
      <trkpt lat="45.71243" lon="6.72449">
        <ele>2102.06</ele>
        <time>2015-03-17T10:30:41Z</time>
      </trkpt>
      <trkpt lat="45.71243" lon="6.72449">
        <ele>2103.98</ele>
        <time>2015-03-17T10:31:11Z</time>
      </trkpt>
      <trkpt lat="45.71243" lon="6.7245">
        <ele>2102.06</ele>
        <time>2015-03-17T10:31:41Z</time>
      </trkpt>
      <trkpt lat="45.71245" lon="6.72448">
        <ele>2103.98</ele>
        <time>2015-03-17T10:32:11Z</time>
      </trkpt>
      <trkpt lat="45.71246" lon="6.72448">
        <ele>2103.5</ele>
        <time>2015-03-17T10:32:41Z</time>
      </trkpt>
      <trkpt lat="45.71246" lon="6.72448">
        <ele>2104.46</ele>
        <time>2015-03-17T10:33:11Z</time>
      </trkpt>
      <trkpt lat="45.71245" lon="6.72449">
        <ele>2103.02</ele>
        <time>2015-03-17T10:33:41Z</time>
      </trkpt>
      <trkpt lat="45.71245" lon="6.72447">
        <ele>2102.06</ele>
        <time>2015-03-17T10:34:11Z</time>
      </trkpt>
      <trkpt lat="45.71243" lon="6.72447">
        <ele>2104.46</ele>
        <time>2015-03-17T10:34:41Z</time>
      </trkpt>
      <trkpt lat="45.71236" lon="6.72445">
        <ele>2103.02</ele>
        <time>2015-03-17T10:35:11Z</time>
      </trkpt>
      <trkpt lat="45.7124" lon="6.72446">
        <ele>2103.5</ele>
        <time>2015-03-17T10:35:41Z</time>
      </trkpt>
      <trkpt lat="45.71233" lon="6.72449">
        <ele>2102.06</ele>
        <time>2015-03-17T10:36:11Z</time>
      </trkpt>
      <trkpt lat="45.71237" lon="6.72446">
        <ele>2101.58</ele>
        <time>2015-03-17T10:36:41Z</time>
      </trkpt>
      <trkpt lat="45.71235" lon="6.72448">
        <ele>2103.5</ele>
        <time>2015-03-17T10:37:11Z</time>
      </trkpt>
      <trkpt lat="45.7124" lon="6.72447">
        <ele>2105.42</ele>
        <time>2015-03-17T10:37:41Z</time>
      </trkpt>
      <trkpt lat="45.71243" lon="6.72445">
        <ele>2103.5</ele>
        <time>2015-03-17T10:38:11Z</time>
      </trkpt>
      <trkpt lat="45.71242" lon="6.72446">
        <ele>2101.58</ele>
        <time>2015-03-17T10:38:41Z</time>
      </trkpt>
      <trkpt lat="45.71243" lon="6.72447">
        <ele>2108.79</ele>
        <time>2015-03-17T10:39:11Z</time>
      </trkpt>
      <trkpt lat="45.71245" lon="6.72447">
        <ele>2103.02</ele>
        <time>2015-03-17T10:39:41Z</time>
      </trkpt>
      <trkpt lat="45.71261" lon="6.7246">
        <ele>2109.75</ele>
        <time>2015-03-17T10:40:11Z</time>
      </trkpt>
      <trkpt lat="45.71275" lon="6.7245">
        <ele>2114.56</ele>
        <time>2015-03-17T10:40:41Z</time>
      </trkpt>
      <trkpt lat="45.71286" lon="6.72469">
        <ele>2121.77</ele>
        <time>2015-03-17T10:41:11Z</time>
      </trkpt>
      <trkpt lat="45.71297" lon="6.72461">
        <ele>2123.69</ele>
        <time>2015-03-17T10:41:41Z</time>
      </trkpt>
      <trkpt lat="45.71313" lon="6.7245">
        <ele>2128.98</ele>
        <time>2015-03-17T10:42:11Z</time>
      </trkpt>
      <trkpt lat="45.71317" lon="6.72477">
        <ele>2132.34</ele>
        <time>2015-03-17T10:42:41Z</time>
      </trkpt>
      <trkpt lat="45.71324" lon="6.7249">
        <ele>2134.26</ele>
        <time>2015-03-17T10:43:11Z</time>
      </trkpt>
      <trkpt lat="45.71335" lon="6.72472">
        <ele>2141.47</ele>
        <time>2015-03-17T10:43:41Z</time>
      </trkpt>
      <trkpt lat="45.7135" lon="6.72461">
        <ele>2146.76</ele>
        <time>2015-03-17T10:44:11Z</time>
      </trkpt>
      <trkpt lat="45.71352" lon="6.72476">
        <ele>2152.05</ele>
        <time>2015-03-17T10:44:41Z</time>
      </trkpt>
      <trkpt lat="45.71355" lon="6.72481">
        <ele>2156.86</ele>
        <time>2015-03-17T10:45:11Z</time>
      </trkpt>
      <trkpt lat="45.71361" lon="6.72481">
        <ele>2161.66</ele>
        <time>2015-03-17T10:45:41Z</time>
      </trkpt>
      <trkpt lat="45.71371" lon="6.72501">
        <ele>2166.95</ele>
        <time>2015-03-17T10:46:11Z</time>
      </trkpt>
      <trkpt lat="45.71381" lon="6.72523">
        <ele>2171.27</ele>
        <time>2015-03-17T10:46:41Z</time>
      </trkpt>
      <trkpt lat="45.7139" lon="6.72523">
        <ele>2175.6</ele>
        <time>2015-03-17T10:47:11Z</time>
      </trkpt>
      <trkpt lat="45.71392" lon="6.72514">
        <ele>2176.08</ele>
        <time>2015-03-17T10:47:41Z</time>
      </trkpt>
      <trkpt lat="45.71401" lon="6.72525">
        <ele>2181.37</ele>
        <time>2015-03-17T10:48:11Z</time>
      </trkpt>
      <trkpt lat="45.71411" lon="6.7253">
        <ele>2186.18</ele>
        <time>2015-03-17T10:48:41Z</time>
      </trkpt>
      <trkpt lat="45.71413" lon="6.72504">
        <ele>2188.1</ele>
        <time>2015-03-17T10:49:11Z</time>
      </trkpt>
      <trkpt lat="45.71418" lon="6.72497">
        <ele>2192.9</ele>
        <time>2015-03-17T10:49:41Z</time>
      </trkpt>
      <trkpt lat="45.7143" lon="6.72512">
        <ele>2194.35</ele>
        <time>2015-03-17T10:50:11Z</time>
      </trkpt>
      <trkpt lat="45.7144" lon="6.72517">
        <ele>2202.52</ele>
        <time>2015-03-17T10:50:41Z</time>
      </trkpt>
      <trkpt lat="45.71449" lon="6.7251">
        <ele>2206.36</ele>
        <time>2015-03-17T10:51:11Z</time>
      </trkpt>
      <trkpt lat="45.71462" lon="6.72526">
        <ele>2214.05</ele>
        <time>2015-03-17T10:51:41Z</time>
      </trkpt>
      <trkpt lat="45.71476" lon="6.72541">
        <ele>2215.98</ele>
        <time>2015-03-17T10:52:11Z</time>
      </trkpt>
      <trkpt lat="45.71489" lon="6.7254">
        <ele>2222.22</ele>
        <time>2015-03-17T10:52:41Z</time>
      </trkpt>
      <trkpt lat="45.71504" lon="6.72529">
        <ele>2223.67</ele>
        <time>2015-03-17T10:53:11Z</time>
      </trkpt>
      <trkpt lat="45.71515" lon="6.72544">
        <ele>2227.99</ele>
        <time>2015-03-17T10:53:41Z</time>
      </trkpt>
      <trkpt lat="45.71525" lon="6.72557">
        <ele>2231.36</ele>
        <time>2015-03-17T10:54:11Z</time>
      </trkpt>
      <trkpt lat="45.71542" lon="6.72553">
        <ele>2239.05</ele>
        <time>2015-03-17T10:54:41Z</time>
      </trkpt>
      <trkpt lat="45.71558" lon="6.72552">
        <ele>2244.82</ele>
        <time>2015-03-17T10:55:11Z</time>
      </trkpt>
      <trkpt lat="45.71571" lon="6.72555">
        <ele>2246.26</ele>
        <time>2015-03-17T10:55:41Z</time>
      </trkpt>
      <trkpt lat="45.71574" lon="6.72578">
        <ele>2247.22</ele>
        <time>2015-03-17T10:56:11Z</time>
      </trkpt>
      <trkpt lat="45.71588" lon="6.72588">
        <ele>2253.47</ele>
        <time>2015-03-17T10:56:41Z</time>
      </trkpt>
      <trkpt lat="45.71608" lon="6.7259">
        <ele>2256.83</ele>
        <time>2015-03-17T10:57:11Z</time>
      </trkpt>
      <trkpt lat="45.71627" lon="6.72597">
        <ele>2262.12</ele>
        <time>2015-03-17T10:57:41Z</time>
      </trkpt>
      <trkpt lat="45.71643" lon="6.72596">
        <ele>2269.33</ele>
        <time>2015-03-17T10:58:11Z</time>
      </trkpt>
      <trkpt lat="45.71659" lon="6.7259">
        <ele>2269.33</ele>
        <time>2015-03-17T10:58:41Z</time>
      </trkpt>
      <trkpt lat="45.71667" lon="6.72604">
        <ele>2274.14</ele>
        <time>2015-03-17T10:59:11Z</time>
      </trkpt>
      <trkpt lat="45.71671" lon="6.72623">
        <ele>2282.79</ele>
        <time>2015-03-17T10:59:41Z</time>
      </trkpt>
      <trkpt lat="45.71684" lon="6.72635">
        <ele>2286.63</ele>
        <time>2015-03-17T11:00:11Z</time>
      </trkpt>
      <trkpt lat="45.71698" lon="6.72623">
        <ele>2289.52</ele>
        <time>2015-03-17T11:00:41Z</time>
      </trkpt>
      <trkpt lat="45.71716" lon="6.7262">
        <ele>2290.96</ele>
        <time>2015-03-17T11:01:11Z</time>
      </trkpt>
      <trkpt lat="45.71731" lon="6.72628">
        <ele>2296.73</ele>
        <time>2015-03-17T11:01:41Z</time>
      </trkpt>
      <trkpt lat="45.71753" lon="6.7263">
        <ele>2299.61</ele>
        <time>2015-03-17T11:02:11Z</time>
      </trkpt>
      <trkpt lat="45.71763" lon="6.72615">
        <ele>2296.73</ele>
        <time>2015-03-17T11:02:41Z</time>
      </trkpt>
      <trkpt lat="45.7176" lon="6.72606">
        <ele>2299.13</ele>
        <time>2015-03-17T11:03:11Z</time>
      </trkpt>
      <trkpt lat="45.71763" lon="6.72589">
        <ele>2300.09</ele>
        <time>2015-03-17T11:03:41Z</time>
      </trkpt>
      <trkpt lat="45.71764" lon="6.72567">
        <ele>2301.05</ele>
        <time>2015-03-17T11:04:11Z</time>
      </trkpt>
      <trkpt lat="45.71775" lon="6.72578">
        <ele>2306.82</ele>
        <time>2015-03-17T11:04:41Z</time>
      </trkpt>
      <trkpt lat="45.71787" lon="6.72594">
        <ele>2310.67</ele>
        <time>2015-03-17T11:05:11Z</time>
      </trkpt>
      <trkpt lat="45.71796" lon="6.72575">
        <ele>2318.36</ele>
        <time>2015-03-17T11:05:41Z</time>
      </trkpt>
      <trkpt lat="45.71809" lon="6.72556">
        <ele>2320.76</ele>
        <time>2015-03-17T11:06:11Z</time>
      </trkpt>
      <trkpt lat="45.71827" lon="6.72541">
        <ele>2325.57</ele>
        <time>2015-03-17T11:06:41Z</time>
      </trkpt>
      <trkpt lat="45.71845" lon="6.72536">
        <ele>2327.01</ele>
        <time>2015-03-17T11:07:11Z</time>
      </trkpt>
      <trkpt lat="45.71857" lon="6.72519">
        <ele>2329.41</ele>
        <time>2015-03-17T11:07:41Z</time>
      </trkpt>
      <trkpt lat="45.71866" lon="6.72497">
        <ele>2333.74</ele>
        <time>2015-03-17T11:08:11Z</time>
      </trkpt>
      <trkpt lat="45.71878" lon="6.72476">
        <ele>2336.14</ele>
        <time>2015-03-17T11:08:41Z</time>
      </trkpt>
      <trkpt lat="45.7188" lon="6.72467">
        <ele>2338.06</ele>
        <time>2015-03-17T11:09:11Z</time>
      </trkpt>
      <trkpt lat="45.71889" lon="6.72456">
        <ele>2340.95</ele>
        <time>2015-03-17T11:09:41Z</time>
      </trkpt>
      <trkpt lat="45.71902" lon="6.72431">
        <ele>2342.87</ele>
        <time>2015-03-17T11:10:11Z</time>
      </trkpt>
      <trkpt lat="45.71914" lon="6.72408">
        <ele>2350.56</ele>
        <time>2015-03-17T11:10:41Z</time>
      </trkpt>
      <trkpt lat="45.71935" lon="6.72384">
        <ele>2346.23</ele>
        <time>2015-03-17T11:11:11Z</time>
      </trkpt>
      <trkpt lat="45.71964" lon="6.72369">
        <ele>2348.64</ele>
        <time>2015-03-17T11:11:41Z</time>
      </trkpt>
      <trkpt lat="45.71976" lon="6.72345">
        <ele>2350.56</ele>
        <time>2015-03-17T11:12:11Z</time>
      </trkpt>
      <trkpt lat="45.71988" lon="6.7232">
        <ele>2353.93</ele>
        <time>2015-03-17T11:12:41Z</time>
      </trkpt>
      <trkpt lat="45.72003" lon="6.72296">
        <ele>2359.21</ele>
        <time>2015-03-17T11:13:11Z</time>
      </trkpt>
      <trkpt lat="45.72027" lon="6.72268">
        <ele>2357.29</ele>
        <time>2015-03-17T11:13:41Z</time>
      </trkpt>
      <trkpt lat="45.72025" lon="6.72245">
        <ele>2361.14</ele>
        <time>2015-03-17T11:14:11Z</time>
      </trkpt>
      <trkpt lat="45.72035" lon="6.72217">
        <ele>2364.5</ele>
        <time>2015-03-17T11:14:41Z</time>
      </trkpt>
      <trkpt lat="45.72046" lon="6.72191">
        <ele>2367.38</ele>
        <time>2015-03-17T11:15:11Z</time>
      </trkpt>
      <trkpt lat="45.72064" lon="6.72171">
        <ele>2369.31</ele>
        <time>2015-03-17T11:15:41Z</time>
      </trkpt>
      <trkpt lat="45.7207" lon="6.72158">
        <ele>2367.86</ele>
        <time>2015-03-17T11:16:11Z</time>
      </trkpt>
      <trkpt lat="45.72068" lon="6.72132">
        <ele>2373.15</ele>
        <time>2015-03-17T11:16:41Z</time>
      </trkpt>
      <trkpt lat="45.7208" lon="6.7211">
        <ele>2379.88</ele>
        <time>2015-03-17T11:17:11Z</time>
      </trkpt>
      <trkpt lat="45.72095" lon="6.72088">
        <ele>2382.28</ele>
        <time>2015-03-17T11:17:41Z</time>
      </trkpt>
      <trkpt lat="45.72102" lon="6.72062">
        <ele>2383.73</ele>
        <time>2015-03-17T11:18:11Z</time>
      </trkpt>
      <trkpt lat="45.72102" lon="6.72036">
        <ele>2389.97</ele>
        <time>2015-03-17T11:18:41Z</time>
      </trkpt>
      <trkpt lat="45.72107" lon="6.72008">
        <ele>2392.38</ele>
        <time>2015-03-17T11:19:11Z</time>
      </trkpt>
      <trkpt lat="45.72108" lon="6.71983">
        <ele>2401.51</ele>
        <time>2015-03-17T11:19:41Z</time>
      </trkpt>
      <trkpt lat="45.72109" lon="6.71971">
        <ele>2401.03</ele>
        <time>2015-03-17T11:20:11Z</time>
      </trkpt>
      <trkpt lat="45.72113" lon="6.7195">
        <ele>2403.43</ele>
        <time>2015-03-17T11:20:41Z</time>
      </trkpt>
      <trkpt lat="45.72125" lon="6.71931">
        <ele>2407.76</ele>
        <time>2015-03-17T11:21:11Z</time>
      </trkpt>
      <trkpt lat="45.72135" lon="6.71917">
        <ele>2414.01</ele>
        <time>2015-03-17T11:21:41Z</time>
      </trkpt>
      <trkpt lat="45.72143" lon="6.71901">
        <ele>2419.78</ele>
        <time>2015-03-17T11:22:11Z</time>
      </trkpt>
      <trkpt lat="45.72155" lon="6.71881">
        <ele>2420.74</ele>
        <time>2015-03-17T11:22:41Z</time>
      </trkpt>
      <trkpt lat="45.72166" lon="6.71857">
        <ele>2424.1</ele>
        <time>2015-03-17T11:23:11Z</time>
      </trkpt>
      <trkpt lat="45.72161" lon="6.71828">
        <ele>2428.91</ele>
        <time>2015-03-17T11:23:41Z</time>
      </trkpt>
      <trkpt lat="45.72157" lon="6.71802">
        <ele>2435.16</ele>
        <time>2015-03-17T11:24:11Z</time>
      </trkpt>
      <trkpt lat="45.72161" lon="6.71803">
        <ele>2440.92</ele>
        <time>2015-03-17T11:24:41Z</time>
      </trkpt>
      <trkpt lat="45.72176" lon="6.71816">
        <ele>2443.81</ele>
        <time>2015-03-17T11:25:11Z</time>
      </trkpt>
      <trkpt lat="45.72184" lon="6.71817">
        <ele>2447.65</ele>
        <time>2015-03-17T11:25:41Z</time>
      </trkpt>
      <trkpt lat="45.72196" lon="6.71795">
        <ele>2456.31</ele>
        <time>2015-03-17T11:26:11Z</time>
      </trkpt>
      <trkpt lat="45.72202" lon="6.71757">
        <ele>2447.65</ele>
        <time>2015-03-17T11:26:41Z</time>
      </trkpt>
      <trkpt lat="45.722" lon="6.71743">
        <ele>2441.41</ele>
        <time>2015-03-17T11:27:11Z</time>
      </trkpt>
      <trkpt lat="45.72193" lon="6.71735">
        <ele>2451.02</ele>
        <time>2015-03-17T11:27:41Z</time>
      </trkpt>
      <trkpt lat="45.72192" lon="6.71731">
        <ele>2450.06</ele>
        <time>2015-03-17T11:28:11Z</time>
      </trkpt>
      <trkpt lat="45.72188" lon="6.71732">
        <ele>2449.1</ele>
        <time>2015-03-17T11:28:41Z</time>
      </trkpt>
      <trkpt lat="45.72183" lon="6.7174">
        <ele>2450.06</ele>
        <time>2015-03-17T11:29:11Z</time>
      </trkpt>
      <trkpt lat="45.72191" lon="6.71738">
        <ele>2450.54</ele>
        <time>2015-03-17T11:29:41Z</time>
      </trkpt>
      <trkpt lat="45.72195" lon="6.71732">
        <ele>2448.62</ele>
        <time>2015-03-17T11:30:11Z</time>
      </trkpt>
      <trkpt lat="45.72193" lon="6.71734">
        <ele>2448.62</ele>
        <time>2015-03-17T11:30:41Z</time>
      </trkpt>
      <trkpt lat="45.72193" lon="6.7173">
        <ele>2448.62</ele>
        <time>2015-03-17T11:31:11Z</time>
      </trkpt>
      <trkpt lat="45.72195" lon="6.71734">
        <ele>2448.13</ele>
        <time>2015-03-17T11:31:41Z</time>
      </trkpt>
      <trkpt lat="45.72192" lon="6.71736">
        <ele>2449.58</ele>
        <time>2015-03-17T11:32:11Z</time>
      </trkpt>
      <trkpt lat="45.72194" lon="6.71734">
        <ele>2450.54</ele>
        <time>2015-03-17T11:32:41Z</time>
      </trkpt>
      <trkpt lat="45.72195" lon="6.71734">
        <ele>2451.02</ele>
        <time>2015-03-17T11:33:11Z</time>
      </trkpt>
      <trkpt lat="45.72196" lon="6.71734">
        <ele>2451.02</ele>
        <time>2015-03-17T11:33:41Z</time>
      </trkpt>
      <trkpt lat="45.72196" lon="6.71735">
        <ele>2448.13</ele>
        <time>2015-03-17T11:34:11Z</time>
      </trkpt>
      <trkpt lat="45.72196" lon="6.71735">
        <ele>2448.13</ele>
        <time>2015-03-17T11:34:41Z</time>
      </trkpt>
      <trkpt lat="45.72196" lon="6.71737">
        <ele>2449.1</ele>
        <time>2015-03-17T11:35:11Z</time>
      </trkpt>
      <trkpt lat="45.72198" lon="6.71736">
        <ele>2448.62</ele>
        <time>2015-03-17T11:35:41Z</time>
      </trkpt>
      <trkpt lat="45.722" lon="6.71736">
        <ele>2447.17</ele>
        <time>2015-03-17T11:36:11Z</time>
      </trkpt>
      <trkpt lat="45.72203" lon="6.71735">
        <ele>2448.13</ele>
        <time>2015-03-17T11:36:41Z</time>
      </trkpt>
      <trkpt lat="45.72204" lon="6.71735">
        <ele>2449.1</ele>
        <time>2015-03-17T11:37:11Z</time>
      </trkpt>
      <trkpt lat="45.72203" lon="6.71735">
        <ele>2448.62</ele>
        <time>2015-03-17T11:37:41Z</time>
      </trkpt>
      <trkpt lat="45.72201" lon="6.71733">
        <ele>2445.73</ele>
        <time>2015-03-17T11:38:11Z</time>
      </trkpt>
      <trkpt lat="45.72202" lon="6.71732">
        <ele>2449.1</ele>
        <time>2015-03-17T11:38:41Z</time>
      </trkpt>
      <trkpt lat="45.722" lon="6.71732">
        <ele>2447.65</ele>
        <time>2015-03-17T11:39:11Z</time>
      </trkpt>
      <trkpt lat="45.72198" lon="6.71732">
        <ele>2446.21</ele>
        <time>2015-03-17T11:39:41Z</time>
      </trkpt>
      <trkpt lat="45.722" lon="6.71732">
        <ele>2447.65</ele>
        <time>2015-03-17T11:40:11Z</time>
      </trkpt>
      <trkpt lat="45.72199" lon="6.71732">
        <ele>2448.13</ele>
        <time>2015-03-17T11:40:41Z</time>
      </trkpt>
      <trkpt lat="45.72199" lon="6.71734">
        <ele>2447.17</ele>
        <time>2015-03-17T11:41:11Z</time>
      </trkpt>
      <trkpt lat="45.72198" lon="6.71736">
        <ele>2447.65</ele>
        <time>2015-03-17T11:41:41Z</time>
      </trkpt>
      <trkpt lat="45.72198" lon="6.71737">
        <ele>2447.17</ele>
        <time>2015-03-17T11:42:11Z</time>
      </trkpt>
      <trkpt lat="45.72196" lon="6.71737">
        <ele>2444.77</ele>
        <time>2015-03-17T11:42:41Z</time>
      </trkpt>
      <trkpt lat="45.72193" lon="6.71738">
        <ele>2444.29</ele>
        <time>2015-03-17T11:43:11Z</time>
      </trkpt>
      <trkpt lat="45.72191" lon="6.7174">
        <ele>2445.25</ele>
        <time>2015-03-17T11:43:41Z</time>
      </trkpt>
      <trkpt lat="45.7219" lon="6.71739">
        <ele>2445.25</ele>
        <time>2015-03-17T11:44:11Z</time>
      </trkpt>
      <trkpt lat="45.72189" lon="6.71738">
        <ele>2444.77</ele>
        <time>2015-03-17T11:44:41Z</time>
      </trkpt>
      <trkpt lat="45.72187" lon="6.71737">
        <ele>2446.21</ele>
        <time>2015-03-17T11:45:11Z</time>
      </trkpt>
      <trkpt lat="45.72199" lon="6.71732">
        <ele>2445.25</ele>
        <time>2015-03-17T11:45:41Z</time>
      </trkpt>
      <trkpt lat="45.722" lon="6.71733">
        <ele>2445.73</ele>
        <time>2015-03-17T11:46:11Z</time>
      </trkpt>
      <trkpt lat="45.72197" lon="6.71733">
        <ele>2445.25</ele>
        <time>2015-03-17T11:46:41Z</time>
      </trkpt>
      <trkpt lat="45.72196" lon="6.71735">
        <ele>2443.81</ele>
        <time>2015-03-17T11:47:11Z</time>
      </trkpt>
      <trkpt lat="45.72194" lon="6.71735">
        <ele>2445.25</ele>
        <time>2015-03-17T11:47:41Z</time>
      </trkpt>
      <trkpt lat="45.72191" lon="6.71734">
        <ele>2446.21</ele>
        <time>2015-03-17T11:48:11Z</time>
      </trkpt>
      <trkpt lat="45.72194" lon="6.7173">
        <ele>2445.73</ele>
        <time>2015-03-17T11:48:41Z</time>
      </trkpt>
      <trkpt lat="45.72195" lon="6.71733">
        <ele>2446.21</ele>
        <time>2015-03-17T11:49:11Z</time>
      </trkpt>
      <trkpt lat="45.72197" lon="6.71733">
        <ele>2444.29</ele>
        <time>2015-03-17T11:49:41Z</time>
      </trkpt>
      <trkpt lat="45.72199" lon="6.71734">
        <ele>2445.25</ele>
        <time>2015-03-17T11:50:11Z</time>
      </trkpt>
      <trkpt lat="45.72201" lon="6.71734">
        <ele>2445.73</ele>
        <time>2015-03-17T11:50:41Z</time>
      </trkpt>
      <trkpt lat="45.72201" lon="6.71734">
        <ele>2443.81</ele>
        <time>2015-03-17T11:51:11Z</time>
      </trkpt>
      <trkpt lat="45.722" lon="6.71734">
        <ele>2442.85</ele>
        <time>2015-03-17T11:51:41Z</time>
      </trkpt>
      <trkpt lat="45.722" lon="6.71734">
        <ele>2443.33</ele>
        <time>2015-03-17T11:52:11Z</time>
      </trkpt>
      <trkpt lat="45.72201" lon="6.71733">
        <ele>2443.33</ele>
        <time>2015-03-17T11:52:41Z</time>
      </trkpt>
      <trkpt lat="45.722" lon="6.71735">
        <ele>2442.85</ele>
        <time>2015-03-17T11:53:11Z</time>
      </trkpt>
      <trkpt lat="45.72201" lon="6.71734">
        <ele>2445.25</ele>
        <time>2015-03-17T11:53:41Z</time>
      </trkpt>
      <trkpt lat="45.722" lon="6.71734">
        <ele>2443.81</ele>
        <time>2015-03-17T11:54:11Z</time>
      </trkpt>
      <trkpt lat="45.72195" lon="6.71732">
        <ele>2442.37</ele>
        <time>2015-03-17T11:54:41Z</time>
      </trkpt>
      <trkpt lat="45.72195" lon="6.71732">
        <ele>2444.77</ele>
        <time>2015-03-17T11:55:11Z</time>
      </trkpt>
      <trkpt lat="45.72195" lon="6.71734">
        <ele>2443.33</ele>
        <time>2015-03-17T11:55:41Z</time>
      </trkpt>
      <trkpt lat="45.72197" lon="6.71734">
        <ele>2442.85</ele>
        <time>2015-03-17T11:56:11Z</time>
      </trkpt>
      <trkpt lat="45.72199" lon="6.71735">
        <ele>2442.85</ele>
        <time>2015-03-17T11:56:41Z</time>
      </trkpt>
      <trkpt lat="45.72199" lon="6.71738">
        <ele>2444.77</ele>
        <time>2015-03-17T11:57:11Z</time>
      </trkpt>
      <trkpt lat="45.72197" lon="6.71738">
        <ele>2445.73</ele>
        <time>2015-03-17T11:57:41Z</time>
      </trkpt>
      <trkpt lat="45.722" lon="6.71737">
        <ele>2446.21</ele>
        <time>2015-03-17T11:58:11Z</time>
      </trkpt>
      <trkpt lat="45.72201" lon="6.71731">
        <ele>2445.73</ele>
        <time>2015-03-17T11:58:41Z</time>
      </trkpt>
      <trkpt lat="45.72201" lon="6.7173">
        <ele>2445.73</ele>
        <time>2015-03-17T11:58:44Z</time>
      </trkpt>
      <trkpt lat="45.72199" lon="6.71739">
        <ele>2427.95</ele>
        <time>2015-03-17T16:11:30Z</time>
      </trkpt>
      <trkpt lat="45.72198" lon="6.71754">
        <ele>2427.95</ele>
        <time>2015-03-17T16:12:00Z</time>
      </trkpt>
      <trkpt lat="45.72197" lon="6.71759">
        <ele>2427.95</ele>
        <time>2015-03-17T16:12:30Z</time>
      </trkpt>
      <trkpt lat="45.72193" lon="6.71757">
        <ele>2426.99</ele>
        <time>2015-03-17T16:13:00Z</time>
      </trkpt>
      <trkpt lat="45.72188" lon="6.71749">
        <ele>2427.95</ele>
        <time>2015-03-17T16:13:30Z</time>
      </trkpt>
      <trkpt lat="45.7219" lon="6.71742">
        <ele>2427.95</ele>
        <time>2015-03-17T16:14:00Z</time>
      </trkpt>
      <trkpt lat="45.72192" lon="6.71749">
        <ele>2428.91</ele>
        <time>2015-03-17T16:14:30Z</time>
      </trkpt>
      <trkpt lat="45.72192" lon="6.71751">
        <ele>2429.39</ele>
        <time>2015-03-17T16:14:59Z</time>
      </trkpt>
      <trkpt lat="45.72193" lon="6.71752">
        <ele>2429.39</ele>
        <time>2015-03-17T16:15:30Z</time>
      </trkpt>
      <trkpt lat="45.72193" lon="6.71763">
        <ele>2427.47</ele>
        <time>2015-03-17T16:15:43Z</time>
      </trkpt>
      <trkpt lat="45.72203" lon="6.7174">
        <ele>2427.47</ele>
        <time>2015-03-17T16:23:00Z</time>
      </trkpt>
      <trkpt lat="45.72201" lon="6.71738">
        <ele>2426.99</ele>
        <time>2015-03-17T16:23:30Z</time>
      </trkpt>
      <trkpt lat="45.72202" lon="6.71733">
        <ele>2427.95</ele>
        <time>2015-03-17T16:24:00Z</time>
      </trkpt>
      <trkpt lat="45.72201" lon="6.71742">
        <ele>2428.91</ele>
        <time>2015-03-17T16:24:30Z</time>
      </trkpt>
      <trkpt lat="45.72201" lon="6.71747">
        <ele>2427.47</ele>
        <time>2015-03-17T16:25:00Z</time>
      </trkpt>
      <trkpt lat="45.722" lon="6.71749">
        <ele>2429.39</ele>
        <time>2015-03-17T16:25:30Z</time>
      </trkpt>
      <trkpt lat="45.72207" lon="6.71741">
        <ele>2427.95</ele>
        <time>2015-03-17T16:26:00Z</time>
      </trkpt>
      <trkpt lat="45.72204" lon="6.71738">
        <ele>2428.91</ele>
        <time>2015-03-17T16:26:30Z</time>
      </trkpt>
      <trkpt lat="45.72211" lon="6.71739">
        <ele>2428.43</ele>
        <time>2015-03-17T16:26:59Z</time>
      </trkpt>
      <trkpt lat="45.72202" lon="6.71739">
        <ele>2428.91</ele>
        <time>2015-03-17T16:27:29Z</time>
      </trkpt>
      <trkpt lat="45.72202" lon="6.71737">
        <ele>2428.91</ele>
        <time>2015-03-17T16:27:59Z</time>
      </trkpt>
      <trkpt lat="45.72207" lon="6.71731">
        <ele>2428.91</ele>
        <time>2015-03-17T16:28:29Z</time>
      </trkpt>
      <trkpt lat="45.72201" lon="6.71734">
        <ele>2431.31</ele>
        <time>2015-03-17T16:28:59Z</time>
      </trkpt>
      <trkpt lat="45.72206" lon="6.71751">
        <ele>2420.26</ele>
        <time>2015-03-17T16:29:29Z</time>
      </trkpt>
      <trkpt lat="45.7221" lon="6.71757">
        <ele>2427.95</ele>
        <time>2015-03-17T16:29:59Z</time>
      </trkpt>
      <trkpt lat="45.72206" lon="6.71751">
        <ele>2415.45</ele>
        <time>2015-03-17T16:30:29Z</time>
      </trkpt>
      <trkpt lat="45.72205" lon="6.7174">
        <ele>2428.91</ele>
        <time>2015-03-17T16:30:59Z</time>
      </trkpt>
      <trkpt lat="45.72199" lon="6.71744">
        <ele>2428.91</ele>
        <time>2015-03-17T16:31:29Z</time>
      </trkpt>
      <trkpt lat="45.72197" lon="6.71744">
        <ele>2428.91</ele>
        <time>2015-03-17T16:31:59Z</time>
      </trkpt>
      <trkpt lat="45.72199" lon="6.71742">
        <ele>2428.43</ele>
        <time>2015-03-17T16:32:29Z</time>
      </trkpt>
      <trkpt lat="45.72198" lon="6.71744">
        <ele>2430.35</ele>
        <time>2015-03-17T16:32:59Z</time>
      </trkpt>
      <trkpt lat="45.72201" lon="6.71737">
        <ele>2430.35</ele>
        <time>2015-03-17T16:33:29Z</time>
      </trkpt>
      <trkpt lat="45.72203" lon="6.71736">
        <ele>2429.39</ele>
        <time>2015-03-17T16:33:59Z</time>
      </trkpt>
      <trkpt lat="45.72198" lon="6.71745">
        <ele>2428.91</ele>
        <time>2015-03-17T16:34:29Z</time>
      </trkpt>
      <trkpt lat="45.72201" lon="6.71737">
        <ele>2427.95</ele>
        <time>2015-03-17T16:34:59Z</time>
      </trkpt>
      <trkpt lat="45.72203" lon="6.71738">
        <ele>2429.39</ele>
        <time>2015-03-17T16:35:29Z</time>
      </trkpt>
      <trkpt lat="45.72216" lon="6.71737">
        <ele>2431.31</ele>
        <time>2015-03-17T16:35:59Z</time>
      </trkpt>
      <trkpt lat="45.72205" lon="6.71732">
        <ele>2430.83</ele>
        <time>2015-03-17T16:36:29Z</time>
      </trkpt>
      <trkpt lat="45.72199" lon="6.71736">
        <ele>2430.35</ele>
        <time>2015-03-17T16:36:59Z</time>
      </trkpt>
      <trkpt lat="45.72204" lon="6.71743">
        <ele>2430.83</ele>
        <time>2015-03-17T16:37:29Z</time>
      </trkpt>
      <trkpt lat="45.72199" lon="6.71744">
        <ele>2430.35</ele>
        <time>2015-03-17T16:37:59Z</time>
      </trkpt>
      <trkpt lat="45.72203" lon="6.71737">
        <ele>2430.35</ele>
        <time>2015-03-17T16:38:29Z</time>
      </trkpt>
      <trkpt lat="45.72197" lon="6.71734">
        <ele>2430.35</ele>
        <time>2015-03-17T16:38:59Z</time>
      </trkpt>
      <trkpt lat="45.72207" lon="6.71728">
        <ele>2432.27</ele>
        <time>2015-03-17T16:39:29Z</time>
      </trkpt>
      <trkpt lat="45.72228" lon="6.71724">
        <ele>2437.08</ele>
        <time>2015-03-17T16:39:59Z</time>
      </trkpt>
      <trkpt lat="45.72244" lon="6.71726">
        <ele>2439.96</ele>
        <time>2015-03-17T16:40:29Z</time>
      </trkpt>
      <trkpt lat="45.72265" lon="6.71726">
        <ele>2447.65</ele>
        <time>2015-03-17T16:40:59Z</time>
      </trkpt>
      <trkpt lat="45.72284" lon="6.71723">
        <ele>2455.34</ele>
        <time>2015-03-17T16:41:29Z</time>
      </trkpt>
      <trkpt lat="45.72302" lon="6.71729">
        <ele>2459.19</ele>
        <time>2015-03-17T16:41:59Z</time>
      </trkpt>
      <trkpt lat="45.72309" lon="6.71732">
        <ele>2459.19</ele>
        <time>2015-03-17T16:42:29Z</time>
      </trkpt>
      <trkpt lat="45.7231" lon="6.71732">
        <ele>2471.69</ele>
        <time>2015-03-17T16:42:59Z</time>
      </trkpt>
      <trkpt lat="45.72322" lon="6.7173">
        <ele>2465.44</ele>
        <time>2015-03-17T16:43:29Z</time>
      </trkpt>
      <trkpt lat="45.7235" lon="6.71731">
        <ele>2468.8</ele>
        <time>2015-03-17T16:43:59Z</time>
      </trkpt>
      <trkpt lat="45.7238" lon="6.71726">
        <ele>2470.73</ele>
        <time>2015-03-17T16:44:29Z</time>
      </trkpt>
      <trkpt lat="45.72408" lon="6.71717">
        <ele>2471.69</ele>
        <time>2015-03-17T16:44:59Z</time>
      </trkpt>
      <trkpt lat="45.72429" lon="6.71701">
        <ele>2479.86</ele>
        <time>2015-03-17T16:45:29Z</time>
      </trkpt>
      <trkpt lat="45.72448" lon="6.71689">
        <ele>2485.15</ele>
        <time>2015-03-17T16:45:59Z</time>
      </trkpt>
      <trkpt lat="45.72456" lon="6.71693">
        <ele>2484.66</ele>
        <time>2015-03-17T16:46:29Z</time>
      </trkpt>
      <trkpt lat="45.72455" lon="6.71696">
        <ele>2485.63</ele>
        <time>2015-03-17T16:46:59Z</time>
      </trkpt>
      <trkpt lat="45.72458" lon="6.71691">
        <ele>2476.97</ele>
        <time>2015-03-17T16:47:29Z</time>
      </trkpt>
      <trkpt lat="45.72461" lon="6.71695">
        <ele>2483.22</ele>
        <time>2015-03-17T16:47:59Z</time>
      </trkpt>
      <trkpt lat="45.72474" lon="6.71724">
        <ele>2484.66</ele>
        <time>2015-03-17T16:48:29Z</time>
      </trkpt>
      <trkpt lat="45.72477" lon="6.7173">
        <ele>2488.51</ele>
        <time>2015-03-17T16:48:59Z</time>
      </trkpt>
      <trkpt lat="45.72483" lon="6.7175">
        <ele>2488.03</ele>
        <time>2015-03-17T16:49:29Z</time>
      </trkpt>
      <trkpt lat="45.72496" lon="6.71776">
        <ele>2495.24</ele>
        <time>2015-03-17T16:49:59Z</time>
      </trkpt>
      <trkpt lat="45.72509" lon="6.71796">
        <ele>2500.05</ele>
        <time>2015-03-17T16:50:29Z</time>
      </trkpt>
      <trkpt lat="45.72528" lon="6.71811">
        <ele>2503.41</ele>
        <time>2015-03-17T16:50:59Z</time>
      </trkpt>
      <trkpt lat="45.72544" lon="6.71835">
        <ele>2505.33</ele>
        <time>2015-03-17T16:51:29Z</time>
      </trkpt>
      <trkpt lat="45.72561" lon="6.71858">
        <ele>2511.58</ele>
        <time>2015-03-17T16:51:59Z</time>
      </trkpt>
      <trkpt lat="45.72565" lon="6.71889">
        <ele>2516.39</ele>
        <time>2015-03-17T16:52:29Z</time>
      </trkpt>
      <trkpt lat="45.72564" lon="6.71918">
        <ele>2529.37</ele>
        <time>2015-03-17T16:52:59Z</time>
      </trkpt>
      <trkpt lat="45.72569" lon="6.71943">
        <ele>2529.85</ele>
        <time>2015-03-17T16:53:29Z</time>
      </trkpt>
      <trkpt lat="45.72584" lon="6.71929">
        <ele>2539.94</ele>
        <time>2015-03-17T16:53:59Z</time>
      </trkpt>
      <trkpt lat="45.72602" lon="6.7192">
        <ele>2546.19</ele>
        <time>2015-03-17T16:54:29Z</time>
      </trkpt>
      <trkpt lat="45.72605" lon="6.71938">
        <ele>2541.38</ele>
        <time>2015-03-17T16:54:59Z</time>
      </trkpt>
      <trkpt lat="45.72605" lon="6.71937">
        <ele>2540.9</ele>
        <time>2015-03-17T16:55:29Z</time>
      </trkpt>
      <trkpt lat="45.72606" lon="6.71938">
        <ele>2538.5</ele>
        <time>2015-03-17T16:55:59Z</time>
      </trkpt>
      <trkpt lat="45.72607" lon="6.71936">
        <ele>2543.31</ele>
        <time>2015-03-17T16:56:29Z</time>
      </trkpt>
      <trkpt lat="45.72608" lon="6.71941">
        <ele>2552.92</ele>
        <time>2015-03-17T16:56:59Z</time>
      </trkpt>
      <trkpt lat="45.72637" lon="6.71964">
        <ele>2545.23</ele>
        <time>2015-03-17T16:57:29Z</time>
      </trkpt>
      <trkpt lat="45.7266" lon="6.7199">
        <ele>2548.11</ele>
        <time>2015-03-17T16:57:59Z</time>
      </trkpt>
      <trkpt lat="45.72677" lon="6.72009">
        <ele>2555.32</ele>
        <time>2015-03-17T16:58:29Z</time>
      </trkpt>
      <trkpt lat="45.72681" lon="6.72027">
        <ele>2543.31</ele>
        <time>2015-03-17T16:58:59Z</time>
      </trkpt>
      <trkpt lat="45.72681" lon="6.72032">
        <ele>2556.76</ele>
        <time>2015-03-17T16:59:29Z</time>
      </trkpt>
      <trkpt lat="45.7268" lon="6.72032">
        <ele>2559.65</ele>
        <time>2015-03-17T16:59:59Z</time>
      </trkpt>
      <trkpt lat="45.72681" lon="6.72031">
        <ele>2559.65</ele>
        <time>2015-03-17T17:00:29Z</time>
      </trkpt>
      <trkpt lat="45.72705" lon="6.72045">
        <ele>2564.93</ele>
        <time>2015-03-17T17:00:59Z</time>
      </trkpt>
      <trkpt lat="45.72727" lon="6.72065">
        <ele>2569.74</ele>
        <time>2015-03-17T17:01:29Z</time>
      </trkpt>
      <trkpt lat="45.72739" lon="6.72097">
        <ele>2574.07</ele>
        <time>2015-03-17T17:01:59Z</time>
      </trkpt>
      <trkpt lat="45.72753" lon="6.72131">
        <ele>2581.28</ele>
        <time>2015-03-17T17:02:29Z</time>
      </trkpt>
      <trkpt lat="45.72761" lon="6.72142">
        <ele>2578.87</ele>
        <time>2015-03-17T17:02:59Z</time>
      </trkpt>
      <trkpt lat="45.72758" lon="6.72143">
        <ele>2578.39</ele>
        <time>2015-03-17T17:03:29Z</time>
      </trkpt>
      <trkpt lat="45.72773" lon="6.72153">
        <ele>2586.08</ele>
        <time>2015-03-17T17:03:59Z</time>
      </trkpt>
      <trkpt lat="45.72799" lon="6.7216">
        <ele>2590.89</ele>
        <time>2015-03-17T17:04:29Z</time>
      </trkpt>
      <trkpt lat="45.72823" lon="6.72173">
        <ele>2600.02</ele>
        <time>2015-03-17T17:04:59Z</time>
      </trkpt>
      <trkpt lat="45.72847" lon="6.72195">
        <ele>2598.1</ele>
        <time>2015-03-17T17:05:29Z</time>
      </trkpt>
      <trkpt lat="45.72867" lon="6.72196">
        <ele>2602.91</ele>
        <time>2015-03-17T17:05:59Z</time>
      </trkpt>
      <trkpt lat="45.72878" lon="6.72203">
        <ele>2609.16</ele>
        <time>2015-03-17T17:06:29Z</time>
      </trkpt>
      <trkpt lat="45.72896" lon="6.72223">
        <ele>2613</ele>
        <time>2015-03-17T17:06:59Z</time>
      </trkpt>
      <trkpt lat="45.72912" lon="6.72244">
        <ele>2618.77</ele>
        <time>2015-03-17T17:07:29Z</time>
      </trkpt>
      <trkpt lat="45.72934" lon="6.72257">
        <ele>2622.13</ele>
        <time>2015-03-17T17:07:59Z</time>
      </trkpt>
      <trkpt lat="45.72955" lon="6.72269">
        <ele>2625.02</ele>
        <time>2015-03-17T17:08:29Z</time>
      </trkpt>
      <trkpt lat="45.7298" lon="6.72283">
        <ele>2629.82</ele>
        <time>2015-03-17T17:08:59Z</time>
      </trkpt>
      <trkpt lat="45.73004" lon="6.72299">
        <ele>2634.63</ele>
        <time>2015-03-17T17:09:29Z</time>
      </trkpt>
      <trkpt lat="45.73026" lon="6.72312">
        <ele>2639.92</ele>
        <time>2015-03-17T17:09:59Z</time>
      </trkpt>
      <trkpt lat="45.73049" lon="6.72325">
        <ele>2641.36</ele>
        <time>2015-03-17T17:10:29Z</time>
      </trkpt>
      <trkpt lat="45.73073" lon="6.72338">
        <ele>2646.65</ele>
        <time>2015-03-17T17:10:59Z</time>
      </trkpt>
      <trkpt lat="45.73079" lon="6.7234">
        <ele>2645.21</ele>
        <time>2015-03-17T17:11:29Z</time>
      </trkpt>
      <trkpt lat="45.73091" lon="6.72346">
        <ele>2646.65</ele>
        <time>2015-03-17T17:11:59Z</time>
      </trkpt>
      <trkpt lat="45.73113" lon="6.7234">
        <ele>2652.9</ele>
        <time>2015-03-17T17:12:29Z</time>
      </trkpt>
      <trkpt lat="45.73137" lon="6.7234">
        <ele>2655.3</ele>
        <time>2015-03-17T17:12:59Z</time>
      </trkpt>
      <trkpt lat="45.73164" lon="6.72353">
        <ele>2659.14</ele>
        <time>2015-03-17T17:13:29Z</time>
      </trkpt>
      <trkpt lat="45.73181" lon="6.72375">
        <ele>2666.83</ele>
        <time>2015-03-17T17:13:59Z</time>
      </trkpt>
      <trkpt lat="45.732" lon="6.72393">
        <ele>2670.68</ele>
        <time>2015-03-17T17:14:29Z</time>
      </trkpt>
      <trkpt lat="45.73218" lon="6.72396">
        <ele>2676.93</ele>
        <time>2015-03-17T17:14:59Z</time>
      </trkpt>
      <trkpt lat="45.73224" lon="6.72387">
        <ele>2681.25</ele>
        <time>2015-03-17T17:15:29Z</time>
      </trkpt>
      <trkpt lat="45.73252" lon="6.72378">
        <ele>2683.66</ele>
        <time>2015-03-17T17:15:59Z</time>
      </trkpt>
      <trkpt lat="45.73272" lon="6.72374">
        <ele>2691.35</ele>
        <time>2015-03-17T17:16:29Z</time>
      </trkpt>
      <trkpt lat="45.73282" lon="6.72354">
        <ele>2699.04</ele>
        <time>2015-03-17T17:16:59Z</time>
      </trkpt>
      <trkpt lat="45.73294" lon="6.72324">
        <ele>2697.6</ele>
        <time>2015-03-17T17:17:29Z</time>
      </trkpt>
      <trkpt lat="45.73309" lon="6.72313">
        <ele>2696.15</ele>
        <time>2015-03-17T17:17:59Z</time>
      </trkpt>
      <trkpt lat="45.73333" lon="6.72318">
        <ele>2700.96</ele>
        <time>2015-03-17T17:18:29Z</time>
      </trkpt>
      <trkpt lat="45.73353" lon="6.72332">
        <ele>2700.48</ele>
        <time>2015-03-17T17:18:59Z</time>
      </trkpt>
      <trkpt lat="45.73375" lon="6.72345">
        <ele>2705.77</ele>
        <time>2015-03-17T17:19:29Z</time>
      </trkpt>
      <trkpt lat="45.73392" lon="6.72361">
        <ele>2703.36</ele>
        <time>2015-03-17T17:19:59Z</time>
      </trkpt>
      <trkpt lat="45.73399" lon="6.72386">
        <ele>2709.13</ele>
        <time>2015-03-17T17:20:29Z</time>
      </trkpt>
      <trkpt lat="45.73409" lon="6.7241">
        <ele>2715.86</ele>
        <time>2015-03-17T17:20:59Z</time>
      </trkpt>
      <trkpt lat="45.73427" lon="6.72422">
        <ele>2715.86</ele>
        <time>2015-03-17T17:21:29Z</time>
      </trkpt>
      <trkpt lat="45.7345" lon="6.72441">
        <ele>2716.82</ele>
        <time>2015-03-17T17:21:59Z</time>
      </trkpt>
      <trkpt lat="45.73466" lon="6.72463">
        <ele>2718.27</ele>
        <time>2015-03-17T17:22:29Z</time>
      </trkpt>
      <trkpt lat="45.73481" lon="6.72491">
        <ele>2722.11</ele>
        <time>2015-03-17T17:22:59Z</time>
      </trkpt>
      <trkpt lat="45.73488" lon="6.72514">
        <ele>2727.4</ele>
        <time>2015-03-17T17:23:29Z</time>
      </trkpt>
      <trkpt lat="45.73491" lon="6.72524">
        <ele>2726.92</ele>
        <time>2015-03-17T17:23:59Z</time>
      </trkpt>
      <trkpt lat="45.73504" lon="6.7254">
        <ele>2736.53</ele>
        <time>2015-03-17T17:24:29Z</time>
      </trkpt>
      <trkpt lat="45.73521" lon="6.72555">
        <ele>2741.82</ele>
        <time>2015-03-17T17:24:59Z</time>
      </trkpt>
      <trkpt lat="45.73532" lon="6.72575">
        <ele>2745.18</ele>
        <time>2015-03-17T17:25:29Z</time>
      </trkpt>
      <trkpt lat="45.73546" lon="6.72592">
        <ele>2748.55</ele>
        <time>2015-03-17T17:25:59Z</time>
      </trkpt>
      <trkpt lat="45.73556" lon="6.72603">
        <ele>2750.47</ele>
        <time>2015-03-17T17:26:29Z</time>
      </trkpt>
      <trkpt lat="45.73552" lon="6.72601">
        <ele>2760.08</ele>
        <time>2015-03-17T17:26:59Z</time>
      </trkpt>
      <trkpt lat="45.73558" lon="6.72611">
        <ele>2759.12</ele>
        <time>2015-03-17T17:27:29Z</time>
      </trkpt>
      <trkpt lat="45.73556" lon="6.72614">
        <ele>2753.83</ele>
        <time>2015-03-17T17:27:59Z</time>
      </trkpt>
      <trkpt lat="45.73556" lon="6.7261">
        <ele>2759.6</ele>
        <time>2015-03-17T17:28:29Z</time>
      </trkpt>
      <trkpt lat="45.73553" lon="6.72607">
        <ele>2755.76</ele>
        <time>2015-03-17T17:28:59Z</time>
      </trkpt>
      <trkpt lat="45.73552" lon="6.72608">
        <ele>2759.12</ele>
        <time>2015-03-17T17:29:29Z</time>
      </trkpt>
      <trkpt lat="45.73552" lon="6.72604">
        <ele>2756.24</ele>
        <time>2015-03-17T17:29:59Z</time>
      </trkpt>
      <trkpt lat="45.73553" lon="6.72607">
        <ele>2758.64</ele>
        <time>2015-03-17T17:30:29Z</time>
      </trkpt>
      <trkpt lat="45.73552" lon="6.72607">
        <ele>2758.16</ele>
        <time>2015-03-17T17:30:59Z</time>
      </trkpt>
      <trkpt lat="45.73553" lon="6.72609">
        <ele>2761.04</ele>
        <time>2015-03-17T17:31:29Z</time>
      </trkpt>
      <trkpt lat="45.73551" lon="6.72609">
        <ele>2759.12</ele>
        <time>2015-03-17T17:31:59Z</time>
      </trkpt>
      <trkpt lat="45.7355" lon="6.72607">
        <ele>2757.68</ele>
        <time>2015-03-17T17:32:29Z</time>
      </trkpt>
      <trkpt lat="45.73546" lon="6.72602">
        <ele>2758.16</ele>
        <time>2015-03-17T17:32:59Z</time>
      </trkpt>
      <trkpt lat="45.73546" lon="6.72602">
        <ele>2754.8</ele>
        <time>2015-03-17T17:33:29Z</time>
      </trkpt>
      <trkpt lat="45.73546" lon="6.72603">
        <ele>2755.76</ele>
        <time>2015-03-17T17:33:59Z</time>
      </trkpt>
      <trkpt lat="45.73545" lon="6.72603">
        <ele>2754.8</ele>
        <time>2015-03-17T17:34:29Z</time>
      </trkpt>
      <trkpt lat="45.73547" lon="6.72602">
        <ele>2757.2</ele>
        <time>2015-03-17T17:34:59Z</time>
      </trkpt>
      <trkpt lat="45.73548" lon="6.72602">
        <ele>2757.2</ele>
        <time>2015-03-17T17:35:29Z</time>
      </trkpt>
      <trkpt lat="45.73546" lon="6.72603">
        <ele>2759.12</ele>
        <time>2015-03-17T17:35:59Z</time>
      </trkpt>
      <trkpt lat="45.73546" lon="6.72601">
        <ele>2761.04</ele>
        <time>2015-03-17T17:36:29Z</time>
      </trkpt>
      <trkpt lat="45.73545" lon="6.72601">
        <ele>2760.56</ele>
        <time>2015-03-17T17:36:59Z</time>
      </trkpt>
      <trkpt lat="45.73546" lon="6.72601">
        <ele>2759.6</ele>
        <time>2015-03-17T17:37:29Z</time>
      </trkpt>
      <trkpt lat="45.73546" lon="6.726">
        <ele>2758.64</ele>
        <time>2015-03-17T17:37:59Z</time>
      </trkpt>
      <trkpt lat="45.73512" lon="6.72538">
        <ele>2741.82</ele>
        <time>2015-03-17T17:38:29Z</time>
      </trkpt>
      <trkpt lat="45.73432" lon="6.72423">
        <ele>2723.07</ele>
        <time>2015-03-17T17:38:59Z</time>
      </trkpt>
      <trkpt lat="45.73319" lon="6.7229">
        <ele>2702.88</ele>
        <time>2015-03-17T17:39:29Z</time>
      </trkpt>
      <trkpt lat="45.73234" lon="6.72316">
        <ele>2679.81</ele>
        <time>2015-03-17T17:39:59Z</time>
      </trkpt>
      <trkpt lat="45.73123" lon="6.72335">
        <ele>2656.26</ele>
        <time>2015-03-17T17:40:29Z</time>
      </trkpt>
      <trkpt lat="45.72966" lon="6.72262">
        <ele>2626.94</ele>
        <time>2015-03-17T17:40:59Z</time>
      </trkpt>
      <trkpt lat="45.72864" lon="6.72211">
        <ele>2609.16</ele>
        <time>2015-03-17T17:41:29Z</time>
      </trkpt>
      <trkpt lat="45.72863" lon="6.72192">
        <ele>2606.27</ele>
        <time>2015-03-17T17:41:59Z</time>
      </trkpt>
      <trkpt lat="45.72861" lon="6.72193">
        <ele>2607.71</ele>
        <time>2015-03-17T17:42:29Z</time>
      </trkpt>
      <trkpt lat="45.72792" lon="6.72164">
        <ele>2594.74</ele>
        <time>2015-03-17T17:42:59Z</time>
      </trkpt>
      <trkpt lat="45.72729" lon="6.72079">
        <ele>2579.35</ele>
        <time>2015-03-17T17:43:29Z</time>
      </trkpt>
      <trkpt lat="45.72678" lon="6.71986">
        <ele>2558.69</ele>
        <time>2015-03-17T17:43:59Z</time>
      </trkpt>
      <trkpt lat="45.72627" lon="6.71898">
        <ele>2546.19</ele>
        <time>2015-03-17T17:44:29Z</time>
      </trkpt>
      <trkpt lat="45.7252" lon="6.7189">
        <ele>2525.52</ele>
        <time>2015-03-17T17:44:59Z</time>
      </trkpt>
      <trkpt lat="45.72473" lon="6.71813">
        <ele>2513.02</ele>
        <time>2015-03-17T17:45:29Z</time>
      </trkpt>
      <trkpt lat="45.72397" lon="6.71793">
        <ele>2489.95</ele>
        <time>2015-03-17T17:45:59Z</time>
      </trkpt>
      <trkpt lat="45.7228" lon="6.71757">
        <ele>2474.57</ele>
        <time>2015-03-17T17:46:29Z</time>
      </trkpt>
      <trkpt lat="45.72205" lon="6.71757">
        <ele>2447.17</ele>
        <time>2015-03-17T17:46:59Z</time>
      </trkpt>
      <trkpt lat="45.72203" lon="6.71738">
        <ele>2449.1</ele>
        <time>2015-03-17T17:47:29Z</time>
      </trkpt>
      <trkpt lat="45.72204" lon="6.71736">
        <ele>2447.17</ele>
        <time>2015-03-17T17:47:59Z</time>
      </trkpt>
      <trkpt lat="45.72218" lon="6.71722">
        <ele>2448.62</ele>
        <time>2015-03-17T17:48:29Z</time>
      </trkpt>
      <trkpt lat="45.72225" lon="6.71725">
        <ele>2446.69</ele>
        <time>2015-03-17T17:48:38Z</time>
      </trkpt>
      <trkpt lat="45.72223" lon="6.71724">
        <ele>2406.8</ele>
        <time>2015-03-18T06:40:12Z</time>
      </trkpt>
      <trkpt lat="45.72203" lon="6.71737">
        <ele>2406.8</ele>
        <time>2015-03-18T06:40:42Z</time>
      </trkpt>
      <trkpt lat="45.72198" lon="6.71734">
        <ele>2406.8</ele>
        <time>2015-03-18T06:41:12Z</time>
      </trkpt>
      <trkpt lat="45.72198" lon="6.71732">
        <ele>2406.8</ele>
        <time>2015-03-18T06:41:42Z</time>
      </trkpt>
      <trkpt lat="45.72199" lon="6.71731">
        <ele>2406.8</ele>
        <time>2015-03-18T06:42:12Z</time>
      </trkpt>
      <trkpt lat="45.72199" lon="6.71729">
        <ele>2405.36</ele>
        <time>2015-03-18T06:42:42Z</time>
      </trkpt>
      <trkpt lat="45.72199" lon="6.71729">
        <ele>2405.36</ele>
        <time>2015-03-18T06:43:12Z</time>
      </trkpt>
      <trkpt lat="45.722" lon="6.71732">
        <ele>2418.81</ele>
        <time>2015-03-18T06:43:42Z</time>
      </trkpt>
      <trkpt lat="45.722" lon="6.71732">
        <ele>2434.68</ele>
        <time>2015-03-18T06:44:12Z</time>
      </trkpt>
      <trkpt lat="45.72199" lon="6.71731">
        <ele>2437.08</ele>
        <time>2015-03-18T06:44:42Z</time>
      </trkpt>
      <trkpt lat="45.72197" lon="6.71732">
        <ele>2437.08</ele>
        <time>2015-03-18T06:45:12Z</time>
      </trkpt>
      <trkpt lat="45.72197" lon="6.71746">
        <ele>2437.08</ele>
        <time>2015-03-18T06:45:42Z</time>
      </trkpt>
      <trkpt lat="45.72203" lon="6.71731">
        <ele>2437.08</ele>
        <time>2015-03-18T06:46:12Z</time>
      </trkpt>
      <trkpt lat="45.72199" lon="6.71734">
        <ele>2437.08</ele>
        <time>2015-03-18T06:46:42Z</time>
      </trkpt>
      <trkpt lat="45.72193" lon="6.71736">
        <ele>2437.08</ele>
        <time>2015-03-18T06:47:12Z</time>
      </trkpt>
      <trkpt lat="45.72199" lon="6.71732">
        <ele>2437.08</ele>
        <time>2015-03-18T06:47:42Z</time>
      </trkpt>
      <trkpt lat="45.72199" lon="6.71733">
        <ele>2437.08</ele>
        <time>2015-03-18T06:48:12Z</time>
      </trkpt>
      <trkpt lat="45.722" lon="6.71733">
        <ele>2437.08</ele>
        <time>2015-03-18T06:48:42Z</time>
      </trkpt>
      <trkpt lat="45.72199" lon="6.71732">
        <ele>2437.08</ele>
        <time>2015-03-18T06:49:12Z</time>
      </trkpt>
      <trkpt lat="45.72199" lon="6.7173">
        <ele>2437.08</ele>
        <time>2015-03-18T06:49:42Z</time>
      </trkpt>
      <trkpt lat="45.72201" lon="6.71729">
        <ele>2437.08</ele>
        <time>2015-03-18T06:50:12Z</time>
      </trkpt>
      <trkpt lat="45.72199" lon="6.71731">
        <ele>2437.08</ele>
        <time>2015-03-18T06:50:42Z</time>
      </trkpt>
      <trkpt lat="45.72199" lon="6.7173">
        <ele>2437.08</ele>
        <time>2015-03-18T06:51:12Z</time>
      </trkpt>
      <trkpt lat="45.72199" lon="6.71732">
        <ele>2437.08</ele>
        <time>2015-03-18T06:51:42Z</time>
      </trkpt>
      <trkpt lat="45.722" lon="6.71733">
        <ele>2437.08</ele>
        <time>2015-03-18T06:52:12Z</time>
      </trkpt>
      <trkpt lat="45.722" lon="6.71731">
        <ele>2437.08</ele>
        <time>2015-03-18T06:52:42Z</time>
      </trkpt>
      <trkpt lat="45.72198" lon="6.71729">
        <ele>2435.64</ele>
        <time>2015-03-18T06:53:12Z</time>
      </trkpt>
      <trkpt lat="45.72199" lon="6.71731">
        <ele>2436.12</ele>
        <time>2015-03-18T06:53:42Z</time>
      </trkpt>
      <trkpt lat="45.72199" lon="6.71732">
        <ele>2436.12</ele>
        <time>2015-03-18T06:54:12Z</time>
      </trkpt>
      <trkpt lat="45.72198" lon="6.71732">
        <ele>2436.12</ele>
        <time>2015-03-18T06:54:42Z</time>
      </trkpt>
      <trkpt lat="45.72199" lon="6.71733">
        <ele>2436.6</ele>
        <time>2015-03-18T06:55:12Z</time>
      </trkpt>
      <trkpt lat="45.722" lon="6.71731">
        <ele>2436.6</ele>
        <time>2015-03-18T06:55:42Z</time>
      </trkpt>
      <trkpt lat="45.722" lon="6.71733">
        <ele>2436.6</ele>
        <time>2015-03-18T06:56:12Z</time>
      </trkpt>
      <trkpt lat="45.722" lon="6.71734">
        <ele>2436.6</ele>
        <time>2015-03-18T06:56:42Z</time>
      </trkpt>
      <trkpt lat="45.72199" lon="6.71735">
        <ele>2436.6</ele>
        <time>2015-03-18T06:57:12Z</time>
      </trkpt>
      <trkpt lat="45.72199" lon="6.71735">
        <ele>2436.6</ele>
        <time>2015-03-18T06:57:42Z</time>
      </trkpt>
      <trkpt lat="45.72198" lon="6.71734">
        <ele>2436.6</ele>
        <time>2015-03-18T06:58:12Z</time>
      </trkpt>
      <trkpt lat="45.72199" lon="6.71734">
        <ele>2436.6</ele>
        <time>2015-03-18T06:58:42Z</time>
      </trkpt>
      <trkpt lat="45.72198" lon="6.71736">
        <ele>2437.08</ele>
        <time>2015-03-18T06:59:12Z</time>
      </trkpt>
      <trkpt lat="45.72199" lon="6.71738">
        <ele>2437.08</ele>
        <time>2015-03-18T06:59:42Z</time>
      </trkpt>
      <trkpt lat="45.72199" lon="6.71736">
        <ele>2437.08</ele>
        <time>2015-03-18T07:00:12Z</time>
      </trkpt>
      <trkpt lat="45.72198" lon="6.71742">
        <ele>2437.08</ele>
        <time>2015-03-18T07:00:42Z</time>
      </trkpt>
      <trkpt lat="45.72199" lon="6.7174">
        <ele>2437.08</ele>
        <time>2015-03-18T07:01:11Z</time>
      </trkpt>
      <trkpt lat="45.722" lon="6.71737">
        <ele>2437.08</ele>
        <time>2015-03-18T07:01:41Z</time>
      </trkpt>
      <trkpt lat="45.72199" lon="6.71737">
        <ele>2437.08</ele>
        <time>2015-03-18T07:02:12Z</time>
      </trkpt>
      <trkpt lat="45.72195" lon="6.71728">
        <ele>2437.08</ele>
        <time>2015-03-18T07:02:42Z</time>
      </trkpt>
      <trkpt lat="45.72198" lon="6.71733">
        <ele>2437.08</ele>
        <time>2015-03-18T07:03:12Z</time>
      </trkpt>
      <trkpt lat="45.722" lon="6.71731">
        <ele>2437.08</ele>
        <time>2015-03-18T07:03:42Z</time>
      </trkpt>
      <trkpt lat="45.722" lon="6.71732">
        <ele>2437.56</ele>
        <time>2015-03-18T07:04:12Z</time>
      </trkpt>
      <trkpt lat="45.72201" lon="6.7173">
        <ele>2437.56</ele>
        <time>2015-03-18T07:04:42Z</time>
      </trkpt>
      <trkpt lat="45.72201" lon="6.71731">
        <ele>2437.56</ele>
        <time>2015-03-18T07:05:12Z</time>
      </trkpt>
      <trkpt lat="45.72201" lon="6.7173">
        <ele>2437.56</ele>
        <time>2015-03-18T07:05:42Z</time>
      </trkpt>
      <trkpt lat="45.72204" lon="6.71732">
        <ele>2437.56</ele>
        <time>2015-03-18T07:06:12Z</time>
      </trkpt>
      <trkpt lat="45.72202" lon="6.71733">
        <ele>2437.56</ele>
        <time>2015-03-18T07:06:42Z</time>
      </trkpt>
      <trkpt lat="45.72201" lon="6.71733">
        <ele>2437.56</ele>
        <time>2015-03-18T07:07:12Z</time>
      </trkpt>
      <trkpt lat="45.72204" lon="6.71737">
        <ele>2437.56</ele>
        <time>2015-03-18T07:07:42Z</time>
      </trkpt>
      <trkpt lat="45.722" lon="6.71738">
        <ele>2437.56</ele>
        <time>2015-03-18T07:08:12Z</time>
      </trkpt>
      <trkpt lat="45.72205" lon="6.71742">
        <ele>2437.56</ele>
        <time>2015-03-18T07:08:42Z</time>
      </trkpt>
      <trkpt lat="45.72202" lon="6.71734">
        <ele>2437.56</ele>
        <time>2015-03-18T07:09:12Z</time>
      </trkpt>
      <trkpt lat="45.72201" lon="6.71734">
        <ele>2437.56</ele>
        <time>2015-03-18T07:09:42Z</time>
      </trkpt>
      <trkpt lat="45.72201" lon="6.71734">
        <ele>2437.56</ele>
        <time>2015-03-18T07:10:12Z</time>
      </trkpt>
      <trkpt lat="45.722" lon="6.71732">
        <ele>2437.56</ele>
        <time>2015-03-18T07:10:42Z</time>
      </trkpt>
      <trkpt lat="45.72201" lon="6.71734">
        <ele>2437.56</ele>
        <time>2015-03-18T07:11:12Z</time>
      </trkpt>
      <trkpt lat="45.72201" lon="6.7173">
        <ele>2437.56</ele>
        <time>2015-03-18T07:11:42Z</time>
      </trkpt>
      <trkpt lat="45.72199" lon="6.7173">
        <ele>2437.56</ele>
        <time>2015-03-18T07:12:12Z</time>
      </trkpt>
      <trkpt lat="45.72199" lon="6.71733">
        <ele>2438.04</ele>
        <time>2015-03-18T07:12:42Z</time>
      </trkpt>
      <trkpt lat="45.72197" lon="6.71732">
        <ele>2438.04</ele>
        <time>2015-03-18T07:13:12Z</time>
      </trkpt>
      <trkpt lat="45.72199" lon="6.71734">
        <ele>2438.52</ele>
        <time>2015-03-18T07:13:42Z</time>
      </trkpt>
      <trkpt lat="45.722" lon="6.71734">
        <ele>2439</ele>
        <time>2015-03-18T07:14:12Z</time>
      </trkpt>
      <trkpt lat="45.722" lon="6.71734">
        <ele>2439</ele>
        <time>2015-03-18T07:14:42Z</time>
      </trkpt>
      <trkpt lat="45.72199" lon="6.71732">
        <ele>2439.48</ele>
        <time>2015-03-18T07:15:12Z</time>
      </trkpt>
      <trkpt lat="45.722" lon="6.71733">
        <ele>2439.48</ele>
        <time>2015-03-18T07:15:42Z</time>
      </trkpt>
      <trkpt lat="45.722" lon="6.71735">
        <ele>2439.96</ele>
        <time>2015-03-18T07:16:12Z</time>
      </trkpt>
      <trkpt lat="45.72203" lon="6.71736">
        <ele>2440.44</ele>
        <time>2015-03-18T07:16:42Z</time>
      </trkpt>
      <trkpt lat="45.72202" lon="6.71737">
        <ele>2440.92</ele>
        <time>2015-03-18T07:17:12Z</time>
      </trkpt>
      <trkpt lat="45.722" lon="6.71736">
        <ele>2441.41</ele>
        <time>2015-03-18T07:17:42Z</time>
      </trkpt>
      <trkpt lat="45.72205" lon="6.71739">
        <ele>2441.89</ele>
        <time>2015-03-18T07:18:12Z</time>
      </trkpt>
      <trkpt lat="45.722" lon="6.71736">
        <ele>2441.41</ele>
        <time>2015-03-18T07:18:42Z</time>
      </trkpt>
      <trkpt lat="45.72199" lon="6.7174">
        <ele>2441.89</ele>
        <time>2015-03-18T07:19:12Z</time>
      </trkpt>
      <trkpt lat="45.72195" lon="6.71739">
        <ele>2441.41</ele>
        <time>2015-03-18T07:19:42Z</time>
      </trkpt>
      <trkpt lat="45.72192" lon="6.71733">
        <ele>2441.41</ele>
        <time>2015-03-18T07:20:12Z</time>
      </trkpt>
      <trkpt lat="45.72189" lon="6.71734">
        <ele>2441.41</ele>
        <time>2015-03-18T07:20:30Z</time>
      </trkpt>
      <trkpt lat="45.72198" lon="6.71741">
        <ele>2443.81</ele>
        <time>2015-03-18T07:25:07Z</time>
      </trkpt>
      <trkpt lat="45.72202" lon="6.71742">
        <ele>2443.81</ele>
        <time>2015-03-18T07:25:37Z</time>
      </trkpt>
      <trkpt lat="45.72197" lon="6.71726">
        <ele>2443.81</ele>
        <time>2015-03-18T07:26:07Z</time>
      </trkpt>
      <trkpt lat="45.72198" lon="6.71721">
        <ele>2443.81</ele>
        <time>2015-03-18T07:26:37Z</time>
      </trkpt>
      <trkpt lat="45.7221" lon="6.71714">
        <ele>2444.77</ele>
        <time>2015-03-18T07:27:07Z</time>
      </trkpt>
      <trkpt lat="45.7223" lon="6.71708">
        <ele>2449.1</ele>
        <time>2015-03-18T07:27:37Z</time>
      </trkpt>
      <trkpt lat="45.72246" lon="6.71717">
        <ele>2451.98</ele>
        <time>2015-03-18T07:28:07Z</time>
      </trkpt>
      <trkpt lat="45.72262" lon="6.71721">
        <ele>2455.34</ele>
        <time>2015-03-18T07:28:37Z</time>
      </trkpt>
      <trkpt lat="45.72276" lon="6.71716">
        <ele>2459.67</ele>
        <time>2015-03-18T07:29:07Z</time>
      </trkpt>
      <trkpt lat="45.72292" lon="6.71715">
        <ele>2463.52</ele>
        <time>2015-03-18T07:29:37Z</time>
      </trkpt>
      <trkpt lat="45.72307" lon="6.71717">
        <ele>2466.4</ele>
        <time>2015-03-18T07:30:07Z</time>
      </trkpt>
      <trkpt lat="45.72321" lon="6.71724">
        <ele>2470.73</ele>
        <time>2015-03-18T07:30:37Z</time>
      </trkpt>
      <trkpt lat="45.72336" lon="6.71732">
        <ele>2474.09</ele>
        <time>2015-03-18T07:31:07Z</time>
      </trkpt>
      <trkpt lat="45.72349" lon="6.71739">
        <ele>2475.53</ele>
        <time>2015-03-18T07:31:37Z</time>
      </trkpt>
      <trkpt lat="45.72365" lon="6.71745">
        <ele>2477.45</ele>
        <time>2015-03-18T07:32:07Z</time>
      </trkpt>
      <trkpt lat="45.7238" lon="6.71753">
        <ele>2479.86</ele>
        <time>2015-03-18T07:32:37Z</time>
      </trkpt>
      <trkpt lat="45.72395" lon="6.71756">
        <ele>2482.74</ele>
        <time>2015-03-18T07:33:07Z</time>
      </trkpt>
      <trkpt lat="45.7241" lon="6.71758">
        <ele>2486.59</ele>
        <time>2015-03-18T07:33:37Z</time>
      </trkpt>
      <trkpt lat="45.72422" lon="6.71757">
        <ele>2489.95</ele>
        <time>2015-03-18T07:34:07Z</time>
      </trkpt>
      <trkpt lat="45.72434" lon="6.71757">
        <ele>2494.28</ele>
        <time>2015-03-18T07:34:37Z</time>
      </trkpt>
      <trkpt lat="45.72444" lon="6.71767">
        <ele>2498.12</ele>
        <time>2015-03-18T07:35:07Z</time>
      </trkpt>
      <trkpt lat="45.72455" lon="6.71781">
        <ele>2501.01</ele>
        <time>2015-03-18T07:35:37Z</time>
      </trkpt>
      <trkpt lat="45.72463" lon="6.71788">
        <ele>2504.37</ele>
        <time>2015-03-18T07:36:07Z</time>
      </trkpt>
      <trkpt lat="45.72472" lon="6.71791">
        <ele>2507.74</ele>
        <time>2015-03-18T07:36:37Z</time>
      </trkpt>
      <trkpt lat="45.7248" lon="6.71806">
        <ele>2510.62</ele>
        <time>2015-03-18T07:37:07Z</time>
      </trkpt>
      <trkpt lat="45.72479" lon="6.71808">
        <ele>2507.74</ele>
        <time>2015-03-18T07:37:37Z</time>
      </trkpt>
      <trkpt lat="45.72479" lon="6.71808">
        <ele>2507.74</ele>
        <time>2015-03-18T07:38:07Z</time>
      </trkpt>
      <trkpt lat="45.72478" lon="6.71808">
        <ele>2508.22</ele>
        <time>2015-03-18T07:38:37Z</time>
      </trkpt>
      <trkpt lat="45.72478" lon="6.71808">
        <ele>2508.22</ele>
        <time>2015-03-18T07:39:07Z</time>
      </trkpt>
      <trkpt lat="45.72479" lon="6.71809">
        <ele>2509.18</ele>
        <time>2015-03-18T07:39:37Z</time>
      </trkpt>
      <trkpt lat="45.72478" lon="6.71805">
        <ele>2511.1</ele>
        <time>2015-03-18T07:40:07Z</time>
      </trkpt>
      <trkpt lat="45.7248" lon="6.71808">
        <ele>2509.18</ele>
        <time>2015-03-18T07:40:37Z</time>
      </trkpt>
      <trkpt lat="45.7248" lon="6.71807">
        <ele>2509.18</ele>
        <time>2015-03-18T07:41:07Z</time>
      </trkpt>
      <trkpt lat="45.7248" lon="6.71808">
        <ele>2509.18</ele>
        <time>2015-03-18T07:41:37Z</time>
      </trkpt>
      <trkpt lat="45.7248" lon="6.71808">
        <ele>2509.66</ele>
        <time>2015-03-18T07:42:07Z</time>
      </trkpt>
      <trkpt lat="45.7248" lon="6.71807">
        <ele>2509.66</ele>
        <time>2015-03-18T07:42:37Z</time>
      </trkpt>
      <trkpt lat="45.7248" lon="6.71808">
        <ele>2509.66</ele>
        <time>2015-03-18T07:43:07Z</time>
      </trkpt>
      <trkpt lat="45.7248" lon="6.71808">
        <ele>2509.66</ele>
        <time>2015-03-18T07:43:37Z</time>
      </trkpt>
      <trkpt lat="45.7248" lon="6.71809">
        <ele>2509.66</ele>
        <time>2015-03-18T07:44:07Z</time>
      </trkpt>
      <trkpt lat="45.7248" lon="6.71808">
        <ele>2509.66</ele>
        <time>2015-03-18T07:44:37Z</time>
      </trkpt>
      <trkpt lat="45.7248" lon="6.71808">
        <ele>2509.66</ele>
        <time>2015-03-18T07:45:07Z</time>
      </trkpt>
      <trkpt lat="45.72481" lon="6.71806">
        <ele>2512.06</ele>
        <time>2015-03-18T07:45:37Z</time>
      </trkpt>
      <trkpt lat="45.7252" lon="6.71784">
        <ele>2510.14</ele>
        <time>2015-03-18T07:46:07Z</time>
      </trkpt>
      <trkpt lat="45.72574" lon="6.71751">
        <ele>2501.97</ele>
        <time>2015-03-18T07:46:37Z</time>
      </trkpt>
      <trkpt lat="45.72608" lon="6.7159">
        <ele>2494.28</ele>
        <time>2015-03-18T07:47:07Z</time>
      </trkpt>
      <trkpt lat="45.72673" lon="6.71478">
        <ele>2490.43</ele>
        <time>2015-03-18T07:47:37Z</time>
      </trkpt>
      <trkpt lat="45.72759" lon="6.71345">
        <ele>2479.86</ele>
        <time>2015-03-18T07:48:07Z</time>
      </trkpt>
      <trkpt lat="45.728" lon="6.71268">
        <ele>2476.97</ele>
        <time>2015-03-18T07:48:37Z</time>
      </trkpt>
      <trkpt lat="45.72798" lon="6.71267">
        <ele>2476.49</ele>
        <time>2015-03-18T07:49:07Z</time>
      </trkpt>
      <trkpt lat="45.72798" lon="6.71267">
        <ele>2476.49</ele>
        <time>2015-03-18T07:49:37Z</time>
      </trkpt>
      <trkpt lat="45.72796" lon="6.71268">
        <ele>2476.01</ele>
        <time>2015-03-18T07:50:07Z</time>
      </trkpt>
      <trkpt lat="45.72798" lon="6.7127">
        <ele>2476.01</ele>
        <time>2015-03-18T07:50:37Z</time>
      </trkpt>
      <trkpt lat="45.72797" lon="6.71267">
        <ele>2476.01</ele>
        <time>2015-03-18T07:51:07Z</time>
      </trkpt>
      <trkpt lat="45.72798" lon="6.71264">
        <ele>2475.53</ele>
        <time>2015-03-18T07:51:37Z</time>
      </trkpt>
      <trkpt lat="45.72799" lon="6.71264">
        <ele>2476.01</ele>
        <time>2015-03-18T07:52:07Z</time>
      </trkpt>
      <trkpt lat="45.72798" lon="6.71263">
        <ele>2476.01</ele>
        <time>2015-03-18T07:52:37Z</time>
      </trkpt>
      <trkpt lat="45.72798" lon="6.71264">
        <ele>2476.01</ele>
        <time>2015-03-18T07:53:07Z</time>
      </trkpt>
      <trkpt lat="45.72829" lon="6.71243">
        <ele>2474.09</ele>
        <time>2015-03-18T07:53:37Z</time>
      </trkpt>
      <trkpt lat="45.72901" lon="6.71155">
        <ele>2466.4</ele>
        <time>2015-03-18T07:54:07Z</time>
      </trkpt>
      <trkpt lat="45.729" lon="6.71157">
        <ele>2466.88</ele>
        <time>2015-03-18T07:54:37Z</time>
      </trkpt>
      <trkpt lat="45.729" lon="6.71157">
        <ele>2466.88</ele>
        <time>2015-03-18T07:55:07Z</time>
      </trkpt>
      <trkpt lat="45.72899" lon="6.71153">
        <ele>2466.4</ele>
        <time>2015-03-18T07:55:37Z</time>
      </trkpt>
      <trkpt lat="45.729" lon="6.71153">
        <ele>2466.4</ele>
        <time>2015-03-18T07:56:07Z</time>
      </trkpt>
      <trkpt lat="45.72956" lon="6.71122">
        <ele>2460.63</ele>
        <time>2015-03-18T07:56:37Z</time>
      </trkpt>
      <trkpt lat="45.73072" lon="6.71004">
        <ele>2448.13</ele>
        <time>2015-03-18T07:57:07Z</time>
      </trkpt>
      <trkpt lat="45.73096" lon="6.70994">
        <ele>2447.65</ele>
        <time>2015-03-18T07:57:37Z</time>
      </trkpt>
      <trkpt lat="45.73127" lon="6.70946">
        <ele>2441.89</ele>
        <time>2015-03-18T07:58:07Z</time>
      </trkpt>
      <trkpt lat="45.73127" lon="6.70938">
        <ele>2438.04</ele>
        <time>2015-03-18T07:58:37Z</time>
      </trkpt>
      <trkpt lat="45.7314" lon="6.70929">
        <ele>2431.79</ele>
        <time>2015-03-18T07:59:07Z</time>
      </trkpt>
      <trkpt lat="45.7314" lon="6.70929">
        <ele>2432.27</ele>
        <time>2015-03-18T07:59:37Z</time>
      </trkpt>
      <trkpt lat="45.73223" lon="6.7091">
        <ele>2410.16</ele>
        <time>2015-03-18T08:00:07Z</time>
      </trkpt>
      <trkpt lat="45.734" lon="6.70923">
        <ele>2386.61</ele>
        <time>2015-03-18T08:00:37Z</time>
      </trkpt>
      <trkpt lat="45.73462" lon="6.70824">
        <ele>2373.63</ele>
        <time>2015-03-18T08:01:07Z</time>
      </trkpt>
      <trkpt lat="45.73468" lon="6.70824">
        <ele>2372.67</ele>
        <time>2015-03-18T08:01:37Z</time>
      </trkpt>
      <trkpt lat="45.73469" lon="6.70776">
        <ele>2359.69</ele>
        <time>2015-03-18T08:02:07Z</time>
      </trkpt>
      <trkpt lat="45.73481" lon="6.70722">
        <ele>2340.95</ele>
        <time>2015-03-18T08:02:37Z</time>
      </trkpt>
      <trkpt lat="45.73512" lon="6.70645">
        <ele>2334.22</ele>
        <time>2015-03-18T08:03:07Z</time>
      </trkpt>
      <trkpt lat="45.73512" lon="6.70671">
        <ele>2333.74</ele>
        <time>2015-03-18T08:03:37Z</time>
      </trkpt>
      <trkpt lat="45.73518" lon="6.70713">
        <ele>2331.33</ele>
        <time>2015-03-18T08:04:07Z</time>
      </trkpt>
      <trkpt lat="45.73518" lon="6.70712">
        <ele>2331.33</ele>
        <time>2015-03-18T08:04:37Z</time>
      </trkpt>
      <trkpt lat="45.73518" lon="6.70713">
        <ele>2331.33</ele>
        <time>2015-03-18T08:05:07Z</time>
      </trkpt>
      <trkpt lat="45.73596" lon="6.70723">
        <ele>2312.59</ele>
        <time>2015-03-18T08:05:37Z</time>
      </trkpt>
      <trkpt lat="45.73671" lon="6.70763">
        <ele>2285.67</ele>
        <time>2015-03-18T08:06:07Z</time>
      </trkpt>
      <trkpt lat="45.73739" lon="6.70859">
        <ele>2246.74</ele>
        <time>2015-03-18T08:06:37Z</time>
      </trkpt>
      <trkpt lat="45.73743" lon="6.70859">
        <ele>2246.74</ele>
        <time>2015-03-18T08:07:07Z</time>
      </trkpt>
      <trkpt lat="45.73791" lon="6.70928">
        <ele>2225.59</ele>
        <time>2015-03-18T08:07:37Z</time>
      </trkpt>
      <trkpt lat="45.73752" lon="6.70997">
        <ele>2213.57</ele>
        <time>2015-03-18T08:08:07Z</time>
      </trkpt>
      <trkpt lat="45.73799" lon="6.71051">
        <ele>2179.93</ele>
        <time>2015-03-18T08:08:37Z</time>
      </trkpt>
      <trkpt lat="45.73941" lon="6.71274">
        <ele>2144.84</ele>
        <time>2015-03-18T08:09:07Z</time>
      </trkpt>
      <trkpt lat="45.74087" lon="6.71407">
        <ele>2128.98</ele>
        <time>2015-03-18T08:09:37Z</time>
      </trkpt>
      <trkpt lat="45.74164" lon="6.71524">
        <ele>2117.92</ele>
        <time>2015-03-18T08:10:07Z</time>
      </trkpt>
      <trkpt lat="45.74208" lon="6.71554">
        <ele>2105.42</ele>
        <time>2015-03-18T08:10:37Z</time>
      </trkpt>
      <trkpt lat="45.74244" lon="6.71588">
        <ele>2099.18</ele>
        <time>2015-03-18T08:11:07Z</time>
      </trkpt>
      <trkpt lat="45.74244" lon="6.71588">
        <ele>2099.18</ele>
        <time>2015-03-18T08:11:37Z</time>
      </trkpt>
      <trkpt lat="45.74244" lon="6.71589">
        <ele>2099.18</ele>
        <time>2015-03-18T08:12:07Z</time>
      </trkpt>
      <trkpt lat="45.74303" lon="6.71576">
        <ele>2085.72</ele>
        <time>2015-03-18T08:12:37Z</time>
      </trkpt>
      <trkpt lat="45.74424" lon="6.71701">
        <ele>2070.34</ele>
        <time>2015-03-18T08:13:07Z</time>
      </trkpt>
      <trkpt lat="45.74454" lon="6.71727">
        <ele>2068.41</ele>
        <time>2015-03-18T08:13:37Z</time>
      </trkpt>
      <trkpt lat="45.74449" lon="6.71711">
        <ele>2066.97</ele>
        <time>2015-03-18T08:14:07Z</time>
      </trkpt>
      <trkpt lat="45.74505" lon="6.7172">
        <ele>2046.78</ele>
        <time>2015-03-18T08:14:37Z</time>
      </trkpt>
      <trkpt lat="45.74532" lon="6.71753">
        <ele>2040.05</ele>
        <time>2015-03-18T08:15:07Z</time>
      </trkpt>
      <trkpt lat="45.7456" lon="6.71745">
        <ele>2021.31</ele>
        <time>2015-03-18T08:15:37Z</time>
      </trkpt>
      <trkpt lat="45.74593" lon="6.71687">
        <ele>1998.72</ele>
        <time>2015-03-18T08:16:07Z</time>
      </trkpt>
      <trkpt lat="45.74607" lon="6.71677">
        <ele>1990.55</ele>
        <time>2015-03-18T08:16:37Z</time>
      </trkpt>
      <trkpt lat="45.74614" lon="6.71616">
        <ele>1978.05</ele>
        <time>2015-03-18T08:17:07Z</time>
      </trkpt>
      <trkpt lat="45.74665" lon="6.71411">
        <ele>1959.78</ele>
        <time>2015-03-18T08:17:37Z</time>
      </trkpt>
      <trkpt lat="45.74807" lon="6.71345">
        <ele>1950.17</ele>
        <time>2015-03-18T08:18:07Z</time>
      </trkpt>
      <trkpt lat="45.74887" lon="6.71237">
        <ele>1942</ele>
        <time>2015-03-18T08:18:37Z</time>
      </trkpt>
      <trkpt lat="45.74953" lon="6.71167">
        <ele>1939.12</ele>
        <time>2015-03-18T08:19:07Z</time>
      </trkpt>
      <trkpt lat="45.74986" lon="6.71082">
        <ele>1937.19</ele>
        <time>2015-03-18T08:19:37Z</time>
      </trkpt>
      <trkpt lat="45.75023" lon="6.71013">
        <ele>1936.23</ele>
        <time>2015-03-18T08:20:07Z</time>
      </trkpt>
      <trkpt lat="45.75069" lon="6.70977">
        <ele>1932.39</ele>
        <time>2015-03-18T08:20:37Z</time>
      </trkpt>
      <trkpt lat="45.75063" lon="6.70973">
        <ele>1932.39</ele>
        <time>2015-03-18T08:21:07Z</time>
      </trkpt>
      <trkpt lat="45.75063" lon="6.70971">
        <ele>1932.39</ele>
        <time>2015-03-18T08:21:37Z</time>
      </trkpt>
      <trkpt lat="45.75067" lon="6.70976">
        <ele>1932.39</ele>
        <time>2015-03-18T08:22:07Z</time>
      </trkpt>
      <trkpt lat="45.75157" lon="6.7085">
        <ele>1921.81</ele>
        <time>2015-03-18T08:22:37Z</time>
      </trkpt>
      <trkpt lat="45.75243" lon="6.707">
        <ele>1907.39</ele>
        <time>2015-03-18T08:23:07Z</time>
      </trkpt>
      <trkpt lat="45.7533" lon="6.70597">
        <ele>1895.38</ele>
        <time>2015-03-18T08:23:37Z</time>
      </trkpt>
      <trkpt lat="45.75395" lon="6.70475">
        <ele>1885.28</ele>
        <time>2015-03-18T08:24:07Z</time>
      </trkpt>
      <trkpt lat="45.75394" lon="6.70469">
        <ele>1885.28</ele>
        <time>2015-03-18T08:24:37Z</time>
      </trkpt>
      <trkpt lat="45.75416" lon="6.70378">
        <ele>1881.44</ele>
        <time>2015-03-18T08:25:07Z</time>
      </trkpt>
      <trkpt lat="45.75416" lon="6.70377">
        <ele>1880.96</ele>
        <time>2015-03-18T08:25:37Z</time>
      </trkpt>
      <trkpt lat="45.75416" lon="6.70379">
        <ele>1880.96</ele>
        <time>2015-03-18T08:26:07Z</time>
      </trkpt>
      <trkpt lat="45.75422" lon="6.70387">
        <ele>1879.51</ele>
        <time>2015-03-18T08:26:37Z</time>
      </trkpt>
      <trkpt lat="45.75423" lon="6.70384">
        <ele>1880.48</ele>
        <time>2015-03-18T08:27:07Z</time>
      </trkpt>
      <trkpt lat="45.75422" lon="6.70385">
        <ele>1879.03</ele>
        <time>2015-03-18T08:27:37Z</time>
      </trkpt>
      <trkpt lat="45.75421" lon="6.7038">
        <ele>1879.03</ele>
        <time>2015-03-18T08:28:07Z</time>
      </trkpt>
      <trkpt lat="45.75424" lon="6.70383">
        <ele>1879.03</ele>
        <time>2015-03-18T08:28:37Z</time>
      </trkpt>
      <trkpt lat="45.75424" lon="6.70382">
        <ele>1879.03</ele>
        <time>2015-03-18T08:29:07Z</time>
      </trkpt>
      <trkpt lat="45.75422" lon="6.70382">
        <ele>1879.03</ele>
        <time>2015-03-18T08:29:37Z</time>
      </trkpt>
      <trkpt lat="45.75421" lon="6.70385">
        <ele>1879.03</ele>
        <time>2015-03-18T08:30:07Z</time>
      </trkpt>
      <trkpt lat="45.75424" lon="6.70389">
        <ele>1878.55</ele>
        <time>2015-03-18T08:30:37Z</time>
      </trkpt>
      <trkpt lat="45.75419" lon="6.70381">
        <ele>1878.07</ele>
        <time>2015-03-18T08:31:07Z</time>
      </trkpt>
      <trkpt lat="45.75419" lon="6.70381">
        <ele>1878.07</ele>
        <time>2015-03-18T08:31:37Z</time>
      </trkpt>
      <trkpt lat="45.75419" lon="6.70379">
        <ele>1875.19</ele>
        <time>2015-03-18T08:32:07Z</time>
      </trkpt>
      <trkpt lat="45.75416" lon="6.70377">
        <ele>1879.03</ele>
        <time>2015-03-18T08:32:37Z</time>
      </trkpt>
      <trkpt lat="45.7542" lon="6.70381">
        <ele>1879.51</ele>
        <time>2015-03-18T08:33:07Z</time>
      </trkpt>
      <trkpt lat="45.75418" lon="6.7038">
        <ele>1879.03</ele>
        <time>2015-03-18T08:33:37Z</time>
      </trkpt>
      <trkpt lat="45.75416" lon="6.70373">
        <ele>1879.51</ele>
        <time>2015-03-18T08:34:07Z</time>
      </trkpt>
      <trkpt lat="45.75414" lon="6.70374">
        <ele>1879.51</ele>
        <time>2015-03-18T08:34:37Z</time>
      </trkpt>
      <trkpt lat="45.75417" lon="6.70374">
        <ele>1879.51</ele>
        <time>2015-03-18T08:35:07Z</time>
      </trkpt>
      <trkpt lat="45.75418" lon="6.70383">
        <ele>1879.51</ele>
        <time>2015-03-18T08:35:37Z</time>
      </trkpt>
      <trkpt lat="45.7542" lon="6.70378">
        <ele>1879.51</ele>
        <time>2015-03-18T08:36:07Z</time>
      </trkpt>
      <trkpt lat="45.75421" lon="6.70381">
        <ele>1879.51</ele>
        <time>2015-03-18T08:36:37Z</time>
      </trkpt>
      <trkpt lat="45.7542" lon="6.70381">
        <ele>1879.51</ele>
        <time>2015-03-18T08:37:07Z</time>
      </trkpt>
      <trkpt lat="45.75417" lon="6.7038">
        <ele>1880</ele>
        <time>2015-03-18T08:37:37Z</time>
      </trkpt>
      <trkpt lat="45.75414" lon="6.70371">
        <ele>1880.96</ele>
        <time>2015-03-18T08:38:07Z</time>
      </trkpt>
      <trkpt lat="45.75416" lon="6.70355">
        <ele>1884.32</ele>
        <time>2015-03-18T08:38:37Z</time>
      </trkpt>
      <trkpt lat="45.75417" lon="6.70335">
        <ele>1889.13</ele>
        <time>2015-03-18T08:39:07Z</time>
      </trkpt>
      <trkpt lat="45.75416" lon="6.70314">
        <ele>1892.97</ele>
        <time>2015-03-18T08:39:37Z</time>
      </trkpt>
      <trkpt lat="45.75403" lon="6.70319">
        <ele>1896.82</ele>
        <time>2015-03-18T08:40:07Z</time>
      </trkpt>
      <trkpt lat="45.75399" lon="6.703">
        <ele>1899.7</ele>
        <time>2015-03-18T08:40:37Z</time>
      </trkpt>
      <trkpt lat="45.75386" lon="6.70303">
        <ele>1903.07</ele>
        <time>2015-03-18T08:41:07Z</time>
      </trkpt>
      <trkpt lat="45.75383" lon="6.70285">
        <ele>1906.91</ele>
        <time>2015-03-18T08:41:37Z</time>
      </trkpt>
      <trkpt lat="45.75388" lon="6.70263">
        <ele>1910.28</ele>
        <time>2015-03-18T08:42:07Z</time>
      </trkpt>
      <trkpt lat="45.75389" lon="6.70261">
        <ele>1913.16</ele>
        <time>2015-03-18T08:42:37Z</time>
      </trkpt>
      <trkpt lat="45.75385" lon="6.70249">
        <ele>1917.97</ele>
        <time>2015-03-18T08:43:07Z</time>
      </trkpt>
      <trkpt lat="45.75378" lon="6.70237">
        <ele>1922.29</ele>
        <time>2015-03-18T08:43:37Z</time>
      </trkpt>
      <trkpt lat="45.75388" lon="6.70227">
        <ele>1926.14</ele>
        <time>2015-03-18T08:44:07Z</time>
      </trkpt>
      <trkpt lat="45.75384" lon="6.70222">
        <ele>1928.06</ele>
        <time>2015-03-18T08:44:37Z</time>
      </trkpt>
      <trkpt lat="45.75373" lon="6.70211">
        <ele>1932.87</ele>
        <time>2015-03-18T08:45:07Z</time>
      </trkpt>
      <trkpt lat="45.75361" lon="6.70204">
        <ele>1938.16</ele>
        <time>2015-03-18T08:45:37Z</time>
      </trkpt>
      <trkpt lat="45.75354" lon="6.70187">
        <ele>1942</ele>
        <time>2015-03-18T08:46:07Z</time>
      </trkpt>
      <trkpt lat="45.75364" lon="6.70175">
        <ele>1946.81</ele>
        <time>2015-03-18T08:46:37Z</time>
      </trkpt>
      <trkpt lat="45.75369" lon="6.70173">
        <ele>1946.81</ele>
        <time>2015-03-18T08:47:07Z</time>
      </trkpt>
      <trkpt lat="45.75376" lon="6.70164">
        <ele>1949.69</ele>
        <time>2015-03-18T08:47:37Z</time>
      </trkpt>
      <trkpt lat="45.75389" lon="6.7015">
        <ele>1954.5</ele>
        <time>2015-03-18T08:48:07Z</time>
      </trkpt>
      <trkpt lat="45.75403" lon="6.70161">
        <ele>1959.78</ele>
        <time>2015-03-18T08:48:37Z</time>
      </trkpt>
      <trkpt lat="45.75411" lon="6.70161">
        <ele>1962.19</ele>
        <time>2015-03-18T08:49:07Z</time>
      </trkpt>
      <trkpt lat="45.75414" lon="6.70184">
        <ele>1960.75</ele>
        <time>2015-03-18T08:49:37Z</time>
      </trkpt>
      <trkpt lat="45.75416" lon="6.7018">
        <ele>1960.75</ele>
        <time>2015-03-18T08:50:07Z</time>
      </trkpt>
      <trkpt lat="45.75419" lon="6.70182">
        <ele>1961.23</ele>
        <time>2015-03-18T08:50:37Z</time>
      </trkpt>
      <trkpt lat="45.75409" lon="6.70165">
        <ele>1962.67</ele>
        <time>2015-03-18T08:51:07Z</time>
      </trkpt>
      <trkpt lat="45.75406" lon="6.70146">
        <ele>1965.07</ele>
        <time>2015-03-18T08:51:37Z</time>
      </trkpt>
      <trkpt lat="45.75407" lon="6.70128">
        <ele>1966.51</ele>
        <time>2015-03-18T08:52:07Z</time>
      </trkpt>
      <trkpt lat="45.75403" lon="6.70125">
        <ele>1966.51</ele>
        <time>2015-03-18T08:52:37Z</time>
      </trkpt>
      <trkpt lat="45.75404" lon="6.70129">
        <ele>1966.51</ele>
        <time>2015-03-18T08:53:07Z</time>
      </trkpt>
      <trkpt lat="45.75407" lon="6.70127">
        <ele>1966.99</ele>
        <time>2015-03-18T08:53:37Z</time>
      </trkpt>
      <trkpt lat="45.75405" lon="6.70126">
        <ele>1966.99</ele>
        <time>2015-03-18T08:54:07Z</time>
      </trkpt>
      <trkpt lat="45.75402" lon="6.70126">
        <ele>1966.99</ele>
        <time>2015-03-18T08:54:37Z</time>
      </trkpt>
      <trkpt lat="45.75405" lon="6.7012">
        <ele>1966.99</ele>
        <time>2015-03-18T08:55:07Z</time>
      </trkpt>
      <trkpt lat="45.7539" lon="6.70098">
        <ele>1971.8</ele>
        <time>2015-03-18T08:55:37Z</time>
      </trkpt>
      <trkpt lat="45.75381" lon="6.70079">
        <ele>1975.17</ele>
        <time>2015-03-18T08:56:07Z</time>
      </trkpt>
      <trkpt lat="45.75368" lon="6.70062">
        <ele>1979.97</ele>
        <time>2015-03-18T08:56:37Z</time>
      </trkpt>
      <trkpt lat="45.75365" lon="6.7004">
        <ele>1984.3</ele>
        <time>2015-03-18T08:57:07Z</time>
      </trkpt>
      <trkpt lat="45.75355" lon="6.70026">
        <ele>1988.62</ele>
        <time>2015-03-18T08:57:37Z</time>
      </trkpt>
      <trkpt lat="45.75339" lon="6.70025">
        <ele>1992.95</ele>
        <time>2015-03-18T08:58:07Z</time>
      </trkpt>
      <trkpt lat="45.75331" lon="6.70023">
        <ele>1995.35</ele>
        <time>2015-03-18T08:58:37Z</time>
      </trkpt>
      <trkpt lat="45.75325" lon="6.70003">
        <ele>1999.68</ele>
        <time>2015-03-18T08:59:07Z</time>
      </trkpt>
      <trkpt lat="45.75323" lon="6.69985">
        <ele>2004.01</ele>
        <time>2015-03-18T08:59:37Z</time>
      </trkpt>
      <trkpt lat="45.75308" lon="6.6998">
        <ele>2007.37</ele>
        <time>2015-03-18T09:00:07Z</time>
      </trkpt>
      <trkpt lat="45.75302" lon="6.69962">
        <ele>2012.18</ele>
        <time>2015-03-18T09:00:37Z</time>
      </trkpt>
      <trkpt lat="45.75304" lon="6.69943">
        <ele>2016.5</ele>
        <time>2015-03-18T09:01:07Z</time>
      </trkpt>
      <trkpt lat="45.75305" lon="6.69922">
        <ele>2020.83</ele>
        <time>2015-03-18T09:01:37Z</time>
      </trkpt>
      <trkpt lat="45.75306" lon="6.699">
        <ele>2024.67</ele>
        <time>2015-03-18T09:02:07Z</time>
      </trkpt>
      <trkpt lat="45.75307" lon="6.69882">
        <ele>2029.48</ele>
        <time>2015-03-18T09:02:37Z</time>
      </trkpt>
      <trkpt lat="45.75305" lon="6.6987">
        <ele>2031.88</ele>
        <time>2015-03-18T09:03:07Z</time>
      </trkpt>
      <trkpt lat="45.75311" lon="6.69846">
        <ele>2036.21</ele>
        <time>2015-03-18T09:03:37Z</time>
      </trkpt>
      <trkpt lat="45.75318" lon="6.6983">
        <ele>2041.02</ele>
        <time>2015-03-18T09:04:07Z</time>
      </trkpt>
      <trkpt lat="45.75324" lon="6.69811">
        <ele>2045.34</ele>
        <time>2015-03-18T09:04:37Z</time>
      </trkpt>
      <trkpt lat="45.75323" lon="6.69801">
        <ele>2047.75</ele>
        <time>2015-03-18T09:05:07Z</time>
      </trkpt>
      <trkpt lat="45.75323" lon="6.698">
        <ele>2047.75</ele>
        <time>2015-03-18T09:05:37Z</time>
      </trkpt>
      <trkpt lat="45.7532" lon="6.69805">
        <ele>2048.71</ele>
        <time>2015-03-18T09:06:07Z</time>
      </trkpt>
      <trkpt lat="45.753" lon="6.6981">
        <ele>2052.07</ele>
        <time>2015-03-18T09:06:37Z</time>
      </trkpt>
      <trkpt lat="45.75281" lon="6.69811">
        <ele>2055.92</ele>
        <time>2015-03-18T09:07:07Z</time>
      </trkpt>
      <trkpt lat="45.75264" lon="6.69817">
        <ele>2058.8</ele>
        <time>2015-03-18T09:07:37Z</time>
      </trkpt>
      <trkpt lat="45.7525" lon="6.69827">
        <ele>2062.65</ele>
        <time>2015-03-18T09:08:07Z</time>
      </trkpt>
      <trkpt lat="45.75237" lon="6.69837">
        <ele>2066.49</ele>
        <time>2015-03-18T09:08:37Z</time>
      </trkpt>
      <trkpt lat="45.75225" lon="6.69848">
        <ele>2070.34</ele>
        <time>2015-03-18T09:09:07Z</time>
      </trkpt>
      <trkpt lat="45.75213" lon="6.69857">
        <ele>2074.18</ele>
        <time>2015-03-18T09:09:37Z</time>
      </trkpt>
      <trkpt lat="45.752" lon="6.69864">
        <ele>2078.03</ele>
        <time>2015-03-18T09:10:07Z</time>
      </trkpt>
      <trkpt lat="45.75199" lon="6.69865">
        <ele>2078.51</ele>
        <time>2015-03-18T09:10:37Z</time>
      </trkpt>
      <trkpt lat="45.75198" lon="6.69865">
        <ele>2078.99</ele>
        <time>2015-03-18T09:11:07Z</time>
      </trkpt>
      <trkpt lat="45.75197" lon="6.69864">
        <ele>2078.99</ele>
        <time>2015-03-18T09:11:37Z</time>
      </trkpt>
      <trkpt lat="45.75198" lon="6.69865">
        <ele>2078.99</ele>
        <time>2015-03-18T09:12:07Z</time>
      </trkpt>
      <trkpt lat="45.75191" lon="6.69867">
        <ele>2079.95</ele>
        <time>2015-03-18T09:12:37Z</time>
      </trkpt>
      <trkpt lat="45.75178" lon="6.69868">
        <ele>2085.72</ele>
        <time>2015-03-18T09:13:07Z</time>
      </trkpt>
      <trkpt lat="45.75165" lon="6.69868">
        <ele>2090.52</ele>
        <time>2015-03-18T09:13:37Z</time>
      </trkpt>
      <trkpt lat="45.75154" lon="6.69871">
        <ele>2093.41</ele>
        <time>2015-03-18T09:14:07Z</time>
      </trkpt>
      <trkpt lat="45.75141" lon="6.69883">
        <ele>2097.25</ele>
        <time>2015-03-18T09:14:37Z</time>
      </trkpt>
      <trkpt lat="45.7514" lon="6.69889">
        <ele>2099.18</ele>
        <time>2015-03-18T09:15:07Z</time>
      </trkpt>
      <trkpt lat="45.75136" lon="6.69875">
        <ele>2101.1</ele>
        <time>2015-03-18T09:15:37Z</time>
      </trkpt>
      <trkpt lat="45.75133" lon="6.69873">
        <ele>2104.46</ele>
        <time>2015-03-18T09:16:07Z</time>
      </trkpt>
      <trkpt lat="45.75128" lon="6.69883">
        <ele>2106.39</ele>
        <time>2015-03-18T09:16:37Z</time>
      </trkpt>
      <trkpt lat="45.75129" lon="6.69885">
        <ele>2106.39</ele>
        <time>2015-03-18T09:17:07Z</time>
      </trkpt>
      <trkpt lat="45.75129" lon="6.69885">
        <ele>2106.39</ele>
        <time>2015-03-18T09:17:37Z</time>
      </trkpt>
      <trkpt lat="45.75129" lon="6.69884">
        <ele>2106.39</ele>
        <time>2015-03-18T09:18:07Z</time>
      </trkpt>
      <trkpt lat="45.75129" lon="6.69883">
        <ele>2106.39</ele>
        <time>2015-03-18T09:18:37Z</time>
      </trkpt>
      <trkpt lat="45.75129" lon="6.69886">
        <ele>2106.39</ele>
        <time>2015-03-18T09:19:07Z</time>
      </trkpt>
      <trkpt lat="45.75131" lon="6.69884">
        <ele>2106.39</ele>
        <time>2015-03-18T09:19:37Z</time>
      </trkpt>
      <trkpt lat="45.75129" lon="6.69885">
        <ele>2106.39</ele>
        <time>2015-03-18T09:20:07Z</time>
      </trkpt>
      <trkpt lat="45.75129" lon="6.69887">
        <ele>2106.39</ele>
        <time>2015-03-18T09:20:37Z</time>
      </trkpt>
      <trkpt lat="45.75128" lon="6.69886">
        <ele>2106.39</ele>
        <time>2015-03-18T09:21:07Z</time>
      </trkpt>
      <trkpt lat="45.75114" lon="6.69897">
        <ele>2110.71</ele>
        <time>2015-03-18T09:21:37Z</time>
      </trkpt>
      <trkpt lat="45.75101" lon="6.6991">
        <ele>2114.56</ele>
        <time>2015-03-18T09:22:07Z</time>
      </trkpt>
      <trkpt lat="45.75087" lon="6.6992">
        <ele>2117.92</ele>
        <time>2015-03-18T09:22:37Z</time>
      </trkpt>
      <trkpt lat="45.75074" lon="6.69933">
        <ele>2121.77</ele>
        <time>2015-03-18T09:23:07Z</time>
      </trkpt>
      <trkpt lat="45.75064" lon="6.69949">
        <ele>2124.65</ele>
        <time>2015-03-18T09:23:37Z</time>
      </trkpt>
      <trkpt lat="45.75063" lon="6.69933">
        <ele>2127.53</ele>
        <time>2015-03-18T09:24:07Z</time>
      </trkpt>
      <trkpt lat="45.75064" lon="6.6991">
        <ele>2131.38</ele>
        <time>2015-03-18T09:24:37Z</time>
      </trkpt>
      <trkpt lat="45.75066" lon="6.69888">
        <ele>2135.23</ele>
        <time>2015-03-18T09:25:07Z</time>
      </trkpt>
      <trkpt lat="45.75068" lon="6.69868">
        <ele>2138.59</ele>
        <time>2015-03-18T09:25:37Z</time>
      </trkpt>
      <trkpt lat="45.75068" lon="6.69862">
        <ele>2141.47</ele>
        <time>2015-03-18T09:26:07Z</time>
      </trkpt>
      <trkpt lat="45.75055" lon="6.69872">
        <ele>2145.32</ele>
        <time>2015-03-18T09:26:37Z</time>
      </trkpt>
      <trkpt lat="45.75043" lon="6.69883">
        <ele>2149.16</ele>
        <time>2015-03-18T09:27:07Z</time>
      </trkpt>
      <trkpt lat="45.75032" lon="6.69895">
        <ele>2153.49</ele>
        <time>2015-03-18T09:27:37Z</time>
      </trkpt>
      <trkpt lat="45.75031" lon="6.69882">
        <ele>2155.89</ele>
        <time>2015-03-18T09:28:07Z</time>
      </trkpt>
      <trkpt lat="45.75032" lon="6.69861">
        <ele>2160.7</ele>
        <time>2015-03-18T09:28:37Z</time>
      </trkpt>
      <trkpt lat="45.75035" lon="6.69843">
        <ele>2164.06</ele>
        <time>2015-03-18T09:29:07Z</time>
      </trkpt>
      <trkpt lat="45.75026" lon="6.69854">
        <ele>2166.95</ele>
        <time>2015-03-18T09:29:37Z</time>
      </trkpt>
      <trkpt lat="45.75013" lon="6.69868">
        <ele>2171.27</ele>
        <time>2015-03-18T09:30:07Z</time>
      </trkpt>
      <trkpt lat="45.75003" lon="6.6988">
        <ele>2175.6</ele>
        <time>2015-03-18T09:30:37Z</time>
      </trkpt>
      <trkpt lat="45.74998" lon="6.69889">
        <ele>2178</ele>
        <time>2015-03-18T09:31:07Z</time>
      </trkpt>
      <trkpt lat="45.74997" lon="6.69884">
        <ele>2178.48</ele>
        <time>2015-03-18T09:31:37Z</time>
      </trkpt>
      <trkpt lat="45.74997" lon="6.69863">
        <ele>2182.81</ele>
        <time>2015-03-18T09:32:07Z</time>
      </trkpt>
      <trkpt lat="45.74998" lon="6.69842">
        <ele>2187.62</ele>
        <time>2015-03-18T09:32:37Z</time>
      </trkpt>
      <trkpt lat="45.74993" lon="6.69845">
        <ele>2190.5</ele>
        <time>2015-03-18T09:33:07Z</time>
      </trkpt>
      <trkpt lat="45.74981" lon="6.6986">
        <ele>2195.31</ele>
        <time>2015-03-18T09:33:37Z</time>
      </trkpt>
      <trkpt lat="45.74969" lon="6.69871">
        <ele>2200.11</ele>
        <time>2015-03-18T09:34:07Z</time>
      </trkpt>
      <trkpt lat="45.74969" lon="6.69846">
        <ele>2203.48</ele>
        <time>2015-03-18T09:34:37Z</time>
      </trkpt>
      <trkpt lat="45.74971" lon="6.69829">
        <ele>2207.81</ele>
        <time>2015-03-18T09:35:07Z</time>
      </trkpt>
      <trkpt lat="45.74959" lon="6.69842">
        <ele>2211.65</ele>
        <time>2015-03-18T09:35:37Z</time>
      </trkpt>
      <trkpt lat="45.74946" lon="6.69858">
        <ele>2216.94</ele>
        <time>2015-03-18T09:36:07Z</time>
      </trkpt>
      <trkpt lat="45.74942" lon="6.69846">
        <ele>2220.78</ele>
        <time>2015-03-18T09:36:37Z</time>
      </trkpt>
      <trkpt lat="45.74941" lon="6.69825">
        <ele>2225.11</ele>
        <time>2015-03-18T09:37:07Z</time>
      </trkpt>
      <trkpt lat="45.74938" lon="6.69829">
        <ele>2227.51</ele>
        <time>2015-03-18T09:37:37Z</time>
      </trkpt>
      <trkpt lat="45.74923" lon="6.69841">
        <ele>2233.28</ele>
        <time>2015-03-18T09:38:07Z</time>
      </trkpt>
      <trkpt lat="45.74913" lon="6.6985">
        <ele>2236.64</ele>
        <time>2015-03-18T09:38:37Z</time>
      </trkpt>
      <trkpt lat="45.74903" lon="6.69868">
        <ele>2241.45</ele>
        <time>2015-03-18T09:39:07Z</time>
      </trkpt>
      <trkpt lat="45.74897" lon="6.69888">
        <ele>2246.26</ele>
        <time>2015-03-18T09:39:37Z</time>
      </trkpt>
      <trkpt lat="45.74892" lon="6.69874">
        <ele>2248.18</ele>
        <time>2015-03-18T09:40:07Z</time>
      </trkpt>
      <trkpt lat="45.74886" lon="6.69852">
        <ele>2253.47</ele>
        <time>2015-03-18T09:40:37Z</time>
      </trkpt>
      <trkpt lat="45.74883" lon="6.69833">
        <ele>2256.35</ele>
        <time>2015-03-18T09:41:07Z</time>
      </trkpt>
      <trkpt lat="45.74884" lon="6.6982">
        <ele>2260.2</ele>
        <time>2015-03-18T09:41:37Z</time>
      </trkpt>
      <trkpt lat="45.74876" lon="6.69829">
        <ele>2262.6</ele>
        <time>2015-03-18T09:42:07Z</time>
      </trkpt>
      <trkpt lat="45.74868" lon="6.69839">
        <ele>2265</ele>
        <time>2015-03-18T09:42:37Z</time>
      </trkpt>
      <trkpt lat="45.74858" lon="6.69856">
        <ele>2269.81</ele>
        <time>2015-03-18T09:43:07Z</time>
      </trkpt>
      <trkpt lat="45.74855" lon="6.69877">
        <ele>2273.66</ele>
        <time>2015-03-18T09:43:37Z</time>
      </trkpt>
      <trkpt lat="45.74851" lon="6.69893">
        <ele>2277.02</ele>
        <time>2015-03-18T09:44:07Z</time>
      </trkpt>
      <trkpt lat="45.74846" lon="6.69907">
        <ele>2280.38</ele>
        <time>2015-03-18T09:44:37Z</time>
      </trkpt>
      <trkpt lat="45.74838" lon="6.69887">
        <ele>2283.75</ele>
        <time>2015-03-18T09:45:07Z</time>
      </trkpt>
      <trkpt lat="45.74831" lon="6.69865">
        <ele>2288.56</ele>
        <time>2015-03-18T09:45:37Z</time>
      </trkpt>
      <trkpt lat="45.74825" lon="6.69844">
        <ele>2293.36</ele>
        <time>2015-03-18T09:46:07Z</time>
      </trkpt>
      <trkpt lat="45.74822" lon="6.69825">
        <ele>2296.73</ele>
        <time>2015-03-18T09:46:37Z</time>
      </trkpt>
      <trkpt lat="45.74819" lon="6.69804">
        <ele>2301.05</ele>
        <time>2015-03-18T09:47:07Z</time>
      </trkpt>
      <trkpt lat="45.74818" lon="6.69801">
        <ele>2302.01</ele>
        <time>2015-03-18T09:47:37Z</time>
      </trkpt>
      <trkpt lat="45.7482" lon="6.69804">
        <ele>2302.01</ele>
        <time>2015-03-18T09:48:07Z</time>
      </trkpt>
      <trkpt lat="45.74818" lon="6.6981">
        <ele>2303.94</ele>
        <time>2015-03-18T09:48:37Z</time>
      </trkpt>
      <trkpt lat="45.74809" lon="6.69827">
        <ele>2308.26</ele>
        <time>2015-03-18T09:49:07Z</time>
      </trkpt>
      <trkpt lat="45.74801" lon="6.69843">
        <ele>2313.07</ele>
        <time>2015-03-18T09:49:37Z</time>
      </trkpt>
      <trkpt lat="45.74795" lon="6.69857">
        <ele>2315.95</ele>
        <time>2015-03-18T09:50:07Z</time>
      </trkpt>
      <trkpt lat="45.74789" lon="6.69873">
        <ele>2319.8</ele>
        <time>2015-03-18T09:50:37Z</time>
      </trkpt>
      <trkpt lat="45.74784" lon="6.69894">
        <ele>2324.61</ele>
        <time>2015-03-18T09:51:07Z</time>
      </trkpt>
      <trkpt lat="45.74779" lon="6.69908">
        <ele>2327.49</ele>
        <time>2015-03-18T09:51:37Z</time>
      </trkpt>
      <trkpt lat="45.74775" lon="6.69901">
        <ele>2328.93</ele>
        <time>2015-03-18T09:52:07Z</time>
      </trkpt>
      <trkpt lat="45.74769" lon="6.69885">
        <ele>2333.26</ele>
        <time>2015-03-18T09:52:37Z</time>
      </trkpt>
      <trkpt lat="45.74766" lon="6.699">
        <ele>2336.14</ele>
        <time>2015-03-18T09:53:07Z</time>
      </trkpt>
      <trkpt lat="45.74762" lon="6.69903">
        <ele>2338.54</ele>
        <time>2015-03-18T09:53:37Z</time>
      </trkpt>
      <trkpt lat="45.74754" lon="6.69887">
        <ele>2343.35</ele>
        <time>2015-03-18T09:54:07Z</time>
      </trkpt>
      <trkpt lat="45.74752" lon="6.69883">
        <ele>2345.75</ele>
        <time>2015-03-18T09:54:37Z</time>
      </trkpt>
      <trkpt lat="45.7475" lon="6.69888">
        <ele>2347.68</ele>
        <time>2015-03-18T09:55:07Z</time>
      </trkpt>
      <trkpt lat="45.74744" lon="6.6988">
        <ele>2351.04</ele>
        <time>2015-03-18T09:55:37Z</time>
      </trkpt>
      <trkpt lat="45.7474" lon="6.69858">
        <ele>2354.41</ele>
        <time>2015-03-18T09:56:07Z</time>
      </trkpt>
      <trkpt lat="45.7474" lon="6.69858">
        <ele>2354.41</ele>
        <time>2015-03-18T09:56:37Z</time>
      </trkpt>
      <trkpt lat="45.74741" lon="6.69858">
        <ele>2354.41</ele>
        <time>2015-03-18T09:57:07Z</time>
      </trkpt>
      <trkpt lat="45.74739" lon="6.69856">
        <ele>2352.96</ele>
        <time>2015-03-18T09:57:37Z</time>
      </trkpt>
      <trkpt lat="45.74738" lon="6.69856">
        <ele>2353.93</ele>
        <time>2015-03-18T09:58:07Z</time>
      </trkpt>
      <trkpt lat="45.74737" lon="6.69854">
        <ele>2353.93</ele>
        <time>2015-03-18T09:58:37Z</time>
      </trkpt>
      <trkpt lat="45.7474" lon="6.69857">
        <ele>2353.93</ele>
        <time>2015-03-18T09:59:07Z</time>
      </trkpt>
      <trkpt lat="45.74737" lon="6.69857">
        <ele>2357.29</ele>
        <time>2015-03-18T09:59:37Z</time>
      </trkpt>
      <trkpt lat="45.74732" lon="6.69854">
        <ele>2361.14</ele>
        <time>2015-03-18T10:00:07Z</time>
      </trkpt>
      <trkpt lat="45.74729" lon="6.69849">
        <ele>2364.98</ele>
        <time>2015-03-18T10:00:37Z</time>
      </trkpt>
      <trkpt lat="45.74724" lon="6.69849">
        <ele>2367.38</ele>
        <time>2015-03-18T10:01:07Z</time>
      </trkpt>
      <trkpt lat="45.74723" lon="6.69849">
        <ele>2370.75</ele>
        <time>2015-03-18T10:01:37Z</time>
      </trkpt>
      <trkpt lat="45.74718" lon="6.69851">
        <ele>2373.15</ele>
        <time>2015-03-18T10:02:07Z</time>
      </trkpt>
      <trkpt lat="45.74715" lon="6.6985">
        <ele>2376.52</ele>
        <time>2015-03-18T10:02:37Z</time>
      </trkpt>
      <trkpt lat="45.74712" lon="6.69851">
        <ele>2378.92</ele>
        <time>2015-03-18T10:03:07Z</time>
      </trkpt>
      <trkpt lat="45.74708" lon="6.69851">
        <ele>2382.76</ele>
        <time>2015-03-18T10:03:37Z</time>
      </trkpt>
      <trkpt lat="45.74704" lon="6.69851">
        <ele>2384.69</ele>
        <time>2015-03-18T10:04:07Z</time>
      </trkpt>
      <trkpt lat="45.74701" lon="6.6985">
        <ele>2388.53</ele>
        <time>2015-03-18T10:04:37Z</time>
      </trkpt>
      <trkpt lat="45.74698" lon="6.69849">
        <ele>2390.94</ele>
        <time>2015-03-18T10:05:07Z</time>
      </trkpt>
      <trkpt lat="45.74694" lon="6.69852">
        <ele>2393.82</ele>
        <time>2015-03-18T10:05:37Z</time>
      </trkpt>
      <trkpt lat="45.74691" lon="6.69853">
        <ele>2396.22</ele>
        <time>2015-03-18T10:06:07Z</time>
      </trkpt>
      <trkpt lat="45.74688" lon="6.69851">
        <ele>2399.11</ele>
        <time>2015-03-18T10:06:37Z</time>
      </trkpt>
      <trkpt lat="45.74684" lon="6.69853">
        <ele>2401.99</ele>
        <time>2015-03-18T10:07:07Z</time>
      </trkpt>
      <trkpt lat="45.7468" lon="6.69851">
        <ele>2404.39</ele>
        <time>2015-03-18T10:07:37Z</time>
      </trkpt>
      <trkpt lat="45.74678" lon="6.69851">
        <ele>2407.28</ele>
        <time>2015-03-18T10:08:07Z</time>
      </trkpt>
      <trkpt lat="45.74675" lon="6.69847">
        <ele>2409.68</ele>
        <time>2015-03-18T10:08:37Z</time>
      </trkpt>
      <trkpt lat="45.74672" lon="6.69843">
        <ele>2413.05</ele>
        <time>2015-03-18T10:09:07Z</time>
      </trkpt>
      <trkpt lat="45.74669" lon="6.69843">
        <ele>2415.45</ele>
        <time>2015-03-18T10:09:37Z</time>
      </trkpt>
      <trkpt lat="45.74667" lon="6.69841">
        <ele>2418.33</ele>
        <time>2015-03-18T10:10:07Z</time>
      </trkpt>
      <trkpt lat="45.74665" lon="6.6984">
        <ele>2420.26</ele>
        <time>2015-03-18T10:10:37Z</time>
      </trkpt>
      <trkpt lat="45.74662" lon="6.69836">
        <ele>2422.66</ele>
        <time>2015-03-18T10:11:07Z</time>
      </trkpt>
      <trkpt lat="45.74662" lon="6.69836">
        <ele>2424.1</ele>
        <time>2015-03-18T10:11:37Z</time>
      </trkpt>
      <trkpt lat="45.74662" lon="6.69833">
        <ele>2426.02</ele>
        <time>2015-03-18T10:12:07Z</time>
      </trkpt>
      <trkpt lat="45.7466" lon="6.69829">
        <ele>2427.95</ele>
        <time>2015-03-18T10:12:37Z</time>
      </trkpt>
      <trkpt lat="45.74656" lon="6.69831">
        <ele>2429.39</ele>
        <time>2015-03-18T10:13:07Z</time>
      </trkpt>
      <trkpt lat="45.74653" lon="6.6983">
        <ele>2431.79</ele>
        <time>2015-03-18T10:13:38Z</time>
      </trkpt>
      <trkpt lat="45.7465" lon="6.69831">
        <ele>2433.71</ele>
        <time>2015-03-18T10:14:05Z</time>
      </trkpt>
      <trkpt lat="45.74651" lon="6.69835">
        <ele>2433.71</ele>
        <time>2015-03-18T10:14:39Z</time>
      </trkpt>
      <trkpt lat="45.74646" lon="6.69835">
        <ele>2437.08</ele>
        <time>2015-03-18T10:15:09Z</time>
      </trkpt>
      <trkpt lat="45.74644" lon="6.69836">
        <ele>2440.44</ele>
        <time>2015-03-18T10:15:39Z</time>
      </trkpt>
      <trkpt lat="45.74641" lon="6.69833">
        <ele>2442.37</ele>
        <time>2015-03-18T10:16:09Z</time>
      </trkpt>
      <trkpt lat="45.7464" lon="6.69829">
        <ele>2445.25</ele>
        <time>2015-03-18T10:16:39Z</time>
      </trkpt>
      <trkpt lat="45.74636" lon="6.69828">
        <ele>2448.13</ele>
        <time>2015-03-18T10:17:09Z</time>
      </trkpt>
      <trkpt lat="45.74633" lon="6.69825">
        <ele>2450.54</ele>
        <time>2015-03-18T10:17:39Z</time>
      </trkpt>
      <trkpt lat="45.7463" lon="6.6982">
        <ele>2453.9</ele>
        <time>2015-03-18T10:18:09Z</time>
      </trkpt>
      <trkpt lat="45.74624" lon="6.69818">
        <ele>2457.75</ele>
        <time>2015-03-18T10:18:39Z</time>
      </trkpt>
      <trkpt lat="45.74621" lon="6.69813">
        <ele>2462.07</ele>
        <time>2015-03-18T10:19:09Z</time>
      </trkpt>
      <trkpt lat="45.74617" lon="6.69814">
        <ele>2464.48</ele>
        <time>2015-03-18T10:19:39Z</time>
      </trkpt>
      <trkpt lat="45.74612" lon="6.69815">
        <ele>2468.32</ele>
        <time>2015-03-18T10:20:09Z</time>
      </trkpt>
      <trkpt lat="45.74614" lon="6.69815">
        <ele>2468.32</ele>
        <time>2015-03-18T10:20:39Z</time>
      </trkpt>
      <trkpt lat="45.74605" lon="6.69815">
        <ele>2473.13</ele>
        <time>2015-03-18T10:21:09Z</time>
      </trkpt>
      <trkpt lat="45.746" lon="6.69816">
        <ele>2476.49</ele>
        <time>2015-03-18T10:21:39Z</time>
      </trkpt>
      <trkpt lat="45.74597" lon="6.69811">
        <ele>2480.34</ele>
        <time>2015-03-18T10:22:09Z</time>
      </trkpt>
      <trkpt lat="45.74594" lon="6.6981">
        <ele>2482.26</ele>
        <time>2015-03-18T10:22:39Z</time>
      </trkpt>
      <trkpt lat="45.7459" lon="6.69806">
        <ele>2485.63</ele>
        <time>2015-03-18T10:23:09Z</time>
      </trkpt>
      <trkpt lat="45.74587" lon="6.69799">
        <ele>2488.51</ele>
        <time>2015-03-18T10:23:39Z</time>
      </trkpt>
      <trkpt lat="45.74585" lon="6.69794">
        <ele>2490.91</ele>
        <time>2015-03-18T10:24:09Z</time>
      </trkpt>
      <trkpt lat="45.7458" lon="6.69795">
        <ele>2493.8</ele>
        <time>2015-03-18T10:24:39Z</time>
      </trkpt>
      <trkpt lat="45.74576" lon="6.698">
        <ele>2497.16</ele>
        <time>2015-03-18T10:25:09Z</time>
      </trkpt>
      <trkpt lat="45.74573" lon="6.69803">
        <ele>2499.08</ele>
        <time>2015-03-18T10:25:39Z</time>
      </trkpt>
      <trkpt lat="45.74575" lon="6.69802">
        <ele>2499.08</ele>
        <time>2015-03-18T10:26:09Z</time>
      </trkpt>
      <trkpt lat="45.74573" lon="6.69803">
        <ele>2499.57</ele>
        <time>2015-03-18T10:26:39Z</time>
      </trkpt>
      <trkpt lat="45.74572" lon="6.69801">
        <ele>2501.01</ele>
        <time>2015-03-18T10:27:09Z</time>
      </trkpt>
      <trkpt lat="45.7457" lon="6.69796">
        <ele>2503.41</ele>
        <time>2015-03-18T10:27:39Z</time>
      </trkpt>
      <trkpt lat="45.74565" lon="6.69793">
        <ele>2507.26</ele>
        <time>2015-03-18T10:28:09Z</time>
      </trkpt>
      <trkpt lat="45.74561" lon="6.69787">
        <ele>2510.62</ele>
        <time>2015-03-18T10:28:39Z</time>
      </trkpt>
      <trkpt lat="45.74558" lon="6.69784">
        <ele>2514.47</ele>
        <time>2015-03-18T10:29:09Z</time>
      </trkpt>
      <trkpt lat="45.74553" lon="6.6978">
        <ele>2516.87</ele>
        <time>2015-03-18T10:29:39Z</time>
      </trkpt>
      <trkpt lat="45.74549" lon="6.69779">
        <ele>2521.68</ele>
        <time>2015-03-18T10:30:09Z</time>
      </trkpt>
      <trkpt lat="45.7454" lon="6.69766">
        <ele>2526</ele>
        <time>2015-03-18T10:30:39Z</time>
      </trkpt>
      <trkpt lat="45.74532" lon="6.69742">
        <ele>2528.4</ele>
        <time>2015-03-18T10:31:09Z</time>
      </trkpt>
      <trkpt lat="45.74531" lon="6.69717">
        <ele>2531.29</ele>
        <time>2015-03-18T10:31:39Z</time>
      </trkpt>
      <trkpt lat="45.74537" lon="6.69708">
        <ele>2534.65</ele>
        <time>2015-03-18T10:32:09Z</time>
      </trkpt>
      <trkpt lat="45.74539" lon="6.69699">
        <ele>2537.54</ele>
        <time>2015-03-18T10:32:39Z</time>
      </trkpt>
      <trkpt lat="45.74544" lon="6.69707">
        <ele>2540.42</ele>
        <time>2015-03-18T10:33:09Z</time>
      </trkpt>
      <trkpt lat="45.74548" lon="6.69705">
        <ele>2539.46</ele>
        <time>2015-03-18T10:33:39Z</time>
      </trkpt>
      <trkpt lat="45.74546" lon="6.69704">
        <ele>2538.5</ele>
        <time>2015-03-18T10:34:09Z</time>
      </trkpt>
      <trkpt lat="45.74546" lon="6.69704">
        <ele>2538.98</ele>
        <time>2015-03-18T10:34:39Z</time>
      </trkpt>
      <trkpt lat="45.74546" lon="6.69702">
        <ele>2538.98</ele>
        <time>2015-03-18T10:35:09Z</time>
      </trkpt>
      <trkpt lat="45.74547" lon="6.69703">
        <ele>2538.5</ele>
        <time>2015-03-18T10:35:39Z</time>
      </trkpt>
      <trkpt lat="45.74547" lon="6.69703">
        <ele>2538.5</ele>
        <time>2015-03-18T10:36:09Z</time>
      </trkpt>
      <trkpt lat="45.74546" lon="6.69703">
        <ele>2538.5</ele>
        <time>2015-03-18T10:36:39Z</time>
      </trkpt>
      <trkpt lat="45.74547" lon="6.69703">
        <ele>2538.5</ele>
        <time>2015-03-18T10:37:09Z</time>
      </trkpt>
      <trkpt lat="45.74547" lon="6.69703">
        <ele>2538.5</ele>
        <time>2015-03-18T10:37:39Z</time>
      </trkpt>
      <trkpt lat="45.74548" lon="6.69702">
        <ele>2538.5</ele>
        <time>2015-03-18T10:38:09Z</time>
      </trkpt>
      <trkpt lat="45.74546" lon="6.69703">
        <ele>2538.02</ele>
        <time>2015-03-18T10:38:39Z</time>
      </trkpt>
      <trkpt lat="45.74547" lon="6.69703">
        <ele>2538.02</ele>
        <time>2015-03-18T10:39:09Z</time>
      </trkpt>
      <trkpt lat="45.74545" lon="6.69702">
        <ele>2538.5</ele>
        <time>2015-03-18T10:39:39Z</time>
      </trkpt>
      <trkpt lat="45.74546" lon="6.69704">
        <ele>2538.5</ele>
        <time>2015-03-18T10:40:09Z</time>
      </trkpt>
      <trkpt lat="45.74544" lon="6.69702">
        <ele>2538.5</ele>
        <time>2015-03-18T10:40:39Z</time>
      </trkpt>
      <trkpt lat="45.74545" lon="6.69702">
        <ele>2538.5</ele>
        <time>2015-03-18T10:41:09Z</time>
      </trkpt>
      <trkpt lat="45.74544" lon="6.69702">
        <ele>2538.5</ele>
        <time>2015-03-18T10:41:39Z</time>
      </trkpt>
      <trkpt lat="45.74546" lon="6.69704">
        <ele>2538.5</ele>
        <time>2015-03-18T10:42:09Z</time>
      </trkpt>
      <trkpt lat="45.74544" lon="6.69705">
        <ele>2538.5</ele>
        <time>2015-03-18T10:42:39Z</time>
      </trkpt>
      <trkpt lat="45.74545" lon="6.69703">
        <ele>2538.5</ele>
        <time>2015-03-18T10:43:09Z</time>
      </trkpt>
      <trkpt lat="45.74544" lon="6.69704">
        <ele>2538.5</ele>
        <time>2015-03-18T10:43:39Z</time>
      </trkpt>
      <trkpt lat="45.74545" lon="6.69704">
        <ele>2538.02</ele>
        <time>2015-03-18T10:44:09Z</time>
      </trkpt>
      <trkpt lat="45.74546" lon="6.69704">
        <ele>2538.02</ele>
        <time>2015-03-18T10:44:39Z</time>
      </trkpt>
      <trkpt lat="45.74545" lon="6.69702">
        <ele>2538.5</ele>
        <time>2015-03-18T10:45:09Z</time>
      </trkpt>
      <trkpt lat="45.74543" lon="6.69699">
        <ele>2538.5</ele>
        <time>2015-03-18T10:45:39Z</time>
      </trkpt>
      <trkpt lat="45.74543" lon="6.69701">
        <ele>2538.5</ele>
        <time>2015-03-18T10:46:09Z</time>
      </trkpt>
      <trkpt lat="45.74544" lon="6.69697">
        <ele>2538.5</ele>
        <time>2015-03-18T10:46:39Z</time>
      </trkpt>
      <trkpt lat="45.74543" lon="6.69698">
        <ele>2538.5</ele>
        <time>2015-03-18T10:47:09Z</time>
      </trkpt>
      <trkpt lat="45.74544" lon="6.697">
        <ele>2538.98</ele>
        <time>2015-03-18T10:47:39Z</time>
      </trkpt>
      <trkpt lat="45.74544" lon="6.69699">
        <ele>2538.98</ele>
        <time>2015-03-18T10:48:09Z</time>
      </trkpt>
      <trkpt lat="45.74544" lon="6.69701">
        <ele>2538.98</ele>
        <time>2015-03-18T10:48:39Z</time>
      </trkpt>
      <trkpt lat="45.74544" lon="6.697">
        <ele>2538.98</ele>
        <time>2015-03-18T10:49:09Z</time>
      </trkpt>
      <trkpt lat="45.74547" lon="6.69701">
        <ele>2538.98</ele>
        <time>2015-03-18T10:49:39Z</time>
      </trkpt>
      <trkpt lat="45.74547" lon="6.69704">
        <ele>2539.46</ele>
        <time>2015-03-18T10:50:09Z</time>
      </trkpt>
      <trkpt lat="45.74545" lon="6.69703">
        <ele>2540.9</ele>
        <time>2015-03-18T10:50:39Z</time>
      </trkpt>
      <trkpt lat="45.74545" lon="6.69704">
        <ele>2539.94</ele>
        <time>2015-03-18T10:51:09Z</time>
      </trkpt>
      <trkpt lat="45.74546" lon="6.69705">
        <ele>2539.94</ele>
        <time>2015-03-18T10:51:39Z</time>
      </trkpt>
      <trkpt lat="45.74546" lon="6.69706">
        <ele>2539.94</ele>
        <time>2015-03-18T10:52:09Z</time>
      </trkpt>
      <trkpt lat="45.74546" lon="6.69704">
        <ele>2539.94</ele>
        <time>2015-03-18T10:52:39Z</time>
      </trkpt>
      <trkpt lat="45.74544" lon="6.69704">
        <ele>2539.94</ele>
        <time>2015-03-18T10:53:09Z</time>
      </trkpt>
      <trkpt lat="45.74545" lon="6.69704">
        <ele>2539.46</ele>
        <time>2015-03-18T10:53:39Z</time>
      </trkpt>
      <trkpt lat="45.74543" lon="6.69704">
        <ele>2539.46</ele>
        <time>2015-03-18T10:54:09Z</time>
      </trkpt>
      <trkpt lat="45.74545" lon="6.69705">
        <ele>2539.46</ele>
        <time>2015-03-18T10:54:39Z</time>
      </trkpt>
      <trkpt lat="45.74546" lon="6.69703">
        <ele>2539.46</ele>
        <time>2015-03-18T10:55:09Z</time>
      </trkpt>
      <trkpt lat="45.74545" lon="6.69704">
        <ele>2539.46</ele>
        <time>2015-03-18T10:55:39Z</time>
      </trkpt>
      <trkpt lat="45.74546" lon="6.69703">
        <ele>2539.46</ele>
        <time>2015-03-18T10:56:09Z</time>
      </trkpt>
      <trkpt lat="45.74546" lon="6.69703">
        <ele>2539.46</ele>
        <time>2015-03-18T10:56:39Z</time>
      </trkpt>
      <trkpt lat="45.74545" lon="6.69703">
        <ele>2539.46</ele>
        <time>2015-03-18T10:57:09Z</time>
      </trkpt>
      <trkpt lat="45.74545" lon="6.69703">
        <ele>2539.46</ele>
        <time>2015-03-18T10:57:39Z</time>
      </trkpt>
      <trkpt lat="45.74545" lon="6.69702">
        <ele>2539.46</ele>
        <time>2015-03-18T10:58:09Z</time>
      </trkpt>
      <trkpt lat="45.74545" lon="6.69704">
        <ele>2539.46</ele>
        <time>2015-03-18T10:58:39Z</time>
      </trkpt>
      <trkpt lat="45.74544" lon="6.69703">
        <ele>2539.46</ele>
        <time>2015-03-18T10:59:09Z</time>
      </trkpt>
      <trkpt lat="45.74546" lon="6.69705">
        <ele>2539.46</ele>
        <time>2015-03-18T10:59:39Z</time>
      </trkpt>
      <trkpt lat="45.74547" lon="6.69704">
        <ele>2539.46</ele>
        <time>2015-03-18T11:00:09Z</time>
      </trkpt>
      <trkpt lat="45.74547" lon="6.69704">
        <ele>2539.46</ele>
        <time>2015-03-18T11:00:39Z</time>
      </trkpt>
      <trkpt lat="45.74544" lon="6.69705">
        <ele>2539.46</ele>
        <time>2015-03-18T11:01:09Z</time>
      </trkpt>
      <trkpt lat="45.74543" lon="6.69702">
        <ele>2539.46</ele>
        <time>2015-03-18T11:01:39Z</time>
      </trkpt>
      <trkpt lat="45.74543" lon="6.69703">
        <ele>2539.46</ele>
        <time>2015-03-18T11:02:09Z</time>
      </trkpt>
      <trkpt lat="45.74545" lon="6.69702">
        <ele>2539.46</ele>
        <time>2015-03-18T11:02:39Z</time>
      </trkpt>
      <trkpt lat="45.74545" lon="6.69703">
        <ele>2539.46</ele>
        <time>2015-03-18T11:03:09Z</time>
      </trkpt>
      <trkpt lat="45.74544" lon="6.69701">
        <ele>2539.46</ele>
        <time>2015-03-18T11:03:39Z</time>
      </trkpt>
      <trkpt lat="45.74544" lon="6.69701">
        <ele>2539.46</ele>
        <time>2015-03-18T11:04:09Z</time>
      </trkpt>
      <trkpt lat="45.74545" lon="6.69702">
        <ele>2539.46</ele>
        <time>2015-03-18T11:04:39Z</time>
      </trkpt>
      <trkpt lat="45.74545" lon="6.69702">
        <ele>2539.46</ele>
        <time>2015-03-18T11:05:09Z</time>
      </trkpt>
      <trkpt lat="45.74543" lon="6.697">
        <ele>2539.94</ele>
        <time>2015-03-18T11:05:39Z</time>
      </trkpt>
      <trkpt lat="45.74543" lon="6.69701">
        <ele>2539.94</ele>
        <time>2015-03-18T11:06:09Z</time>
      </trkpt>
      <trkpt lat="45.74543" lon="6.697">
        <ele>2539.94</ele>
        <time>2015-03-18T11:06:39Z</time>
      </trkpt>
      <trkpt lat="45.74544" lon="6.69701">
        <ele>2539.94</ele>
        <time>2015-03-18T11:07:09Z</time>
      </trkpt>
      <trkpt lat="45.74545" lon="6.69704">
        <ele>2540.42</ele>
        <time>2015-03-18T11:07:39Z</time>
      </trkpt>
      <trkpt lat="45.74544" lon="6.69703">
        <ele>2540.42</ele>
        <time>2015-03-18T11:08:09Z</time>
      </trkpt>
      <trkpt lat="45.74546" lon="6.69704">
        <ele>2541.38</ele>
        <time>2015-03-18T11:08:39Z</time>
      </trkpt>
      <trkpt lat="45.74546" lon="6.69706">
        <ele>2541.38</ele>
        <time>2015-03-18T11:09:09Z</time>
      </trkpt>
      <trkpt lat="45.74543" lon="6.69706">
        <ele>2541.38</ele>
        <time>2015-03-18T11:09:39Z</time>
      </trkpt>
      <trkpt lat="45.74543" lon="6.69702">
        <ele>2539.94</ele>
        <time>2015-03-18T11:10:09Z</time>
      </trkpt>
      <trkpt lat="45.74545" lon="6.69705">
        <ele>2539.94</ele>
        <time>2015-03-18T11:10:39Z</time>
      </trkpt>
      <trkpt lat="45.74545" lon="6.69703">
        <ele>2539.94</ele>
        <time>2015-03-18T11:11:09Z</time>
      </trkpt>
      <trkpt lat="45.74545" lon="6.69697">
        <ele>2539.94</ele>
        <time>2015-03-18T11:11:39Z</time>
      </trkpt>
      <trkpt lat="45.74544" lon="6.69702">
        <ele>2539.94</ele>
        <time>2015-03-18T11:12:09Z</time>
      </trkpt>
      <trkpt lat="45.74542" lon="6.69704">
        <ele>2539.94</ele>
        <time>2015-03-18T11:12:39Z</time>
      </trkpt>
      <trkpt lat="45.74544" lon="6.69704">
        <ele>2539.94</ele>
        <time>2015-03-18T11:13:09Z</time>
      </trkpt>
      <trkpt lat="45.74544" lon="6.69702">
        <ele>2540.9</ele>
        <time>2015-03-18T11:13:39Z</time>
      </trkpt>
      <trkpt lat="45.74544" lon="6.69702">
        <ele>2540.9</ele>
        <time>2015-03-18T11:14:09Z</time>
      </trkpt>
      <trkpt lat="45.74542" lon="6.69701">
        <ele>2540.42</ele>
        <time>2015-03-18T11:14:39Z</time>
      </trkpt>
      <trkpt lat="45.74545" lon="6.69701">
        <ele>2540.42</ele>
        <time>2015-03-18T11:15:09Z</time>
      </trkpt>
      <trkpt lat="45.74546" lon="6.69702">
        <ele>2540.42</ele>
        <time>2015-03-18T11:15:39Z</time>
      </trkpt>
      <trkpt lat="45.74544" lon="6.69705">
        <ele>2540.42</ele>
        <time>2015-03-18T11:16:09Z</time>
      </trkpt>
      <trkpt lat="45.74545" lon="6.69704">
        <ele>2538.5</ele>
        <time>2015-03-18T11:16:39Z</time>
      </trkpt>
      <trkpt lat="45.74543" lon="6.69708">
        <ele>2540.42</ele>
        <time>2015-03-18T11:17:09Z</time>
      </trkpt>
      <trkpt lat="45.74541" lon="6.69704">
        <ele>2539.94</ele>
        <time>2015-03-18T11:17:39Z</time>
      </trkpt>
      <trkpt lat="45.74544" lon="6.69706">
        <ele>2539.94</ele>
        <time>2015-03-18T11:18:09Z</time>
      </trkpt>
      <trkpt lat="45.74544" lon="6.69703">
        <ele>2540.42</ele>
        <time>2015-03-18T11:18:39Z</time>
      </trkpt>
      <trkpt lat="45.74543" lon="6.697">
        <ele>2540.42</ele>
        <time>2015-03-18T11:19:09Z</time>
      </trkpt>
      <trkpt lat="45.74544" lon="6.69699">
        <ele>2540.42</ele>
        <time>2015-03-18T11:19:39Z</time>
      </trkpt>
      <trkpt lat="45.74545" lon="6.69703">
        <ele>2540.42</ele>
        <time>2015-03-18T11:20:09Z</time>
      </trkpt>
      <trkpt lat="45.74545" lon="6.69703">
        <ele>2539.94</ele>
        <time>2015-03-18T11:20:39Z</time>
      </trkpt>
      <trkpt lat="45.74545" lon="6.69703">
        <ele>2539.94</ele>
        <time>2015-03-18T11:21:09Z</time>
      </trkpt>
      <trkpt lat="45.74543" lon="6.69704">
        <ele>2539.94</ele>
        <time>2015-03-18T11:21:39Z</time>
      </trkpt>
      <trkpt lat="45.74545" lon="6.69702">
        <ele>2539.94</ele>
        <time>2015-03-18T11:22:09Z</time>
      </trkpt>
      <trkpt lat="45.74545" lon="6.69702">
        <ele>2540.42</ele>
        <time>2015-03-18T11:22:39Z</time>
      </trkpt>
      <trkpt lat="45.74545" lon="6.69705">
        <ele>2540.42</ele>
        <time>2015-03-18T11:23:09Z</time>
      </trkpt>
      <trkpt lat="45.74544" lon="6.69703">
        <ele>2539.94</ele>
        <time>2015-03-18T11:23:39Z</time>
      </trkpt>
      <trkpt lat="45.74546" lon="6.69705">
        <ele>2540.42</ele>
        <time>2015-03-18T11:24:09Z</time>
      </trkpt>
      <trkpt lat="45.74549" lon="6.69706">
        <ele>2539.94</ele>
        <time>2015-03-18T11:24:39Z</time>
      </trkpt>
      <trkpt lat="45.74548" lon="6.69704">
        <ele>2539.94</ele>
        <time>2015-03-18T11:25:09Z</time>
      </trkpt>
      <trkpt lat="45.74549" lon="6.69706">
        <ele>2539.94</ele>
        <time>2015-03-18T11:25:39Z</time>
      </trkpt>
      <trkpt lat="45.74547" lon="6.69708">
        <ele>2540.42</ele>
        <time>2015-03-18T11:26:09Z</time>
      </trkpt>
      <trkpt lat="45.74545" lon="6.69699">
        <ele>2540.42</ele>
        <time>2015-03-18T11:26:39Z</time>
      </trkpt>
      <trkpt lat="45.74633" lon="6.69619">
        <ele>2513.02</ele>
        <time>2015-03-18T11:27:09Z</time>
      </trkpt>
      <trkpt lat="45.74633" lon="6.6962">
        <ele>2513.5</ele>
        <time>2015-03-18T11:27:39Z</time>
      </trkpt>
      <trkpt lat="45.74633" lon="6.69619">
        <ele>2513.5</ele>
        <time>2015-03-18T11:28:09Z</time>
      </trkpt>
      <trkpt lat="45.74633" lon="6.69619">
        <ele>2513.5</ele>
        <time>2015-03-18T11:28:39Z</time>
      </trkpt>
      <trkpt lat="45.74633" lon="6.69621">
        <ele>2513.5</ele>
        <time>2015-03-18T11:29:09Z</time>
      </trkpt>
      <trkpt lat="45.74755" lon="6.69542">
        <ele>2497.16</ele>
        <time>2015-03-18T11:29:39Z</time>
      </trkpt>
      <trkpt lat="45.74829" lon="6.69499">
        <ele>2493.32</ele>
        <time>2015-03-18T11:30:09Z</time>
      </trkpt>
      <trkpt lat="45.74838" lon="6.695">
        <ele>2495.72</ele>
        <time>2015-03-18T11:30:39Z</time>
      </trkpt>
      <trkpt lat="45.74845" lon="6.69494">
        <ele>2490.91</ele>
        <time>2015-03-18T11:31:09Z</time>
      </trkpt>
      <trkpt lat="45.7485" lon="6.69487">
        <ele>2488.51</ele>
        <time>2015-03-18T11:31:39Z</time>
      </trkpt>
      <trkpt lat="45.74851" lon="6.69484">
        <ele>2488.03</ele>
        <time>2015-03-18T11:32:09Z</time>
      </trkpt>
      <trkpt lat="45.74875" lon="6.69474">
        <ele>2479.86</ele>
        <time>2015-03-18T11:32:39Z</time>
      </trkpt>
      <trkpt lat="45.74925" lon="6.69394">
        <ele>2465.44</ele>
        <time>2015-03-18T11:33:09Z</time>
      </trkpt>
      <trkpt lat="45.74925" lon="6.69393">
        <ele>2465.44</ele>
        <time>2015-03-18T11:33:39Z</time>
      </trkpt>
      <trkpt lat="45.74944" lon="6.69374">
        <ele>2465.92</ele>
        <time>2015-03-18T11:34:09Z</time>
      </trkpt>
      <trkpt lat="45.74992" lon="6.69304">
        <ele>2463.52</ele>
        <time>2015-03-18T11:34:39Z</time>
      </trkpt>
      <trkpt lat="45.7501" lon="6.69306">
        <ele>2464.48</ele>
        <time>2015-03-18T11:35:09Z</time>
      </trkpt>
      <trkpt lat="45.7501" lon="6.69306">
        <ele>2464.48</ele>
        <time>2015-03-18T11:35:39Z</time>
      </trkpt>
      <trkpt lat="45.75022" lon="6.69306">
        <ele>2464.48</ele>
        <time>2015-03-18T11:36:09Z</time>
      </trkpt>
      <trkpt lat="45.7512" lon="6.69206">
        <ele>2455.34</ele>
        <time>2015-03-18T11:36:39Z</time>
      </trkpt>
      <trkpt lat="45.75116" lon="6.69186">
        <ele>2446.21</ele>
        <time>2015-03-18T11:37:09Z</time>
      </trkpt>
      <trkpt lat="45.75091" lon="6.69161">
        <ele>2436.12</ele>
        <time>2015-03-18T11:37:39Z</time>
      </trkpt>
      <trkpt lat="45.75148" lon="6.69132">
        <ele>2436.6</ele>
        <time>2015-03-18T11:38:09Z</time>
      </trkpt>
      <trkpt lat="45.75225" lon="6.69123">
        <ele>2434.68</ele>
        <time>2015-03-18T11:38:39Z</time>
      </trkpt>
      <trkpt lat="45.75226" lon="6.69123">
        <ele>2434.68</ele>
        <time>2015-03-18T11:39:09Z</time>
      </trkpt>
      <trkpt lat="45.7523" lon="6.69122">
        <ele>2434.68</ele>
        <time>2015-03-18T11:39:39Z</time>
      </trkpt>
      <trkpt lat="45.75238" lon="6.6911">
        <ele>2440.92</ele>
        <time>2015-03-18T11:40:09Z</time>
      </trkpt>
      <trkpt lat="45.75242" lon="6.69095">
        <ele>2445.73</ele>
        <time>2015-03-18T11:40:39Z</time>
      </trkpt>
      <trkpt lat="45.75243" lon="6.69082">
        <ele>2450.06</ele>
        <time>2015-03-18T11:41:09Z</time>
      </trkpt>
      <trkpt lat="45.75248" lon="6.69069">
        <ele>2454.38</ele>
        <time>2015-03-18T11:41:39Z</time>
      </trkpt>
      <trkpt lat="45.75249" lon="6.69059">
        <ele>2458.71</ele>
        <time>2015-03-18T11:42:09Z</time>
      </trkpt>
      <trkpt lat="45.75247" lon="6.6905">
        <ele>2462.55</ele>
        <time>2015-03-18T11:42:39Z</time>
      </trkpt>
      <trkpt lat="45.75251" lon="6.69048">
        <ele>2465.92</ele>
        <time>2015-03-18T11:43:09Z</time>
      </trkpt>
      <trkpt lat="45.7525" lon="6.69048">
        <ele>2466.4</ele>
        <time>2015-03-18T11:43:39Z</time>
      </trkpt>
      <trkpt lat="45.75248" lon="6.69048">
        <ele>2466.4</ele>
        <time>2015-03-18T11:44:09Z</time>
      </trkpt>
      <trkpt lat="45.75249" lon="6.69049">
        <ele>2464.96</ele>
        <time>2015-03-18T11:44:39Z</time>
      </trkpt>
      <trkpt lat="45.75249" lon="6.6905">
        <ele>2464.96</ele>
        <time>2015-03-18T11:45:09Z</time>
      </trkpt>
      <trkpt lat="45.75249" lon="6.69049">
        <ele>2464</ele>
        <time>2015-03-18T11:45:39Z</time>
      </trkpt>
      <trkpt lat="45.75248" lon="6.69049">
        <ele>2464</ele>
        <time>2015-03-18T11:46:09Z</time>
      </trkpt>
      <trkpt lat="45.75249" lon="6.69049">
        <ele>2464</ele>
        <time>2015-03-18T11:46:39Z</time>
      </trkpt>
      <trkpt lat="45.75249" lon="6.69048">
        <ele>2464</ele>
        <time>2015-03-18T11:47:09Z</time>
      </trkpt>
      <trkpt lat="45.75249" lon="6.69049">
        <ele>2464</ele>
        <time>2015-03-18T11:47:39Z</time>
      </trkpt>
      <trkpt lat="45.75249" lon="6.69049">
        <ele>2464</ele>
        <time>2015-03-18T11:48:09Z</time>
      </trkpt>
      <trkpt lat="45.75249" lon="6.6905">
        <ele>2464</ele>
        <time>2015-03-18T11:48:39Z</time>
      </trkpt>
      <trkpt lat="45.7525" lon="6.6905">
        <ele>2464</ele>
        <time>2015-03-18T11:49:09Z</time>
      </trkpt>
      <trkpt lat="45.75249" lon="6.6905">
        <ele>2464</ele>
        <time>2015-03-18T11:49:39Z</time>
      </trkpt>
      <trkpt lat="45.75248" lon="6.6905">
        <ele>2464</ele>
        <time>2015-03-18T11:50:09Z</time>
      </trkpt>
      <trkpt lat="45.75248" lon="6.6905">
        <ele>2464</ele>
        <time>2015-03-18T11:50:39Z</time>
      </trkpt>
      <trkpt lat="45.75248" lon="6.6905">
        <ele>2464</ele>
        <time>2015-03-18T11:51:09Z</time>
      </trkpt>
      <trkpt lat="45.75247" lon="6.69048">
        <ele>2464.96</ele>
        <time>2015-03-18T11:51:39Z</time>
      </trkpt>
      <trkpt lat="45.75249" lon="6.69048">
        <ele>2464.96</ele>
        <time>2015-03-18T11:52:09Z</time>
      </trkpt>
      <trkpt lat="45.75251" lon="6.69046">
        <ele>2464.96</ele>
        <time>2015-03-18T11:52:39Z</time>
      </trkpt>
      <trkpt lat="45.75248" lon="6.69048">
        <ele>2464</ele>
        <time>2015-03-18T11:53:09Z</time>
      </trkpt>
      <trkpt lat="45.75248" lon="6.69049">
        <ele>2464.48</ele>
        <time>2015-03-18T11:53:39Z</time>
      </trkpt>
      <trkpt lat="45.75248" lon="6.69047">
        <ele>2464</ele>
        <time>2015-03-18T11:54:09Z</time>
      </trkpt>
      <trkpt lat="45.75249" lon="6.69048">
        <ele>2463.52</ele>
        <time>2015-03-18T11:54:39Z</time>
      </trkpt>
      <trkpt lat="45.75249" lon="6.69049">
        <ele>2463.52</ele>
        <time>2015-03-18T11:55:09Z</time>
      </trkpt>
      <trkpt lat="45.75248" lon="6.69047">
        <ele>2465.44</ele>
        <time>2015-03-18T11:55:39Z</time>
      </trkpt>
      <trkpt lat="45.75242" lon="6.69068">
        <ele>2454.86</ele>
        <time>2015-03-18T11:56:09Z</time>
      </trkpt>
      <trkpt lat="45.75239" lon="6.69095">
        <ele>2445.25</ele>
        <time>2015-03-18T11:56:39Z</time>
      </trkpt>
      <trkpt lat="45.75231" lon="6.69122">
        <ele>2436.12</ele>
        <time>2015-03-18T11:57:09Z</time>
      </trkpt>
      <trkpt lat="45.75236" lon="6.69158">
        <ele>2433.71</ele>
        <time>2015-03-18T11:57:39Z</time>
      </trkpt>
      <trkpt lat="45.7524" lon="6.69182">
        <ele>2436.12</ele>
        <time>2015-03-18T11:58:09Z</time>
      </trkpt>
      <trkpt lat="45.75242" lon="6.69189">
        <ele>2434.68</ele>
        <time>2015-03-18T11:58:39Z</time>
      </trkpt>
      <trkpt lat="45.75243" lon="6.69193">
        <ele>2430.35</ele>
        <time>2015-03-18T11:59:09Z</time>
      </trkpt>
      <trkpt lat="45.75245" lon="6.69197">
        <ele>2428.43</ele>
        <time>2015-03-18T11:59:39Z</time>
      </trkpt>
      <trkpt lat="45.75245" lon="6.69195">
        <ele>2428.43</ele>
        <time>2015-03-18T12:00:09Z</time>
      </trkpt>
      <trkpt lat="45.75247" lon="6.69198">
        <ele>2427.95</ele>
        <time>2015-03-18T12:00:39Z</time>
      </trkpt>
      <trkpt lat="45.75247" lon="6.69198">
        <ele>2427.47</ele>
        <time>2015-03-18T12:01:09Z</time>
      </trkpt>
      <trkpt lat="45.75257" lon="6.69215">
        <ele>2420.26</ele>
        <time>2015-03-18T12:01:39Z</time>
      </trkpt>
      <trkpt lat="45.75272" lon="6.69204">
        <ele>2412.57</ele>
        <time>2015-03-18T12:02:09Z</time>
      </trkpt>
      <trkpt lat="45.75281" lon="6.69188">
        <ele>2407.28</ele>
        <time>2015-03-18T12:02:39Z</time>
      </trkpt>
      <trkpt lat="45.75287" lon="6.69179">
        <ele>2402.95</ele>
        <time>2015-03-18T12:03:09Z</time>
      </trkpt>
      <trkpt lat="45.75294" lon="6.69166">
        <ele>2397.67</ele>
        <time>2015-03-18T12:03:39Z</time>
      </trkpt>
      <trkpt lat="45.75301" lon="6.69158">
        <ele>2392.86</ele>
        <time>2015-03-18T12:04:09Z</time>
      </trkpt>
      <trkpt lat="45.75307" lon="6.69153">
        <ele>2388.53</ele>
        <time>2015-03-18T12:04:39Z</time>
      </trkpt>
      <trkpt lat="45.75314" lon="6.69149">
        <ele>2383.73</ele>
        <time>2015-03-18T12:05:09Z</time>
      </trkpt>
      <trkpt lat="45.75316" lon="6.69152">
        <ele>2380.84</ele>
        <time>2015-03-18T12:05:39Z</time>
      </trkpt>
      <trkpt lat="45.75319" lon="6.6915">
        <ele>2378.44</ele>
        <time>2015-03-18T12:06:09Z</time>
      </trkpt>
      <trkpt lat="45.75324" lon="6.69148">
        <ele>2373.63</ele>
        <time>2015-03-18T12:06:39Z</time>
      </trkpt>
      <trkpt lat="45.75328" lon="6.69148">
        <ele>2369.79</ele>
        <time>2015-03-18T12:07:09Z</time>
      </trkpt>
      <trkpt lat="45.75332" lon="6.69147">
        <ele>2366.42</ele>
        <time>2015-03-18T12:07:39Z</time>
      </trkpt>
      <trkpt lat="45.75337" lon="6.69146">
        <ele>2361.62</ele>
        <time>2015-03-18T12:08:09Z</time>
      </trkpt>
      <trkpt lat="45.7534" lon="6.69147">
        <ele>2358.25</ele>
        <time>2015-03-18T12:08:39Z</time>
      </trkpt>
      <trkpt lat="45.75342" lon="6.69148">
        <ele>2356.81</ele>
        <time>2015-03-18T12:09:09Z</time>
      </trkpt>
      <trkpt lat="45.75345" lon="6.69149">
        <ele>2353.93</ele>
        <time>2015-03-18T12:09:39Z</time>
      </trkpt>
      <trkpt lat="45.75351" lon="6.6915">
        <ele>2347.68</ele>
        <time>2015-03-18T12:10:09Z</time>
      </trkpt>
      <trkpt lat="45.75357" lon="6.69153">
        <ele>2341.91</ele>
        <time>2015-03-18T12:10:39Z</time>
      </trkpt>
      <trkpt lat="45.75358" lon="6.69156">
        <ele>2338.54</ele>
        <time>2015-03-18T12:11:09Z</time>
      </trkpt>
      <trkpt lat="45.75367" lon="6.69159">
        <ele>2331.81</ele>
        <time>2015-03-18T12:11:39Z</time>
      </trkpt>
      <trkpt lat="45.75375" lon="6.69154">
        <ele>2326.53</ele>
        <time>2015-03-18T12:12:09Z</time>
      </trkpt>
      <trkpt lat="45.75384" lon="6.69151">
        <ele>2319.8</ele>
        <time>2015-03-18T12:12:39Z</time>
      </trkpt>
      <trkpt lat="45.75387" lon="6.69144">
        <ele>2318.84</ele>
        <time>2015-03-18T12:13:09Z</time>
      </trkpt>
      <trkpt lat="45.75388" lon="6.69133">
        <ele>2317.4</ele>
        <time>2015-03-18T12:13:39Z</time>
      </trkpt>
      <trkpt lat="45.75393" lon="6.69112">
        <ele>2315.47</ele>
        <time>2015-03-18T12:14:09Z</time>
      </trkpt>
      <trkpt lat="45.75393" lon="6.69099">
        <ele>2314.99</ele>
        <time>2015-03-18T12:14:39Z</time>
      </trkpt>
      <trkpt lat="45.75397" lon="6.69085">
        <ele>2317.4</ele>
        <time>2015-03-18T12:15:09Z</time>
      </trkpt>
      <trkpt lat="45.75398" lon="6.69071">
        <ele>2318.84</ele>
        <time>2015-03-18T12:15:39Z</time>
      </trkpt>
      <trkpt lat="45.75398" lon="6.69055">
        <ele>2320.76</ele>
        <time>2015-03-18T12:16:09Z</time>
      </trkpt>
      <trkpt lat="45.754" lon="6.69042">
        <ele>2322.2</ele>
        <time>2015-03-18T12:16:39Z</time>
      </trkpt>
      <trkpt lat="45.75399" lon="6.69031">
        <ele>2323.64</ele>
        <time>2015-03-18T12:17:09Z</time>
      </trkpt>
      <trkpt lat="45.754" lon="6.69019">
        <ele>2325.09</ele>
        <time>2015-03-18T12:17:39Z</time>
      </trkpt>
      <trkpt lat="45.75399" lon="6.69008">
        <ele>2327.49</ele>
        <time>2015-03-18T12:18:09Z</time>
      </trkpt>
      <trkpt lat="45.754" lon="6.68999">
        <ele>2330.85</ele>
        <time>2015-03-18T12:18:39Z</time>
      </trkpt>
      <trkpt lat="45.75399" lon="6.68987">
        <ele>2333.26</ele>
        <time>2015-03-18T12:19:09Z</time>
      </trkpt>
      <trkpt lat="45.75399" lon="6.68981">
        <ele>2336.14</ele>
        <time>2015-03-18T12:19:39Z</time>
      </trkpt>
      <trkpt lat="45.75401" lon="6.68974">
        <ele>2337.58</ele>
        <time>2015-03-18T12:20:09Z</time>
      </trkpt>
      <trkpt lat="45.75402" lon="6.68968">
        <ele>2338.54</ele>
        <time>2015-03-18T12:20:39Z</time>
      </trkpt>
      <trkpt lat="45.75402" lon="6.68962">
        <ele>2339.99</ele>
        <time>2015-03-18T12:21:09Z</time>
      </trkpt>
      <trkpt lat="45.75395" lon="6.68955">
        <ele>2341.91</ele>
        <time>2015-03-18T12:21:39Z</time>
      </trkpt>
      <trkpt lat="45.75388" lon="6.68957">
        <ele>2344.31</ele>
        <time>2015-03-18T12:22:09Z</time>
      </trkpt>
      <trkpt lat="45.75381" lon="6.68962">
        <ele>2346.23</ele>
        <time>2015-03-18T12:22:39Z</time>
      </trkpt>
      <trkpt lat="45.75383" lon="6.6896">
        <ele>2348.64</ele>
        <time>2015-03-18T12:23:09Z</time>
      </trkpt>
      <trkpt lat="45.75382" lon="6.68954">
        <ele>2350.56</ele>
        <time>2015-03-18T12:23:39Z</time>
      </trkpt>
      <trkpt lat="45.75377" lon="6.68949">
        <ele>2353.44</ele>
        <time>2015-03-18T12:24:09Z</time>
      </trkpt>
      <trkpt lat="45.75375" lon="6.68948">
        <ele>2357.29</ele>
        <time>2015-03-18T12:24:39Z</time>
      </trkpt>
      <trkpt lat="45.75371" lon="6.68942">
        <ele>2360.65</ele>
        <time>2015-03-18T12:25:09Z</time>
      </trkpt>
      <trkpt lat="45.75365" lon="6.68936">
        <ele>2364.02</ele>
        <time>2015-03-18T12:25:39Z</time>
      </trkpt>
      <trkpt lat="45.75366" lon="6.68931">
        <ele>2366.42</ele>
        <time>2015-03-18T12:26:09Z</time>
      </trkpt>
      <trkpt lat="45.75359" lon="6.68934">
        <ele>2368.35</ele>
        <time>2015-03-18T12:26:39Z</time>
      </trkpt>
      <trkpt lat="45.75354" lon="6.68929">
        <ele>2373.15</ele>
        <time>2015-03-18T12:27:09Z</time>
      </trkpt>
      <trkpt lat="45.75348" lon="6.68923">
        <ele>2376.52</ele>
        <time>2015-03-18T12:27:39Z</time>
      </trkpt>
      <trkpt lat="45.75347" lon="6.68924">
        <ele>2379.88</ele>
        <time>2015-03-18T12:28:09Z</time>
      </trkpt>
      <trkpt lat="45.75339" lon="6.68923">
        <ele>2382.76</ele>
        <time>2015-03-18T12:28:39Z</time>
      </trkpt>
      <trkpt lat="45.75336" lon="6.68925">
        <ele>2383.73</ele>
        <time>2015-03-18T12:29:09Z</time>
      </trkpt>
      <trkpt lat="45.75337" lon="6.68922">
        <ele>2383.25</ele>
        <time>2015-03-18T12:29:39Z</time>
      </trkpt>
      <trkpt lat="45.75338" lon="6.68924">
        <ele>2383.25</ele>
        <time>2015-03-18T12:30:09Z</time>
      </trkpt>
      <trkpt lat="45.75336" lon="6.68928">
        <ele>2383.25</ele>
        <time>2015-03-18T12:30:39Z</time>
      </trkpt>
      <trkpt lat="45.75338" lon="6.68922">
        <ele>2382.76</ele>
        <time>2015-03-18T12:31:09Z</time>
      </trkpt>
      <trkpt lat="45.75339" lon="6.68925">
        <ele>2383.73</ele>
        <time>2015-03-18T12:31:39Z</time>
      </trkpt>
      <trkpt lat="45.75339" lon="6.68926">
        <ele>2383.73</ele>
        <time>2015-03-18T12:32:09Z</time>
      </trkpt>
      <trkpt lat="45.75334" lon="6.68926">
        <ele>2383.73</ele>
        <time>2015-03-18T12:32:39Z</time>
      </trkpt>
      <trkpt lat="45.75336" lon="6.68929">
        <ele>2383.73</ele>
        <time>2015-03-18T12:33:09Z</time>
      </trkpt>
      <trkpt lat="45.75335" lon="6.68929">
        <ele>2382.76</ele>
        <time>2015-03-18T12:33:39Z</time>
      </trkpt>
      <trkpt lat="45.75336" lon="6.68921">
        <ele>2382.76</ele>
        <time>2015-03-18T12:34:09Z</time>
      </trkpt>
      <trkpt lat="45.75335" lon="6.68923">
        <ele>2382.76</ele>
        <time>2015-03-18T12:34:39Z</time>
      </trkpt>
      <trkpt lat="45.75334" lon="6.68926">
        <ele>2382.76</ele>
        <time>2015-03-18T12:35:09Z</time>
      </trkpt>
      <trkpt lat="45.75335" lon="6.68924">
        <ele>2382.76</ele>
        <time>2015-03-18T12:35:39Z</time>
      </trkpt>
      <trkpt lat="45.75334" lon="6.68916">
        <ele>2382.76</ele>
        <time>2015-03-18T12:36:09Z</time>
      </trkpt>
      <trkpt lat="45.75334" lon="6.68921">
        <ele>2382.28</ele>
        <time>2015-03-18T12:36:39Z</time>
      </trkpt>
      <trkpt lat="45.75335" lon="6.68917">
        <ele>2382.28</ele>
        <time>2015-03-18T12:37:09Z</time>
      </trkpt>
      <trkpt lat="45.75336" lon="6.68919">
        <ele>2382.28</ele>
        <time>2015-03-18T12:37:39Z</time>
      </trkpt>
      <trkpt lat="45.75336" lon="6.68919">
        <ele>2382.28</ele>
        <time>2015-03-18T12:38:09Z</time>
      </trkpt>
      <trkpt lat="45.7534" lon="6.68923">
        <ele>2382.28</ele>
        <time>2015-03-18T12:38:39Z</time>
      </trkpt>
      <trkpt lat="45.75337" lon="6.68921">
        <ele>2382.28</ele>
        <time>2015-03-18T12:39:09Z</time>
      </trkpt>
      <trkpt lat="45.75338" lon="6.68924">
        <ele>2382.28</ele>
        <time>2015-03-18T12:39:39Z</time>
      </trkpt>
      <trkpt lat="45.75338" lon="6.6893">
        <ele>2382.28</ele>
        <time>2015-03-18T12:40:09Z</time>
      </trkpt>
      <trkpt lat="45.75336" lon="6.68928">
        <ele>2379.88</ele>
        <time>2015-03-18T12:40:39Z</time>
      </trkpt>
      <trkpt lat="45.75336" lon="6.68929">
        <ele>2382.76</ele>
        <time>2015-03-18T12:41:09Z</time>
      </trkpt>
      <trkpt lat="45.75335" lon="6.68926">
        <ele>2382.76</ele>
        <time>2015-03-18T12:41:39Z</time>
      </trkpt>
      <trkpt lat="45.75336" lon="6.68924">
        <ele>2382.76</ele>
        <time>2015-03-18T12:42:09Z</time>
      </trkpt>
      <trkpt lat="45.7534" lon="6.68916">
        <ele>2382.76</ele>
        <time>2015-03-18T12:42:39Z</time>
      </trkpt>
      <trkpt lat="45.75337" lon="6.68916">
        <ele>2382.28</ele>
        <time>2015-03-18T12:43:09Z</time>
      </trkpt>
      <trkpt lat="45.75342" lon="6.68924">
        <ele>2381.8</ele>
        <time>2015-03-18T12:43:39Z</time>
      </trkpt>
      <trkpt lat="45.75332" lon="6.6892">
        <ele>2381.8</ele>
        <time>2015-03-18T12:44:09Z</time>
      </trkpt>
      <trkpt lat="45.75334" lon="6.68919">
        <ele>2381.8</ele>
        <time>2015-03-18T12:44:39Z</time>
      </trkpt>
      <trkpt lat="45.75339" lon="6.68921">
        <ele>2381.8</ele>
        <time>2015-03-18T12:45:09Z</time>
      </trkpt>
      <trkpt lat="45.75337" lon="6.68925">
        <ele>2383.73</ele>
        <time>2015-03-18T12:45:39Z</time>
      </trkpt>
      <trkpt lat="45.75335" lon="6.68924">
        <ele>2382.28</ele>
        <time>2015-03-18T12:46:09Z</time>
      </trkpt>
      <trkpt lat="45.75333" lon="6.68926">
        <ele>2382.28</ele>
        <time>2015-03-18T12:46:39Z</time>
      </trkpt>
      <trkpt lat="45.75332" lon="6.68924">
        <ele>2382.28</ele>
        <time>2015-03-18T12:47:09Z</time>
      </trkpt>
      <trkpt lat="45.75324" lon="6.68894">
        <ele>2380.84</ele>
        <time>2015-03-18T12:47:39Z</time>
      </trkpt>
      <trkpt lat="45.7524" lon="6.68749">
        <ele>2365.46</ele>
        <time>2015-03-18T12:48:09Z</time>
      </trkpt>
      <trkpt lat="45.75186" lon="6.68684">
        <ele>2357.29</ele>
        <time>2015-03-18T12:48:39Z</time>
      </trkpt>
      <trkpt lat="45.75181" lon="6.68687">
        <ele>2356.81</ele>
        <time>2015-03-18T12:49:09Z</time>
      </trkpt>
      <trkpt lat="45.75178" lon="6.68667">
        <ele>2356.81</ele>
        <time>2015-03-18T12:49:39Z</time>
      </trkpt>
      <trkpt lat="45.75174" lon="6.68597">
        <ele>2355.37</ele>
        <time>2015-03-18T12:50:09Z</time>
      </trkpt>
      <trkpt lat="45.75111" lon="6.68422">
        <ele>2338.54</ele>
        <time>2015-03-18T12:50:39Z</time>
      </trkpt>
      <trkpt lat="45.74948" lon="6.68277">
        <ele>2321.24</ele>
        <time>2015-03-18T12:51:09Z</time>
      </trkpt>
      <trkpt lat="45.74854" lon="6.68188">
        <ele>2313.07</ele>
        <time>2015-03-18T12:51:39Z</time>
      </trkpt>
      <trkpt lat="45.74848" lon="6.68172">
        <ele>2314.51</ele>
        <time>2015-03-18T12:52:09Z</time>
      </trkpt>
      <trkpt lat="45.74851" lon="6.68173">
        <ele>2314.51</ele>
        <time>2015-03-18T12:52:39Z</time>
      </trkpt>
      <trkpt lat="45.74842" lon="6.68155">
        <ele>2314.99</ele>
        <time>2015-03-18T12:53:09Z</time>
      </trkpt>
      <trkpt lat="45.74833" lon="6.67986">
        <ele>2302.01</ele>
        <time>2015-03-18T12:53:39Z</time>
      </trkpt>
      <trkpt lat="45.74847" lon="6.67857">
        <ele>2295.77</ele>
        <time>2015-03-18T12:54:09Z</time>
      </trkpt>
      <trkpt lat="45.74855" lon="6.67841">
        <ele>2294.8</ele>
        <time>2015-03-18T12:54:39Z</time>
      </trkpt>
      <trkpt lat="45.74856" lon="6.67842">
        <ele>2294.8</ele>
        <time>2015-03-18T12:55:09Z</time>
      </trkpt>
      <trkpt lat="45.74886" lon="6.67812">
        <ele>2292.88</ele>
        <time>2015-03-18T12:55:39Z</time>
      </trkpt>
      <trkpt lat="45.7502" lon="6.6782">
        <ele>2280.87</ele>
        <time>2015-03-18T12:56:09Z</time>
      </trkpt>
      <trkpt lat="45.75067" lon="6.67843">
        <ele>2273.66</ele>
        <time>2015-03-18T12:56:39Z</time>
      </trkpt>
      <trkpt lat="45.75104" lon="6.67782">
        <ele>2265.48</ele>
        <time>2015-03-18T12:57:09Z</time>
      </trkpt>
      <trkpt lat="45.75117" lon="6.67779">
        <ele>2265.48</ele>
        <time>2015-03-18T12:57:39Z</time>
      </trkpt>
      <trkpt lat="45.75143" lon="6.67782">
        <ele>2265.48</ele>
        <time>2015-03-18T12:58:09Z</time>
      </trkpt>
      <trkpt lat="45.75183" lon="6.67824">
        <ele>2261.64</ele>
        <time>2015-03-18T12:58:39Z</time>
      </trkpt>
      <trkpt lat="45.75184" lon="6.67823">
        <ele>2261.16</ele>
        <time>2015-03-18T12:59:09Z</time>
      </trkpt>
      <trkpt lat="45.75245" lon="6.67812">
        <ele>2242.41</ele>
        <time>2015-03-18T12:59:39Z</time>
      </trkpt>
      <trkpt lat="45.75353" lon="6.67652">
        <ele>2221.26</ele>
        <time>2015-03-18T13:00:09Z</time>
      </trkpt>
      <trkpt lat="45.75473" lon="6.67653">
        <ele>2203.96</ele>
        <time>2015-03-18T13:00:39Z</time>
      </trkpt>
      <trkpt lat="45.75535" lon="6.67684">
        <ele>2183.77</ele>
        <time>2015-03-18T13:01:09Z</time>
      </trkpt>
      <trkpt lat="45.75694" lon="6.67733">
        <ele>2171.76</ele>
        <time>2015-03-18T13:01:39Z</time>
      </trkpt>
      <trkpt lat="45.7584" lon="6.6774">
        <ele>2156.86</ele>
        <time>2015-03-18T13:02:09Z</time>
      </trkpt>
      <trkpt lat="45.75872" lon="6.67753">
        <ele>2153.49</ele>
        <time>2015-03-18T13:02:39Z</time>
      </trkpt>
      <trkpt lat="45.75869" lon="6.67754">
        <ele>2151.57</ele>
        <time>2015-03-18T13:03:09Z</time>
      </trkpt>
      <trkpt lat="45.7587" lon="6.67756">
        <ele>2151.09</ele>
        <time>2015-03-18T13:03:39Z</time>
      </trkpt>
      <trkpt lat="45.75873" lon="6.67753">
        <ele>2151.09</ele>
        <time>2015-03-18T13:04:09Z</time>
      </trkpt>
      <trkpt lat="45.75874" lon="6.67756">
        <ele>2151.09</ele>
        <time>2015-03-18T13:04:39Z</time>
      </trkpt>
      <trkpt lat="45.75876" lon="6.67756">
        <ele>2150.61</ele>
        <time>2015-03-18T13:05:09Z</time>
      </trkpt>
      <trkpt lat="45.75876" lon="6.67757">
        <ele>2150.61</ele>
        <time>2015-03-18T13:05:39Z</time>
      </trkpt>
      <trkpt lat="45.75876" lon="6.67757">
        <ele>2150.13</ele>
        <time>2015-03-18T13:06:09Z</time>
      </trkpt>
      <trkpt lat="45.75875" lon="6.6776">
        <ele>2152.05</ele>
        <time>2015-03-18T13:06:39Z</time>
      </trkpt>
      <trkpt lat="45.7599" lon="6.67899">
        <ele>2133.78</ele>
        <time>2015-03-18T13:07:09Z</time>
      </trkpt>
      <trkpt lat="45.76085" lon="6.68003">
        <ele>2120.81</ele>
        <time>2015-03-18T13:07:39Z</time>
      </trkpt>
      <trkpt lat="45.76202" lon="6.6814">
        <ele>2097.25</ele>
        <time>2015-03-18T13:08:09Z</time>
      </trkpt>
      <trkpt lat="45.76369" lon="6.68184">
        <ele>2079.47</ele>
        <time>2015-03-18T13:08:39Z</time>
      </trkpt>
      <trkpt lat="45.76533" lon="6.68331">
        <ele>2048.71</ele>
        <time>2015-03-18T13:09:09Z</time>
      </trkpt>
      <trkpt lat="45.76756" lon="6.68281">
        <ele>2021.31</ele>
        <time>2015-03-18T13:09:39Z</time>
      </trkpt>
      <trkpt lat="45.76901" lon="6.68146">
        <ele>2000.64</ele>
        <time>2015-03-18T13:10:09Z</time>
      </trkpt>
      <trkpt lat="45.77011" lon="6.68137">
        <ele>1985.74</ele>
        <time>2015-03-18T13:10:39Z</time>
      </trkpt>
      <trkpt lat="45.77109" lon="6.68106">
        <ele>1977.57</ele>
        <time>2015-03-18T13:11:09Z</time>
      </trkpt>
      <trkpt lat="45.77262" lon="6.68092">
        <ele>1948.25</ele>
        <time>2015-03-18T13:11:39Z</time>
      </trkpt>
      <trkpt lat="45.77386" lon="6.67887">
        <ele>1913.16</ele>
        <time>2015-03-18T13:12:09Z</time>
      </trkpt>
      <trkpt lat="45.77453" lon="6.67677">
        <ele>1897.78</ele>
        <time>2015-03-18T13:12:39Z</time>
      </trkpt>
      <trkpt lat="45.77508" lon="6.67443">
        <ele>1875.19</ele>
        <time>2015-03-18T13:13:09Z</time>
      </trkpt>
      <trkpt lat="45.7749" lon="6.67206">
        <ele>1861.25</ele>
        <time>2015-03-18T13:13:39Z</time>
      </trkpt>
      <trkpt lat="45.77464" lon="6.67159">
        <ele>1858.37</ele>
        <time>2015-03-18T13:14:09Z</time>
      </trkpt>
      <trkpt lat="45.77459" lon="6.67156">
        <ele>1858.37</ele>
        <time>2015-03-18T13:14:39Z</time>
      </trkpt>
      <trkpt lat="45.77466" lon="6.67183">
        <ele>1857.89</ele>
        <time>2015-03-18T13:15:09Z</time>
      </trkpt>
      <trkpt lat="45.77346" lon="6.67213">
        <ele>1814.15</ele>
        <time>2015-03-18T13:15:39Z</time>
      </trkpt>
      <trkpt lat="45.77223" lon="6.67052">
        <ele>1785.79</ele>
        <time>2015-03-18T13:16:09Z</time>
      </trkpt>
      <trkpt lat="45.77222" lon="6.67052">
        <ele>1787.71</ele>
        <time>2015-03-18T13:16:39Z</time>
      </trkpt>
      <trkpt lat="45.77144" lon="6.66993">
        <ele>1765.6</ele>
        <time>2015-03-18T13:17:09Z</time>
      </trkpt>
      <trkpt lat="45.77058" lon="6.6697">
        <ele>1727.63</ele>
        <time>2015-03-18T13:17:39Z</time>
      </trkpt>
      <trkpt lat="45.77022" lon="6.66832">
        <ele>1684.85</ele>
        <time>2015-03-18T13:18:09Z</time>
      </trkpt>
      <trkpt lat="45.77011" lon="6.66677">
        <ele>1676.68</ele>
        <time>2015-03-18T13:18:39Z</time>
      </trkpt>
      <trkpt lat="45.77022" lon="6.66651">
        <ele>1678.12</ele>
        <time>2015-03-18T13:19:09Z</time>
      </trkpt>
      <trkpt lat="45.77031" lon="6.66599">
        <ele>1676.2</ele>
        <time>2015-03-18T13:19:39Z</time>
      </trkpt>
      <trkpt lat="45.77041" lon="6.66567">
        <ele>1674.27</ele>
        <time>2015-03-18T13:20:09Z</time>
      </trkpt>
      <trkpt lat="45.77043" lon="6.66565">
        <ele>1673.79</ele>
        <time>2015-03-18T13:20:39Z</time>
      </trkpt>
      <trkpt lat="45.77054" lon="6.66475">
        <ele>1653.6</ele>
        <time>2015-03-18T13:21:09Z</time>
      </trkpt>
      <trkpt lat="45.77053" lon="6.66468">
        <ele>1652.16</ele>
        <time>2015-03-18T13:21:39Z</time>
      </trkpt>
      <trkpt lat="45.77058" lon="6.66418">
        <ele>1636.78</ele>
        <time>2015-03-18T13:22:09Z</time>
      </trkpt>
      <trkpt lat="45.77045" lon="6.66388">
        <ele>1626.69</ele>
        <time>2015-03-18T13:22:39Z</time>
      </trkpt>
      <trkpt lat="45.77043" lon="6.6634">
        <ele>1620.44</ele>
        <time>2015-03-18T13:23:09Z</time>
      </trkpt>
      <trkpt lat="45.7704" lon="6.6632">
        <ele>1615.15</ele>
        <time>2015-03-18T13:23:39Z</time>
      </trkpt>
      <trkpt lat="45.77051" lon="6.66273">
        <ele>1603.62</ele>
        <time>2015-03-18T13:24:09Z</time>
      </trkpt>
      <trkpt lat="45.77063" lon="6.66233">
        <ele>1603.62</ele>
        <time>2015-03-18T13:24:39Z</time>
      </trkpt>
      <trkpt lat="45.77067" lon="6.6621">
        <ele>1595.45</ele>
        <time>2015-03-18T13:25:09Z</time>
      </trkpt>
      <trkpt lat="45.77068" lon="6.66201">
        <ele>1594.96</ele>
        <time>2015-03-18T13:25:39Z</time>
      </trkpt>
      <trkpt lat="45.77045" lon="6.66221">
        <ele>1587.27</ele>
        <time>2015-03-18T13:26:09Z</time>
      </trkpt>
      <trkpt lat="45.77023" lon="6.66208">
        <ele>1573.33</ele>
        <time>2015-03-18T13:26:39Z</time>
      </trkpt>
      <trkpt lat="45.76985" lon="6.66167">
        <ele>1554.59</ele>
        <time>2015-03-18T13:27:09Z</time>
      </trkpt>
      <trkpt lat="45.77006" lon="6.66041">
        <ele>1538.73</ele>
        <time>2015-03-18T13:27:39Z</time>
      </trkpt>
      <trkpt lat="45.77045" lon="6.65929">
        <ele>1532.48</ele>
        <time>2015-03-18T13:28:09Z</time>
      </trkpt>
      <trkpt lat="45.7709" lon="6.65814">
        <ele>1526.23</ele>
        <time>2015-03-18T13:28:39Z</time>
      </trkpt>
      <trkpt lat="45.7713" lon="6.65769">
        <ele>1524.79</ele>
        <time>2015-03-18T13:29:09Z</time>
      </trkpt>
      <trkpt lat="45.77148" lon="6.65747">
        <ele>1524.79</ele>
        <time>2015-03-18T13:29:39Z</time>
      </trkpt>
      <trkpt lat="45.77178" lon="6.65712">
        <ele>1524.79</ele>
        <time>2015-03-18T13:30:09Z</time>
      </trkpt>
      <trkpt lat="45.77196" lon="6.65703">
        <ele>1525.75</ele>
        <time>2015-03-18T13:30:39Z</time>
      </trkpt>
      <trkpt lat="45.77221" lon="6.65666">
        <ele>1525.75</ele>
        <time>2015-03-18T13:31:09Z</time>
      </trkpt>
      <trkpt lat="45.77249" lon="6.65605">
        <ele>1523.35</ele>
        <time>2015-03-18T13:31:39Z</time>
      </trkpt>
      <trkpt lat="45.77277" lon="6.65546">
        <ele>1520.94</ele>
        <time>2015-03-18T13:32:09Z</time>
      </trkpt>
      <trkpt lat="45.77326" lon="6.65462">
        <ele>1517.1</ele>
        <time>2015-03-18T13:32:39Z</time>
      </trkpt>
      <trkpt lat="45.77357" lon="6.65383">
        <ele>1513.25</ele>
        <time>2015-03-18T13:33:09Z</time>
      </trkpt>
      <trkpt lat="45.77356" lon="6.65376">
        <ele>1512.77</ele>
        <time>2015-03-18T13:33:39Z</time>
      </trkpt>
      <trkpt lat="45.7735" lon="6.65353">
        <ele>1512.29</ele>
        <time>2015-03-18T13:34:09Z</time>
      </trkpt>
      <trkpt lat="45.77354" lon="6.65326">
        <ele>1513.73</ele>
        <time>2015-03-18T13:34:39Z</time>
      </trkpt>
      <trkpt lat="45.77355" lon="6.65327">
        <ele>1513.73</ele>
        <time>2015-03-18T13:35:09Z</time>
      </trkpt>
      <trkpt lat="45.77359" lon="6.65322">
        <ele>1513.73</ele>
        <time>2015-03-18T13:35:39Z</time>
      </trkpt>
      <trkpt lat="45.77391" lon="6.65262">
        <ele>1509.41</ele>
        <time>2015-03-18T13:36:09Z</time>
      </trkpt>
      <trkpt lat="45.77395" lon="6.65254">
        <ele>1508.93</ele>
        <time>2015-03-18T13:36:39Z</time>
      </trkpt>
      <trkpt lat="45.77402" lon="6.6524">
        <ele>1510.37</ele>
        <time>2015-03-18T13:37:09Z</time>
      </trkpt>
      <trkpt lat="45.77405" lon="6.65238">
        <ele>1510.37</ele>
        <time>2015-03-18T13:37:39Z</time>
      </trkpt>
      <trkpt lat="45.77403" lon="6.65238">
        <ele>1509.89</ele>
        <time>2015-03-18T13:38:09Z</time>
      </trkpt>
      <trkpt lat="45.77389" lon="6.6519">
        <ele>1505.08</ele>
        <time>2015-03-18T13:38:39Z</time>
      </trkpt>
      <trkpt lat="45.77394" lon="6.65169">
        <ele>1504.12</ele>
        <time>2015-03-18T13:39:09Z</time>
      </trkpt>
      <trkpt lat="45.77408" lon="6.65134">
        <ele>1503.64</ele>
        <time>2015-03-18T13:39:39Z</time>
      </trkpt>
      <trkpt lat="45.77411" lon="6.6513">
        <ele>1503.64</ele>
        <time>2015-03-18T13:40:09Z</time>
      </trkpt>
      <trkpt lat="45.77429" lon="6.65112">
        <ele>1504.6</ele>
        <time>2015-03-18T13:40:39Z</time>
      </trkpt>
      <trkpt lat="45.77442" lon="6.65105">
        <ele>1507.48</ele>
        <time>2015-03-18T13:41:09Z</time>
      </trkpt>
      <trkpt lat="45.77459" lon="6.65096">
        <ele>1508.93</ele>
        <time>2015-03-18T13:41:39Z</time>
      </trkpt>
      <trkpt lat="45.7746" lon="6.65097">
        <ele>1508.45</ele>
        <time>2015-03-18T13:42:09Z</time>
      </trkpt>
      <trkpt lat="45.7746" lon="6.65099">
        <ele>1508.45</ele>
        <time>2015-03-18T13:42:39Z</time>
      </trkpt>
      <trkpt lat="45.7746" lon="6.65096">
        <ele>1508.45</ele>
        <time>2015-03-18T13:43:09Z</time>
      </trkpt>
      <trkpt lat="45.77459" lon="6.65096">
        <ele>1508.45</ele>
        <time>2015-03-18T13:43:39Z</time>
      </trkpt>
      <trkpt lat="45.77474" lon="6.65049">
        <ele>1500.76</ele>
        <time>2015-03-18T13:44:09Z</time>
      </trkpt>
      <trkpt lat="45.77467" lon="6.64917">
        <ele>1466.63</ele>
        <time>2015-03-18T13:44:39Z</time>
      </trkpt>
      <trkpt lat="45.77473" lon="6.64918">
        <ele>1466.63</ele>
        <time>2015-03-18T13:45:09Z</time>
      </trkpt>
      <trkpt lat="45.7747" lon="6.64916">
        <ele>1466.15</ele>
        <time>2015-03-18T13:45:39Z</time>
      </trkpt>
      <trkpt lat="45.77471" lon="6.64919">
        <ele>1466.15</ele>
        <time>2015-03-18T13:46:09Z</time>
      </trkpt>
      <trkpt lat="45.77468" lon="6.64746">
        <ele>1417.6</ele>
        <time>2015-03-18T13:46:39Z</time>
      </trkpt>
      <trkpt lat="45.77345" lon="6.64752">
        <ele>1371.94</ele>
        <time>2015-03-18T13:47:09Z</time>
      </trkpt>
      <trkpt lat="45.7734" lon="6.64561">
        <ele>1326.28</ele>
        <time>2015-03-18T13:47:39Z</time>
      </trkpt>
      <trkpt lat="45.77332" lon="6.64266">
        <ele>1269.08</ele>
        <time>2015-03-18T13:48:08Z</time>
      </trkpt>
      <trkpt lat="45.773" lon="6.64049">
        <ele>1236.39</ele>
        <time>2015-03-18T13:48:39Z</time>
      </trkpt>
      <trkpt lat="45.77291" lon="6.64026">
        <ele>1235.91</ele>
        <time>2015-03-18T13:49:09Z</time>
      </trkpt>
      <trkpt lat="45.77267" lon="6.64024">
        <ele>1236.39</ele>
        <time>2015-03-18T13:49:39Z</time>
      </trkpt>
      <trkpt lat="45.77267" lon="6.64024">
        <ele>1236.39</ele>
        <time>2015-03-18T13:50:09Z</time>
      </trkpt>
      <trkpt lat="45.77267" lon="6.64024">
        <ele>1236.39</ele>
        <time>2015-03-18T13:50:39Z</time>
      </trkpt>
      <trkpt lat="45.77271" lon="6.64037">
        <ele>1236.39</ele>
        <time>2015-03-18T13:51:09Z</time>
      </trkpt>
      <trkpt lat="45.77259" lon="6.64081">
        <ele>1236.39</ele>
        <time>2015-03-18T13:51:39Z</time>
      </trkpt>
      <trkpt lat="45.77254" lon="6.64091">
        <ele>1236.39</ele>
        <time>2015-03-18T13:51:50Z</time>
      </trkpt>
      <trkpt lat="45.7725" lon="6.6407">
        <ele>1237.83</ele>
        <time>2015-03-18T13:55:25Z</time>
      </trkpt>
      <trkpt lat="45.77263" lon="6.64035">
        <ele>1237.83</ele>
        <time>2015-03-18T13:55:55Z</time>
      </trkpt>
      <trkpt lat="45.77262" lon="6.64037">
        <ele>1237.83</ele>
        <time>2015-03-18T13:56:25Z</time>
      </trkpt>
      <trkpt lat="45.77263" lon="6.64021">
        <ele>1235.91</ele>
        <time>2015-03-18T13:56:55Z</time>
      </trkpt>
      <trkpt lat="45.77266" lon="6.64022">
        <ele>1235.91</ele>
        <time>2015-03-18T13:57:25Z</time>
      </trkpt>
      <trkpt lat="45.77268" lon="6.64027">
        <ele>1235.91</ele>
        <time>2015-03-18T13:57:55Z</time>
      </trkpt>
      <trkpt lat="45.77268" lon="6.64028">
        <ele>1235.91</ele>
        <time>2015-03-18T13:58:25Z</time>
      </trkpt>
      <trkpt lat="45.7726" lon="6.64027">
        <ele>1236.39</ele>
        <time>2015-03-18T13:58:55Z</time>
      </trkpt>
      <trkpt lat="45.77262" lon="6.64024">
        <ele>1236.39</ele>
        <time>2015-03-18T13:59:25Z</time>
      </trkpt>
      <trkpt lat="45.77265" lon="6.6403">
        <ele>1236.39</ele>
        <time>2015-03-18T13:59:55Z</time>
      </trkpt>
      <trkpt lat="45.7726" lon="6.64029">
        <ele>1236.39</ele>
        <time>2015-03-18T14:00:25Z</time>
      </trkpt>
      <trkpt lat="45.77265" lon="6.64032">
        <ele>1236.39</ele>
        <time>2015-03-18T14:00:55Z</time>
      </trkpt>
      <trkpt lat="45.77264" lon="6.64011">
        <ele>1236.39</ele>
        <time>2015-03-18T14:01:25Z</time>
      </trkpt>
      <trkpt lat="45.77262" lon="6.64004">
        <ele>1236.39</ele>
        <time>2015-03-18T14:01:55Z</time>
      </trkpt>
      <trkpt lat="45.77261" lon="6.64005">
        <ele>1236.39</ele>
        <time>2015-03-18T14:02:25Z</time>
      </trkpt>
      <trkpt lat="45.77272" lon="6.64002">
        <ele>1236.39</ele>
        <time>2015-03-18T14:02:55Z</time>
      </trkpt>
      <trkpt lat="45.77274" lon="6.64001">
        <ele>1236.39</ele>
        <time>2015-03-18T14:03:25Z</time>
      </trkpt>
      <trkpt lat="45.7727" lon="6.63996">
        <ele>1236.39</ele>
        <time>2015-03-18T14:03:55Z</time>
      </trkpt>
      <trkpt lat="45.77279" lon="6.63995">
        <ele>1236.87</ele>
        <time>2015-03-18T14:04:25Z</time>
      </trkpt>
      <trkpt lat="45.77268" lon="6.64">
        <ele>1236.87</ele>
        <time>2015-03-18T14:04:55Z</time>
      </trkpt>
    </trkseg>
  </trk>
</gpx>